<?xml version="1.0" encoding="UTF-8" standalone="no" ?>
<gpx xmlns="http://www.topografix.com/GPX/1/1" xmlns:xsi="http://www.w3.org/2001/XMLSchema-instance" xsi:schemaLocation="http://www.topografix.com/GPX/1/1 http://www.topografix.com/GPX/1/1/gpx.xsd" version="1.1" creator="VisuGPX - https://www.visugpx.com">
  <metadata>
    <name>Le Tholonet (Zola, Bimont, Roquehautes) le 5 novembre 2025</name>
    <desc><![CDATA[Boucle de 12 km, dénivelé cumulé 400 m au départ du cimetière du Tholonet]]></desc>
  </metadata>
  <trk>
    <name><![CDATA[Le Tholonet (Zola, Bimont, Roquehautes) le 5 novembre 2025]]></name>
    <trkseg>
      <trkpt lat="43.52387" lon="5.51424">
        <ele>207.9</ele>
        <time>2025-11-05T09:17:52.023Z</time>
      </trkpt>
      <trkpt lat="43.52387" lon="5.51428">
        <ele>208.4</ele>
        <time>2025-11-05T09:18:40.023Z</time>
      </trkpt>
      <trkpt lat="43.52388" lon="5.51431">
        <ele>209</ele>
        <time>2025-11-05T09:18:49.023Z</time>
      </trkpt>
      <trkpt lat="43.52388" lon="5.51435">
        <ele>209.5</ele>
        <time>2025-11-05T09:19:12.023Z</time>
      </trkpt>
      <trkpt lat="43.52387" lon="5.51438">
        <ele>210</ele>
        <time>2025-11-05T09:20:32.023Z</time>
      </trkpt>
      <trkpt lat="43.52386" lon="5.51441">
        <ele>210.3</ele>
        <time>2025-11-05T09:20:35.023Z</time>
      </trkpt>
      <trkpt lat="43.52386" lon="5.51445">
        <ele>210.8</ele>
        <time>2025-11-05T09:20:38.022Z</time>
      </trkpt>
      <trkpt lat="43.52385" lon="5.51448">
        <ele>211</ele>
        <time>2025-11-05T09:20:41.022Z</time>
      </trkpt>
      <trkpt lat="43.52385" lon="5.51452">
        <ele>211.2</ele>
        <time>2025-11-05T09:20:44.022Z</time>
      </trkpt>
      <trkpt lat="43.52385" lon="5.51455">
        <ele>211.5</ele>
        <time>2025-11-05T09:21:25.023Z</time>
      </trkpt>
      <trkpt lat="43.52384" lon="5.51458">
        <ele>211.7</ele>
        <time>2025-11-05T09:21:29.023Z</time>
      </trkpt>
      <trkpt lat="43.52382" lon="5.51461">
        <ele>211.8</ele>
        <time>2025-11-05T09:21:32.023Z</time>
      </trkpt>
      <trkpt lat="43.5238" lon="5.51462">
        <ele>211.8</ele>
        <time>2025-11-05T09:21:35.023Z</time>
      </trkpt>
      <trkpt lat="43.52378" lon="5.51464">
        <ele>211.8</ele>
        <time>2025-11-05T09:21:38.022Z</time>
      </trkpt>
      <trkpt lat="43.52375" lon="5.51466">
        <ele>211.9</ele>
        <time>2025-11-05T09:21:41.022Z</time>
      </trkpt>
      <trkpt lat="43.52372" lon="5.51467">
        <ele>211.9</ele>
        <time>2025-11-05T09:21:43.023Z</time>
      </trkpt>
      <trkpt lat="43.52371" lon="5.51471">
        <ele>212.2</ele>
        <time>2025-11-05T09:21:45.023Z</time>
      </trkpt>
      <trkpt lat="43.52372" lon="5.51474">
        <ele>212.5</ele>
        <time>2025-11-05T09:21:47.023Z</time>
      </trkpt>
      <trkpt lat="43.52374" lon="5.51477">
        <ele>212.8</ele>
        <time>2025-11-05T09:21:49.023Z</time>
      </trkpt>
      <trkpt lat="43.52376" lon="5.51479">
        <ele>213</ele>
        <time>2025-11-05T09:21:52.023Z</time>
      </trkpt>
      <trkpt lat="43.52378" lon="5.5148">
        <ele>213.2</ele>
        <time>2025-11-05T09:21:54.023Z</time>
      </trkpt>
      <trkpt lat="43.5238" lon="5.51482">
        <ele>213.5</ele>
        <time>2025-11-05T09:21:56.023Z</time>
      </trkpt>
      <trkpt lat="43.52382" lon="5.51484">
        <ele>213.8</ele>
        <time>2025-11-05T09:21:58.022Z</time>
      </trkpt>
      <trkpt lat="43.52384" lon="5.51487">
        <ele>214.2</ele>
        <time>2025-11-05T09:22:01.022Z</time>
      </trkpt>
      <trkpt lat="43.52386" lon="5.51489">
        <ele>214.5</ele>
        <time>2025-11-05T09:22:03.022Z</time>
      </trkpt>
      <trkpt lat="43.52388" lon="5.51491">
        <ele>215</ele>
        <time>2025-11-05T09:22:06.022Z</time>
      </trkpt>
      <trkpt lat="43.5239" lon="5.51493">
        <ele>215.3</ele>
        <time>2025-11-05T09:22:08.022Z</time>
      </trkpt>
      <trkpt lat="43.52393" lon="5.51495">
        <ele>215.6</ele>
        <time>2025-11-05T09:22:11.023Z</time>
      </trkpt>
      <trkpt lat="43.52395" lon="5.51498">
        <ele>216</ele>
        <time>2025-11-05T09:22:14.023Z</time>
      </trkpt>
      <trkpt lat="43.52397" lon="5.515">
        <ele>216.3</ele>
        <time>2025-11-05T09:22:16.023Z</time>
      </trkpt>
      <trkpt lat="43.52399" lon="5.51502">
        <ele>216.5</ele>
        <time>2025-11-05T09:22:18.023Z</time>
      </trkpt>
      <trkpt lat="43.52401" lon="5.51504">
        <ele>216.9</ele>
        <time>2025-11-05T09:22:20.022Z</time>
      </trkpt>
      <trkpt lat="43.52404" lon="5.51507">
        <ele>217.3</ele>
        <time>2025-11-05T09:22:23.023Z</time>
      </trkpt>
      <trkpt lat="43.52408" lon="5.51509">
        <ele>217.7</ele>
        <time>2025-11-05T09:22:26.022Z</time>
      </trkpt>
      <trkpt lat="43.52411" lon="5.51511">
        <ele>218.2</ele>
        <time>2025-11-05T09:22:29.023Z</time>
      </trkpt>
      <trkpt lat="43.52413" lon="5.51512">
        <ele>218.5</ele>
        <time>2025-11-05T09:22:31.023Z</time>
      </trkpt>
      <trkpt lat="43.52416" lon="5.51514">
        <ele>219</ele>
        <time>2025-11-05T09:22:34.023Z</time>
      </trkpt>
      <trkpt lat="43.52417" lon="5.51517">
        <ele>219.5</ele>
        <time>2025-11-05T09:22:37.022Z</time>
      </trkpt>
      <trkpt lat="43.5242" lon="5.51521">
        <ele>220.3</ele>
        <time>2025-11-05T09:22:40.023Z</time>
      </trkpt>
      <trkpt lat="43.52422" lon="5.51522">
        <ele>220.7</ele>
        <time>2025-11-05T09:22:43.022Z</time>
      </trkpt>
      <trkpt lat="43.52424" lon="5.51523">
        <ele>221.2</ele>
        <time>2025-11-05T09:22:46.022Z</time>
      </trkpt>
      <trkpt lat="43.52426" lon="5.51526">
        <ele>221.8</ele>
        <time>2025-11-05T09:22:50.023Z</time>
      </trkpt>
      <trkpt lat="43.52428" lon="5.51528">
        <ele>222.3</ele>
        <time>2025-11-05T09:22:53.023Z</time>
      </trkpt>
      <trkpt lat="43.5243" lon="5.5153">
        <ele>222.7</ele>
        <time>2025-11-05T09:22:56.022Z</time>
      </trkpt>
      <trkpt lat="43.52433" lon="5.5153">
        <ele>223.1</ele>
        <time>2025-11-05T09:23:00.022Z</time>
      </trkpt>
      <trkpt lat="43.52436" lon="5.51531">
        <ele>223.5</ele>
        <time>2025-11-05T09:23:04.023Z</time>
      </trkpt>
      <trkpt lat="43.52439" lon="5.5153">
        <ele>223.7</ele>
        <time>2025-11-05T09:23:08.023Z</time>
      </trkpt>
      <trkpt lat="43.52442" lon="5.5153">
        <ele>223.9</ele>
        <time>2025-11-05T09:23:12.023Z</time>
      </trkpt>
      <trkpt lat="43.52444" lon="5.51532">
        <ele>224.5</ele>
        <time>2025-11-05T09:23:23.023Z</time>
      </trkpt>
      <trkpt lat="43.52444" lon="5.51536">
        <ele>225.1</ele>
        <time>2025-11-05T09:23:29.022Z</time>
      </trkpt>
      <trkpt lat="43.52447" lon="5.51537">
        <ele>225.8</ele>
        <time>2025-11-05T09:23:36.023Z</time>
      </trkpt>
      <trkpt lat="43.52449" lon="5.51537">
        <ele>226.5</ele>
        <time>2025-11-05T09:23:39.023Z</time>
      </trkpt>
      <trkpt lat="43.52452" lon="5.51538">
        <ele>227.2</ele>
        <time>2025-11-05T09:23:43.022Z</time>
      </trkpt>
      <trkpt lat="43.52455" lon="5.51539">
        <ele>228</ele>
        <time>2025-11-05T09:23:48.023Z</time>
      </trkpt>
      <trkpt lat="43.52457" lon="5.51541">
        <ele>228.8</ele>
        <time>2025-11-05T09:23:51.022Z</time>
      </trkpt>
      <trkpt lat="43.52459" lon="5.51541">
        <ele>229.5</ele>
        <time>2025-11-05T09:23:55.023Z</time>
      </trkpt>
      <trkpt lat="43.52462" lon="5.51542">
        <ele>230.2</ele>
        <time>2025-11-05T09:24:00.023Z</time>
      </trkpt>
      <trkpt lat="43.52466" lon="5.51543">
        <ele>231.1</ele>
        <time>2025-11-05T09:24:06.023Z</time>
      </trkpt>
      <trkpt lat="43.52468" lon="5.51543">
        <ele>231.8</ele>
        <time>2025-11-05T09:24:13.022Z</time>
      </trkpt>
      <trkpt lat="43.52471" lon="5.51543">
        <ele>232.3</ele>
        <time>2025-11-05T09:24:16.023Z</time>
      </trkpt>
      <trkpt lat="43.52473" lon="5.51543">
        <ele>232.8</ele>
        <time>2025-11-05T09:24:19.022Z</time>
      </trkpt>
      <trkpt lat="43.52475" lon="5.51545">
        <ele>233.7</ele>
        <time>2025-11-05T09:24:31.023Z</time>
      </trkpt>
      <trkpt lat="43.52477" lon="5.51547">
        <ele>234.7</ele>
        <time>2025-11-05T09:24:36.023Z</time>
      </trkpt>
      <trkpt lat="43.52478" lon="5.5155">
        <ele>235.1</ele>
        <time>2025-11-05T09:24:41.022Z</time>
      </trkpt>
      <trkpt lat="43.52478" lon="5.51554">
        <ele>235.7</ele>
        <time>2025-11-05T09:24:45.023Z</time>
      </trkpt>
      <trkpt lat="43.52479" lon="5.51558">
        <ele>236.3</ele>
        <time>2025-11-05T09:24:49.022Z</time>
      </trkpt>
      <trkpt lat="43.5248" lon="5.51561">
        <ele>236.8</ele>
        <time>2025-11-05T09:24:51.023Z</time>
      </trkpt>
      <trkpt lat="43.52479" lon="5.51564">
        <ele>236.8</ele>
        <time>2025-11-05T09:24:54.023Z</time>
      </trkpt>
      <trkpt lat="43.52479" lon="5.51568">
        <ele>237.1</ele>
        <time>2025-11-05T09:24:57.022Z</time>
      </trkpt>
      <trkpt lat="43.52479" lon="5.51572">
        <ele>237.2</ele>
        <time>2025-11-05T09:25:01.022Z</time>
      </trkpt>
      <trkpt lat="43.52478" lon="5.51576">
        <ele>237.5</ele>
        <time>2025-11-05T09:25:04.022Z</time>
      </trkpt>
      <trkpt lat="43.52479" lon="5.51579">
        <ele>237.9</ele>
        <time>2025-11-05T09:25:08.022Z</time>
      </trkpt>
      <trkpt lat="43.52479" lon="5.51583">
        <ele>238.3</ele>
        <time>2025-11-05T09:25:12.023Z</time>
      </trkpt>
      <trkpt lat="43.52479" lon="5.51586">
        <ele>238.4</ele>
        <time>2025-11-05T09:25:15.023Z</time>
      </trkpt>
      <trkpt lat="43.52479" lon="5.5159">
        <ele>238.7</ele>
        <time>2025-11-05T09:25:18.022Z</time>
      </trkpt>
      <trkpt lat="43.5248" lon="5.51594">
        <ele>239.3</ele>
        <time>2025-11-05T09:25:20.023Z</time>
      </trkpt>
      <trkpt lat="43.5248" lon="5.51598">
        <ele>239.8</ele>
        <time>2025-11-05T09:25:23.023Z</time>
      </trkpt>
      <trkpt lat="43.5248" lon="5.51602">
        <ele>240.1</ele>
        <time>2025-11-05T09:25:26.022Z</time>
      </trkpt>
      <trkpt lat="43.5248" lon="5.51606">
        <ele>240.2</ele>
        <time>2025-11-05T09:25:29.023Z</time>
      </trkpt>
      <trkpt lat="43.52479" lon="5.5161">
        <ele>240.5</ele>
        <time>2025-11-05T09:25:32.023Z</time>
      </trkpt>
      <trkpt lat="43.5248" lon="5.51613">
        <ele>240.8</ele>
        <time>2025-11-05T09:25:35.022Z</time>
      </trkpt>
      <trkpt lat="43.52479" lon="5.51617">
        <ele>240.9</ele>
        <time>2025-11-05T09:25:38.023Z</time>
      </trkpt>
      <trkpt lat="43.52479" lon="5.51622">
        <ele>241</ele>
        <time>2025-11-05T09:25:41.023Z</time>
      </trkpt>
      <trkpt lat="43.52479" lon="5.51626">
        <ele>241.3</ele>
        <time>2025-11-05T09:25:44.023Z</time>
      </trkpt>
      <trkpt lat="43.52479" lon="5.51629">
        <ele>241.8</ele>
        <time>2025-11-05T09:25:47.022Z</time>
      </trkpt>
      <trkpt lat="43.52479" lon="5.51632">
        <ele>241.8</ele>
        <time>2025-11-05T09:25:50.023Z</time>
      </trkpt>
      <trkpt lat="43.52478" lon="5.51636">
        <ele>241.8</ele>
        <time>2025-11-05T09:25:54.022Z</time>
      </trkpt>
      <trkpt lat="43.5248" lon="5.51638">
        <ele>242.7</ele>
        <time>2025-11-05T09:25:57.023Z</time>
      </trkpt>
      <trkpt lat="43.52481" lon="5.51642">
        <ele>243.2</ele>
        <time>2025-11-05T09:26:01.023Z</time>
      </trkpt>
      <trkpt lat="43.52481" lon="5.51646">
        <ele>243.7</ele>
        <time>2025-11-05T09:26:04.023Z</time>
      </trkpt>
      <trkpt lat="43.5248" lon="5.51649">
        <ele>243.6</ele>
        <time>2025-11-05T09:26:07.023Z</time>
      </trkpt>
      <trkpt lat="43.5248" lon="5.51652">
        <ele>243.9</ele>
        <time>2025-11-05T09:26:11.023Z</time>
      </trkpt>
      <trkpt lat="43.5248" lon="5.51657">
        <ele>244.2</ele>
        <time>2025-11-05T09:26:16.023Z</time>
      </trkpt>
      <trkpt lat="43.52479" lon="5.5166">
        <ele>244.3</ele>
        <time>2025-11-05T09:26:19.023Z</time>
      </trkpt>
      <trkpt lat="43.52478" lon="5.51663">
        <ele>244.2</ele>
        <time>2025-11-05T09:26:22.022Z</time>
      </trkpt>
      <trkpt lat="43.52479" lon="5.51668">
        <ele>244.7</ele>
        <time>2025-11-05T09:26:25.023Z</time>
      </trkpt>
      <trkpt lat="43.52479" lon="5.51671">
        <ele>244.9</ele>
        <time>2025-11-05T09:26:28.023Z</time>
      </trkpt>
      <trkpt lat="43.52479" lon="5.51675">
        <ele>245.4</ele>
        <time>2025-11-05T09:26:32.022Z</time>
      </trkpt>
      <trkpt lat="43.52479" lon="5.51679">
        <ele>245.5</ele>
        <time>2025-11-05T09:26:35.023Z</time>
      </trkpt>
      <trkpt lat="43.52478" lon="5.51682">
        <ele>245.3</ele>
        <time>2025-11-05T09:26:37.022Z</time>
      </trkpt>
      <trkpt lat="43.52477" lon="5.51686">
        <ele>245.3</ele>
        <time>2025-11-05T09:26:40.022Z</time>
      </trkpt>
      <trkpt lat="43.52476" lon="5.5169">
        <ele>245.1</ele>
        <time>2025-11-05T09:26:43.023Z</time>
      </trkpt>
      <trkpt lat="43.52475" lon="5.51693">
        <ele>245.1</ele>
        <time>2025-11-05T09:26:46.023Z</time>
      </trkpt>
      <trkpt lat="43.52475" lon="5.51697">
        <ele>245.4</ele>
        <time>2025-11-05T09:26:49.022Z</time>
      </trkpt>
      <trkpt lat="43.52476" lon="5.51701">
        <ele>245.7</ele>
        <time>2025-11-05T09:26:52.023Z</time>
      </trkpt>
      <trkpt lat="43.52477" lon="5.51704">
        <ele>246.3</ele>
        <time>2025-11-05T09:26:54.023Z</time>
      </trkpt>
      <trkpt lat="43.52477" lon="5.51708">
        <ele>246.6</ele>
        <time>2025-11-05T09:26:58.023Z</time>
      </trkpt>
      <trkpt lat="43.52478" lon="5.51711">
        <ele>246.9</ele>
        <time>2025-11-05T09:27:01.023Z</time>
      </trkpt>
      <trkpt lat="43.52478" lon="5.51715">
        <ele>247.3</ele>
        <time>2025-11-05T09:27:04.022Z</time>
      </trkpt>
      <trkpt lat="43.52479" lon="5.51719">
        <ele>247.6</ele>
        <time>2025-11-05T09:27:09.023Z</time>
      </trkpt>
      <trkpt lat="43.52479" lon="5.51723">
        <ele>247.9</ele>
        <time>2025-11-05T09:27:13.023Z</time>
      </trkpt>
      <trkpt lat="43.5248" lon="5.51727">
        <ele>248.6</ele>
        <time>2025-11-05T09:27:16.022Z</time>
      </trkpt>
      <trkpt lat="43.52481" lon="5.5173">
        <ele>249</ele>
        <time>2025-11-05T09:27:19.022Z</time>
      </trkpt>
      <trkpt lat="43.52484" lon="5.5173">
        <ele>250.3</ele>
        <time>2025-11-05T09:27:23.022Z</time>
      </trkpt>
      <trkpt lat="43.52484" lon="5.51734">
        <ele>250.3</ele>
        <time>2025-11-05T09:27:35.023Z</time>
      </trkpt>
      <trkpt lat="43.52483" lon="5.51736">
        <ele>249.6</ele>
        <time>2025-11-05T09:27:40.022Z</time>
      </trkpt>
      <trkpt lat="43.52482" lon="5.5174">
        <ele>249.5</ele>
        <time>2025-11-05T09:27:44.022Z</time>
      </trkpt>
      <trkpt lat="43.52483" lon="5.51745">
        <ele>249.8</ele>
        <time>2025-11-05T09:27:47.023Z</time>
      </trkpt>
      <trkpt lat="43.52485" lon="5.51747">
        <ele>250.4</ele>
        <time>2025-11-05T09:27:50.023Z</time>
      </trkpt>
      <trkpt lat="43.52487" lon="5.5175">
        <ele>251.2</ele>
        <time>2025-11-05T09:27:54.023Z</time>
      </trkpt>
      <trkpt lat="43.52489" lon="5.51752">
        <ele>251.8</ele>
        <time>2025-11-05T09:28:00.022Z</time>
      </trkpt>
      <trkpt lat="43.5249" lon="5.51755">
        <ele>252</ele>
        <time>2025-11-05T09:28:04.023Z</time>
      </trkpt>
      <trkpt lat="43.52491" lon="5.51758">
        <ele>252.3</ele>
        <time>2025-11-05T09:28:06.023Z</time>
      </trkpt>
      <trkpt lat="43.52493" lon="5.51759">
        <ele>253</ele>
        <time>2025-11-05T09:28:11.023Z</time>
      </trkpt>
      <trkpt lat="43.52494" lon="5.51762">
        <ele>253.2</ele>
        <time>2025-11-05T09:28:16.023Z</time>
      </trkpt>
      <trkpt lat="43.52496" lon="5.51766">
        <ele>253.6</ele>
        <time>2025-11-05T09:28:21.023Z</time>
      </trkpt>
      <trkpt lat="43.52496" lon="5.51769">
        <ele>253.8</ele>
        <time>2025-11-05T09:28:25.023Z</time>
      </trkpt>
      <trkpt lat="43.52498" lon="5.51771">
        <ele>254.5</ele>
        <time>2025-11-05T09:28:30.023Z</time>
      </trkpt>
      <trkpt lat="43.525" lon="5.51772">
        <ele>255.4</ele>
        <time>2025-11-05T09:28:33.023Z</time>
      </trkpt>
      <trkpt lat="43.52501" lon="5.51775">
        <ele>255.9</ele>
        <time>2025-11-05T09:28:41.023Z</time>
      </trkpt>
      <trkpt lat="43.52502" lon="5.51778">
        <ele>255.9</ele>
        <time>2025-11-05T09:28:44.023Z</time>
      </trkpt>
      <trkpt lat="43.52502" lon="5.51782">
        <ele>255.8</ele>
        <time>2025-11-05T09:28:47.023Z</time>
      </trkpt>
      <trkpt lat="43.52503" lon="5.51785">
        <ele>256.5</ele>
        <time>2025-11-05T09:28:52.023Z</time>
      </trkpt>
      <trkpt lat="43.52505" lon="5.51788">
        <ele>257.4</ele>
        <time>2025-11-05T09:28:56.022Z</time>
      </trkpt>
      <trkpt lat="43.52506" lon="5.5179">
        <ele>258.1</ele>
        <time>2025-11-05T09:28:59.022Z</time>
      </trkpt>
      <trkpt lat="43.52508" lon="5.51795">
        <ele>258.9</ele>
        <time>2025-11-05T09:29:07.022Z</time>
      </trkpt>
      <trkpt lat="43.52509" lon="5.51798">
        <ele>259.5</ele>
        <time>2025-11-05T09:29:11.022Z</time>
      </trkpt>
      <trkpt lat="43.5251" lon="5.51801">
        <ele>260.3</ele>
        <time>2025-11-05T09:29:16.023Z</time>
      </trkpt>
      <trkpt lat="43.52513" lon="5.51802">
        <ele>261.4</ele>
        <time>2025-11-05T09:29:21.023Z</time>
      </trkpt>
      <trkpt lat="43.52515" lon="5.51803">
        <ele>262.7</ele>
        <time>2025-11-05T09:29:26.023Z</time>
      </trkpt>
      <trkpt lat="43.52517" lon="5.51805">
        <ele>263.6</ele>
        <time>2025-11-05T09:29:29.023Z</time>
      </trkpt>
      <trkpt lat="43.52519" lon="5.51806">
        <ele>264.6</ele>
        <time>2025-11-05T09:29:32.023Z</time>
      </trkpt>
      <trkpt lat="43.5252" lon="5.51809">
        <ele>265.4</ele>
        <time>2025-11-05T09:29:36.023Z</time>
      </trkpt>
      <trkpt lat="43.5252" lon="5.51812">
        <ele>265.5</ele>
        <time>2025-11-05T09:29:39.022Z</time>
      </trkpt>
      <trkpt lat="43.5252" lon="5.51817">
        <ele>266.3</ele>
        <time>2025-11-05T09:29:46.023Z</time>
      </trkpt>
      <trkpt lat="43.52521" lon="5.5182">
        <ele>266.8</ele>
        <time>2025-11-05T09:29:50.023Z</time>
      </trkpt>
      <trkpt lat="43.52522" lon="5.51824">
        <ele>267.6</ele>
        <time>2025-11-05T09:29:54.023Z</time>
      </trkpt>
      <trkpt lat="43.52522" lon="5.51827">
        <ele>267.9</ele>
        <time>2025-11-05T09:30:04.022Z</time>
      </trkpt>
      <trkpt lat="43.52522" lon="5.5183">
        <ele>268.5</ele>
        <time>2025-11-05T09:30:09.023Z</time>
      </trkpt>
      <trkpt lat="43.52525" lon="5.51832">
        <ele>269.6</ele>
        <time>2025-11-05T09:30:20.023Z</time>
      </trkpt>
      <trkpt lat="43.52528" lon="5.51833">
        <ele>271</ele>
        <time>2025-11-05T09:30:32.022Z</time>
      </trkpt>
      <trkpt lat="43.52531" lon="5.51833">
        <ele>271.6</ele>
        <time>2025-11-05T09:30:36.022Z</time>
      </trkpt>
      <trkpt lat="43.52533" lon="5.51832">
        <ele>271.9</ele>
        <time>2025-11-05T09:30:41.022Z</time>
      </trkpt>
      <trkpt lat="43.52535" lon="5.51829">
        <ele>272.1</ele>
        <time>2025-11-05T09:30:52.022Z</time>
      </trkpt>
      <trkpt lat="43.52538" lon="5.5183">
        <ele>272.6</ele>
        <time>2025-11-05T09:31:05.023Z</time>
      </trkpt>
      <trkpt lat="43.5254" lon="5.51829">
        <ele>273.1</ele>
        <time>2025-11-05T09:31:09.023Z</time>
      </trkpt>
      <trkpt lat="43.52542" lon="5.51827">
        <ele>273.3</ele>
        <time>2025-11-05T09:31:14.023Z</time>
      </trkpt>
      <trkpt lat="43.52543" lon="5.51824">
        <ele>273.4</ele>
        <time>2025-11-05T09:31:17.023Z</time>
      </trkpt>
      <trkpt lat="43.52544" lon="5.51827">
        <ele>273.7</ele>
        <time>2025-11-05T09:31:31.022Z</time>
      </trkpt>
      <trkpt lat="43.52545" lon="5.5183">
        <ele>274.1</ele>
        <time>2025-11-05T09:31:35.022Z</time>
      </trkpt>
      <trkpt lat="43.52548" lon="5.51832">
        <ele>274.6</ele>
        <time>2025-11-05T09:31:39.023Z</time>
      </trkpt>
      <trkpt lat="43.52551" lon="5.51831">
        <ele>275.1</ele>
        <time>2025-11-05T09:31:42.022Z</time>
      </trkpt>
      <trkpt lat="43.52551" lon="5.51835">
        <ele>275.7</ele>
        <time>2025-11-05T09:31:48.023Z</time>
      </trkpt>
      <trkpt lat="43.52553" lon="5.51839">
        <ele>276.8</ele>
        <time>2025-11-05T09:31:51.023Z</time>
      </trkpt>
      <trkpt lat="43.52555" lon="5.51841">
        <ele>277.8</ele>
        <time>2025-11-05T09:31:54.022Z</time>
      </trkpt>
      <trkpt lat="43.52557" lon="5.51843">
        <ele>278</ele>
        <time>2025-11-05T09:31:57.023Z</time>
      </trkpt>
      <trkpt lat="43.52558" lon="5.51846">
        <ele>278.6</ele>
        <time>2025-11-05T09:32:04.023Z</time>
      </trkpt>
      <trkpt lat="43.52559" lon="5.51849">
        <ele>279.2</ele>
        <time>2025-11-05T09:32:07.023Z</time>
      </trkpt>
      <trkpt lat="43.5256" lon="5.51852">
        <ele>279.6</ele>
        <time>2025-11-05T09:32:10.023Z</time>
      </trkpt>
      <trkpt lat="43.52559" lon="5.51856">
        <ele>280.8</ele>
        <time>2025-11-05T09:32:13.022Z</time>
      </trkpt>
      <trkpt lat="43.52558" lon="5.51859">
        <ele>281.9</ele>
        <time>2025-11-05T09:32:15.023Z</time>
      </trkpt>
      <trkpt lat="43.5256" lon="5.51862">
        <ele>282.1</ele>
        <time>2025-11-05T09:32:19.022Z</time>
      </trkpt>
      <trkpt lat="43.52561" lon="5.51865">
        <ele>282.4</ele>
        <time>2025-11-05T09:32:27.022Z</time>
      </trkpt>
      <trkpt lat="43.52563" lon="5.51867">
        <ele>282.3</ele>
        <time>2025-11-05T09:32:31.022Z</time>
      </trkpt>
      <trkpt lat="43.52566" lon="5.5187">
        <ele>282.2</ele>
        <time>2025-11-05T09:34:06.022Z</time>
      </trkpt>
      <trkpt lat="43.52568" lon="5.51873">
        <ele>282.4</ele>
        <time>2025-11-05T09:34:27.023Z</time>
      </trkpt>
      <trkpt lat="43.5257" lon="5.51873">
        <ele>281.6</ele>
        <time>2025-11-05T09:35:27.023Z</time>
      </trkpt>
      <trkpt lat="43.52571" lon="5.51877">
        <ele>282.1</ele>
        <time>2025-11-05T09:36:38.022Z</time>
      </trkpt>
      <trkpt lat="43.52572" lon="5.51881">
        <ele>282.8</ele>
        <time>2025-11-05T09:36:41.023Z</time>
      </trkpt>
      <trkpt lat="43.52572" lon="5.51885">
        <ele>283.5</ele>
        <time>2025-11-05T09:36:44.022Z</time>
      </trkpt>
      <trkpt lat="43.52573" lon="5.5189">
        <ele>284.4</ele>
        <time>2025-11-05T09:36:47.023Z</time>
      </trkpt>
      <trkpt lat="43.52574" lon="5.51894">
        <ele>285.2</ele>
        <time>2025-11-05T09:36:50.023Z</time>
      </trkpt>
      <trkpt lat="43.52574" lon="5.51898">
        <ele>285.8</ele>
        <time>2025-11-05T09:36:53.022Z</time>
      </trkpt>
      <trkpt lat="43.52575" lon="5.51903">
        <ele>286.9</ele>
        <time>2025-11-05T09:36:56.023Z</time>
      </trkpt>
      <trkpt lat="43.52575" lon="5.51907">
        <ele>287.9</ele>
        <time>2025-11-05T09:36:59.022Z</time>
      </trkpt>
      <trkpt lat="43.52575" lon="5.51911">
        <ele>288.7</ele>
        <time>2025-11-05T09:37:02.023Z</time>
      </trkpt>
      <trkpt lat="43.52576" lon="5.51915">
        <ele>289.2</ele>
        <time>2025-11-05T09:37:05.023Z</time>
      </trkpt>
      <trkpt lat="43.52576" lon="5.51918">
        <ele>289.4</ele>
        <time>2025-11-05T09:37:07.022Z</time>
      </trkpt>
      <trkpt lat="43.52578" lon="5.51921">
        <ele>288.9</ele>
        <time>2025-11-05T09:37:09.022Z</time>
      </trkpt>
      <trkpt lat="43.52579" lon="5.51924">
        <ele>288.8</ele>
        <time>2025-11-05T09:37:12.023Z</time>
      </trkpt>
      <trkpt lat="43.52579" lon="5.51927">
        <ele>289</ele>
        <time>2025-11-05T09:37:14.023Z</time>
      </trkpt>
      <trkpt lat="43.5258" lon="5.51931">
        <ele>288.7</ele>
        <time>2025-11-05T09:37:16.022Z</time>
      </trkpt>
      <trkpt lat="43.52581" lon="5.51935">
        <ele>288.2</ele>
        <time>2025-11-05T09:37:18.023Z</time>
      </trkpt>
      <trkpt lat="43.52583" lon="5.51937">
        <ele>287.4</ele>
        <time>2025-11-05T09:37:20.023Z</time>
      </trkpt>
      <trkpt lat="43.52583" lon="5.51941">
        <ele>287.9</ele>
        <time>2025-11-05T09:37:23.023Z</time>
      </trkpt>
      <trkpt lat="43.52585" lon="5.51945">
        <ele>288</ele>
        <time>2025-11-05T09:37:27.023Z</time>
      </trkpt>
      <trkpt lat="43.52587" lon="5.51948">
        <ele>288.4</ele>
        <time>2025-11-05T09:37:30.023Z</time>
      </trkpt>
      <trkpt lat="43.52587" lon="5.51951">
        <ele>288.7</ele>
        <time>2025-11-05T09:37:32.022Z</time>
      </trkpt>
      <trkpt lat="43.52586" lon="5.51954">
        <ele>289.1</ele>
        <time>2025-11-05T09:37:36.022Z</time>
      </trkpt>
      <trkpt lat="43.52585" lon="5.51958">
        <ele>289.5</ele>
        <time>2025-11-05T09:37:40.023Z</time>
      </trkpt>
      <trkpt lat="43.52585" lon="5.51962">
        <ele>289.9</ele>
        <time>2025-11-05T09:37:44.023Z</time>
      </trkpt>
      <trkpt lat="43.52586" lon="5.51965">
        <ele>290.3</ele>
        <time>2025-11-05T09:37:47.023Z</time>
      </trkpt>
      <trkpt lat="43.52585" lon="5.51969">
        <ele>290.6</ele>
        <time>2025-11-05T09:37:49.022Z</time>
      </trkpt>
      <trkpt lat="43.52586" lon="5.51972">
        <ele>290.9</ele>
        <time>2025-11-05T09:37:51.023Z</time>
      </trkpt>
      <trkpt lat="43.52586" lon="5.51976">
        <ele>291.5</ele>
        <time>2025-11-05T09:37:55.023Z</time>
      </trkpt>
      <trkpt lat="43.52586" lon="5.51979">
        <ele>292</ele>
        <time>2025-11-05T09:37:59.023Z</time>
      </trkpt>
      <trkpt lat="43.52588" lon="5.51982">
        <ele>292.3</ele>
        <time>2025-11-05T09:38:02.022Z</time>
      </trkpt>
      <trkpt lat="43.52587" lon="5.51985">
        <ele>292.8</ele>
        <time>2025-11-05T09:38:06.023Z</time>
      </trkpt>
      <trkpt lat="43.5259" lon="5.51986">
        <ele>292.8</ele>
        <time>2025-11-05T09:38:12.023Z</time>
      </trkpt>
      <trkpt lat="43.52588" lon="5.51983">
        <ele>292.5</ele>
        <time>2025-11-05T09:38:54.023Z</time>
      </trkpt>
      <trkpt lat="43.52588" lon="5.51986">
        <ele>292.9</ele>
        <time>2025-11-05T09:39:03.023Z</time>
      </trkpt>
      <trkpt lat="43.52589" lon="5.51989">
        <ele>293.3</ele>
        <time>2025-11-05T09:39:06.023Z</time>
      </trkpt>
      <trkpt lat="43.52589" lon="5.51986">
        <ele>292.8</ele>
        <time>2025-11-05T09:39:48.022Z</time>
      </trkpt>
      <trkpt lat="43.5259" lon="5.51988">
        <ele>293.2</ele>
        <time>2025-11-05T09:39:57.023Z</time>
      </trkpt>
      <trkpt lat="43.52591" lon="5.51991">
        <ele>293.5</ele>
        <time>2025-11-05T09:40:03.022Z</time>
      </trkpt>
      <trkpt lat="43.52594" lon="5.51992">
        <ele>293.6</ele>
        <time>2025-11-05T09:40:33.023Z</time>
      </trkpt>
      <trkpt lat="43.52597" lon="5.51991">
        <ele>293.4</ele>
        <time>2025-11-05T09:40:38.023Z</time>
      </trkpt>
      <trkpt lat="43.526" lon="5.51991">
        <ele>293.3</ele>
        <time>2025-11-05T09:40:42.023Z</time>
      </trkpt>
      <trkpt lat="43.52603" lon="5.5199">
        <ele>293.1</ele>
        <time>2025-11-05T09:40:45.023Z</time>
      </trkpt>
      <trkpt lat="43.52605" lon="5.51989">
        <ele>292.9</ele>
        <time>2025-11-05T09:40:48.023Z</time>
      </trkpt>
      <trkpt lat="43.52608" lon="5.51988">
        <ele>292.8</ele>
        <time>2025-11-05T09:40:51.023Z</time>
      </trkpt>
      <trkpt lat="43.52611" lon="5.51988">
        <ele>292.7</ele>
        <time>2025-11-05T09:40:53.022Z</time>
      </trkpt>
      <trkpt lat="43.52613" lon="5.51988">
        <ele>293.3</ele>
        <time>2025-11-05T09:40:55.023Z</time>
      </trkpt>
      <trkpt lat="43.52616" lon="5.51988">
        <ele>294.1</ele>
        <time>2025-11-05T09:40:57.022Z</time>
      </trkpt>
      <trkpt lat="43.52618" lon="5.51989">
        <ele>294.8</ele>
        <time>2025-11-05T09:40:59.023Z</time>
      </trkpt>
      <trkpt lat="43.52621" lon="5.51989">
        <ele>295.4</ele>
        <time>2025-11-05T09:41:02.023Z</time>
      </trkpt>
      <trkpt lat="43.52623" lon="5.51992">
        <ele>296.3</ele>
        <time>2025-11-05T09:41:06.023Z</time>
      </trkpt>
      <trkpt lat="43.52626" lon="5.51991">
        <ele>296.9</ele>
        <time>2025-11-05T09:41:09.022Z</time>
      </trkpt>
      <trkpt lat="43.52628" lon="5.51987">
        <ele>297.1</ele>
        <time>2025-11-05T09:41:12.023Z</time>
      </trkpt>
      <trkpt lat="43.52629" lon="5.51985">
        <ele>297.3</ele>
        <time>2025-11-05T09:41:15.022Z</time>
      </trkpt>
      <trkpt lat="43.52632" lon="5.51981">
        <ele>297.7</ele>
        <time>2025-11-05T09:41:19.023Z</time>
      </trkpt>
      <trkpt lat="43.52633" lon="5.51976">
        <ele>297.5</ele>
        <time>2025-11-05T09:41:22.023Z</time>
      </trkpt>
      <trkpt lat="43.52635" lon="5.51974">
        <ele>297.9</ele>
        <time>2025-11-05T09:41:25.023Z</time>
      </trkpt>
      <trkpt lat="43.52636" lon="5.51971">
        <ele>298.1</ele>
        <time>2025-11-05T09:41:27.023Z</time>
      </trkpt>
      <trkpt lat="43.52638" lon="5.51967">
        <ele>298.3</ele>
        <time>2025-11-05T09:41:30.023Z</time>
      </trkpt>
      <trkpt lat="43.52638" lon="5.51964">
        <ele>298.1</ele>
        <time>2025-11-05T09:41:32.023Z</time>
      </trkpt>
      <trkpt lat="43.52639" lon="5.51961">
        <ele>298.2</ele>
        <time>2025-11-05T09:41:34.023Z</time>
      </trkpt>
      <trkpt lat="43.52641" lon="5.51957">
        <ele>298.9</ele>
        <time>2025-11-05T09:41:37.022Z</time>
      </trkpt>
      <trkpt lat="43.52642" lon="5.51953">
        <ele>299.4</ele>
        <time>2025-11-05T09:41:40.023Z</time>
      </trkpt>
      <trkpt lat="43.52642" lon="5.5195">
        <ele>299.3</ele>
        <time>2025-11-05T09:41:42.023Z</time>
      </trkpt>
      <trkpt lat="43.52643" lon="5.51946">
        <ele>299.4</ele>
        <time>2025-11-05T09:41:44.023Z</time>
      </trkpt>
      <trkpt lat="43.52644" lon="5.51942">
        <ele>300</ele>
        <time>2025-11-05T09:41:47.023Z</time>
      </trkpt>
      <trkpt lat="43.52644" lon="5.51938">
        <ele>299.5</ele>
        <time>2025-11-05T09:41:50.022Z</time>
      </trkpt>
      <trkpt lat="43.52645" lon="5.51935">
        <ele>300.2</ele>
        <time>2025-11-05T09:41:52.022Z</time>
      </trkpt>
      <trkpt lat="43.52646" lon="5.51931">
        <ele>300.5</ele>
        <time>2025-11-05T09:41:55.023Z</time>
      </trkpt>
      <trkpt lat="43.52648" lon="5.51927">
        <ele>301.5</ele>
        <time>2025-11-05T09:41:58.023Z</time>
      </trkpt>
      <trkpt lat="43.5265" lon="5.51924">
        <ele>302.2</ele>
        <time>2025-11-05T09:42:01.023Z</time>
      </trkpt>
      <trkpt lat="43.5265" lon="5.51921">
        <ele>302.2</ele>
        <time>2025-11-05T09:42:03.023Z</time>
      </trkpt>
      <trkpt lat="43.52651" lon="5.51918">
        <ele>302.5</ele>
        <time>2025-11-05T09:42:05.023Z</time>
      </trkpt>
      <trkpt lat="43.52652" lon="5.51915">
        <ele>302.8</ele>
        <time>2025-11-05T09:42:08.023Z</time>
      </trkpt>
      <trkpt lat="43.52653" lon="5.51912">
        <ele>303</ele>
        <time>2025-11-05T09:42:10.022Z</time>
      </trkpt>
      <trkpt lat="43.52654" lon="5.51908">
        <ele>303</ele>
        <time>2025-11-05T09:42:12.023Z</time>
      </trkpt>
      <trkpt lat="43.52655" lon="5.51904">
        <ele>302.9</ele>
        <time>2025-11-05T09:42:14.022Z</time>
      </trkpt>
      <trkpt lat="43.52655" lon="5.519">
        <ele>302.6</ele>
        <time>2025-11-05T09:42:16.023Z</time>
      </trkpt>
      <trkpt lat="43.52656" lon="5.51896">
        <ele>302.4</ele>
        <time>2025-11-05T09:42:18.023Z</time>
      </trkpt>
      <trkpt lat="43.52658" lon="5.51893">
        <ele>303</ele>
        <time>2025-11-05T09:42:20.022Z</time>
      </trkpt>
      <trkpt lat="43.52659" lon="5.5189">
        <ele>303.2</ele>
        <time>2025-11-05T09:42:22.023Z</time>
      </trkpt>
      <trkpt lat="43.52661" lon="5.51886">
        <ele>303.4</ele>
        <time>2025-11-05T09:42:24.022Z</time>
      </trkpt>
      <trkpt lat="43.52662" lon="5.51882">
        <ele>303.4</ele>
        <time>2025-11-05T09:42:26.023Z</time>
      </trkpt>
      <trkpt lat="43.52662" lon="5.51878">
        <ele>302.9</ele>
        <time>2025-11-05T09:42:29.022Z</time>
      </trkpt>
      <trkpt lat="43.52663" lon="5.51875">
        <ele>303</ele>
        <time>2025-11-05T09:42:31.022Z</time>
      </trkpt>
      <trkpt lat="43.52666" lon="5.51872">
        <ele>304</ele>
        <time>2025-11-05T09:42:34.022Z</time>
      </trkpt>
      <trkpt lat="43.52668" lon="5.51869">
        <ele>304.9</ele>
        <time>2025-11-05T09:42:37.023Z</time>
      </trkpt>
      <trkpt lat="43.52669" lon="5.51865">
        <ele>305.6</ele>
        <time>2025-11-05T09:42:40.023Z</time>
      </trkpt>
      <trkpt lat="43.52671" lon="5.51861">
        <ele>306.7</ele>
        <time>2025-11-05T09:42:42.023Z</time>
      </trkpt>
      <trkpt lat="43.52673" lon="5.51857">
        <ele>307.3</ele>
        <time>2025-11-05T09:42:44.023Z</time>
      </trkpt>
      <trkpt lat="43.52674" lon="5.51853">
        <ele>307.5</ele>
        <time>2025-11-05T09:42:46.023Z</time>
      </trkpt>
      <trkpt lat="43.52675" lon="5.51849">
        <ele>307.9</ele>
        <time>2025-11-05T09:42:48.023Z</time>
      </trkpt>
      <trkpt lat="43.52674" lon="5.51845">
        <ele>306.9</ele>
        <time>2025-11-05T09:42:50.023Z</time>
      </trkpt>
      <trkpt lat="43.52675" lon="5.51841">
        <ele>307</ele>
        <time>2025-11-05T09:42:52.022Z</time>
      </trkpt>
      <trkpt lat="43.52676" lon="5.51837">
        <ele>307.1</ele>
        <time>2025-11-05T09:42:54.023Z</time>
      </trkpt>
      <trkpt lat="43.52676" lon="5.51834">
        <ele>307.2</ele>
        <time>2025-11-05T09:42:56.023Z</time>
      </trkpt>
      <trkpt lat="43.52678" lon="5.51831">
        <ele>307.9</ele>
        <time>2025-11-05T09:42:58.022Z</time>
      </trkpt>
      <trkpt lat="43.5268" lon="5.51829">
        <ele>308.5</ele>
        <time>2025-11-05T09:43:00.023Z</time>
      </trkpt>
      <trkpt lat="43.52681" lon="5.51825">
        <ele>307.6</ele>
        <time>2025-11-05T09:43:02.023Z</time>
      </trkpt>
      <trkpt lat="43.52682" lon="5.51823">
        <ele>307.7</ele>
        <time>2025-11-05T09:43:04.023Z</time>
      </trkpt>
      <trkpt lat="43.52683" lon="5.5182">
        <ele>306.8</ele>
        <time>2025-11-05T09:43:06.023Z</time>
      </trkpt>
      <trkpt lat="43.52684" lon="5.51817">
        <ele>306</ele>
        <time>2025-11-05T09:43:08.023Z</time>
      </trkpt>
      <trkpt lat="43.52687" lon="5.51815">
        <ele>306.9</ele>
        <time>2025-11-05T09:43:10.023Z</time>
      </trkpt>
      <trkpt lat="43.52689" lon="5.51813">
        <ele>307.1</ele>
        <time>2025-11-05T09:43:12.023Z</time>
      </trkpt>
      <trkpt lat="43.52691" lon="5.5181">
        <ele>306.9</ele>
        <time>2025-11-05T09:43:14.023Z</time>
      </trkpt>
      <trkpt lat="43.52693" lon="5.51807">
        <ele>305.8</ele>
        <time>2025-11-05T09:43:16.023Z</time>
      </trkpt>
      <trkpt lat="43.52693" lon="5.51804">
        <ele>304.7</ele>
        <time>2025-11-05T09:43:18.023Z</time>
      </trkpt>
      <trkpt lat="43.52693" lon="5.518">
        <ele>304.5</ele>
        <time>2025-11-05T09:43:21.023Z</time>
      </trkpt>
      <trkpt lat="43.52694" lon="5.51795">
        <ele>304.4</ele>
        <time>2025-11-05T09:43:23.022Z</time>
      </trkpt>
      <trkpt lat="43.52693" lon="5.51792">
        <ele>303.8</ele>
        <time>2025-11-05T09:43:25.022Z</time>
      </trkpt>
      <trkpt lat="43.52693" lon="5.51789">
        <ele>303.5</ele>
        <time>2025-11-05T09:43:27.023Z</time>
      </trkpt>
      <trkpt lat="43.52693" lon="5.51785">
        <ele>302.9</ele>
        <time>2025-11-05T09:43:29.023Z</time>
      </trkpt>
      <trkpt lat="43.52694" lon="5.51781">
        <ele>302.7</ele>
        <time>2025-11-05T09:43:31.023Z</time>
      </trkpt>
      <trkpt lat="43.52694" lon="5.51778">
        <ele>302.9</ele>
        <time>2025-11-05T09:43:33.023Z</time>
      </trkpt>
      <trkpt lat="43.52694" lon="5.51772">
        <ele>302</ele>
        <time>2025-11-05T09:43:36.023Z</time>
      </trkpt>
      <trkpt lat="43.52694" lon="5.51769">
        <ele>302.1</ele>
        <time>2025-11-05T09:43:38.023Z</time>
      </trkpt>
      <trkpt lat="43.52695" lon="5.51765">
        <ele>302.6</ele>
        <time>2025-11-05T09:43:41.023Z</time>
      </trkpt>
      <trkpt lat="43.52696" lon="5.51762">
        <ele>302.6</ele>
        <time>2025-11-05T09:43:43.022Z</time>
      </trkpt>
      <trkpt lat="43.52696" lon="5.51758">
        <ele>302.7</ele>
        <time>2025-11-05T09:43:45.023Z</time>
      </trkpt>
      <trkpt lat="43.52697" lon="5.51754">
        <ele>302.6</ele>
        <time>2025-11-05T09:43:47.022Z</time>
      </trkpt>
      <trkpt lat="43.52697" lon="5.5175">
        <ele>302.5</ele>
        <time>2025-11-05T09:43:49.023Z</time>
      </trkpt>
      <trkpt lat="43.52697" lon="5.51746">
        <ele>302.6</ele>
        <time>2025-11-05T09:43:51.023Z</time>
      </trkpt>
      <trkpt lat="43.52698" lon="5.51743">
        <ele>303</ele>
        <time>2025-11-05T09:43:53.023Z</time>
      </trkpt>
      <trkpt lat="43.52698" lon="5.51739">
        <ele>303.5</ele>
        <time>2025-11-05T09:43:55.022Z</time>
      </trkpt>
      <trkpt lat="43.52699" lon="5.51736">
        <ele>304</ele>
        <time>2025-11-05T09:43:57.023Z</time>
      </trkpt>
      <trkpt lat="43.527" lon="5.51732">
        <ele>304.5</ele>
        <time>2025-11-05T09:43:59.022Z</time>
      </trkpt>
      <trkpt lat="43.52701" lon="5.51729">
        <ele>305.1</ele>
        <time>2025-11-05T09:44:01.022Z</time>
      </trkpt>
      <trkpt lat="43.52702" lon="5.51726">
        <ele>305.5</ele>
        <time>2025-11-05T09:44:03.022Z</time>
      </trkpt>
      <trkpt lat="43.52702" lon="5.51722">
        <ele>305.9</ele>
        <time>2025-11-05T09:44:05.023Z</time>
      </trkpt>
      <trkpt lat="43.52703" lon="5.51718">
        <ele>305.7</ele>
        <time>2025-11-05T09:44:07.022Z</time>
      </trkpt>
      <trkpt lat="43.52703" lon="5.51715">
        <ele>305.3</ele>
        <time>2025-11-05T09:44:09.023Z</time>
      </trkpt>
      <trkpt lat="43.52703" lon="5.51711">
        <ele>304.8</ele>
        <time>2025-11-05T09:44:11.023Z</time>
      </trkpt>
      <trkpt lat="43.52704" lon="5.51707">
        <ele>305</ele>
        <time>2025-11-05T09:44:13.023Z</time>
      </trkpt>
      <trkpt lat="43.52705" lon="5.51703">
        <ele>304.9</ele>
        <time>2025-11-05T09:44:15.022Z</time>
      </trkpt>
      <trkpt lat="43.52705" lon="5.51699">
        <ele>305</ele>
        <time>2025-11-05T09:44:17.022Z</time>
      </trkpt>
      <trkpt lat="43.52705" lon="5.51696">
        <ele>304.6</ele>
        <time>2025-11-05T09:44:19.022Z</time>
      </trkpt>
      <trkpt lat="43.52704" lon="5.51692">
        <ele>303.5</ele>
        <time>2025-11-05T09:44:22.023Z</time>
      </trkpt>
      <trkpt lat="43.52704" lon="5.51689">
        <ele>302.8</ele>
        <time>2025-11-05T09:44:25.023Z</time>
      </trkpt>
      <trkpt lat="43.52704" lon="5.51685">
        <ele>302.4</ele>
        <time>2025-11-05T09:44:27.023Z</time>
      </trkpt>
      <trkpt lat="43.52705" lon="5.51682">
        <ele>302.2</ele>
        <time>2025-11-05T09:44:29.023Z</time>
      </trkpt>
      <trkpt lat="43.52705" lon="5.51678">
        <ele>302</ele>
        <time>2025-11-05T09:44:31.023Z</time>
      </trkpt>
      <trkpt lat="43.52707" lon="5.51675">
        <ele>302.4</ele>
        <time>2025-11-05T09:44:33.023Z</time>
      </trkpt>
      <trkpt lat="43.52708" lon="5.51671">
        <ele>302.7</ele>
        <time>2025-11-05T09:44:36.023Z</time>
      </trkpt>
      <trkpt lat="43.52709" lon="5.51668">
        <ele>302.9</ele>
        <time>2025-11-05T09:44:38.022Z</time>
      </trkpt>
      <trkpt lat="43.52711" lon="5.51664">
        <ele>303.9</ele>
        <time>2025-11-05T09:44:40.022Z</time>
      </trkpt>
      <trkpt lat="43.52712" lon="5.5166">
        <ele>304.4</ele>
        <time>2025-11-05T09:44:42.023Z</time>
      </trkpt>
      <trkpt lat="43.52713" lon="5.51656">
        <ele>304.7</ele>
        <time>2025-11-05T09:44:44.023Z</time>
      </trkpt>
      <trkpt lat="43.52714" lon="5.51653">
        <ele>305</ele>
        <time>2025-11-05T09:44:46.023Z</time>
      </trkpt>
      <trkpt lat="43.52715" lon="5.51649">
        <ele>305.5</ele>
        <time>2025-11-05T09:44:49.023Z</time>
      </trkpt>
      <trkpt lat="43.52715" lon="5.51646">
        <ele>305.2</ele>
        <time>2025-11-05T09:44:51.023Z</time>
      </trkpt>
      <trkpt lat="43.52715" lon="5.51642">
        <ele>305</ele>
        <time>2025-11-05T09:44:53.023Z</time>
      </trkpt>
      <trkpt lat="43.52716" lon="5.51639">
        <ele>305.6</ele>
        <time>2025-11-05T09:44:58.023Z</time>
      </trkpt>
      <trkpt lat="43.52715" lon="5.51635">
        <ele>304.7</ele>
        <time>2025-11-05T09:45:00.022Z</time>
      </trkpt>
      <trkpt lat="43.52715" lon="5.5163">
        <ele>303.8</ele>
        <time>2025-11-05T09:45:02.022Z</time>
      </trkpt>
      <trkpt lat="43.52715" lon="5.51627">
        <ele>303.3</ele>
        <time>2025-11-05T09:45:04.023Z</time>
      </trkpt>
      <trkpt lat="43.52714" lon="5.51623">
        <ele>302.4</ele>
        <time>2025-11-05T09:45:07.023Z</time>
      </trkpt>
      <trkpt lat="43.52714" lon="5.51619">
        <ele>301.8</ele>
        <time>2025-11-05T09:45:09.023Z</time>
      </trkpt>
      <trkpt lat="43.52713" lon="5.51616">
        <ele>300.8</ele>
        <time>2025-11-05T09:45:11.022Z</time>
      </trkpt>
      <trkpt lat="43.52714" lon="5.51612">
        <ele>300.8</ele>
        <time>2025-11-05T09:45:14.022Z</time>
      </trkpt>
      <trkpt lat="43.52715" lon="5.51608">
        <ele>301.3</ele>
        <time>2025-11-05T09:45:16.023Z</time>
      </trkpt>
      <trkpt lat="43.52716" lon="5.51604">
        <ele>301.4</ele>
        <time>2025-11-05T09:45:18.023Z</time>
      </trkpt>
      <trkpt lat="43.52716" lon="5.51601">
        <ele>301.4</ele>
        <time>2025-11-05T09:45:20.023Z</time>
      </trkpt>
      <trkpt lat="43.52716" lon="5.51598">
        <ele>301.4</ele>
        <time>2025-11-05T09:45:22.023Z</time>
      </trkpt>
      <trkpt lat="43.52716" lon="5.51594">
        <ele>301.4</ele>
        <time>2025-11-05T09:45:25.023Z</time>
      </trkpt>
      <trkpt lat="43.52715" lon="5.51591">
        <ele>300.5</ele>
        <time>2025-11-05T09:45:28.023Z</time>
      </trkpt>
      <trkpt lat="43.52715" lon="5.51587">
        <ele>299.9</ele>
        <time>2025-11-05T09:45:30.022Z</time>
      </trkpt>
      <trkpt lat="43.52714" lon="5.51584">
        <ele>299.4</ele>
        <time>2025-11-05T09:45:32.023Z</time>
      </trkpt>
      <trkpt lat="43.52715" lon="5.51579">
        <ele>299.8</ele>
        <time>2025-11-05T09:45:34.022Z</time>
      </trkpt>
      <trkpt lat="43.52715" lon="5.51574">
        <ele>300.1</ele>
        <time>2025-11-05T09:45:36.023Z</time>
      </trkpt>
      <trkpt lat="43.52714" lon="5.51571">
        <ele>299.6</ele>
        <time>2025-11-05T09:45:38.023Z</time>
      </trkpt>
      <trkpt lat="43.52714" lon="5.51568">
        <ele>299.4</ele>
        <time>2025-11-05T09:45:40.023Z</time>
      </trkpt>
      <trkpt lat="43.52714" lon="5.51565">
        <ele>299.4</ele>
        <time>2025-11-05T09:45:42.022Z</time>
      </trkpt>
      <trkpt lat="43.52713" lon="5.51562">
        <ele>298.7</ele>
        <time>2025-11-05T09:45:44.023Z</time>
      </trkpt>
      <trkpt lat="43.52712" lon="5.51558">
        <ele>298.2</ele>
        <time>2025-11-05T09:45:46.022Z</time>
      </trkpt>
      <trkpt lat="43.52712" lon="5.51554">
        <ele>298.2</ele>
        <time>2025-11-05T09:45:49.023Z</time>
      </trkpt>
      <trkpt lat="43.52713" lon="5.5155">
        <ele>298.1</ele>
        <time>2025-11-05T09:45:51.023Z</time>
      </trkpt>
      <trkpt lat="43.52712" lon="5.51547">
        <ele>297.2</ele>
        <time>2025-11-05T09:45:53.023Z</time>
      </trkpt>
      <trkpt lat="43.52712" lon="5.51544">
        <ele>297.2</ele>
        <time>2025-11-05T09:45:56.022Z</time>
      </trkpt>
      <trkpt lat="43.52711" lon="5.51541">
        <ele>296.1</ele>
        <time>2025-11-05T09:45:58.023Z</time>
      </trkpt>
      <trkpt lat="43.52713" lon="5.51538">
        <ele>296.7</ele>
        <time>2025-11-05T09:46:00.023Z</time>
      </trkpt>
      <trkpt lat="43.52713" lon="5.51534">
        <ele>297</ele>
        <time>2025-11-05T09:46:03.022Z</time>
      </trkpt>
      <trkpt lat="43.52715" lon="5.51531">
        <ele>297.4</ele>
        <time>2025-11-05T09:46:06.023Z</time>
      </trkpt>
      <trkpt lat="43.52715" lon="5.51527">
        <ele>297.3</ele>
        <time>2025-11-05T09:46:12.023Z</time>
      </trkpt>
      <trkpt lat="43.52715" lon="5.51524">
        <ele>297</ele>
        <time>2025-11-05T09:46:15.023Z</time>
      </trkpt>
      <trkpt lat="43.52716" lon="5.5152">
        <ele>297.4</ele>
        <time>2025-11-05T09:46:19.023Z</time>
      </trkpt>
      <trkpt lat="43.52716" lon="5.51517">
        <ele>297.6</ele>
        <time>2025-11-05T09:46:23.023Z</time>
      </trkpt>
      <trkpt lat="43.52717" lon="5.51513">
        <ele>297.7</ele>
        <time>2025-11-05T09:46:27.023Z</time>
      </trkpt>
      <trkpt lat="43.52719" lon="5.51509">
        <ele>298.8</ele>
        <time>2025-11-05T09:46:36.023Z</time>
      </trkpt>
      <trkpt lat="43.5272" lon="5.51506">
        <ele>299.7</ele>
        <time>2025-11-05T09:46:38.022Z</time>
      </trkpt>
      <trkpt lat="43.52722" lon="5.51504">
        <ele>300.7</ele>
        <time>2025-11-05T09:46:43.023Z</time>
      </trkpt>
      <trkpt lat="43.52721" lon="5.51501">
        <ele>299.9</ele>
        <time>2025-11-05T09:46:48.023Z</time>
      </trkpt>
      <trkpt lat="43.52722" lon="5.51498">
        <ele>300.4</ele>
        <time>2025-11-05T09:46:52.022Z</time>
      </trkpt>
      <trkpt lat="43.52724" lon="5.51495">
        <ele>300</ele>
        <time>2025-11-05T09:46:56.023Z</time>
      </trkpt>
      <trkpt lat="43.52726" lon="5.51493">
        <ele>299.4</ele>
        <time>2025-11-05T09:47:01.023Z</time>
      </trkpt>
      <trkpt lat="43.52729" lon="5.51492">
        <ele>298.7</ele>
        <time>2025-11-05T09:47:08.023Z</time>
      </trkpt>
      <trkpt lat="43.52732" lon="5.51492">
        <ele>298.2</ele>
        <time>2025-11-05T09:47:12.022Z</time>
      </trkpt>
      <trkpt lat="43.52734" lon="5.51493">
        <ele>297.7</ele>
        <time>2025-11-05T09:47:18.022Z</time>
      </trkpt>
      <trkpt lat="43.52736" lon="5.51491">
        <ele>297.2</ele>
        <time>2025-11-05T09:47:21.023Z</time>
      </trkpt>
      <trkpt lat="43.52737" lon="5.51488">
        <ele>296.9</ele>
        <time>2025-11-05T09:47:24.023Z</time>
      </trkpt>
      <trkpt lat="43.52738" lon="5.51485">
        <ele>296.6</ele>
        <time>2025-11-05T09:47:26.023Z</time>
      </trkpt>
      <trkpt lat="43.52741" lon="5.51484">
        <ele>296.2</ele>
        <time>2025-11-05T09:47:29.023Z</time>
      </trkpt>
      <trkpt lat="43.52743" lon="5.51481">
        <ele>295.8</ele>
        <time>2025-11-05T09:47:34.023Z</time>
      </trkpt>
      <trkpt lat="43.52746" lon="5.5148">
        <ele>295.4</ele>
        <time>2025-11-05T09:47:37.023Z</time>
      </trkpt>
      <trkpt lat="43.52749" lon="5.51479">
        <ele>294.9</ele>
        <time>2025-11-05T09:47:40.023Z</time>
      </trkpt>
      <trkpt lat="43.52752" lon="5.51478">
        <ele>294.5</ele>
        <time>2025-11-05T09:47:42.023Z</time>
      </trkpt>
      <trkpt lat="43.52754" lon="5.51475">
        <ele>294.1</ele>
        <time>2025-11-05T09:47:45.023Z</time>
      </trkpt>
      <trkpt lat="43.52755" lon="5.51472">
        <ele>294</ele>
        <time>2025-11-05T09:47:49.022Z</time>
      </trkpt>
      <trkpt lat="43.52753" lon="5.51475">
        <ele>294.3</ele>
        <time>2025-11-05T09:50:57.023Z</time>
      </trkpt>
      <trkpt lat="43.52751" lon="5.51474">
        <ele>294.8</ele>
        <time>2025-11-05T09:51:00.023Z</time>
      </trkpt>
      <trkpt lat="43.52748" lon="5.51476">
        <ele>295.2</ele>
        <time>2025-11-05T09:51:03.023Z</time>
      </trkpt>
      <trkpt lat="43.52745" lon="5.51478">
        <ele>295.5</ele>
        <time>2025-11-05T09:51:06.023Z</time>
      </trkpt>
      <trkpt lat="43.52743" lon="5.5148">
        <ele>295.7</ele>
        <time>2025-11-05T09:51:09.022Z</time>
      </trkpt>
      <trkpt lat="43.52741" lon="5.51483">
        <ele>296.1</ele>
        <time>2025-11-05T09:51:13.023Z</time>
      </trkpt>
      <trkpt lat="43.5274" lon="5.51486">
        <ele>296.4</ele>
        <time>2025-11-05T09:51:16.022Z</time>
      </trkpt>
      <trkpt lat="43.52739" lon="5.51489">
        <ele>296.6</ele>
        <time>2025-11-05T09:51:19.023Z</time>
      </trkpt>
      <trkpt lat="43.52737" lon="5.51492">
        <ele>297</ele>
        <time>2025-11-05T09:51:23.022Z</time>
      </trkpt>
      <trkpt lat="43.5274" lon="5.5149">
        <ele>296.4</ele>
        <time>2025-11-05T09:53:52.023Z</time>
      </trkpt>
      <trkpt lat="43.52742" lon="5.51487">
        <ele>296</ele>
        <time>2025-11-05T09:53:56.023Z</time>
      </trkpt>
      <trkpt lat="43.52744" lon="5.51486">
        <ele>295.6</ele>
        <time>2025-11-05T09:53:59.023Z</time>
      </trkpt>
      <trkpt lat="43.52746" lon="5.51484">
        <ele>295.2</ele>
        <time>2025-11-05T09:54:02.023Z</time>
      </trkpt>
      <trkpt lat="43.52748" lon="5.51482">
        <ele>294.9</ele>
        <time>2025-11-05T09:54:04.023Z</time>
      </trkpt>
      <trkpt lat="43.5275" lon="5.51478">
        <ele>294.7</ele>
        <time>2025-11-05T09:54:09.022Z</time>
      </trkpt>
      <trkpt lat="43.52752" lon="5.51475">
        <ele>294.4</ele>
        <time>2025-11-05T09:54:27.023Z</time>
      </trkpt>
      <trkpt lat="43.52755" lon="5.51475">
        <ele>293.9</ele>
        <time>2025-11-05T09:54:30.023Z</time>
      </trkpt>
      <trkpt lat="43.52757" lon="5.51477">
        <ele>293.5</ele>
        <time>2025-11-05T09:54:38.022Z</time>
      </trkpt>
      <trkpt lat="43.52759" lon="5.51477">
        <ele>292.9</ele>
        <time>2025-11-05T09:54:41.023Z</time>
      </trkpt>
      <trkpt lat="43.52762" lon="5.51474">
        <ele>292.5</ele>
        <time>2025-11-05T09:54:44.022Z</time>
      </trkpt>
      <trkpt lat="43.52764" lon="5.51473">
        <ele>291.9</ele>
        <time>2025-11-05T09:54:47.023Z</time>
      </trkpt>
      <trkpt lat="43.52768" lon="5.51471">
        <ele>291.4</ele>
        <time>2025-11-05T09:54:50.023Z</time>
      </trkpt>
      <trkpt lat="43.5277" lon="5.5147">
        <ele>291</ele>
        <time>2025-11-05T09:54:52.023Z</time>
      </trkpt>
      <trkpt lat="43.52773" lon="5.5147">
        <ele>290.4</ele>
        <time>2025-11-05T09:54:54.023Z</time>
      </trkpt>
      <trkpt lat="43.52776" lon="5.51468">
        <ele>289.9</ele>
        <time>2025-11-05T09:54:56.023Z</time>
      </trkpt>
      <trkpt lat="43.52779" lon="5.51466">
        <ele>289.6</ele>
        <time>2025-11-05T09:54:58.023Z</time>
      </trkpt>
      <trkpt lat="43.52782" lon="5.51465">
        <ele>289.4</ele>
        <time>2025-11-05T09:55:00.023Z</time>
      </trkpt>
      <trkpt lat="43.52784" lon="5.51463">
        <ele>289.2</ele>
        <time>2025-11-05T09:55:02.023Z</time>
      </trkpt>
      <trkpt lat="43.52786" lon="5.51462">
        <ele>289.1</ele>
        <time>2025-11-05T09:55:04.023Z</time>
      </trkpt>
      <trkpt lat="43.52789" lon="5.51461">
        <ele>288.6</ele>
        <time>2025-11-05T09:55:07.023Z</time>
      </trkpt>
      <trkpt lat="43.52791" lon="5.5146">
        <ele>288.5</ele>
        <time>2025-11-05T09:55:09.023Z</time>
      </trkpt>
      <trkpt lat="43.52794" lon="5.51458">
        <ele>288.3</ele>
        <time>2025-11-05T09:55:11.023Z</time>
      </trkpt>
      <trkpt lat="43.52796" lon="5.51456">
        <ele>288.1</ele>
        <time>2025-11-05T09:55:13.023Z</time>
      </trkpt>
      <trkpt lat="43.52798" lon="5.51456">
        <ele>287.6</ele>
        <time>2025-11-05T09:55:16.023Z</time>
      </trkpt>
      <trkpt lat="43.52801" lon="5.51456">
        <ele>287.3</ele>
        <time>2025-11-05T09:55:18.023Z</time>
      </trkpt>
      <trkpt lat="43.52803" lon="5.51454">
        <ele>287.1</ele>
        <time>2025-11-05T09:55:21.023Z</time>
      </trkpt>
      <trkpt lat="43.52806" lon="5.51452">
        <ele>286.9</ele>
        <time>2025-11-05T09:55:24.023Z</time>
      </trkpt>
      <trkpt lat="43.52809" lon="5.51451">
        <ele>286.7</ele>
        <time>2025-11-05T09:55:27.022Z</time>
      </trkpt>
      <trkpt lat="43.52811" lon="5.5145">
        <ele>286.4</ele>
        <time>2025-11-05T09:55:29.022Z</time>
      </trkpt>
      <trkpt lat="43.52813" lon="5.51449">
        <ele>286.5</ele>
        <time>2025-11-05T09:55:32.023Z</time>
      </trkpt>
      <trkpt lat="43.52816" lon="5.51446">
        <ele>286.5</ele>
        <time>2025-11-05T09:55:35.023Z</time>
      </trkpt>
      <trkpt lat="43.52819" lon="5.51447">
        <ele>286.1</ele>
        <time>2025-11-05T09:55:37.023Z</time>
      </trkpt>
      <trkpt lat="43.52822" lon="5.51446">
        <ele>285.9</ele>
        <time>2025-11-05T09:55:40.023Z</time>
      </trkpt>
      <trkpt lat="43.52825" lon="5.51445">
        <ele>285.8</ele>
        <time>2025-11-05T09:55:42.023Z</time>
      </trkpt>
      <trkpt lat="43.52827" lon="5.51444">
        <ele>285.7</ele>
        <time>2025-11-05T09:55:45.023Z</time>
      </trkpt>
      <trkpt lat="43.5283" lon="5.51444">
        <ele>285.5</ele>
        <time>2025-11-05T09:55:48.022Z</time>
      </trkpt>
      <trkpt lat="43.52832" lon="5.51441">
        <ele>285.6</ele>
        <time>2025-11-05T09:55:51.023Z</time>
      </trkpt>
      <trkpt lat="43.52836" lon="5.51441">
        <ele>285.3</ele>
        <time>2025-11-05T09:55:55.023Z</time>
      </trkpt>
      <trkpt lat="43.52839" lon="5.51442">
        <ele>285</ele>
        <time>2025-11-05T09:55:58.023Z</time>
      </trkpt>
      <trkpt lat="43.52842" lon="5.51441">
        <ele>284.8</ele>
        <time>2025-11-05T09:56:01.023Z</time>
      </trkpt>
      <trkpt lat="43.52844" lon="5.51441">
        <ele>284.6</ele>
        <time>2025-11-05T09:56:04.023Z</time>
      </trkpt>
      <trkpt lat="43.52847" lon="5.51442">
        <ele>284.3</ele>
        <time>2025-11-05T09:56:07.023Z</time>
      </trkpt>
      <trkpt lat="43.52849" lon="5.51442">
        <ele>284.2</ele>
        <time>2025-11-05T09:56:09.023Z</time>
      </trkpt>
      <trkpt lat="43.52852" lon="5.51441">
        <ele>284.1</ele>
        <time>2025-11-05T09:56:11.023Z</time>
      </trkpt>
      <trkpt lat="43.52855" lon="5.51441">
        <ele>283.9</ele>
        <time>2025-11-05T09:56:14.023Z</time>
      </trkpt>
      <trkpt lat="43.52858" lon="5.51441">
        <ele>283.6</ele>
        <time>2025-11-05T09:56:16.023Z</time>
      </trkpt>
      <trkpt lat="43.5286" lon="5.51441">
        <ele>283.5</ele>
        <time>2025-11-05T09:56:18.023Z</time>
      </trkpt>
      <trkpt lat="43.52863" lon="5.5144">
        <ele>283.1</ele>
        <time>2025-11-05T09:56:21.023Z</time>
      </trkpt>
      <trkpt lat="43.52866" lon="5.5144">
        <ele>282.6</ele>
        <time>2025-11-05T09:56:24.023Z</time>
      </trkpt>
      <trkpt lat="43.52868" lon="5.51435">
        <ele>282.8</ele>
        <time>2025-11-05T09:56:28.023Z</time>
      </trkpt>
      <trkpt lat="43.52871" lon="5.51434">
        <ele>282.2</ele>
        <time>2025-11-05T09:56:30.023Z</time>
      </trkpt>
      <trkpt lat="43.52873" lon="5.51434">
        <ele>281.7</ele>
        <time>2025-11-05T09:56:31.023Z</time>
      </trkpt>
      <trkpt lat="43.52877" lon="5.51435">
        <ele>281</ele>
        <time>2025-11-05T09:56:34.023Z</time>
      </trkpt>
      <trkpt lat="43.52879" lon="5.51436">
        <ele>280.4</ele>
        <time>2025-11-05T09:56:36.023Z</time>
      </trkpt>
      <trkpt lat="43.52881" lon="5.51434">
        <ele>280.2</ele>
        <time>2025-11-05T09:56:38.023Z</time>
      </trkpt>
      <trkpt lat="43.52884" lon="5.51432">
        <ele>279.9</ele>
        <time>2025-11-05T09:56:41.022Z</time>
      </trkpt>
      <trkpt lat="43.52887" lon="5.5143">
        <ele>279.5</ele>
        <time>2025-11-05T09:56:44.023Z</time>
      </trkpt>
      <trkpt lat="43.52889" lon="5.51428">
        <ele>279.2</ele>
        <time>2025-11-05T09:56:47.023Z</time>
      </trkpt>
      <trkpt lat="43.52891" lon="5.51425">
        <ele>279</ele>
        <time>2025-11-05T09:56:51.023Z</time>
      </trkpt>
      <trkpt lat="43.52894" lon="5.51422">
        <ele>278.7</ele>
        <time>2025-11-05T09:56:54.023Z</time>
      </trkpt>
      <trkpt lat="43.52896" lon="5.5142">
        <ele>278.4</ele>
        <time>2025-11-05T09:56:57.023Z</time>
      </trkpt>
      <trkpt lat="43.52899" lon="5.51418">
        <ele>278</ele>
        <time>2025-11-05T09:57:00.023Z</time>
      </trkpt>
      <trkpt lat="43.52901" lon="5.51417">
        <ele>277.8</ele>
        <time>2025-11-05T09:57:02.023Z</time>
      </trkpt>
      <trkpt lat="43.52904" lon="5.51416">
        <ele>277.2</ele>
        <time>2025-11-05T09:57:08.023Z</time>
      </trkpt>
      <trkpt lat="43.52907" lon="5.51415">
        <ele>276.6</ele>
        <time>2025-11-05T09:57:10.023Z</time>
      </trkpt>
      <trkpt lat="43.52908" lon="5.51412">
        <ele>276.2</ele>
        <time>2025-11-05T09:57:24.023Z</time>
      </trkpt>
      <trkpt lat="43.5291" lon="5.5141">
        <ele>275.8</ele>
        <time>2025-11-05T09:57:35.023Z</time>
      </trkpt>
      <trkpt lat="43.52913" lon="5.51409">
        <ele>275.3</ele>
        <time>2025-11-05T09:57:38.023Z</time>
      </trkpt>
      <trkpt lat="43.52915" lon="5.51409">
        <ele>274.9</ele>
        <time>2025-11-05T09:57:41.023Z</time>
      </trkpt>
      <trkpt lat="43.52918" lon="5.51409">
        <ele>274.5</ele>
        <time>2025-11-05T09:57:45.023Z</time>
      </trkpt>
      <trkpt lat="43.52917" lon="5.51406">
        <ele>274.6</ele>
        <time>2025-11-05T09:57:52.023Z</time>
      </trkpt>
      <trkpt lat="43.52915" lon="5.51406">
        <ele>274.9</ele>
        <time>2025-11-05T09:57:58.022Z</time>
      </trkpt>
      <trkpt lat="43.52911" lon="5.51409">
        <ele>275.6</ele>
        <time>2025-11-05T09:58:05.023Z</time>
      </trkpt>
      <trkpt lat="43.52908" lon="5.5141">
        <ele>276</ele>
        <time>2025-11-05T09:58:07.023Z</time>
      </trkpt>
      <trkpt lat="43.52906" lon="5.51409">
        <ele>276.4</ele>
        <time>2025-11-05T09:58:10.023Z</time>
      </trkpt>
      <trkpt lat="43.52905" lon="5.51412">
        <ele>276.8</ele>
        <time>2025-11-05T09:58:16.023Z</time>
      </trkpt>
      <trkpt lat="43.52907" lon="5.51412">
        <ele>276.3</ele>
        <time>2025-11-05T09:59:00.023Z</time>
      </trkpt>
      <trkpt lat="43.5291" lon="5.51411">
        <ele>275.9</ele>
        <time>2025-11-05T09:59:03.023Z</time>
      </trkpt>
      <trkpt lat="43.52912" lon="5.5141">
        <ele>275.5</ele>
        <time>2025-11-05T09:59:06.022Z</time>
      </trkpt>
      <trkpt lat="43.52911" lon="5.51406">
        <ele>275.4</ele>
        <time>2025-11-05T09:59:38.023Z</time>
      </trkpt>
      <trkpt lat="43.52915" lon="5.51408">
        <ele>275</ele>
        <time>2025-11-05T09:59:52.023Z</time>
      </trkpt>
      <trkpt lat="43.52917" lon="5.51408">
        <ele>274.6</ele>
        <time>2025-11-05T09:59:55.023Z</time>
      </trkpt>
      <trkpt lat="43.5292" lon="5.51407">
        <ele>274.2</ele>
        <time>2025-11-05T09:59:57.023Z</time>
      </trkpt>
      <trkpt lat="43.52923" lon="5.51407">
        <ele>273.8</ele>
        <time>2025-11-05T10:00:00.023Z</time>
      </trkpt>
      <trkpt lat="43.52926" lon="5.51406">
        <ele>273.4</ele>
        <time>2025-11-05T10:00:03.023Z</time>
      </trkpt>
      <trkpt lat="43.52928" lon="5.51405">
        <ele>273</ele>
        <time>2025-11-05T10:00:05.023Z</time>
      </trkpt>
      <trkpt lat="43.52931" lon="5.51406">
        <ele>272.6</ele>
        <time>2025-11-05T10:00:08.022Z</time>
      </trkpt>
      <trkpt lat="43.52934" lon="5.51406">
        <ele>272.3</ele>
        <time>2025-11-05T10:00:10.023Z</time>
      </trkpt>
      <trkpt lat="43.52937" lon="5.51407">
        <ele>271.8</ele>
        <time>2025-11-05T10:00:14.023Z</time>
      </trkpt>
      <trkpt lat="43.5294" lon="5.51406">
        <ele>271.5</ele>
        <time>2025-11-05T10:00:16.023Z</time>
      </trkpt>
      <trkpt lat="43.52943" lon="5.51405">
        <ele>271.1</ele>
        <time>2025-11-05T10:00:18.023Z</time>
      </trkpt>
      <trkpt lat="43.52945" lon="5.51405">
        <ele>270.8</ele>
        <time>2025-11-05T10:00:20.023Z</time>
      </trkpt>
      <trkpt lat="43.52948" lon="5.51404">
        <ele>270.7</ele>
        <time>2025-11-05T10:00:24.023Z</time>
      </trkpt>
      <trkpt lat="43.5295" lon="5.51403">
        <ele>270.5</ele>
        <time>2025-11-05T10:00:27.023Z</time>
      </trkpt>
      <trkpt lat="43.52953" lon="5.51403">
        <ele>270.3</ele>
        <time>2025-11-05T10:00:29.023Z</time>
      </trkpt>
      <trkpt lat="43.52955" lon="5.51402">
        <ele>270.3</ele>
        <time>2025-11-05T10:00:31.023Z</time>
      </trkpt>
      <trkpt lat="43.52957" lon="5.51402">
        <ele>270.2</ele>
        <time>2025-11-05T10:00:33.023Z</time>
      </trkpt>
      <trkpt lat="43.5296" lon="5.51402">
        <ele>270</ele>
        <time>2025-11-05T10:00:35.023Z</time>
      </trkpt>
      <trkpt lat="43.52963" lon="5.51401">
        <ele>269.8</ele>
        <time>2025-11-05T10:00:37.022Z</time>
      </trkpt>
      <trkpt lat="43.52966" lon="5.51401">
        <ele>269.7</ele>
        <time>2025-11-05T10:00:39.023Z</time>
      </trkpt>
      <trkpt lat="43.52969" lon="5.51399">
        <ele>269.8</ele>
        <time>2025-11-05T10:00:41.023Z</time>
      </trkpt>
      <trkpt lat="43.52971" lon="5.51398">
        <ele>269.8</ele>
        <time>2025-11-05T10:00:43.023Z</time>
      </trkpt>
      <trkpt lat="43.52974" lon="5.51397">
        <ele>269.9</ele>
        <time>2025-11-05T10:00:45.023Z</time>
      </trkpt>
      <trkpt lat="43.52976" lon="5.51396">
        <ele>270.1</ele>
        <time>2025-11-05T10:00:47.023Z</time>
      </trkpt>
      <trkpt lat="43.52978" lon="5.51394">
        <ele>270.5</ele>
        <time>2025-11-05T10:00:49.023Z</time>
      </trkpt>
      <trkpt lat="43.52981" lon="5.51392">
        <ele>270.9</ele>
        <time>2025-11-05T10:00:51.023Z</time>
      </trkpt>
      <trkpt lat="43.52983" lon="5.51392">
        <ele>271.1</ele>
        <time>2025-11-05T10:00:53.023Z</time>
      </trkpt>
      <trkpt lat="43.52986" lon="5.51392">
        <ele>271.3</ele>
        <time>2025-11-05T10:00:56.023Z</time>
      </trkpt>
      <trkpt lat="43.52988" lon="5.51392">
        <ele>271.5</ele>
        <time>2025-11-05T10:00:59.023Z</time>
      </trkpt>
      <trkpt lat="43.52991" lon="5.51391">
        <ele>271.8</ele>
        <time>2025-11-05T10:01:02.023Z</time>
      </trkpt>
      <trkpt lat="43.52994" lon="5.51391">
        <ele>272.1</ele>
        <time>2025-11-05T10:01:04.023Z</time>
      </trkpt>
      <trkpt lat="43.52997" lon="5.5139">
        <ele>272.5</ele>
        <time>2025-11-05T10:01:06.023Z</time>
      </trkpt>
      <trkpt lat="43.53" lon="5.51387">
        <ele>272.7</ele>
        <time>2025-11-05T10:01:09.023Z</time>
      </trkpt>
      <trkpt lat="43.53003" lon="5.51385">
        <ele>272.6</ele>
        <time>2025-11-05T10:01:12.023Z</time>
      </trkpt>
      <trkpt lat="43.53006" lon="5.51384">
        <ele>272.7</ele>
        <time>2025-11-05T10:01:15.023Z</time>
      </trkpt>
      <trkpt lat="43.53008" lon="5.51381">
        <ele>272.9</ele>
        <time>2025-11-05T10:01:19.023Z</time>
      </trkpt>
      <trkpt lat="43.5301" lon="5.51379">
        <ele>273.1</ele>
        <time>2025-11-05T10:01:22.023Z</time>
      </trkpt>
      <trkpt lat="43.53013" lon="5.51377">
        <ele>273.6</ele>
        <time>2025-11-05T10:01:26.023Z</time>
      </trkpt>
      <trkpt lat="43.53015" lon="5.51375">
        <ele>274.1</ele>
        <time>2025-11-05T10:01:29.023Z</time>
      </trkpt>
      <trkpt lat="43.53018" lon="5.51374">
        <ele>275</ele>
        <time>2025-11-05T10:01:32.023Z</time>
      </trkpt>
      <trkpt lat="43.53021" lon="5.51373">
        <ele>275.8</ele>
        <time>2025-11-05T10:01:35.023Z</time>
      </trkpt>
      <trkpt lat="43.53023" lon="5.51374">
        <ele>276.3</ele>
        <time>2025-11-05T10:01:38.023Z</time>
      </trkpt>
      <trkpt lat="43.53027" lon="5.51374">
        <ele>277.1</ele>
        <time>2025-11-05T10:01:41.023Z</time>
      </trkpt>
      <trkpt lat="43.5303" lon="5.51375">
        <ele>277.2</ele>
        <time>2025-11-05T10:01:44.023Z</time>
      </trkpt>
      <trkpt lat="43.53033" lon="5.51374">
        <ele>277.5</ele>
        <time>2025-11-05T10:01:47.023Z</time>
      </trkpt>
      <trkpt lat="43.53035" lon="5.51374">
        <ele>277.6</ele>
        <time>2025-11-05T10:01:49.023Z</time>
      </trkpt>
      <trkpt lat="43.53037" lon="5.51374">
        <ele>277.6</ele>
        <time>2025-11-05T10:01:51.023Z</time>
      </trkpt>
      <trkpt lat="43.5304" lon="5.51374">
        <ele>277.7</ele>
        <time>2025-11-05T10:01:55.023Z</time>
      </trkpt>
      <trkpt lat="43.53043" lon="5.51375">
        <ele>277.4</ele>
        <time>2025-11-05T10:01:58.023Z</time>
      </trkpt>
      <trkpt lat="43.53045" lon="5.51375">
        <ele>277.4</ele>
        <time>2025-11-05T10:02:00.023Z</time>
      </trkpt>
      <trkpt lat="43.53048" lon="5.51375">
        <ele>277.3</ele>
        <time>2025-11-05T10:02:03.023Z</time>
      </trkpt>
      <trkpt lat="43.5305" lon="5.51376">
        <ele>277.1</ele>
        <time>2025-11-05T10:02:07.023Z</time>
      </trkpt>
      <trkpt lat="43.53053" lon="5.51376">
        <ele>276.8</ele>
        <time>2025-11-05T10:02:11.022Z</time>
      </trkpt>
      <trkpt lat="43.53056" lon="5.51375">
        <ele>277.3</ele>
        <time>2025-11-05T10:02:15.023Z</time>
      </trkpt>
      <trkpt lat="43.53058" lon="5.51375">
        <ele>278.1</ele>
        <time>2025-11-05T10:02:18.023Z</time>
      </trkpt>
      <trkpt lat="43.53061" lon="5.51375">
        <ele>278.9</ele>
        <time>2025-11-05T10:02:21.023Z</time>
      </trkpt>
      <trkpt lat="43.53064" lon="5.51374">
        <ele>279.9</ele>
        <time>2025-11-05T10:02:25.023Z</time>
      </trkpt>
      <trkpt lat="43.53067" lon="5.51373">
        <ele>280.8</ele>
        <time>2025-11-05T10:02:29.023Z</time>
      </trkpt>
      <trkpt lat="43.5307" lon="5.51374">
        <ele>281.2</ele>
        <time>2025-11-05T10:02:32.023Z</time>
      </trkpt>
      <trkpt lat="43.53072" lon="5.51373">
        <ele>282</ele>
        <time>2025-11-05T10:02:37.023Z</time>
      </trkpt>
      <trkpt lat="43.53075" lon="5.51373">
        <ele>282.4</ele>
        <time>2025-11-05T10:02:40.023Z</time>
      </trkpt>
      <trkpt lat="43.53078" lon="5.51372">
        <ele>283.2</ele>
        <time>2025-11-05T10:02:42.023Z</time>
      </trkpt>
      <trkpt lat="43.53081" lon="5.51372">
        <ele>284</ele>
        <time>2025-11-05T10:02:45.023Z</time>
      </trkpt>
      <trkpt lat="43.53083" lon="5.51372">
        <ele>284.5</ele>
        <time>2025-11-05T10:02:48.023Z</time>
      </trkpt>
      <trkpt lat="43.53085" lon="5.51372">
        <ele>284.5</ele>
        <time>2025-11-05T10:02:50.023Z</time>
      </trkpt>
      <trkpt lat="43.53088" lon="5.51371">
        <ele>284.8</ele>
        <time>2025-11-05T10:02:54.023Z</time>
      </trkpt>
      <trkpt lat="43.53092" lon="5.51372">
        <ele>284.6</ele>
        <time>2025-11-05T10:02:58.023Z</time>
      </trkpt>
      <trkpt lat="43.53094" lon="5.51373">
        <ele>284.3</ele>
        <time>2025-11-05T10:03:00.023Z</time>
      </trkpt>
      <trkpt lat="43.53097" lon="5.51373">
        <ele>284.2</ele>
        <time>2025-11-05T10:03:03.023Z</time>
      </trkpt>
      <trkpt lat="43.53099" lon="5.51374">
        <ele>283.9</ele>
        <time>2025-11-05T10:03:06.023Z</time>
      </trkpt>
      <trkpt lat="43.53102" lon="5.51376">
        <ele>283.5</ele>
        <time>2025-11-05T10:03:10.023Z</time>
      </trkpt>
      <trkpt lat="43.53103" lon="5.51379">
        <ele>283</ele>
        <time>2025-11-05T10:03:13.023Z</time>
      </trkpt>
      <trkpt lat="43.53104" lon="5.51382">
        <ele>282.5</ele>
        <time>2025-11-05T10:03:16.023Z</time>
      </trkpt>
      <trkpt lat="43.53106" lon="5.51384">
        <ele>282.3</ele>
        <time>2025-11-05T10:03:19.023Z</time>
      </trkpt>
      <trkpt lat="43.53108" lon="5.51387">
        <ele>281.9</ele>
        <time>2025-11-05T10:03:24.023Z</time>
      </trkpt>
      <trkpt lat="43.5311" lon="5.51386">
        <ele>282.4</ele>
        <time>2025-11-05T10:03:28.023Z</time>
      </trkpt>
      <trkpt lat="43.53109" lon="5.51383">
        <ele>282.8</ele>
        <time>2025-11-05T10:03:40.023Z</time>
      </trkpt>
      <trkpt lat="43.53111" lon="5.5138">
        <ele>283.2</ele>
        <time>2025-11-05T10:03:45.023Z</time>
      </trkpt>
      <trkpt lat="43.53114" lon="5.51379">
        <ele>281.8</ele>
        <time>2025-11-05T10:03:49.023Z</time>
      </trkpt>
      <trkpt lat="43.53113" lon="5.51376">
        <ele>282.8</ele>
        <time>2025-11-05T10:03:56.023Z</time>
      </trkpt>
      <trkpt lat="43.53111" lon="5.51375">
        <ele>284</ele>
        <time>2025-11-05T10:05:47.023Z</time>
      </trkpt>
      <trkpt lat="43.53112" lon="5.51372">
        <ele>284</ele>
        <time>2025-11-05T10:05:52.023Z</time>
      </trkpt>
      <trkpt lat="43.53113" lon="5.51369">
        <ele>284.2</ele>
        <time>2025-11-05T10:05:55.023Z</time>
      </trkpt>
      <trkpt lat="43.53113" lon="5.51365">
        <ele>284.9</ele>
        <time>2025-11-05T10:06:01.023Z</time>
      </trkpt>
      <trkpt lat="43.53115" lon="5.51362">
        <ele>284.7</ele>
        <time>2025-11-05T10:06:04.023Z</time>
      </trkpt>
      <trkpt lat="43.53116" lon="5.51359">
        <ele>284.4</ele>
        <time>2025-11-05T10:06:07.023Z</time>
      </trkpt>
      <trkpt lat="43.53118" lon="5.51356">
        <ele>283.8</ele>
        <time>2025-11-05T10:06:10.023Z</time>
      </trkpt>
      <trkpt lat="43.5312" lon="5.51353">
        <ele>283</ele>
        <time>2025-11-05T10:06:15.023Z</time>
      </trkpt>
      <trkpt lat="43.53121" lon="5.5135">
        <ele>282.5</ele>
        <time>2025-11-05T10:06:18.023Z</time>
      </trkpt>
      <trkpt lat="43.53121" lon="5.51346">
        <ele>282.2</ele>
        <time>2025-11-05T10:06:22.023Z</time>
      </trkpt>
      <trkpt lat="43.53122" lon="5.51343">
        <ele>282</ele>
        <time>2025-11-05T10:06:24.023Z</time>
      </trkpt>
      <trkpt lat="43.53122" lon="5.51339">
        <ele>281.6</ele>
        <time>2025-11-05T10:06:27.023Z</time>
      </trkpt>
      <trkpt lat="43.53122" lon="5.51336">
        <ele>281.4</ele>
        <time>2025-11-05T10:06:30.023Z</time>
      </trkpt>
      <trkpt lat="43.53123" lon="5.51333">
        <ele>281.1</ele>
        <time>2025-11-05T10:06:33.022Z</time>
      </trkpt>
      <trkpt lat="43.53124" lon="5.51329">
        <ele>280.5</ele>
        <time>2025-11-05T10:06:36.023Z</time>
      </trkpt>
      <trkpt lat="43.53124" lon="5.51326">
        <ele>280.1</ele>
        <time>2025-11-05T10:06:39.023Z</time>
      </trkpt>
      <trkpt lat="43.53125" lon="5.51322">
        <ele>279.7</ele>
        <time>2025-11-05T10:06:41.023Z</time>
      </trkpt>
      <trkpt lat="43.53126" lon="5.51318">
        <ele>279.2</ele>
        <time>2025-11-05T10:06:44.023Z</time>
      </trkpt>
      <trkpt lat="43.53127" lon="5.51315">
        <ele>278.7</ele>
        <time>2025-11-05T10:06:46.023Z</time>
      </trkpt>
      <trkpt lat="43.53129" lon="5.51313">
        <ele>278.1</ele>
        <time>2025-11-05T10:06:49.022Z</time>
      </trkpt>
      <trkpt lat="43.53129" lon="5.51309">
        <ele>277.6</ele>
        <time>2025-11-05T10:06:53.023Z</time>
      </trkpt>
      <trkpt lat="43.5313" lon="5.51306">
        <ele>277.2</ele>
        <time>2025-11-05T10:06:56.023Z</time>
      </trkpt>
      <trkpt lat="43.53131" lon="5.51302">
        <ele>276.6</ele>
        <time>2025-11-05T10:06:59.023Z</time>
      </trkpt>
      <trkpt lat="43.53132" lon="5.51298">
        <ele>276.1</ele>
        <time>2025-11-05T10:07:02.023Z</time>
      </trkpt>
      <trkpt lat="43.53133" lon="5.51295">
        <ele>275.6</ele>
        <time>2025-11-05T10:07:05.023Z</time>
      </trkpt>
      <trkpt lat="43.53133" lon="5.51292">
        <ele>275.1</ele>
        <time>2025-11-05T10:07:07.023Z</time>
      </trkpt>
      <trkpt lat="43.53133" lon="5.51288">
        <ele>274.6</ele>
        <time>2025-11-05T10:07:10.023Z</time>
      </trkpt>
      <trkpt lat="43.53134" lon="5.51284">
        <ele>274.1</ele>
        <time>2025-11-05T10:07:13.023Z</time>
      </trkpt>
      <trkpt lat="43.53134" lon="5.51281">
        <ele>273.7</ele>
        <time>2025-11-05T10:07:16.023Z</time>
      </trkpt>
      <trkpt lat="43.53134" lon="5.51276">
        <ele>273.3</ele>
        <time>2025-11-05T10:07:19.023Z</time>
      </trkpt>
      <trkpt lat="43.53134" lon="5.51273">
        <ele>273.1</ele>
        <time>2025-11-05T10:07:22.023Z</time>
      </trkpt>
      <trkpt lat="43.53135" lon="5.5127">
        <ele>272.9</ele>
        <time>2025-11-05T10:07:25.023Z</time>
      </trkpt>
      <trkpt lat="43.53136" lon="5.51265">
        <ele>272.4</ele>
        <time>2025-11-05T10:07:28.023Z</time>
      </trkpt>
      <trkpt lat="43.53137" lon="5.51261">
        <ele>271.9</ele>
        <time>2025-11-05T10:07:31.023Z</time>
      </trkpt>
      <trkpt lat="43.53138" lon="5.51257">
        <ele>271.5</ele>
        <time>2025-11-05T10:07:33.023Z</time>
      </trkpt>
      <trkpt lat="43.53139" lon="5.51254">
        <ele>270.9</ele>
        <time>2025-11-05T10:07:35.023Z</time>
      </trkpt>
      <trkpt lat="43.5314" lon="5.5125">
        <ele>270.5</ele>
        <time>2025-11-05T10:07:38.023Z</time>
      </trkpt>
      <trkpt lat="43.53141" lon="5.51246">
        <ele>269.9</ele>
        <time>2025-11-05T10:07:41.023Z</time>
      </trkpt>
      <trkpt lat="43.53142" lon="5.51243">
        <ele>269.5</ele>
        <time>2025-11-05T10:07:43.023Z</time>
      </trkpt>
      <trkpt lat="43.53142" lon="5.51239">
        <ele>269.3</ele>
        <time>2025-11-05T10:07:46.023Z</time>
      </trkpt>
      <trkpt lat="43.53144" lon="5.51236">
        <ele>268.5</ele>
        <time>2025-11-05T10:07:49.023Z</time>
      </trkpt>
      <trkpt lat="43.53145" lon="5.51233">
        <ele>267.9</ele>
        <time>2025-11-05T10:07:51.023Z</time>
      </trkpt>
      <trkpt lat="43.53145" lon="5.5123">
        <ele>267.9</ele>
        <time>2025-11-05T10:07:53.023Z</time>
      </trkpt>
      <trkpt lat="43.53146" lon="5.51227">
        <ele>267.4</ele>
        <time>2025-11-05T10:07:55.023Z</time>
      </trkpt>
      <trkpt lat="43.53147" lon="5.51222">
        <ele>267.1</ele>
        <time>2025-11-05T10:07:59.023Z</time>
      </trkpt>
      <trkpt lat="43.53147" lon="5.51218">
        <ele>267.1</ele>
        <time>2025-11-05T10:08:02.023Z</time>
      </trkpt>
      <trkpt lat="43.53147" lon="5.51215">
        <ele>266.8</ele>
        <time>2025-11-05T10:08:04.023Z</time>
      </trkpt>
      <trkpt lat="43.53148" lon="5.51212">
        <ele>266.5</ele>
        <time>2025-11-05T10:08:06.023Z</time>
      </trkpt>
      <trkpt lat="43.53149" lon="5.51207">
        <ele>266.2</ele>
        <time>2025-11-05T10:08:09.023Z</time>
      </trkpt>
      <trkpt lat="43.53149" lon="5.51203">
        <ele>265.9</ele>
        <time>2025-11-05T10:08:12.023Z</time>
      </trkpt>
      <trkpt lat="43.5315" lon="5.51199">
        <ele>265.5</ele>
        <time>2025-11-05T10:08:16.023Z</time>
      </trkpt>
      <trkpt lat="43.53151" lon="5.51194">
        <ele>265.1</ele>
        <time>2025-11-05T10:08:19.023Z</time>
      </trkpt>
      <trkpt lat="43.53152" lon="5.51191">
        <ele>264.3</ele>
        <time>2025-11-05T10:08:22.023Z</time>
      </trkpt>
      <trkpt lat="43.53151" lon="5.51188">
        <ele>264.1</ele>
        <time>2025-11-05T10:08:24.023Z</time>
      </trkpt>
      <trkpt lat="43.53151" lon="5.51184">
        <ele>263.7</ele>
        <time>2025-11-05T10:08:27.023Z</time>
      </trkpt>
      <trkpt lat="43.53151" lon="5.51179">
        <ele>263.1</ele>
        <time>2025-11-05T10:08:30.023Z</time>
      </trkpt>
      <trkpt lat="43.53151" lon="5.51176">
        <ele>262.8</ele>
        <time>2025-11-05T10:08:33.023Z</time>
      </trkpt>
      <trkpt lat="43.5315" lon="5.51173">
        <ele>262.6</ele>
        <time>2025-11-05T10:08:36.023Z</time>
      </trkpt>
      <trkpt lat="43.5315" lon="5.51169">
        <ele>262.1</ele>
        <time>2025-11-05T10:08:39.023Z</time>
      </trkpt>
      <trkpt lat="43.5315" lon="5.51164">
        <ele>261.5</ele>
        <time>2025-11-05T10:08:42.023Z</time>
      </trkpt>
      <trkpt lat="43.5315" lon="5.51161">
        <ele>261.3</ele>
        <time>2025-11-05T10:08:44.023Z</time>
      </trkpt>
      <trkpt lat="43.53149" lon="5.51156">
        <ele>261</ele>
        <time>2025-11-05T10:08:48.023Z</time>
      </trkpt>
      <trkpt lat="43.53149" lon="5.51152">
        <ele>260.7</ele>
        <time>2025-11-05T10:08:51.023Z</time>
      </trkpt>
      <trkpt lat="43.53147" lon="5.51148">
        <ele>260.4</ele>
        <time>2025-11-05T10:08:54.023Z</time>
      </trkpt>
      <trkpt lat="43.53146" lon="5.51144">
        <ele>260.2</ele>
        <time>2025-11-05T10:08:57.023Z</time>
      </trkpt>
      <trkpt lat="43.53145" lon="5.5114">
        <ele>259.7</ele>
        <time>2025-11-05T10:09:01.023Z</time>
      </trkpt>
      <trkpt lat="43.53144" lon="5.51137">
        <ele>259.2</ele>
        <time>2025-11-05T10:09:03.023Z</time>
      </trkpt>
      <trkpt lat="43.53144" lon="5.51132">
        <ele>258.6</ele>
        <time>2025-11-05T10:09:06.023Z</time>
      </trkpt>
      <trkpt lat="43.53145" lon="5.51129">
        <ele>258</ele>
        <time>2025-11-05T10:09:08.023Z</time>
      </trkpt>
      <trkpt lat="43.53146" lon="5.51126">
        <ele>257.5</ele>
        <time>2025-11-05T10:09:10.023Z</time>
      </trkpt>
      <trkpt lat="43.53147" lon="5.51122">
        <ele>256.9</ele>
        <time>2025-11-05T10:09:13.023Z</time>
      </trkpt>
      <trkpt lat="43.53148" lon="5.51119">
        <ele>256.5</ele>
        <time>2025-11-05T10:09:15.023Z</time>
      </trkpt>
      <trkpt lat="43.5315" lon="5.51116">
        <ele>256.1</ele>
        <time>2025-11-05T10:09:17.023Z</time>
      </trkpt>
      <trkpt lat="43.5315" lon="5.51113">
        <ele>255.6</ele>
        <time>2025-11-05T10:09:20.023Z</time>
      </trkpt>
      <trkpt lat="43.53152" lon="5.51109">
        <ele>255.1</ele>
        <time>2025-11-05T10:09:22.023Z</time>
      </trkpt>
      <trkpt lat="43.53153" lon="5.51107">
        <ele>254.6</ele>
        <time>2025-11-05T10:09:24.023Z</time>
      </trkpt>
      <trkpt lat="43.53154" lon="5.51104">
        <ele>254.2</ele>
        <time>2025-11-05T10:09:26.023Z</time>
      </trkpt>
      <trkpt lat="43.53157" lon="5.51101">
        <ele>253.8</ele>
        <time>2025-11-05T10:09:29.023Z</time>
      </trkpt>
      <trkpt lat="43.53159" lon="5.51098">
        <ele>253.4</ele>
        <time>2025-11-05T10:09:32.023Z</time>
      </trkpt>
      <trkpt lat="43.5316" lon="5.51095">
        <ele>252.9</ele>
        <time>2025-11-05T10:09:35.023Z</time>
      </trkpt>
      <trkpt lat="43.53158" lon="5.51092">
        <ele>252.2</ele>
        <time>2025-11-05T10:09:43.023Z</time>
      </trkpt>
      <trkpt lat="43.53157" lon="5.51087">
        <ele>251.3</ele>
        <time>2025-11-05T10:09:55.023Z</time>
      </trkpt>
      <trkpt lat="43.53158" lon="5.51084">
        <ele>250.8</ele>
        <time>2025-11-05T10:09:58.023Z</time>
      </trkpt>
      <trkpt lat="43.5316" lon="5.51081">
        <ele>250.5</ele>
        <time>2025-11-05T10:10:02.023Z</time>
      </trkpt>
      <trkpt lat="43.53162" lon="5.5108">
        <ele>250.5</ele>
        <time>2025-11-05T10:10:06.023Z</time>
      </trkpt>
      <trkpt lat="43.53165" lon="5.51079">
        <ele>250.5</ele>
        <time>2025-11-05T10:10:09.023Z</time>
      </trkpt>
      <trkpt lat="43.53167" lon="5.51077">
        <ele>250.3</ele>
        <time>2025-11-05T10:10:11.023Z</time>
      </trkpt>
      <trkpt lat="43.5317" lon="5.51076">
        <ele>249.7</ele>
        <time>2025-11-05T10:10:14.023Z</time>
      </trkpt>
      <trkpt lat="43.53173" lon="5.51077">
        <ele>249.3</ele>
        <time>2025-11-05T10:10:18.023Z</time>
      </trkpt>
      <trkpt lat="43.53175" lon="5.51076">
        <ele>248.7</ele>
        <time>2025-11-05T10:10:21.023Z</time>
      </trkpt>
      <trkpt lat="43.53178" lon="5.51076">
        <ele>248.4</ele>
        <time>2025-11-05T10:10:25.023Z</time>
      </trkpt>
      <trkpt lat="43.53181" lon="5.51076">
        <ele>247.9</ele>
        <time>2025-11-05T10:10:28.023Z</time>
      </trkpt>
      <trkpt lat="43.53184" lon="5.51076">
        <ele>247.5</ele>
        <time>2025-11-05T10:10:31.023Z</time>
      </trkpt>
      <trkpt lat="43.53186" lon="5.51074">
        <ele>246.8</ele>
        <time>2025-11-05T10:10:35.023Z</time>
      </trkpt>
      <trkpt lat="43.53188" lon="5.51076">
        <ele>246.7</ele>
        <time>2025-11-05T10:10:40.023Z</time>
      </trkpt>
      <trkpt lat="43.5319" lon="5.51078">
        <ele>246.5</ele>
        <time>2025-11-05T10:10:44.023Z</time>
      </trkpt>
      <trkpt lat="43.53192" lon="5.51081">
        <ele>246.5</ele>
        <time>2025-11-05T10:10:47.023Z</time>
      </trkpt>
      <trkpt lat="43.53193" lon="5.51083">
        <ele>246.4</ele>
        <time>2025-11-05T10:10:51.023Z</time>
      </trkpt>
      <trkpt lat="43.53194" lon="5.51087">
        <ele>246.3</ele>
        <time>2025-11-05T10:10:56.024Z</time>
      </trkpt>
      <trkpt lat="43.53194" lon="5.5109">
        <ele>246.3</ele>
        <time>2025-11-05T10:11:07.023Z</time>
      </trkpt>
      <trkpt lat="43.53195" lon="5.51093">
        <ele>245.7</ele>
        <time>2025-11-05T10:11:15.023Z</time>
      </trkpt>
      <trkpt lat="43.53197" lon="5.51095">
        <ele>243.9</ele>
        <time>2025-11-05T10:11:28.023Z</time>
      </trkpt>
      <trkpt lat="43.53198" lon="5.51098">
        <ele>242.9</ele>
        <time>2025-11-05T10:11:32.023Z</time>
      </trkpt>
      <trkpt lat="43.53199" lon="5.51101">
        <ele>241.7</ele>
        <time>2025-11-05T10:11:52.023Z</time>
      </trkpt>
      <trkpt lat="43.53199" lon="5.51104">
        <ele>241.5</ele>
        <time>2025-11-05T10:12:02.023Z</time>
      </trkpt>
      <trkpt lat="43.532" lon="5.51107">
        <ele>241.2</ele>
        <time>2025-11-05T10:12:13.023Z</time>
      </trkpt>
      <trkpt lat="43.53201" lon="5.5111">
        <ele>239.6</ele>
        <time>2025-11-05T10:12:39.023Z</time>
      </trkpt>
      <trkpt lat="43.532" lon="5.51115">
        <ele>240.7</ele>
        <time>2025-11-05T10:12:42.023Z</time>
      </trkpt>
      <trkpt lat="43.532" lon="5.51118">
        <ele>240.4</ele>
        <time>2025-11-05T10:12:47.023Z</time>
      </trkpt>
      <trkpt lat="43.53201" lon="5.51121">
        <ele>240.5</ele>
        <time>2025-11-05T10:13:06.023Z</time>
      </trkpt>
      <trkpt lat="43.53203" lon="5.51124">
        <ele>238.6</ele>
        <time>2025-11-05T10:13:11.023Z</time>
      </trkpt>
      <trkpt lat="43.53205" lon="5.51126">
        <ele>236.6</ele>
        <time>2025-11-05T10:13:14.023Z</time>
      </trkpt>
      <trkpt lat="43.53207" lon="5.51129">
        <ele>235.3</ele>
        <time>2025-11-05T10:13:16.023Z</time>
      </trkpt>
      <trkpt lat="43.53209" lon="5.5113">
        <ele>234</ele>
        <time>2025-11-05T10:13:18.023Z</time>
      </trkpt>
      <trkpt lat="43.53212" lon="5.51131">
        <ele>232.4</ele>
        <time>2025-11-05T10:13:21.023Z</time>
      </trkpt>
      <trkpt lat="43.53214" lon="5.51133">
        <ele>231.1</ele>
        <time>2025-11-05T10:13:29.023Z</time>
      </trkpt>
      <trkpt lat="43.53217" lon="5.51133">
        <ele>229.4</ele>
        <time>2025-11-05T10:13:33.023Z</time>
      </trkpt>
      <trkpt lat="43.53219" lon="5.51134">
        <ele>227.9</ele>
        <time>2025-11-05T10:13:37.023Z</time>
      </trkpt>
      <trkpt lat="43.53222" lon="5.51136">
        <ele>226.9</ele>
        <time>2025-11-05T10:13:43.023Z</time>
      </trkpt>
      <trkpt lat="43.53225" lon="5.51138">
        <ele>228.4</ele>
        <time>2025-11-05T10:13:47.023Z</time>
      </trkpt>
      <trkpt lat="43.53227" lon="5.51141">
        <ele>229.6</ele>
        <time>2025-11-05T10:13:50.023Z</time>
      </trkpt>
      <trkpt lat="43.53229" lon="5.51142">
        <ele>230.5</ele>
        <time>2025-11-05T10:13:54.023Z</time>
      </trkpt>
      <trkpt lat="43.53232" lon="5.51143">
        <ele>231.5</ele>
        <time>2025-11-05T10:13:58.023Z</time>
      </trkpt>
      <trkpt lat="43.53234" lon="5.51143">
        <ele>232.2</ele>
        <time>2025-11-05T10:14:00.023Z</time>
      </trkpt>
      <trkpt lat="43.53237" lon="5.51143">
        <ele>233.3</ele>
        <time>2025-11-05T10:14:03.023Z</time>
      </trkpt>
      <trkpt lat="43.5324" lon="5.51141">
        <ele>234.2</ele>
        <time>2025-11-05T10:14:09.023Z</time>
      </trkpt>
      <trkpt lat="43.53243" lon="5.51139">
        <ele>234.6</ele>
        <time>2025-11-05T10:14:14.023Z</time>
      </trkpt>
      <trkpt lat="43.53245" lon="5.51139">
        <ele>235.5</ele>
        <time>2025-11-05T10:15:09.023Z</time>
      </trkpt>
      <trkpt lat="43.53248" lon="5.51139">
        <ele>236.2</ele>
        <time>2025-11-05T10:15:13.023Z</time>
      </trkpt>
      <trkpt lat="43.5325" lon="5.51139">
        <ele>237.1</ele>
        <time>2025-11-05T10:15:16.023Z</time>
      </trkpt>
      <trkpt lat="43.53253" lon="5.51139">
        <ele>236.9</ele>
        <time>2025-11-05T10:15:23.023Z</time>
      </trkpt>
      <trkpt lat="43.53256" lon="5.51138">
        <ele>236.7</ele>
        <time>2025-11-05T10:15:28.023Z</time>
      </trkpt>
      <trkpt lat="43.53258" lon="5.51139">
        <ele>237.3</ele>
        <time>2025-11-05T10:15:32.023Z</time>
      </trkpt>
      <trkpt lat="43.53259" lon="5.51142">
        <ele>237.7</ele>
        <time>2025-11-05T10:15:36.024Z</time>
      </trkpt>
      <trkpt lat="43.5326" lon="5.51145">
        <ele>238.2</ele>
        <time>2025-11-05T10:15:39.023Z</time>
      </trkpt>
      <trkpt lat="43.53262" lon="5.51147">
        <ele>238.5</ele>
        <time>2025-11-05T10:15:42.023Z</time>
      </trkpt>
      <trkpt lat="43.53264" lon="5.51151">
        <ele>239</ele>
        <time>2025-11-05T10:15:46.023Z</time>
      </trkpt>
      <trkpt lat="43.53266" lon="5.5115">
        <ele>239</ele>
        <time>2025-11-05T10:15:49.023Z</time>
      </trkpt>
      <trkpt lat="43.53268" lon="5.51152">
        <ele>239.2</ele>
        <time>2025-11-05T10:15:52.023Z</time>
      </trkpt>
      <trkpt lat="43.5327" lon="5.51154">
        <ele>239.5</ele>
        <time>2025-11-05T10:15:55.023Z</time>
      </trkpt>
      <trkpt lat="43.53272" lon="5.51157">
        <ele>239.9</ele>
        <time>2025-11-05T10:16:00.023Z</time>
      </trkpt>
      <trkpt lat="43.53273" lon="5.51161">
        <ele>240.4</ele>
        <time>2025-11-05T10:16:03.023Z</time>
      </trkpt>
      <trkpt lat="43.53275" lon="5.51165">
        <ele>240.8</ele>
        <time>2025-11-05T10:16:05.023Z</time>
      </trkpt>
      <trkpt lat="43.53276" lon="5.51169">
        <ele>241.5</ele>
        <time>2025-11-05T10:16:10.023Z</time>
      </trkpt>
      <trkpt lat="43.53277" lon="5.51173">
        <ele>242.8</ele>
        <time>2025-11-05T10:16:14.023Z</time>
      </trkpt>
      <trkpt lat="43.53279" lon="5.51176">
        <ele>243.7</ele>
        <time>2025-11-05T10:16:17.023Z</time>
      </trkpt>
      <trkpt lat="43.5328" lon="5.51179">
        <ele>244.5</ele>
        <time>2025-11-05T10:16:20.023Z</time>
      </trkpt>
      <trkpt lat="43.53283" lon="5.5118">
        <ele>244.8</ele>
        <time>2025-11-05T10:16:39.023Z</time>
      </trkpt>
      <trkpt lat="43.53285" lon="5.51181">
        <ele>245.1</ele>
        <time>2025-11-05T10:16:42.024Z</time>
      </trkpt>
      <trkpt lat="43.53288" lon="5.51182">
        <ele>245.3</ele>
        <time>2025-11-05T10:16:44.023Z</time>
      </trkpt>
      <trkpt lat="43.5329" lon="5.51184">
        <ele>245.8</ele>
        <time>2025-11-05T10:16:46.023Z</time>
      </trkpt>
      <trkpt lat="43.53292" lon="5.51184">
        <ele>245.7</ele>
        <time>2025-11-05T10:16:49.023Z</time>
      </trkpt>
      <trkpt lat="43.53295" lon="5.51185">
        <ele>246.1</ele>
        <time>2025-11-05T10:16:53.023Z</time>
      </trkpt>
      <trkpt lat="43.53297" lon="5.51185">
        <ele>246.1</ele>
        <time>2025-11-05T10:16:55.023Z</time>
      </trkpt>
      <trkpt lat="43.53299" lon="5.51184">
        <ele>245.8</ele>
        <time>2025-11-05T10:16:58.024Z</time>
      </trkpt>
      <trkpt lat="43.53302" lon="5.51185">
        <ele>245.9</ele>
        <time>2025-11-05T10:17:01.023Z</time>
      </trkpt>
      <trkpt lat="43.53304" lon="5.51184">
        <ele>245.7</ele>
        <time>2025-11-05T10:17:05.023Z</time>
      </trkpt>
      <trkpt lat="43.53306" lon="5.51182">
        <ele>245.2</ele>
        <time>2025-11-05T10:17:43.023Z</time>
      </trkpt>
      <trkpt lat="43.53308" lon="5.51182">
        <ele>245.5</ele>
        <time>2025-11-05T10:18:34.023Z</time>
      </trkpt>
      <trkpt lat="43.53308" lon="5.51185">
        <ele>246.1</ele>
        <time>2025-11-05T10:18:48.023Z</time>
      </trkpt>
      <trkpt lat="43.53306" lon="5.51187">
        <ele>246.3</ele>
        <time>2025-11-05T10:18:57.023Z</time>
      </trkpt>
      <trkpt lat="43.53306" lon="5.5119">
        <ele>247.1</ele>
        <time>2025-11-05T10:19:00.023Z</time>
      </trkpt>
      <trkpt lat="43.53306" lon="5.51193">
        <ele>247.8</ele>
        <time>2025-11-05T10:19:03.023Z</time>
      </trkpt>
      <trkpt lat="43.53306" lon="5.51197">
        <ele>248.5</ele>
        <time>2025-11-05T10:19:08.023Z</time>
      </trkpt>
      <trkpt lat="43.53307" lon="5.51201">
        <ele>249.4</ele>
        <time>2025-11-05T10:19:11.023Z</time>
      </trkpt>
      <trkpt lat="43.53307" lon="5.51204">
        <ele>250.1</ele>
        <time>2025-11-05T10:19:18.023Z</time>
      </trkpt>
      <trkpt lat="43.53306" lon="5.51206">
        <ele>250.6</ele>
        <time>2025-11-05T10:19:29.023Z</time>
      </trkpt>
      <trkpt lat="43.53304" lon="5.51209">
        <ele>251.2</ele>
        <time>2025-11-05T10:19:32.023Z</time>
      </trkpt>
      <trkpt lat="43.53303" lon="5.51213">
        <ele>252</ele>
        <time>2025-11-05T10:19:39.023Z</time>
      </trkpt>
      <trkpt lat="43.53303" lon="5.51216">
        <ele>252.7</ele>
        <time>2025-11-05T10:19:42.023Z</time>
      </trkpt>
      <trkpt lat="43.53302" lon="5.51219">
        <ele>253.4</ele>
        <time>2025-11-05T10:19:50.023Z</time>
      </trkpt>
      <trkpt lat="43.53302" lon="5.51222">
        <ele>254.1</ele>
        <time>2025-11-05T10:19:55.023Z</time>
      </trkpt>
      <trkpt lat="43.53302" lon="5.51226">
        <ele>254.8</ele>
        <time>2025-11-05T10:20:01.023Z</time>
      </trkpt>
      <trkpt lat="43.53301" lon="5.5123">
        <ele>255.7</ele>
        <time>2025-11-05T10:20:05.024Z</time>
      </trkpt>
      <trkpt lat="43.53301" lon="5.51234">
        <ele>256.5</ele>
        <time>2025-11-05T10:20:14.023Z</time>
      </trkpt>
      <trkpt lat="43.53299" lon="5.51235">
        <ele>256.9</ele>
        <time>2025-11-05T10:20:18.023Z</time>
      </trkpt>
      <trkpt lat="43.53297" lon="5.51238">
        <ele>257.4</ele>
        <time>2025-11-05T10:20:31.023Z</time>
      </trkpt>
      <trkpt lat="43.53295" lon="5.5124">
        <ele>257.9</ele>
        <time>2025-11-05T10:20:35.023Z</time>
      </trkpt>
      <trkpt lat="43.53293" lon="5.51242">
        <ele>258.5</ele>
        <time>2025-11-05T10:20:39.023Z</time>
      </trkpt>
      <trkpt lat="43.53291" lon="5.51245">
        <ele>259.1</ele>
        <time>2025-11-05T10:20:44.023Z</time>
      </trkpt>
      <trkpt lat="43.5329" lon="5.51249">
        <ele>259.9</ele>
        <time>2025-11-05T10:20:48.023Z</time>
      </trkpt>
      <trkpt lat="43.53289" lon="5.51252">
        <ele>260.3</ele>
        <time>2025-11-05T10:20:53.023Z</time>
      </trkpt>
      <trkpt lat="43.53287" lon="5.51256">
        <ele>260.8</ele>
        <time>2025-11-05T10:20:57.023Z</time>
      </trkpt>
      <trkpt lat="43.53285" lon="5.51258">
        <ele>261</ele>
        <time>2025-11-05T10:21:01.023Z</time>
      </trkpt>
      <trkpt lat="43.53284" lon="5.51262">
        <ele>261.5</ele>
        <time>2025-11-05T10:21:04.023Z</time>
      </trkpt>
      <trkpt lat="43.53283" lon="5.51265">
        <ele>261.8</ele>
        <time>2025-11-05T10:21:07.023Z</time>
      </trkpt>
      <trkpt lat="43.53281" lon="5.51267">
        <ele>262</ele>
        <time>2025-11-05T10:21:10.024Z</time>
      </trkpt>
      <trkpt lat="43.5328" lon="5.5127">
        <ele>262.2</ele>
        <time>2025-11-05T10:21:12.023Z</time>
      </trkpt>
      <trkpt lat="43.5328" lon="5.51273">
        <ele>262.6</ele>
        <time>2025-11-05T10:21:16.023Z</time>
      </trkpt>
      <trkpt lat="43.53281" lon="5.51277">
        <ele>263.2</ele>
        <time>2025-11-05T10:21:23.023Z</time>
      </trkpt>
      <trkpt lat="43.53283" lon="5.51281">
        <ele>263.5</ele>
        <time>2025-11-05T10:21:28.023Z</time>
      </trkpt>
      <trkpt lat="43.53285" lon="5.51283">
        <ele>263.7</ele>
        <time>2025-11-05T10:21:32.023Z</time>
      </trkpt>
      <trkpt lat="43.53286" lon="5.51287">
        <ele>263.9</ele>
        <time>2025-11-05T10:21:37.023Z</time>
      </trkpt>
      <trkpt lat="43.53288" lon="5.5129">
        <ele>264.2</ele>
        <time>2025-11-05T10:21:41.023Z</time>
      </trkpt>
      <trkpt lat="43.53288" lon="5.51294">
        <ele>264.3</ele>
        <time>2025-11-05T10:21:44.023Z</time>
      </trkpt>
      <trkpt lat="43.53288" lon="5.51298">
        <ele>264.5</ele>
        <time>2025-11-05T10:21:46.023Z</time>
      </trkpt>
      <trkpt lat="43.5329" lon="5.513">
        <ele>264.7</ele>
        <time>2025-11-05T10:21:51.023Z</time>
      </trkpt>
      <trkpt lat="43.53292" lon="5.51302">
        <ele>264.9</ele>
        <time>2025-11-05T10:22:17.023Z</time>
      </trkpt>
      <trkpt lat="43.53295" lon="5.51302">
        <ele>265.1</ele>
        <time>2025-11-05T10:23:26.023Z</time>
      </trkpt>
      <trkpt lat="43.53298" lon="5.51303">
        <ele>265.4</ele>
        <time>2025-11-05T10:23:29.023Z</time>
      </trkpt>
      <trkpt lat="43.53301" lon="5.51304">
        <ele>265.6</ele>
        <time>2025-11-05T10:23:34.023Z</time>
      </trkpt>
      <trkpt lat="43.53304" lon="5.51304">
        <ele>265.8</ele>
        <time>2025-11-05T10:23:38.023Z</time>
      </trkpt>
      <trkpt lat="43.53307" lon="5.51304">
        <ele>266</ele>
        <time>2025-11-05T10:23:41.023Z</time>
      </trkpt>
      <trkpt lat="43.5331" lon="5.51303">
        <ele>266</ele>
        <time>2025-11-05T10:23:44.023Z</time>
      </trkpt>
      <trkpt lat="43.53312" lon="5.51303">
        <ele>266.2</ele>
        <time>2025-11-05T10:23:47.024Z</time>
      </trkpt>
      <trkpt lat="43.53315" lon="5.51304">
        <ele>266.3</ele>
        <time>2025-11-05T10:23:49.023Z</time>
      </trkpt>
      <trkpt lat="43.53318" lon="5.51305">
        <ele>266.4</ele>
        <time>2025-11-05T10:23:51.023Z</time>
      </trkpt>
      <trkpt lat="43.5332" lon="5.51305">
        <ele>266.5</ele>
        <time>2025-11-05T10:23:55.023Z</time>
      </trkpt>
      <trkpt lat="43.53323" lon="5.51306">
        <ele>266.6</ele>
        <time>2025-11-05T10:23:57.023Z</time>
      </trkpt>
      <trkpt lat="43.53325" lon="5.51307">
        <ele>266.5</ele>
        <time>2025-11-05T10:23:59.023Z</time>
      </trkpt>
      <trkpt lat="43.53327" lon="5.51306">
        <ele>266.7</ele>
        <time>2025-11-05T10:24:01.023Z</time>
      </trkpt>
      <trkpt lat="43.53329" lon="5.51308">
        <ele>266.6</ele>
        <time>2025-11-05T10:24:03.023Z</time>
      </trkpt>
      <trkpt lat="43.53332" lon="5.51307">
        <ele>266.7</ele>
        <time>2025-11-05T10:24:06.023Z</time>
      </trkpt>
      <trkpt lat="43.53335" lon="5.51307">
        <ele>266.8</ele>
        <time>2025-11-05T10:24:09.023Z</time>
      </trkpt>
      <trkpt lat="43.53338" lon="5.51307">
        <ele>266.8</ele>
        <time>2025-11-05T10:24:12.023Z</time>
      </trkpt>
      <trkpt lat="43.53341" lon="5.51306">
        <ele>266.9</ele>
        <time>2025-11-05T10:24:15.023Z</time>
      </trkpt>
      <trkpt lat="43.53343" lon="5.51307">
        <ele>266.9</ele>
        <time>2025-11-05T10:24:18.023Z</time>
      </trkpt>
      <trkpt lat="43.53347" lon="5.51305">
        <ele>267</ele>
        <time>2025-11-05T10:24:21.023Z</time>
      </trkpt>
      <trkpt lat="43.53349" lon="5.51303">
        <ele>267.1</ele>
        <time>2025-11-05T10:24:23.023Z</time>
      </trkpt>
      <trkpt lat="43.53351" lon="5.51301">
        <ele>267.3</ele>
        <time>2025-11-05T10:24:27.023Z</time>
      </trkpt>
      <trkpt lat="43.53356" lon="5.51298">
        <ele>267.6</ele>
        <time>2025-11-05T10:24:30.023Z</time>
      </trkpt>
      <trkpt lat="43.53358" lon="5.51301">
        <ele>267.4</ele>
        <time>2025-11-05T10:24:32.023Z</time>
      </trkpt>
      <trkpt lat="43.53362" lon="5.51301">
        <ele>267.4</ele>
        <time>2025-11-05T10:24:34.023Z</time>
      </trkpt>
      <trkpt lat="43.53364" lon="5.51301">
        <ele>267.4</ele>
        <time>2025-11-05T10:24:35.023Z</time>
      </trkpt>
      <trkpt lat="43.53367" lon="5.51301">
        <ele>267.4</ele>
        <time>2025-11-05T10:24:38.023Z</time>
      </trkpt>
      <trkpt lat="43.53369" lon="5.51299">
        <ele>267.5</ele>
        <time>2025-11-05T10:24:40.023Z</time>
      </trkpt>
      <trkpt lat="43.53372" lon="5.51298">
        <ele>267.5</ele>
        <time>2025-11-05T10:24:42.023Z</time>
      </trkpt>
      <trkpt lat="43.53374" lon="5.513">
        <ele>267.2</ele>
        <time>2025-11-05T10:24:46.023Z</time>
      </trkpt>
      <trkpt lat="43.53376" lon="5.513">
        <ele>267.2</ele>
        <time>2025-11-05T10:24:48.024Z</time>
      </trkpt>
      <trkpt lat="43.53378" lon="5.51302">
        <ele>266.9</ele>
        <time>2025-11-05T10:24:50.023Z</time>
      </trkpt>
      <trkpt lat="43.5338" lon="5.51297">
        <ele>267.4</ele>
        <time>2025-11-05T10:24:52.023Z</time>
      </trkpt>
      <trkpt lat="43.53383" lon="5.51297">
        <ele>267.4</ele>
        <time>2025-11-05T10:24:54.023Z</time>
      </trkpt>
      <trkpt lat="43.53385" lon="5.51295">
        <ele>267.6</ele>
        <time>2025-11-05T10:24:59.023Z</time>
      </trkpt>
      <trkpt lat="43.53387" lon="5.51294">
        <ele>267.8</ele>
        <time>2025-11-05T10:25:04.023Z</time>
      </trkpt>
      <trkpt lat="43.5339" lon="5.51293">
        <ele>267.8</ele>
        <time>2025-11-05T10:25:08.023Z</time>
      </trkpt>
      <trkpt lat="43.53392" lon="5.51293">
        <ele>268</ele>
        <time>2025-11-05T10:25:12.023Z</time>
      </trkpt>
      <trkpt lat="43.53394" lon="5.51292">
        <ele>268.1</ele>
        <time>2025-11-05T10:25:14.023Z</time>
      </trkpt>
      <trkpt lat="43.53396" lon="5.51289">
        <ele>268.6</ele>
        <time>2025-11-05T10:25:16.023Z</time>
      </trkpt>
      <trkpt lat="43.53398" lon="5.51286">
        <ele>269</ele>
        <time>2025-11-05T10:25:19.023Z</time>
      </trkpt>
      <trkpt lat="43.53399" lon="5.51284">
        <ele>269.3</ele>
        <time>2025-11-05T10:25:21.023Z</time>
      </trkpt>
      <trkpt lat="43.53401" lon="5.51281">
        <ele>269.6</ele>
        <time>2025-11-05T10:25:23.023Z</time>
      </trkpt>
      <trkpt lat="43.53402" lon="5.51278">
        <ele>270</ele>
        <time>2025-11-05T10:25:26.023Z</time>
      </trkpt>
      <trkpt lat="43.53404" lon="5.51276">
        <ele>270.1</ele>
        <time>2025-11-05T10:25:29.023Z</time>
      </trkpt>
      <trkpt lat="43.53406" lon="5.51273">
        <ele>270.3</ele>
        <time>2025-11-05T10:25:32.023Z</time>
      </trkpt>
      <trkpt lat="43.53407" lon="5.51269">
        <ele>270.5</ele>
        <time>2025-11-05T10:25:35.023Z</time>
      </trkpt>
      <trkpt lat="43.53406" lon="5.51266">
        <ele>270.7</ele>
        <time>2025-11-05T10:25:38.023Z</time>
      </trkpt>
      <trkpt lat="43.53406" lon="5.51262">
        <ele>270.9</ele>
        <time>2025-11-05T10:25:43.023Z</time>
      </trkpt>
      <trkpt lat="43.53408" lon="5.5126">
        <ele>271.1</ele>
        <time>2025-11-05T10:25:46.023Z</time>
      </trkpt>
      <trkpt lat="43.53409" lon="5.51256">
        <ele>271.3</ele>
        <time>2025-11-05T10:25:49.023Z</time>
      </trkpt>
      <trkpt lat="43.53411" lon="5.51253">
        <ele>271.6</ele>
        <time>2025-11-05T10:25:52.023Z</time>
      </trkpt>
      <trkpt lat="43.53413" lon="5.51251">
        <ele>271.8</ele>
        <time>2025-11-05T10:25:54.023Z</time>
      </trkpt>
      <trkpt lat="43.53416" lon="5.51248">
        <ele>272</ele>
        <time>2025-11-05T10:25:57.023Z</time>
      </trkpt>
      <trkpt lat="43.53417" lon="5.51245">
        <ele>272</ele>
        <time>2025-11-05T10:26:02.023Z</time>
      </trkpt>
      <trkpt lat="43.53419" lon="5.51242">
        <ele>272.2</ele>
        <time>2025-11-05T10:26:04.023Z</time>
      </trkpt>
      <trkpt lat="43.53421" lon="5.51238">
        <ele>272.4</ele>
        <time>2025-11-05T10:26:08.023Z</time>
      </trkpt>
      <trkpt lat="43.53424" lon="5.51237">
        <ele>272.6</ele>
        <time>2025-11-05T10:26:11.023Z</time>
      </trkpt>
      <trkpt lat="43.53426" lon="5.51236">
        <ele>272.8</ele>
        <time>2025-11-05T10:26:13.023Z</time>
      </trkpt>
      <trkpt lat="43.53429" lon="5.51237">
        <ele>273.1</ele>
        <time>2025-11-05T10:26:17.023Z</time>
      </trkpt>
      <trkpt lat="43.5343" lon="5.51239">
        <ele>273.1</ele>
        <time>2025-11-05T10:26:20.023Z</time>
      </trkpt>
      <trkpt lat="43.53432" lon="5.5124">
        <ele>273.3</ele>
        <time>2025-11-05T10:26:23.023Z</time>
      </trkpt>
      <trkpt lat="43.53434" lon="5.51242">
        <ele>273.4</ele>
        <time>2025-11-05T10:26:27.023Z</time>
      </trkpt>
      <trkpt lat="43.53434" lon="5.51246">
        <ele>273.3</ele>
        <time>2025-11-05T10:26:29.023Z</time>
      </trkpt>
      <trkpt lat="43.53434" lon="5.5125">
        <ele>273.2</ele>
        <time>2025-11-05T10:26:31.023Z</time>
      </trkpt>
      <trkpt lat="43.53435" lon="5.51254">
        <ele>273.1</ele>
        <time>2025-11-05T10:26:35.023Z</time>
      </trkpt>
      <trkpt lat="43.53437" lon="5.51256">
        <ele>273</ele>
        <time>2025-11-05T10:26:38.023Z</time>
      </trkpt>
      <trkpt lat="43.53441" lon="5.51259">
        <ele>273.1</ele>
        <time>2025-11-05T10:26:41.023Z</time>
      </trkpt>
      <trkpt lat="43.53443" lon="5.51262">
        <ele>273.1</ele>
        <time>2025-11-05T10:26:43.023Z</time>
      </trkpt>
      <trkpt lat="43.53445" lon="5.51265">
        <ele>273.1</ele>
        <time>2025-11-05T10:26:45.022Z</time>
      </trkpt>
      <trkpt lat="43.53448" lon="5.51267">
        <ele>273.2</ele>
        <time>2025-11-05T10:26:47.023Z</time>
      </trkpt>
      <trkpt lat="43.5345" lon="5.5127">
        <ele>273.3</ele>
        <time>2025-11-05T10:26:50.023Z</time>
      </trkpt>
      <trkpt lat="43.53452" lon="5.51273">
        <ele>273.4</ele>
        <time>2025-11-05T10:26:53.023Z</time>
      </trkpt>
      <trkpt lat="43.53454" lon="5.51275">
        <ele>273.6</ele>
        <time>2025-11-05T10:26:55.023Z</time>
      </trkpt>
      <trkpt lat="43.53457" lon="5.51275">
        <ele>273.9</ele>
        <time>2025-11-05T10:26:58.023Z</time>
      </trkpt>
      <trkpt lat="43.53459" lon="5.51276">
        <ele>274.2</ele>
        <time>2025-11-05T10:27:01.023Z</time>
      </trkpt>
      <trkpt lat="43.53461" lon="5.51276">
        <ele>274.6</ele>
        <time>2025-11-05T10:27:04.023Z</time>
      </trkpt>
      <trkpt lat="43.53464" lon="5.51277">
        <ele>274.8</ele>
        <time>2025-11-05T10:27:07.023Z</time>
      </trkpt>
      <trkpt lat="43.53465" lon="5.51281">
        <ele>275</ele>
        <time>2025-11-05T10:27:12.023Z</time>
      </trkpt>
      <trkpt lat="43.53468" lon="5.51283">
        <ele>275.4</ele>
        <time>2025-11-05T10:27:15.023Z</time>
      </trkpt>
      <trkpt lat="43.5347" lon="5.51285">
        <ele>275.7</ele>
        <time>2025-11-05T10:27:17.023Z</time>
      </trkpt>
      <trkpt lat="43.53473" lon="5.51287">
        <ele>276</ele>
        <time>2025-11-05T10:27:21.023Z</time>
      </trkpt>
      <trkpt lat="43.53475" lon="5.51287">
        <ele>276.2</ele>
        <time>2025-11-05T10:27:24.023Z</time>
      </trkpt>
      <trkpt lat="43.53478" lon="5.51287">
        <ele>276.4</ele>
        <time>2025-11-05T10:27:28.023Z</time>
      </trkpt>
      <trkpt lat="43.53479" lon="5.51289">
        <ele>276.4</ele>
        <time>2025-11-05T10:27:30.023Z</time>
      </trkpt>
      <trkpt lat="43.53482" lon="5.51291">
        <ele>276.5</ele>
        <time>2025-11-05T10:27:33.023Z</time>
      </trkpt>
      <trkpt lat="43.53485" lon="5.51292">
        <ele>276.7</ele>
        <time>2025-11-05T10:27:36.023Z</time>
      </trkpt>
      <trkpt lat="43.53487" lon="5.51292">
        <ele>276.8</ele>
        <time>2025-11-05T10:27:38.023Z</time>
      </trkpt>
      <trkpt lat="43.5349" lon="5.51292">
        <ele>277</ele>
        <time>2025-11-05T10:27:40.023Z</time>
      </trkpt>
      <trkpt lat="43.53494" lon="5.5129">
        <ele>277.3</ele>
        <time>2025-11-05T10:27:42.023Z</time>
      </trkpt>
      <trkpt lat="43.53497" lon="5.51288">
        <ele>277.6</ele>
        <time>2025-11-05T10:27:45.023Z</time>
      </trkpt>
      <trkpt lat="43.53499" lon="5.51286">
        <ele>278.1</ele>
        <time>2025-11-05T10:27:47.023Z</time>
      </trkpt>
      <trkpt lat="43.53503" lon="5.51283">
        <ele>278.1</ele>
        <time>2025-11-05T10:27:50.023Z</time>
      </trkpt>
      <trkpt lat="43.53505" lon="5.5128">
        <ele>278</ele>
        <time>2025-11-05T10:27:52.023Z</time>
      </trkpt>
      <trkpt lat="43.53506" lon="5.51277">
        <ele>278.1</ele>
        <time>2025-11-05T10:27:54.023Z</time>
      </trkpt>
      <trkpt lat="43.53508" lon="5.51274">
        <ele>278.3</ele>
        <time>2025-11-05T10:27:57.023Z</time>
      </trkpt>
      <trkpt lat="43.5351" lon="5.51271">
        <ele>278.4</ele>
        <time>2025-11-05T10:28:02.023Z</time>
      </trkpt>
      <trkpt lat="43.53511" lon="5.51268">
        <ele>278.6</ele>
        <time>2025-11-05T10:28:06.023Z</time>
      </trkpt>
      <trkpt lat="43.53513" lon="5.51264">
        <ele>278.6</ele>
        <time>2025-11-05T10:28:09.023Z</time>
      </trkpt>
      <trkpt lat="43.53515" lon="5.51262">
        <ele>278.6</ele>
        <time>2025-11-05T10:28:12.023Z</time>
      </trkpt>
      <trkpt lat="43.53516" lon="5.5126">
        <ele>278.6</ele>
        <time>2025-11-05T10:28:14.023Z</time>
      </trkpt>
      <trkpt lat="43.53517" lon="5.51256">
        <ele>278.8</ele>
        <time>2025-11-05T10:28:17.023Z</time>
      </trkpt>
      <trkpt lat="43.53518" lon="5.51253">
        <ele>279.2</ele>
        <time>2025-11-05T10:28:20.023Z</time>
      </trkpt>
      <trkpt lat="43.53519" lon="5.51249">
        <ele>279.4</ele>
        <time>2025-11-05T10:28:22.023Z</time>
      </trkpt>
      <trkpt lat="43.5352" lon="5.51245">
        <ele>279.7</ele>
        <time>2025-11-05T10:28:25.023Z</time>
      </trkpt>
      <trkpt lat="43.5352" lon="5.51241">
        <ele>280.3</ele>
        <time>2025-11-05T10:28:29.023Z</time>
      </trkpt>
      <trkpt lat="43.53519" lon="5.51239">
        <ele>280.7</ele>
        <time>2025-11-05T10:28:32.023Z</time>
      </trkpt>
      <trkpt lat="43.53517" lon="5.51237">
        <ele>281.1</ele>
        <time>2025-11-05T10:28:35.023Z</time>
      </trkpt>
      <trkpt lat="43.53515" lon="5.51234">
        <ele>281.6</ele>
        <time>2025-11-05T10:28:37.023Z</time>
      </trkpt>
      <trkpt lat="43.53513" lon="5.51232">
        <ele>282</ele>
        <time>2025-11-05T10:28:39.023Z</time>
      </trkpt>
      <trkpt lat="43.53512" lon="5.51228">
        <ele>282.5</ele>
        <time>2025-11-05T10:28:44.023Z</time>
      </trkpt>
      <trkpt lat="43.53509" lon="5.51227">
        <ele>282.9</ele>
        <time>2025-11-05T10:28:49.023Z</time>
      </trkpt>
      <trkpt lat="43.53507" lon="5.51225">
        <ele>283.3</ele>
        <time>2025-11-05T10:28:54.023Z</time>
      </trkpt>
      <trkpt lat="43.53506" lon="5.51222">
        <ele>283.7</ele>
        <time>2025-11-05T10:28:58.023Z</time>
      </trkpt>
      <trkpt lat="43.53505" lon="5.51219">
        <ele>284.2</ele>
        <time>2025-11-05T10:29:01.023Z</time>
      </trkpt>
      <trkpt lat="43.53505" lon="5.51215">
        <ele>284.7</ele>
        <time>2025-11-05T10:29:04.023Z</time>
      </trkpt>
      <trkpt lat="43.53505" lon="5.51211">
        <ele>285.3</ele>
        <time>2025-11-05T10:29:08.023Z</time>
      </trkpt>
      <trkpt lat="43.53507" lon="5.51209">
        <ele>285.5</ele>
        <time>2025-11-05T10:29:12.023Z</time>
      </trkpt>
      <trkpt lat="43.53507" lon="5.51206">
        <ele>286</ele>
        <time>2025-11-05T10:29:15.023Z</time>
      </trkpt>
      <trkpt lat="43.53509" lon="5.51203">
        <ele>286.4</ele>
        <time>2025-11-05T10:29:19.023Z</time>
      </trkpt>
      <trkpt lat="43.5351" lon="5.512">
        <ele>286.8</ele>
        <time>2025-11-05T10:29:23.023Z</time>
      </trkpt>
      <trkpt lat="43.53513" lon="5.51197">
        <ele>287.1</ele>
        <time>2025-11-05T10:29:27.023Z</time>
      </trkpt>
      <trkpt lat="43.53515" lon="5.51196">
        <ele>287.2</ele>
        <time>2025-11-05T10:29:29.023Z</time>
      </trkpt>
      <trkpt lat="43.53518" lon="5.51196">
        <ele>287.1</ele>
        <time>2025-11-05T10:29:33.023Z</time>
      </trkpt>
      <trkpt lat="43.5352" lon="5.51194">
        <ele>287.3</ele>
        <time>2025-11-05T10:29:37.023Z</time>
      </trkpt>
      <trkpt lat="43.53522" lon="5.51192">
        <ele>287.6</ele>
        <time>2025-11-05T10:29:40.023Z</time>
      </trkpt>
      <trkpt lat="43.53523" lon="5.51189">
        <ele>288</ele>
        <time>2025-11-05T10:29:42.023Z</time>
      </trkpt>
      <trkpt lat="43.53524" lon="5.51185">
        <ele>288.4</ele>
        <time>2025-11-05T10:29:45.023Z</time>
      </trkpt>
      <trkpt lat="43.53525" lon="5.51181">
        <ele>289</ele>
        <time>2025-11-05T10:29:49.023Z</time>
      </trkpt>
      <trkpt lat="43.53525" lon="5.51178">
        <ele>289.4</ele>
        <time>2025-11-05T10:29:52.023Z</time>
      </trkpt>
      <trkpt lat="43.53528" lon="5.51176">
        <ele>289.7</ele>
        <time>2025-11-05T10:29:57.023Z</time>
      </trkpt>
      <trkpt lat="43.5353" lon="5.51172">
        <ele>289.9</ele>
        <time>2025-11-05T10:30:01.023Z</time>
      </trkpt>
      <trkpt lat="43.53531" lon="5.51168">
        <ele>290.2</ele>
        <time>2025-11-05T10:30:04.023Z</time>
      </trkpt>
      <trkpt lat="43.53531" lon="5.51165">
        <ele>290.7</ele>
        <time>2025-11-05T10:30:07.023Z</time>
      </trkpt>
      <trkpt lat="43.53532" lon="5.51162">
        <ele>291</ele>
        <time>2025-11-05T10:30:12.023Z</time>
      </trkpt>
      <trkpt lat="43.53533" lon="5.51157">
        <ele>291.7</ele>
        <time>2025-11-05T10:30:16.023Z</time>
      </trkpt>
      <trkpt lat="43.53535" lon="5.51153">
        <ele>292.1</ele>
        <time>2025-11-05T10:30:22.023Z</time>
      </trkpt>
      <trkpt lat="43.53536" lon="5.5115">
        <ele>292.3</ele>
        <time>2025-11-05T10:30:26.023Z</time>
      </trkpt>
      <trkpt lat="43.53539" lon="5.51149">
        <ele>292.1</ele>
        <time>2025-11-05T10:30:29.023Z</time>
      </trkpt>
      <trkpt lat="43.5354" lon="5.51146">
        <ele>292.4</ele>
        <time>2025-11-05T10:30:33.023Z</time>
      </trkpt>
      <trkpt lat="43.53542" lon="5.51143">
        <ele>292.7</ele>
        <time>2025-11-05T10:30:36.023Z</time>
      </trkpt>
      <trkpt lat="43.53545" lon="5.5114">
        <ele>292.6</ele>
        <time>2025-11-05T10:30:39.023Z</time>
      </trkpt>
      <trkpt lat="43.53547" lon="5.51137">
        <ele>292.9</ele>
        <time>2025-11-05T10:30:42.022Z</time>
      </trkpt>
      <trkpt lat="43.53548" lon="5.51135">
        <ele>293.3</ele>
        <time>2025-11-05T10:30:44.023Z</time>
      </trkpt>
      <trkpt lat="43.5355" lon="5.51132">
        <ele>293.5</ele>
        <time>2025-11-05T10:30:47.023Z</time>
      </trkpt>
      <trkpt lat="43.53553" lon="5.51131">
        <ele>293.6</ele>
        <time>2025-11-05T10:30:53.023Z</time>
      </trkpt>
      <trkpt lat="43.53553" lon="5.51127">
        <ele>294.2</ele>
        <time>2025-11-05T10:30:59.023Z</time>
      </trkpt>
      <trkpt lat="43.53556" lon="5.51124">
        <ele>294.7</ele>
        <time>2025-11-05T10:31:05.023Z</time>
      </trkpt>
      <trkpt lat="43.53557" lon="5.51122">
        <ele>295.2</ele>
        <time>2025-11-05T10:31:09.023Z</time>
      </trkpt>
      <trkpt lat="43.53558" lon="5.51117">
        <ele>296.2</ele>
        <time>2025-11-05T10:31:13.023Z</time>
      </trkpt>
      <trkpt lat="43.5356" lon="5.51115">
        <ele>296.6</ele>
        <time>2025-11-05T10:31:17.023Z</time>
      </trkpt>
      <trkpt lat="43.53562" lon="5.51112">
        <ele>297.2</ele>
        <time>2025-11-05T10:31:22.023Z</time>
      </trkpt>
      <trkpt lat="43.53562" lon="5.51109">
        <ele>298.1</ele>
        <time>2025-11-05T10:31:31.023Z</time>
      </trkpt>
      <trkpt lat="43.53563" lon="5.51107">
        <ele>298.9</ele>
        <time>2025-11-05T10:31:35.023Z</time>
      </trkpt>
      <trkpt lat="43.53564" lon="5.51104">
        <ele>299.7</ele>
        <time>2025-11-05T10:31:39.023Z</time>
      </trkpt>
      <trkpt lat="43.53567" lon="5.51102">
        <ele>299.9</ele>
        <time>2025-11-05T10:31:52.023Z</time>
      </trkpt>
      <trkpt lat="43.53569" lon="5.51099">
        <ele>300.7</ele>
        <time>2025-11-05T10:31:56.022Z</time>
      </trkpt>
      <trkpt lat="43.53571" lon="5.51097">
        <ele>301.1</ele>
        <time>2025-11-05T10:32:01.023Z</time>
      </trkpt>
      <trkpt lat="43.53574" lon="5.51098">
        <ele>300.6</ele>
        <time>2025-11-05T10:32:04.023Z</time>
      </trkpt>
      <trkpt lat="43.53575" lon="5.51096">
        <ele>301.2</ele>
        <time>2025-11-05T10:32:07.023Z</time>
      </trkpt>
      <trkpt lat="43.53578" lon="5.51095">
        <ele>301.1</ele>
        <time>2025-11-05T10:32:10.023Z</time>
      </trkpt>
      <trkpt lat="43.53579" lon="5.51092">
        <ele>301.9</ele>
        <time>2025-11-05T10:32:17.023Z</time>
      </trkpt>
      <trkpt lat="43.53581" lon="5.51089">
        <ele>302.6</ele>
        <time>2025-11-05T10:32:21.023Z</time>
      </trkpt>
      <trkpt lat="43.53581" lon="5.51085">
        <ele>303.7</ele>
        <time>2025-11-05T10:32:30.023Z</time>
      </trkpt>
      <trkpt lat="43.53583" lon="5.51084">
        <ele>303.7</ele>
        <time>2025-11-05T10:32:33.023Z</time>
      </trkpt>
      <trkpt lat="43.53586" lon="5.51082">
        <ele>304.3</ele>
        <time>2025-11-05T10:32:45.023Z</time>
      </trkpt>
      <trkpt lat="43.53587" lon="5.51079">
        <ele>305.5</ele>
        <time>2025-11-05T10:32:54.023Z</time>
      </trkpt>
      <trkpt lat="43.53589" lon="5.51077">
        <ele>306</ele>
        <time>2025-11-05T10:32:59.023Z</time>
      </trkpt>
      <trkpt lat="43.53594" lon="5.51076">
        <ele>306.5</ele>
        <time>2025-11-05T10:33:06.023Z</time>
      </trkpt>
      <trkpt lat="43.53595" lon="5.51073">
        <ele>307.4</ele>
        <time>2025-11-05T10:33:11.023Z</time>
      </trkpt>
      <trkpt lat="43.53597" lon="5.51071">
        <ele>308</ele>
        <time>2025-11-05T10:33:17.023Z</time>
      </trkpt>
      <trkpt lat="43.536" lon="5.51072">
        <ele>307.6</ele>
        <time>2025-11-05T10:33:23.023Z</time>
      </trkpt>
      <trkpt lat="43.53602" lon="5.51073">
        <ele>307.4</ele>
        <time>2025-11-05T10:33:25.023Z</time>
      </trkpt>
      <trkpt lat="43.53605" lon="5.51073">
        <ele>307.2</ele>
        <time>2025-11-05T10:33:28.023Z</time>
      </trkpt>
      <trkpt lat="43.53607" lon="5.51074">
        <ele>307</ele>
        <time>2025-11-05T10:33:31.023Z</time>
      </trkpt>
      <trkpt lat="43.53609" lon="5.51071">
        <ele>308</ele>
        <time>2025-11-05T10:33:34.023Z</time>
      </trkpt>
      <trkpt lat="43.53612" lon="5.51069">
        <ele>308.7</ele>
        <time>2025-11-05T10:33:37.023Z</time>
      </trkpt>
      <trkpt lat="43.53614" lon="5.51067">
        <ele>309.8</ele>
        <time>2025-11-05T10:33:43.023Z</time>
      </trkpt>
      <trkpt lat="43.53616" lon="5.51066">
        <ele>310.5</ele>
        <time>2025-11-05T10:33:49.023Z</time>
      </trkpt>
      <trkpt lat="43.53618" lon="5.51063">
        <ele>311.7</ele>
        <time>2025-11-05T10:33:54.023Z</time>
      </trkpt>
      <trkpt lat="43.53621" lon="5.51061">
        <ele>312.8</ele>
        <time>2025-11-05T10:34:00.023Z</time>
      </trkpt>
      <trkpt lat="43.53624" lon="5.51061">
        <ele>313.2</ele>
        <time>2025-11-05T10:34:03.022Z</time>
      </trkpt>
      <trkpt lat="43.53626" lon="5.51061">
        <ele>313.8</ele>
        <time>2025-11-05T10:34:08.023Z</time>
      </trkpt>
      <trkpt lat="43.53629" lon="5.51061">
        <ele>313.9</ele>
        <time>2025-11-05T10:34:12.023Z</time>
      </trkpt>
      <trkpt lat="43.5363" lon="5.51059">
        <ele>314.9</ele>
        <time>2025-11-05T10:34:15.023Z</time>
      </trkpt>
      <trkpt lat="43.53632" lon="5.51058">
        <ele>315.5</ele>
        <time>2025-11-05T10:34:20.023Z</time>
      </trkpt>
      <trkpt lat="43.53635" lon="5.51055">
        <ele>316.6</ele>
        <time>2025-11-05T10:34:26.023Z</time>
      </trkpt>
      <trkpt lat="43.53637" lon="5.51058">
        <ele>316.1</ele>
        <time>2025-11-05T10:34:31.023Z</time>
      </trkpt>
      <trkpt lat="43.53639" lon="5.51058">
        <ele>316.6</ele>
        <time>2025-11-05T10:34:35.023Z</time>
      </trkpt>
      <trkpt lat="43.53643" lon="5.51059">
        <ele>317.4</ele>
        <time>2025-11-05T10:34:44.023Z</time>
      </trkpt>
      <trkpt lat="43.53646" lon="5.51059">
        <ele>318.2</ele>
        <time>2025-11-05T10:34:48.023Z</time>
      </trkpt>
      <trkpt lat="43.53648" lon="5.51057">
        <ele>319.2</ele>
        <time>2025-11-05T10:34:52.023Z</time>
      </trkpt>
      <trkpt lat="43.5365" lon="5.51059">
        <ele>319.3</ele>
        <time>2025-11-05T10:34:56.023Z</time>
      </trkpt>
      <trkpt lat="43.53652" lon="5.51061">
        <ele>319.5</ele>
        <time>2025-11-05T10:35:01.023Z</time>
      </trkpt>
      <trkpt lat="43.53653" lon="5.51064">
        <ele>319.4</ele>
        <time>2025-11-05T10:35:05.023Z</time>
      </trkpt>
      <trkpt lat="43.53656" lon="5.51066">
        <ele>319.7</ele>
        <time>2025-11-05T10:35:09.023Z</time>
      </trkpt>
      <trkpt lat="43.53658" lon="5.51066">
        <ele>320.4</ele>
        <time>2025-11-05T10:35:14.023Z</time>
      </trkpt>
      <trkpt lat="43.5366" lon="5.51068">
        <ele>320.7</ele>
        <time>2025-11-05T10:35:18.023Z</time>
      </trkpt>
      <trkpt lat="43.53663" lon="5.51069">
        <ele>321.3</ele>
        <time>2025-11-05T10:35:23.023Z</time>
      </trkpt>
      <trkpt lat="43.53664" lon="5.51073">
        <ele>320.9</ele>
        <time>2025-11-05T10:35:26.023Z</time>
      </trkpt>
      <trkpt lat="43.53666" lon="5.51077">
        <ele>320.9</ele>
        <time>2025-11-05T10:35:29.023Z</time>
      </trkpt>
      <trkpt lat="43.5367" lon="5.5108">
        <ele>321.3</ele>
        <time>2025-11-05T10:35:35.023Z</time>
      </trkpt>
      <trkpt lat="43.53672" lon="5.51081">
        <ele>321.7</ele>
        <time>2025-11-05T10:35:42.022Z</time>
      </trkpt>
      <trkpt lat="43.53674" lon="5.51078">
        <ele>322.5</ele>
        <time>2025-11-05T10:35:47.023Z</time>
      </trkpt>
      <trkpt lat="43.53676" lon="5.51077">
        <ele>323.1</ele>
        <time>2025-11-05T10:35:51.023Z</time>
      </trkpt>
      <trkpt lat="43.53679" lon="5.51078">
        <ele>323.6</ele>
        <time>2025-11-05T10:35:56.023Z</time>
      </trkpt>
      <trkpt lat="43.53681" lon="5.51079">
        <ele>323.9</ele>
        <time>2025-11-05T10:36:00.022Z</time>
      </trkpt>
      <trkpt lat="43.53684" lon="5.5108">
        <ele>324.2</ele>
        <time>2025-11-05T10:36:08.023Z</time>
      </trkpt>
      <trkpt lat="43.53686" lon="5.51079">
        <ele>324.8</ele>
        <time>2025-11-05T10:36:14.023Z</time>
      </trkpt>
      <trkpt lat="43.53688" lon="5.51082">
        <ele>324.9</ele>
        <time>2025-11-05T10:36:19.022Z</time>
      </trkpt>
      <trkpt lat="43.53689" lon="5.51085">
        <ele>324.6</ele>
        <time>2025-11-05T10:36:25.023Z</time>
      </trkpt>
      <trkpt lat="43.53692" lon="5.51084">
        <ele>325.2</ele>
        <time>2025-11-05T10:36:28.023Z</time>
      </trkpt>
      <trkpt lat="43.53694" lon="5.51084">
        <ele>325.7</ele>
        <time>2025-11-05T10:36:32.023Z</time>
      </trkpt>
      <trkpt lat="43.53697" lon="5.51085">
        <ele>326.1</ele>
        <time>2025-11-05T10:36:37.023Z</time>
      </trkpt>
      <trkpt lat="43.53698" lon="5.51087">
        <ele>325.7</ele>
        <time>2025-11-05T10:36:43.023Z</time>
      </trkpt>
      <trkpt lat="43.53701" lon="5.51089">
        <ele>325.9</ele>
        <time>2025-11-05T10:36:58.023Z</time>
      </trkpt>
      <trkpt lat="43.53703" lon="5.51089">
        <ele>326.2</ele>
        <time>2025-11-05T10:37:16.023Z</time>
      </trkpt>
      <trkpt lat="43.53704" lon="5.51092">
        <ele>326</ele>
        <time>2025-11-05T10:37:18.023Z</time>
      </trkpt>
      <trkpt lat="43.53706" lon="5.51095">
        <ele>325.7</ele>
        <time>2025-11-05T10:37:20.023Z</time>
      </trkpt>
      <trkpt lat="43.53707" lon="5.51098">
        <ele>325.3</ele>
        <time>2025-11-05T10:37:23.023Z</time>
      </trkpt>
      <trkpt lat="43.5371" lon="5.51103">
        <ele>325.2</ele>
        <time>2025-11-05T10:37:39.023Z</time>
      </trkpt>
      <trkpt lat="43.5371" lon="5.51106">
        <ele>324.5</ele>
        <time>2025-11-05T10:37:44.023Z</time>
      </trkpt>
      <trkpt lat="43.53711" lon="5.51109">
        <ele>324</ele>
        <time>2025-11-05T10:37:47.023Z</time>
      </trkpt>
      <trkpt lat="43.53713" lon="5.51111">
        <ele>324.3</ele>
        <time>2025-11-05T10:37:50.023Z</time>
      </trkpt>
      <trkpt lat="43.53715" lon="5.51114">
        <ele>324.3</ele>
        <time>2025-11-05T10:37:53.023Z</time>
      </trkpt>
      <trkpt lat="43.53717" lon="5.51116">
        <ele>324.4</ele>
        <time>2025-11-05T10:37:55.023Z</time>
      </trkpt>
      <trkpt lat="43.53719" lon="5.5112">
        <ele>324.3</ele>
        <time>2025-11-05T10:37:58.023Z</time>
      </trkpt>
      <trkpt lat="43.53721" lon="5.51122">
        <ele>324.4</ele>
        <time>2025-11-05T10:38:01.023Z</time>
      </trkpt>
      <trkpt lat="43.53724" lon="5.51124">
        <ele>324.5</ele>
        <time>2025-11-05T10:38:03.022Z</time>
      </trkpt>
      <trkpt lat="43.53726" lon="5.51125">
        <ele>324.6</ele>
        <time>2025-11-05T10:38:05.023Z</time>
      </trkpt>
      <trkpt lat="43.53728" lon="5.51128">
        <ele>324.3</ele>
        <time>2025-11-05T10:38:09.023Z</time>
      </trkpt>
      <trkpt lat="43.5373" lon="5.51129">
        <ele>324.6</ele>
        <time>2025-11-05T10:38:12.023Z</time>
      </trkpt>
      <trkpt lat="43.53732" lon="5.51131">
        <ele>324.7</ele>
        <time>2025-11-05T10:38:14.022Z</time>
      </trkpt>
      <trkpt lat="43.53735" lon="5.51133">
        <ele>324.9</ele>
        <time>2025-11-05T10:38:17.023Z</time>
      </trkpt>
      <trkpt lat="43.53737" lon="5.51135">
        <ele>324.9</ele>
        <time>2025-11-05T10:38:20.023Z</time>
      </trkpt>
      <trkpt lat="43.5374" lon="5.51136">
        <ele>325.3</ele>
        <time>2025-11-05T10:38:23.023Z</time>
      </trkpt>
      <trkpt lat="43.53742" lon="5.51139">
        <ele>325.2</ele>
        <time>2025-11-05T10:38:27.023Z</time>
      </trkpt>
      <trkpt lat="43.53743" lon="5.51141">
        <ele>325.7</ele>
        <time>2025-11-05T10:38:29.023Z</time>
      </trkpt>
      <trkpt lat="43.53745" lon="5.51143">
        <ele>326.2</ele>
        <time>2025-11-05T10:38:33.023Z</time>
      </trkpt>
      <trkpt lat="43.53745" lon="5.51147">
        <ele>326.5</ele>
        <time>2025-11-05T10:38:37.023Z</time>
      </trkpt>
      <trkpt lat="43.53744" lon="5.51151">
        <ele>326.5</ele>
        <time>2025-11-05T10:38:44.023Z</time>
      </trkpt>
      <trkpt lat="43.53743" lon="5.51155">
        <ele>326.7</ele>
        <time>2025-11-05T10:38:47.023Z</time>
      </trkpt>
      <trkpt lat="43.53741" lon="5.51159">
        <ele>326.7</ele>
        <time>2025-11-05T10:38:50.023Z</time>
      </trkpt>
      <trkpt lat="43.53739" lon="5.51161">
        <ele>326.7</ele>
        <time>2025-11-05T10:38:53.023Z</time>
      </trkpt>
      <trkpt lat="43.53738" lon="5.51164">
        <ele>326.8</ele>
        <time>2025-11-05T10:38:56.023Z</time>
      </trkpt>
      <trkpt lat="43.53737" lon="5.51167">
        <ele>327.1</ele>
        <time>2025-11-05T10:38:59.023Z</time>
      </trkpt>
      <trkpt lat="43.53735" lon="5.51169">
        <ele>327.3</ele>
        <time>2025-11-05T10:39:02.023Z</time>
      </trkpt>
      <trkpt lat="43.53732" lon="5.51171">
        <ele>327.4</ele>
        <time>2025-11-05T10:39:04.023Z</time>
      </trkpt>
      <trkpt lat="43.5373" lon="5.51173">
        <ele>327.5</ele>
        <time>2025-11-05T10:39:06.023Z</time>
      </trkpt>
      <trkpt lat="43.53728" lon="5.51175">
        <ele>327.7</ele>
        <time>2025-11-05T10:39:09.023Z</time>
      </trkpt>
      <trkpt lat="43.53725" lon="5.51176">
        <ele>327.6</ele>
        <time>2025-11-05T10:39:13.023Z</time>
      </trkpt>
      <trkpt lat="43.53722" lon="5.51177">
        <ele>327.4</ele>
        <time>2025-11-05T10:39:15.023Z</time>
      </trkpt>
      <trkpt lat="43.53719" lon="5.51177">
        <ele>327.3</ele>
        <time>2025-11-05T10:39:17.023Z</time>
      </trkpt>
      <trkpt lat="43.53716" lon="5.51178">
        <ele>327.1</ele>
        <time>2025-11-05T10:39:20.023Z</time>
      </trkpt>
      <trkpt lat="43.53714" lon="5.5118">
        <ele>327.2</ele>
        <time>2025-11-05T10:39:23.023Z</time>
      </trkpt>
      <trkpt lat="43.53711" lon="5.5118">
        <ele>326.9</ele>
        <time>2025-11-05T10:39:26.023Z</time>
      </trkpt>
      <trkpt lat="43.53708" lon="5.51181">
        <ele>326.8</ele>
        <time>2025-11-05T10:39:29.023Z</time>
      </trkpt>
      <trkpt lat="43.53705" lon="5.51183">
        <ele>326.9</ele>
        <time>2025-11-05T10:39:35.023Z</time>
      </trkpt>
      <trkpt lat="43.53703" lon="5.51184">
        <ele>326.8</ele>
        <time>2025-11-05T10:39:38.023Z</time>
      </trkpt>
      <trkpt lat="43.537" lon="5.51187">
        <ele>327.1</ele>
        <time>2025-11-05T10:39:41.023Z</time>
      </trkpt>
      <trkpt lat="43.53698" lon="5.5119">
        <ele>327.4</ele>
        <time>2025-11-05T10:39:43.023Z</time>
      </trkpt>
      <trkpt lat="43.53696" lon="5.51193">
        <ele>327.8</ele>
        <time>2025-11-05T10:39:45.023Z</time>
      </trkpt>
      <trkpt lat="43.53695" lon="5.51195">
        <ele>328.2</ele>
        <time>2025-11-05T10:39:47.022Z</time>
      </trkpt>
      <trkpt lat="43.53692" lon="5.51199">
        <ele>328.2</ele>
        <time>2025-11-05T10:39:50.023Z</time>
      </trkpt>
      <trkpt lat="43.5369" lon="5.51201">
        <ele>327.9</ele>
        <time>2025-11-05T10:39:52.023Z</time>
      </trkpt>
      <trkpt lat="43.53687" lon="5.51204">
        <ele>327.9</ele>
        <time>2025-11-05T10:39:55.023Z</time>
      </trkpt>
      <trkpt lat="43.53685" lon="5.51206">
        <ele>327.7</ele>
        <time>2025-11-05T10:39:58.023Z</time>
      </trkpt>
      <trkpt lat="43.53683" lon="5.5121">
        <ele>327.8</ele>
        <time>2025-11-05T10:40:01.022Z</time>
      </trkpt>
      <trkpt lat="43.53681" lon="5.51214">
        <ele>328</ele>
        <time>2025-11-05T10:40:04.022Z</time>
      </trkpt>
      <trkpt lat="43.5368" lon="5.51218">
        <ele>328.2</ele>
        <time>2025-11-05T10:40:07.023Z</time>
      </trkpt>
      <trkpt lat="43.53679" lon="5.51223">
        <ele>328.8</ele>
        <time>2025-11-05T10:40:10.023Z</time>
      </trkpt>
      <trkpt lat="43.53679" lon="5.51226">
        <ele>328.7</ele>
        <time>2025-11-05T10:40:14.023Z</time>
      </trkpt>
      <trkpt lat="43.53678" lon="5.5123">
        <ele>328.8</ele>
        <time>2025-11-05T10:40:17.023Z</time>
      </trkpt>
      <trkpt lat="43.53678" lon="5.51235">
        <ele>328.9</ele>
        <time>2025-11-05T10:40:20.023Z</time>
      </trkpt>
      <trkpt lat="43.53677" lon="5.51239">
        <ele>328.8</ele>
        <time>2025-11-05T10:40:23.023Z</time>
      </trkpt>
      <trkpt lat="43.53676" lon="5.51242">
        <ele>328.6</ele>
        <time>2025-11-05T10:40:25.022Z</time>
      </trkpt>
      <trkpt lat="43.53675" lon="5.51245">
        <ele>328.7</ele>
        <time>2025-11-05T10:40:28.023Z</time>
      </trkpt>
      <trkpt lat="43.53674" lon="5.51249">
        <ele>328.5</ele>
        <time>2025-11-05T10:40:31.023Z</time>
      </trkpt>
      <trkpt lat="43.53673" lon="5.51252">
        <ele>328.5</ele>
        <time>2025-11-05T10:40:34.023Z</time>
      </trkpt>
      <trkpt lat="43.53673" lon="5.51256">
        <ele>328.5</ele>
        <time>2025-11-05T10:40:37.023Z</time>
      </trkpt>
      <trkpt lat="43.53671" lon="5.5126">
        <ele>328.4</ele>
        <time>2025-11-05T10:40:40.023Z</time>
      </trkpt>
      <trkpt lat="43.5367" lon="5.51263">
        <ele>328.2</ele>
        <time>2025-11-05T10:40:42.022Z</time>
      </trkpt>
      <trkpt lat="43.53669" lon="5.51266">
        <ele>328</ele>
        <time>2025-11-05T10:40:46.023Z</time>
      </trkpt>
      <trkpt lat="43.5367" lon="5.51269">
        <ele>328.3</ele>
        <time>2025-11-05T10:40:50.023Z</time>
      </trkpt>
      <trkpt lat="43.53671" lon="5.51272">
        <ele>328.7</ele>
        <time>2025-11-05T10:40:53.023Z</time>
      </trkpt>
      <trkpt lat="43.53671" lon="5.51277">
        <ele>329</ele>
        <time>2025-11-05T10:40:56.023Z</time>
      </trkpt>
      <trkpt lat="43.53672" lon="5.5128">
        <ele>329.2</ele>
        <time>2025-11-05T10:40:58.023Z</time>
      </trkpt>
      <trkpt lat="43.53672" lon="5.51284">
        <ele>329.6</ele>
        <time>2025-11-05T10:41:01.023Z</time>
      </trkpt>
      <trkpt lat="43.53672" lon="5.51288">
        <ele>329.8</ele>
        <time>2025-11-05T10:41:04.023Z</time>
      </trkpt>
      <trkpt lat="43.53673" lon="5.51293">
        <ele>330.2</ele>
        <time>2025-11-05T10:41:08.023Z</time>
      </trkpt>
      <trkpt lat="43.53673" lon="5.51296">
        <ele>330.5</ele>
        <time>2025-11-05T10:41:10.023Z</time>
      </trkpt>
      <trkpt lat="43.53673" lon="5.513">
        <ele>330.6</ele>
        <time>2025-11-05T10:41:13.023Z</time>
      </trkpt>
      <trkpt lat="43.53673" lon="5.51303">
        <ele>330.8</ele>
        <time>2025-11-05T10:41:17.023Z</time>
      </trkpt>
      <trkpt lat="43.53674" lon="5.51307">
        <ele>331</ele>
        <time>2025-11-05T10:41:20.023Z</time>
      </trkpt>
      <trkpt lat="43.53674" lon="5.51311">
        <ele>330.9</ele>
        <time>2025-11-05T10:41:23.023Z</time>
      </trkpt>
      <trkpt lat="43.53675" lon="5.51315">
        <ele>330.9</ele>
        <time>2025-11-05T10:41:26.023Z</time>
      </trkpt>
      <trkpt lat="43.53675" lon="5.51319">
        <ele>330.8</ele>
        <time>2025-11-05T10:41:29.023Z</time>
      </trkpt>
      <trkpt lat="43.53675" lon="5.51323">
        <ele>330.6</ele>
        <time>2025-11-05T10:41:32.023Z</time>
      </trkpt>
      <trkpt lat="43.53676" lon="5.51326">
        <ele>330.6</ele>
        <time>2025-11-05T10:41:34.022Z</time>
      </trkpt>
      <trkpt lat="43.53677" lon="5.51331">
        <ele>330.6</ele>
        <time>2025-11-05T10:41:37.023Z</time>
      </trkpt>
      <trkpt lat="43.53678" lon="5.51334">
        <ele>330.6</ele>
        <time>2025-11-05T10:41:40.023Z</time>
      </trkpt>
      <trkpt lat="43.5368" lon="5.51336">
        <ele>330.6</ele>
        <time>2025-11-05T10:41:43.023Z</time>
      </trkpt>
      <trkpt lat="43.53683" lon="5.51338">
        <ele>330.7</ele>
        <time>2025-11-05T10:41:46.023Z</time>
      </trkpt>
      <trkpt lat="43.53685" lon="5.51342">
        <ele>330.6</ele>
        <time>2025-11-05T10:41:49.023Z</time>
      </trkpt>
      <trkpt lat="43.53688" lon="5.51345">
        <ele>330.7</ele>
        <time>2025-11-05T10:41:51.023Z</time>
      </trkpt>
      <trkpt lat="43.5369" lon="5.51346">
        <ele>330.9</ele>
        <time>2025-11-05T10:41:53.023Z</time>
      </trkpt>
      <trkpt lat="43.53692" lon="5.51349">
        <ele>331</ele>
        <time>2025-11-05T10:41:56.023Z</time>
      </trkpt>
      <trkpt lat="43.53694" lon="5.51351">
        <ele>331.1</ele>
        <time>2025-11-05T10:41:59.023Z</time>
      </trkpt>
      <trkpt lat="43.53696" lon="5.51353">
        <ele>330.9</ele>
        <time>2025-11-05T10:42:04.023Z</time>
      </trkpt>
      <trkpt lat="43.53698" lon="5.51355">
        <ele>330.9</ele>
        <time>2025-11-05T10:42:06.023Z</time>
      </trkpt>
      <trkpt lat="43.537" lon="5.51357">
        <ele>330.8</ele>
        <time>2025-11-05T10:42:08.022Z</time>
      </trkpt>
      <trkpt lat="43.53703" lon="5.5136">
        <ele>330.7</ele>
        <time>2025-11-05T10:42:11.023Z</time>
      </trkpt>
      <trkpt lat="43.53705" lon="5.51362">
        <ele>330.7</ele>
        <time>2025-11-05T10:42:13.023Z</time>
      </trkpt>
      <trkpt lat="43.53706" lon="5.51364">
        <ele>330.4</ele>
        <time>2025-11-05T10:42:16.023Z</time>
      </trkpt>
      <trkpt lat="43.53709" lon="5.51366">
        <ele>330.5</ele>
        <time>2025-11-05T10:42:19.023Z</time>
      </trkpt>
      <trkpt lat="43.53712" lon="5.51367">
        <ele>330.6</ele>
        <time>2025-11-05T10:42:22.023Z</time>
      </trkpt>
      <trkpt lat="43.53715" lon="5.51369">
        <ele>330.6</ele>
        <time>2025-11-05T10:42:25.023Z</time>
      </trkpt>
      <trkpt lat="43.53718" lon="5.51371">
        <ele>330.7</ele>
        <time>2025-11-05T10:42:27.023Z</time>
      </trkpt>
      <trkpt lat="43.5372" lon="5.51374">
        <ele>330.9</ele>
        <time>2025-11-05T10:42:30.023Z</time>
      </trkpt>
      <trkpt lat="43.53723" lon="5.51375">
        <ele>331</ele>
        <time>2025-11-05T10:42:32.023Z</time>
      </trkpt>
      <trkpt lat="43.53724" lon="5.51378">
        <ele>330.9</ele>
        <time>2025-11-05T10:42:34.023Z</time>
      </trkpt>
      <trkpt lat="43.53726" lon="5.51381">
        <ele>330.7</ele>
        <time>2025-11-05T10:42:37.023Z</time>
      </trkpt>
      <trkpt lat="43.53728" lon="5.51383">
        <ele>330.7</ele>
        <time>2025-11-05T10:42:41.023Z</time>
      </trkpt>
      <trkpt lat="43.53729" lon="5.51386">
        <ele>330.5</ele>
        <time>2025-11-05T10:42:44.023Z</time>
      </trkpt>
      <trkpt lat="43.53731" lon="5.51389">
        <ele>330.3</ele>
        <time>2025-11-05T10:42:47.023Z</time>
      </trkpt>
      <trkpt lat="43.53733" lon="5.51391">
        <ele>330.4</ele>
        <time>2025-11-05T10:42:50.023Z</time>
      </trkpt>
      <trkpt lat="43.53735" lon="5.51393">
        <ele>330.5</ele>
        <time>2025-11-05T10:42:52.023Z</time>
      </trkpt>
      <trkpt lat="43.53736" lon="5.51396">
        <ele>330.6</ele>
        <time>2025-11-05T10:42:55.023Z</time>
      </trkpt>
      <trkpt lat="43.53738" lon="5.514">
        <ele>330.8</ele>
        <time>2025-11-05T10:42:58.023Z</time>
      </trkpt>
      <trkpt lat="43.5374" lon="5.51403">
        <ele>330.9</ele>
        <time>2025-11-05T10:43:00.022Z</time>
      </trkpt>
      <trkpt lat="43.53741" lon="5.51406">
        <ele>331.1</ele>
        <time>2025-11-05T10:43:04.022Z</time>
      </trkpt>
      <trkpt lat="43.5374" lon="5.51411">
        <ele>331.2</ele>
        <time>2025-11-05T10:43:08.023Z</time>
      </trkpt>
      <trkpt lat="43.53739" lon="5.51413">
        <ele>331.2</ele>
        <time>2025-11-05T10:43:11.023Z</time>
      </trkpt>
      <trkpt lat="43.53737" lon="5.51415">
        <ele>331</ele>
        <time>2025-11-05T10:43:14.023Z</time>
      </trkpt>
      <trkpt lat="43.53734" lon="5.51416">
        <ele>330.9</ele>
        <time>2025-11-05T10:43:16.023Z</time>
      </trkpt>
      <trkpt lat="43.53732" lon="5.51418">
        <ele>330.8</ele>
        <time>2025-11-05T10:43:18.022Z</time>
      </trkpt>
      <trkpt lat="43.5373" lon="5.5142">
        <ele>330.8</ele>
        <time>2025-11-05T10:43:20.022Z</time>
      </trkpt>
      <trkpt lat="43.53728" lon="5.51421">
        <ele>330.7</ele>
        <time>2025-11-05T10:43:24.023Z</time>
      </trkpt>
      <trkpt lat="43.53725" lon="5.51422">
        <ele>330.6</ele>
        <time>2025-11-05T10:43:26.023Z</time>
      </trkpt>
      <trkpt lat="43.53723" lon="5.51424">
        <ele>330.5</ele>
        <time>2025-11-05T10:43:29.023Z</time>
      </trkpt>
      <trkpt lat="43.5372" lon="5.51427">
        <ele>330.6</ele>
        <time>2025-11-05T10:43:32.022Z</time>
      </trkpt>
      <trkpt lat="43.53719" lon="5.5143">
        <ele>330.7</ele>
        <time>2025-11-05T10:43:34.023Z</time>
      </trkpt>
      <trkpt lat="43.53716" lon="5.51432">
        <ele>330.7</ele>
        <time>2025-11-05T10:43:36.022Z</time>
      </trkpt>
      <trkpt lat="43.53715" lon="5.51436">
        <ele>330.8</ele>
        <time>2025-11-05T10:43:39.023Z</time>
      </trkpt>
      <trkpt lat="43.53714" lon="5.5144">
        <ele>331</ele>
        <time>2025-11-05T10:43:43.023Z</time>
      </trkpt>
      <trkpt lat="43.53712" lon="5.51443">
        <ele>331.2</ele>
        <time>2025-11-05T10:43:46.023Z</time>
      </trkpt>
      <trkpt lat="43.53711" lon="5.51447">
        <ele>331.1</ele>
        <time>2025-11-05T10:43:49.023Z</time>
      </trkpt>
      <trkpt lat="43.5371" lon="5.51451">
        <ele>331</ele>
        <time>2025-11-05T10:43:51.023Z</time>
      </trkpt>
      <trkpt lat="43.5371" lon="5.51454">
        <ele>331</ele>
        <time>2025-11-05T10:43:55.023Z</time>
      </trkpt>
      <trkpt lat="43.53711" lon="5.51457">
        <ele>331</ele>
        <time>2025-11-05T10:43:58.023Z</time>
      </trkpt>
      <trkpt lat="43.53712" lon="5.51461">
        <ele>331</ele>
        <time>2025-11-05T10:44:00.022Z</time>
      </trkpt>
      <trkpt lat="43.53713" lon="5.51463">
        <ele>331.1</ele>
        <time>2025-11-05T10:44:02.022Z</time>
      </trkpt>
      <trkpt lat="43.53714" lon="5.51467">
        <ele>331.2</ele>
        <time>2025-11-05T10:44:05.022Z</time>
      </trkpt>
      <trkpt lat="43.53714" lon="5.5147">
        <ele>331.2</ele>
        <time>2025-11-05T10:44:07.022Z</time>
      </trkpt>
      <trkpt lat="43.53715" lon="5.51474">
        <ele>331.1</ele>
        <time>2025-11-05T10:44:10.023Z</time>
      </trkpt>
      <trkpt lat="43.53717" lon="5.51476">
        <ele>331.2</ele>
        <time>2025-11-05T10:44:13.022Z</time>
      </trkpt>
      <trkpt lat="43.53718" lon="5.51479">
        <ele>331.1</ele>
        <time>2025-11-05T10:44:15.023Z</time>
      </trkpt>
      <trkpt lat="43.53719" lon="5.51482">
        <ele>331.1</ele>
        <time>2025-11-05T10:44:17.022Z</time>
      </trkpt>
      <trkpt lat="43.53721" lon="5.51486">
        <ele>331.3</ele>
        <time>2025-11-05T10:44:20.023Z</time>
      </trkpt>
      <trkpt lat="43.53722" lon="5.51489">
        <ele>331.4</ele>
        <time>2025-11-05T10:44:23.023Z</time>
      </trkpt>
      <trkpt lat="43.53725" lon="5.51492">
        <ele>331.6</ele>
        <time>2025-11-05T10:44:25.022Z</time>
      </trkpt>
      <trkpt lat="43.53726" lon="5.51495">
        <ele>331.7</ele>
        <time>2025-11-05T10:44:27.023Z</time>
      </trkpt>
      <trkpt lat="43.53728" lon="5.51498">
        <ele>331.9</ele>
        <time>2025-11-05T10:44:29.023Z</time>
      </trkpt>
      <trkpt lat="43.53729" lon="5.51501">
        <ele>331.8</ele>
        <time>2025-11-05T10:44:32.023Z</time>
      </trkpt>
      <trkpt lat="43.5373" lon="5.51504">
        <ele>331.7</ele>
        <time>2025-11-05T10:44:35.023Z</time>
      </trkpt>
      <trkpt lat="43.53733" lon="5.51507">
        <ele>331.8</ele>
        <time>2025-11-05T10:44:38.023Z</time>
      </trkpt>
      <trkpt lat="43.53734" lon="5.5151">
        <ele>331.6</ele>
        <time>2025-11-05T10:44:40.022Z</time>
      </trkpt>
      <trkpt lat="43.53734" lon="5.51514">
        <ele>331.3</ele>
        <time>2025-11-05T10:44:42.023Z</time>
      </trkpt>
      <trkpt lat="43.53735" lon="5.51518">
        <ele>331.2</ele>
        <time>2025-11-05T10:44:45.023Z</time>
      </trkpt>
      <trkpt lat="43.53737" lon="5.51521">
        <ele>331.3</ele>
        <time>2025-11-05T10:44:47.023Z</time>
      </trkpt>
      <trkpt lat="43.53739" lon="5.51524">
        <ele>331.5</ele>
        <time>2025-11-05T10:44:49.023Z</time>
      </trkpt>
      <trkpt lat="43.53741" lon="5.51526">
        <ele>331.8</ele>
        <time>2025-11-05T10:44:51.023Z</time>
      </trkpt>
      <trkpt lat="43.53743" lon="5.51529">
        <ele>332.2</ele>
        <time>2025-11-05T10:44:54.023Z</time>
      </trkpt>
      <trkpt lat="43.53745" lon="5.51532">
        <ele>332.3</ele>
        <time>2025-11-05T10:44:56.022Z</time>
      </trkpt>
      <trkpt lat="43.53746" lon="5.51536">
        <ele>332.3</ele>
        <time>2025-11-05T10:44:59.023Z</time>
      </trkpt>
      <trkpt lat="43.53748" lon="5.5154">
        <ele>332.4</ele>
        <time>2025-11-05T10:45:02.023Z</time>
      </trkpt>
      <trkpt lat="43.53749" lon="5.51542">
        <ele>332.7</ele>
        <time>2025-11-05T10:45:04.023Z</time>
      </trkpt>
      <trkpt lat="43.53751" lon="5.51544">
        <ele>333</ele>
        <time>2025-11-05T10:45:08.023Z</time>
      </trkpt>
      <trkpt lat="43.53753" lon="5.51547">
        <ele>333.1</ele>
        <time>2025-11-05T10:45:10.022Z</time>
      </trkpt>
      <trkpt lat="43.53754" lon="5.5155">
        <ele>333</ele>
        <time>2025-11-05T10:45:12.023Z</time>
      </trkpt>
      <trkpt lat="43.53756" lon="5.51553">
        <ele>333.1</ele>
        <time>2025-11-05T10:45:14.023Z</time>
      </trkpt>
      <trkpt lat="43.53759" lon="5.51556">
        <ele>333.1</ele>
        <time>2025-11-05T10:45:17.023Z</time>
      </trkpt>
      <trkpt lat="43.5376" lon="5.51559">
        <ele>332.7</ele>
        <time>2025-11-05T10:45:20.023Z</time>
      </trkpt>
      <trkpt lat="43.53762" lon="5.51562">
        <ele>332.6</ele>
        <time>2025-11-05T10:45:23.023Z</time>
      </trkpt>
      <trkpt lat="43.53764" lon="5.51563">
        <ele>332.6</ele>
        <time>2025-11-05T10:45:26.022Z</time>
      </trkpt>
      <trkpt lat="43.53766" lon="5.51566">
        <ele>332.6</ele>
        <time>2025-11-05T10:45:29.023Z</time>
      </trkpt>
      <trkpt lat="43.53768" lon="5.51568">
        <ele>332.8</ele>
        <time>2025-11-05T10:45:32.023Z</time>
      </trkpt>
      <trkpt lat="43.53771" lon="5.51571">
        <ele>332.9</ele>
        <time>2025-11-05T10:45:37.023Z</time>
      </trkpt>
      <trkpt lat="43.53773" lon="5.51573">
        <ele>333</ele>
        <time>2025-11-05T10:45:39.023Z</time>
      </trkpt>
      <trkpt lat="43.53774" lon="5.51576">
        <ele>333</ele>
        <time>2025-11-05T10:45:41.023Z</time>
      </trkpt>
      <trkpt lat="43.53777" lon="5.51577">
        <ele>333.5</ele>
        <time>2025-11-05T10:45:43.023Z</time>
      </trkpt>
      <trkpt lat="43.53779" lon="5.51579">
        <ele>333.7</ele>
        <time>2025-11-05T10:45:45.023Z</time>
      </trkpt>
      <trkpt lat="43.53781" lon="5.51582">
        <ele>333.8</ele>
        <time>2025-11-05T10:45:48.023Z</time>
      </trkpt>
      <trkpt lat="43.53783" lon="5.51585">
        <ele>333.8</ele>
        <time>2025-11-05T10:45:50.023Z</time>
      </trkpt>
      <trkpt lat="43.53784" lon="5.51588">
        <ele>333.9</ele>
        <time>2025-11-05T10:45:52.023Z</time>
      </trkpt>
      <trkpt lat="43.53785" lon="5.51593">
        <ele>334.1</ele>
        <time>2025-11-05T10:45:55.023Z</time>
      </trkpt>
      <trkpt lat="43.53786" lon="5.51596">
        <ele>334.1</ele>
        <time>2025-11-05T10:45:58.023Z</time>
      </trkpt>
      <trkpt lat="43.53787" lon="5.516">
        <ele>334.3</ele>
        <time>2025-11-05T10:46:01.023Z</time>
      </trkpt>
      <trkpt lat="43.53788" lon="5.51604">
        <ele>334.4</ele>
        <time>2025-11-05T10:46:04.023Z</time>
      </trkpt>
      <trkpt lat="43.53789" lon="5.51607">
        <ele>334.6</ele>
        <time>2025-11-05T10:46:06.023Z</time>
      </trkpt>
      <trkpt lat="43.5379" lon="5.5161">
        <ele>334.7</ele>
        <time>2025-11-05T10:46:08.023Z</time>
      </trkpt>
      <trkpt lat="43.53792" lon="5.51613">
        <ele>335</ele>
        <time>2025-11-05T10:46:11.023Z</time>
      </trkpt>
      <trkpt lat="43.53793" lon="5.51617">
        <ele>335</ele>
        <time>2025-11-05T10:46:14.023Z</time>
      </trkpt>
      <trkpt lat="43.53795" lon="5.51621">
        <ele>335.2</ele>
        <time>2025-11-05T10:46:17.022Z</time>
      </trkpt>
      <trkpt lat="43.53796" lon="5.51625">
        <ele>335.1</ele>
        <time>2025-11-05T10:46:20.023Z</time>
      </trkpt>
      <trkpt lat="43.53797" lon="5.51629">
        <ele>335.1</ele>
        <time>2025-11-05T10:46:23.023Z</time>
      </trkpt>
      <trkpt lat="43.53798" lon="5.51633">
        <ele>335</ele>
        <time>2025-11-05T10:46:26.023Z</time>
      </trkpt>
      <trkpt lat="43.53798" lon="5.51636">
        <ele>335</ele>
        <time>2025-11-05T10:46:28.023Z</time>
      </trkpt>
      <trkpt lat="43.53797" lon="5.5164">
        <ele>334.6</ele>
        <time>2025-11-05T10:46:31.023Z</time>
      </trkpt>
      <trkpt lat="43.53797" lon="5.51643">
        <ele>334.3</ele>
        <time>2025-11-05T10:46:34.023Z</time>
      </trkpt>
      <trkpt lat="43.53798" lon="5.51647">
        <ele>334.3</ele>
        <time>2025-11-05T10:46:37.023Z</time>
      </trkpt>
      <trkpt lat="43.53798" lon="5.5165">
        <ele>334</ele>
        <time>2025-11-05T10:46:39.023Z</time>
      </trkpt>
      <trkpt lat="43.53798" lon="5.51654">
        <ele>333.5</ele>
        <time>2025-11-05T10:46:42.023Z</time>
      </trkpt>
      <trkpt lat="43.53798" lon="5.51657">
        <ele>333.4</ele>
        <time>2025-11-05T10:46:44.022Z</time>
      </trkpt>
      <trkpt lat="43.53799" lon="5.51659">
        <ele>333.5</ele>
        <time>2025-11-05T10:46:47.023Z</time>
      </trkpt>
      <trkpt lat="43.53802" lon="5.51662">
        <ele>333.7</ele>
        <time>2025-11-05T10:46:50.023Z</time>
      </trkpt>
      <trkpt lat="43.53804" lon="5.51664">
        <ele>334</ele>
        <time>2025-11-05T10:46:53.023Z</time>
      </trkpt>
      <trkpt lat="43.53807" lon="5.51666">
        <ele>334.1</ele>
        <time>2025-11-05T10:46:56.023Z</time>
      </trkpt>
      <trkpt lat="43.53809" lon="5.51669">
        <ele>333.7</ele>
        <time>2025-11-05T10:46:59.023Z</time>
      </trkpt>
      <trkpt lat="43.53811" lon="5.5167">
        <ele>333.7</ele>
        <time>2025-11-05T10:47:01.023Z</time>
      </trkpt>
      <trkpt lat="43.53814" lon="5.5167">
        <ele>333.7</ele>
        <time>2025-11-05T10:47:03.023Z</time>
      </trkpt>
      <trkpt lat="43.53817" lon="5.5167">
        <ele>334.1</ele>
        <time>2025-11-05T10:47:06.022Z</time>
      </trkpt>
      <trkpt lat="43.53819" lon="5.5167">
        <ele>334.2</ele>
        <time>2025-11-05T10:47:09.023Z</time>
      </trkpt>
      <trkpt lat="43.53822" lon="5.51671">
        <ele>334.2</ele>
        <time>2025-11-05T10:47:12.022Z</time>
      </trkpt>
      <trkpt lat="43.53825" lon="5.5167">
        <ele>334.6</ele>
        <time>2025-11-05T10:47:15.023Z</time>
      </trkpt>
      <trkpt lat="43.53827" lon="5.51672">
        <ele>334.3</ele>
        <time>2025-11-05T10:47:17.023Z</time>
      </trkpt>
      <trkpt lat="43.53829" lon="5.51673">
        <ele>334.3</ele>
        <time>2025-11-05T10:47:19.022Z</time>
      </trkpt>
      <trkpt lat="43.53833" lon="5.51673">
        <ele>334.6</ele>
        <time>2025-11-05T10:47:22.023Z</time>
      </trkpt>
      <trkpt lat="43.53836" lon="5.51675">
        <ele>334.4</ele>
        <time>2025-11-05T10:47:25.023Z</time>
      </trkpt>
      <trkpt lat="43.53838" lon="5.51676">
        <ele>334.4</ele>
        <time>2025-11-05T10:47:27.023Z</time>
      </trkpt>
      <trkpt lat="43.53841" lon="5.51678">
        <ele>334.1</ele>
        <time>2025-11-05T10:47:30.023Z</time>
      </trkpt>
      <trkpt lat="43.53843" lon="5.51679">
        <ele>334.1</ele>
        <time>2025-11-05T10:47:32.023Z</time>
      </trkpt>
      <trkpt lat="43.53845" lon="5.5168">
        <ele>334.2</ele>
        <time>2025-11-05T10:47:34.023Z</time>
      </trkpt>
      <trkpt lat="43.53847" lon="5.51682">
        <ele>334.1</ele>
        <time>2025-11-05T10:47:37.023Z</time>
      </trkpt>
      <trkpt lat="43.5385" lon="5.51683">
        <ele>334.1</ele>
        <time>2025-11-05T10:47:40.023Z</time>
      </trkpt>
      <trkpt lat="43.53853" lon="5.51685">
        <ele>334.2</ele>
        <time>2025-11-05T10:47:44.023Z</time>
      </trkpt>
      <trkpt lat="43.53855" lon="5.51686">
        <ele>334.2</ele>
        <time>2025-11-05T10:47:47.023Z</time>
      </trkpt>
      <trkpt lat="43.53857" lon="5.51688">
        <ele>334.3</ele>
        <time>2025-11-05T10:47:49.023Z</time>
      </trkpt>
      <trkpt lat="43.5386" lon="5.51689">
        <ele>334.5</ele>
        <time>2025-11-05T10:47:51.023Z</time>
      </trkpt>
      <trkpt lat="43.53863" lon="5.51691">
        <ele>334.5</ele>
        <time>2025-11-05T10:47:55.023Z</time>
      </trkpt>
      <trkpt lat="43.53865" lon="5.51693">
        <ele>334.4</ele>
        <time>2025-11-05T10:47:58.023Z</time>
      </trkpt>
      <trkpt lat="43.53867" lon="5.51695">
        <ele>334.1</ele>
        <time>2025-11-05T10:48:00.023Z</time>
      </trkpt>
      <trkpt lat="43.53869" lon="5.51696">
        <ele>334.3</ele>
        <time>2025-11-05T10:48:03.023Z</time>
      </trkpt>
      <trkpt lat="43.53873" lon="5.51697">
        <ele>334.2</ele>
        <time>2025-11-05T10:48:06.023Z</time>
      </trkpt>
      <trkpt lat="43.53875" lon="5.51699">
        <ele>334.1</ele>
        <time>2025-11-05T10:48:09.023Z</time>
      </trkpt>
      <trkpt lat="43.53877" lon="5.51702">
        <ele>333.7</ele>
        <time>2025-11-05T10:48:12.023Z</time>
      </trkpt>
      <trkpt lat="43.5388" lon="5.51703">
        <ele>333.9</ele>
        <time>2025-11-05T10:48:15.023Z</time>
      </trkpt>
      <trkpt lat="43.53883" lon="5.51705">
        <ele>333.8</ele>
        <time>2025-11-05T10:48:18.023Z</time>
      </trkpt>
      <trkpt lat="43.53886" lon="5.51707">
        <ele>333.7</ele>
        <time>2025-11-05T10:48:21.023Z</time>
      </trkpt>
      <trkpt lat="43.53888" lon="5.51709">
        <ele>333.7</ele>
        <time>2025-11-05T10:48:24.023Z</time>
      </trkpt>
      <trkpt lat="43.5389" lon="5.51709">
        <ele>333.9</ele>
        <time>2025-11-05T10:48:26.022Z</time>
      </trkpt>
      <trkpt lat="43.53893" lon="5.5171">
        <ele>334</ele>
        <time>2025-11-05T10:48:29.023Z</time>
      </trkpt>
      <trkpt lat="43.53896" lon="5.51708">
        <ele>334.3</ele>
        <time>2025-11-05T10:48:32.023Z</time>
      </trkpt>
      <trkpt lat="43.53898" lon="5.51709">
        <ele>334.3</ele>
        <time>2025-11-05T10:48:35.022Z</time>
      </trkpt>
      <trkpt lat="43.53901" lon="5.5171">
        <ele>334.2</ele>
        <time>2025-11-05T10:48:37.023Z</time>
      </trkpt>
      <trkpt lat="43.53903" lon="5.51712">
        <ele>334.1</ele>
        <time>2025-11-05T10:48:40.023Z</time>
      </trkpt>
      <trkpt lat="43.53907" lon="5.51713">
        <ele>334.2</ele>
        <time>2025-11-05T10:48:43.023Z</time>
      </trkpt>
      <trkpt lat="43.53909" lon="5.51714">
        <ele>334.2</ele>
        <time>2025-11-05T10:48:45.023Z</time>
      </trkpt>
      <trkpt lat="43.53912" lon="5.51714">
        <ele>334.3</ele>
        <time>2025-11-05T10:48:48.023Z</time>
      </trkpt>
      <trkpt lat="43.53915" lon="5.51714">
        <ele>334.5</ele>
        <time>2025-11-05T10:48:52.023Z</time>
      </trkpt>
      <trkpt lat="43.53917" lon="5.51717">
        <ele>334.4</ele>
        <time>2025-11-05T10:48:55.023Z</time>
      </trkpt>
      <trkpt lat="43.5392" lon="5.51721">
        <ele>334.5</ele>
        <time>2025-11-05T10:48:58.023Z</time>
      </trkpt>
      <trkpt lat="43.53922" lon="5.51724">
        <ele>334.4</ele>
        <time>2025-11-05T10:49:00.023Z</time>
      </trkpt>
      <trkpt lat="43.53923" lon="5.51727">
        <ele>333.9</ele>
        <time>2025-11-05T10:49:02.023Z</time>
      </trkpt>
      <trkpt lat="43.53926" lon="5.51731">
        <ele>333.7</ele>
        <time>2025-11-05T10:49:05.022Z</time>
      </trkpt>
      <trkpt lat="43.53927" lon="5.51733">
        <ele>333.6</ele>
        <time>2025-11-05T10:49:08.023Z</time>
      </trkpt>
      <trkpt lat="43.53929" lon="5.51736">
        <ele>333.3</ele>
        <time>2025-11-05T10:49:10.023Z</time>
      </trkpt>
      <trkpt lat="43.53931" lon="5.51738">
        <ele>333.6</ele>
        <time>2025-11-05T10:49:13.023Z</time>
      </trkpt>
      <trkpt lat="43.53933" lon="5.5174">
        <ele>333.8</ele>
        <time>2025-11-05T10:49:16.023Z</time>
      </trkpt>
      <trkpt lat="43.53934" lon="5.51743">
        <ele>333.5</ele>
        <time>2025-11-05T10:49:18.023Z</time>
      </trkpt>
      <trkpt lat="43.53935" lon="5.51747">
        <ele>333.3</ele>
        <time>2025-11-05T10:49:20.022Z</time>
      </trkpt>
      <trkpt lat="43.53936" lon="5.5175">
        <ele>333.4</ele>
        <time>2025-11-05T10:49:23.023Z</time>
      </trkpt>
      <trkpt lat="43.53938" lon="5.51752">
        <ele>333.7</ele>
        <time>2025-11-05T10:49:25.022Z</time>
      </trkpt>
      <trkpt lat="43.53941" lon="5.51755">
        <ele>334.5</ele>
        <time>2025-11-05T10:49:28.023Z</time>
      </trkpt>
      <trkpt lat="43.53942" lon="5.51759">
        <ele>334.4</ele>
        <time>2025-11-05T10:49:32.022Z</time>
      </trkpt>
      <trkpt lat="43.53944" lon="5.51761">
        <ele>335.1</ele>
        <time>2025-11-05T10:49:37.023Z</time>
      </trkpt>
      <trkpt lat="43.53946" lon="5.51763">
        <ele>335.5</ele>
        <time>2025-11-05T10:49:40.023Z</time>
      </trkpt>
      <trkpt lat="43.53947" lon="5.51766">
        <ele>335.4</ele>
        <time>2025-11-05T10:49:42.023Z</time>
      </trkpt>
      <trkpt lat="43.53947" lon="5.51769">
        <ele>335.2</ele>
        <time>2025-11-05T10:49:45.023Z</time>
      </trkpt>
      <trkpt lat="43.53948" lon="5.51773">
        <ele>335.1</ele>
        <time>2025-11-05T10:49:49.023Z</time>
      </trkpt>
      <trkpt lat="43.53949" lon="5.51777">
        <ele>335.3</ele>
        <time>2025-11-05T10:49:51.023Z</time>
      </trkpt>
      <trkpt lat="43.53951" lon="5.5178">
        <ele>335.4</ele>
        <time>2025-11-05T10:49:53.023Z</time>
      </trkpt>
      <trkpt lat="43.53953" lon="5.51783">
        <ele>335.7</ele>
        <time>2025-11-05T10:49:56.023Z</time>
      </trkpt>
      <trkpt lat="43.53953" lon="5.51788">
        <ele>335.5</ele>
        <time>2025-11-05T10:49:59.023Z</time>
      </trkpt>
      <trkpt lat="43.53952" lon="5.51791">
        <ele>335.1</ele>
        <time>2025-11-05T10:50:01.023Z</time>
      </trkpt>
      <trkpt lat="43.53952" lon="5.51795">
        <ele>334.9</ele>
        <time>2025-11-05T10:50:05.022Z</time>
      </trkpt>
      <trkpt lat="43.53953" lon="5.51799">
        <ele>334.7</ele>
        <time>2025-11-05T10:50:07.023Z</time>
      </trkpt>
      <trkpt lat="43.53953" lon="5.51803">
        <ele>334.6</ele>
        <time>2025-11-05T10:50:10.023Z</time>
      </trkpt>
      <trkpt lat="43.53954" lon="5.51807">
        <ele>334.7</ele>
        <time>2025-11-05T10:50:13.023Z</time>
      </trkpt>
      <trkpt lat="43.53955" lon="5.5181">
        <ele>334.7</ele>
        <time>2025-11-05T10:50:16.023Z</time>
      </trkpt>
      <trkpt lat="43.53956" lon="5.51813">
        <ele>334.7</ele>
        <time>2025-11-05T10:50:19.023Z</time>
      </trkpt>
      <trkpt lat="43.53957" lon="5.51816">
        <ele>334.7</ele>
        <time>2025-11-05T10:50:21.023Z</time>
      </trkpt>
      <trkpt lat="43.53959" lon="5.5182">
        <ele>334.9</ele>
        <time>2025-11-05T10:50:24.023Z</time>
      </trkpt>
      <trkpt lat="43.53961" lon="5.51821">
        <ele>335.3</ele>
        <time>2025-11-05T10:50:26.023Z</time>
      </trkpt>
      <trkpt lat="43.53964" lon="5.51823">
        <ele>336</ele>
        <time>2025-11-05T10:50:30.023Z</time>
      </trkpt>
      <trkpt lat="43.53967" lon="5.51824">
        <ele>336.6</ele>
        <time>2025-11-05T10:50:35.023Z</time>
      </trkpt>
      <trkpt lat="43.53969" lon="5.51826">
        <ele>337</ele>
        <time>2025-11-05T10:50:38.023Z</time>
      </trkpt>
      <trkpt lat="43.53971" lon="5.51827">
        <ele>337.5</ele>
        <time>2025-11-05T10:50:40.023Z</time>
      </trkpt>
      <trkpt lat="43.53974" lon="5.5183">
        <ele>337.4</ele>
        <time>2025-11-05T10:50:44.023Z</time>
      </trkpt>
      <trkpt lat="43.53976" lon="5.51832">
        <ele>337.4</ele>
        <time>2025-11-05T10:50:48.023Z</time>
      </trkpt>
      <trkpt lat="43.53977" lon="5.51836">
        <ele>337.1</ele>
        <time>2025-11-05T10:50:51.023Z</time>
      </trkpt>
      <trkpt lat="43.53979" lon="5.51838">
        <ele>337.1</ele>
        <time>2025-11-05T10:50:55.023Z</time>
      </trkpt>
      <trkpt lat="43.53982" lon="5.5184">
        <ele>337.1</ele>
        <time>2025-11-05T10:50:58.023Z</time>
      </trkpt>
      <trkpt lat="43.53983" lon="5.51843">
        <ele>336.9</ele>
        <time>2025-11-05T10:51:02.023Z</time>
      </trkpt>
      <trkpt lat="43.53986" lon="5.51844">
        <ele>336.9</ele>
        <time>2025-11-05T10:51:05.023Z</time>
      </trkpt>
      <trkpt lat="43.53989" lon="5.51845">
        <ele>336.8</ele>
        <time>2025-11-05T10:51:08.023Z</time>
      </trkpt>
      <trkpt lat="43.53991" lon="5.51846">
        <ele>336.8</ele>
        <time>2025-11-05T10:51:11.023Z</time>
      </trkpt>
      <trkpt lat="43.53994" lon="5.51847">
        <ele>336.8</ele>
        <time>2025-11-05T10:51:14.023Z</time>
      </trkpt>
      <trkpt lat="43.53997" lon="5.51847">
        <ele>336.9</ele>
        <time>2025-11-05T10:51:18.023Z</time>
      </trkpt>
      <trkpt lat="43.54" lon="5.51847">
        <ele>337.1</ele>
        <time>2025-11-05T10:51:21.023Z</time>
      </trkpt>
      <trkpt lat="43.54003" lon="5.51849">
        <ele>336.5</ele>
        <time>2025-11-05T10:51:24.023Z</time>
      </trkpt>
      <trkpt lat="43.54006" lon="5.5185">
        <ele>336.2</ele>
        <time>2025-11-05T10:51:27.023Z</time>
      </trkpt>
      <trkpt lat="43.54008" lon="5.51851">
        <ele>335.8</ele>
        <time>2025-11-05T10:51:31.023Z</time>
      </trkpt>
      <trkpt lat="43.54012" lon="5.51853">
        <ele>335.3</ele>
        <time>2025-11-05T10:51:34.023Z</time>
      </trkpt>
      <trkpt lat="43.54015" lon="5.51855">
        <ele>334.8</ele>
        <time>2025-11-05T10:51:37.023Z</time>
      </trkpt>
      <trkpt lat="43.54018" lon="5.51854">
        <ele>334.7</ele>
        <time>2025-11-05T10:51:40.023Z</time>
      </trkpt>
      <trkpt lat="43.54021" lon="5.51853">
        <ele>334.7</ele>
        <time>2025-11-05T10:51:42.023Z</time>
      </trkpt>
      <trkpt lat="43.54023" lon="5.51851">
        <ele>334.8</ele>
        <time>2025-11-05T10:51:44.022Z</time>
      </trkpt>
      <trkpt lat="43.54025" lon="5.51849">
        <ele>334.9</ele>
        <time>2025-11-05T10:51:46.022Z</time>
      </trkpt>
      <trkpt lat="43.54028" lon="5.51851">
        <ele>334.4</ele>
        <time>2025-11-05T10:51:49.022Z</time>
      </trkpt>
      <trkpt lat="43.5403" lon="5.51854">
        <ele>334.1</ele>
        <time>2025-11-05T10:51:52.023Z</time>
      </trkpt>
      <trkpt lat="43.54032" lon="5.51856">
        <ele>333.9</ele>
        <time>2025-11-05T10:51:55.023Z</time>
      </trkpt>
      <trkpt lat="43.54034" lon="5.51858">
        <ele>333.8</ele>
        <time>2025-11-05T10:51:58.022Z</time>
      </trkpt>
      <trkpt lat="43.54036" lon="5.51861">
        <ele>333.6</ele>
        <time>2025-11-05T10:52:01.023Z</time>
      </trkpt>
      <trkpt lat="43.54037" lon="5.51865">
        <ele>333.9</ele>
        <time>2025-11-05T10:52:04.023Z</time>
      </trkpt>
      <trkpt lat="43.54038" lon="5.51869">
        <ele>334.3</ele>
        <time>2025-11-05T10:52:07.023Z</time>
      </trkpt>
      <trkpt lat="43.54039" lon="5.51871">
        <ele>334.7</ele>
        <time>2025-11-05T10:52:09.023Z</time>
      </trkpt>
      <trkpt lat="43.5404" lon="5.51874">
        <ele>335</ele>
        <time>2025-11-05T10:52:12.023Z</time>
      </trkpt>
      <trkpt lat="43.54042" lon="5.51876">
        <ele>335.4</ele>
        <time>2025-11-05T10:52:14.023Z</time>
      </trkpt>
      <trkpt lat="43.54043" lon="5.51879">
        <ele>335.7</ele>
        <time>2025-11-05T10:52:16.023Z</time>
      </trkpt>
      <trkpt lat="43.54045" lon="5.51881">
        <ele>336.1</ele>
        <time>2025-11-05T10:52:19.023Z</time>
      </trkpt>
      <trkpt lat="43.54047" lon="5.51883">
        <ele>336.5</ele>
        <time>2025-11-05T10:52:22.023Z</time>
      </trkpt>
      <trkpt lat="43.54046" lon="5.51887">
        <ele>336.7</ele>
        <time>2025-11-05T10:52:27.023Z</time>
      </trkpt>
      <trkpt lat="43.54044" lon="5.5189">
        <ele>336.9</ele>
        <time>2025-11-05T10:52:33.022Z</time>
      </trkpt>
      <trkpt lat="43.54043" lon="5.51893">
        <ele>337.4</ele>
        <time>2025-11-05T10:52:35.022Z</time>
      </trkpt>
      <trkpt lat="43.54041" lon="5.51896">
        <ele>337.7</ele>
        <time>2025-11-05T10:52:38.023Z</time>
      </trkpt>
      <trkpt lat="43.54041" lon="5.519">
        <ele>338.2</ele>
        <time>2025-11-05T10:52:42.023Z</time>
      </trkpt>
      <trkpt lat="43.54039" lon="5.51903">
        <ele>338.5</ele>
        <time>2025-11-05T10:52:45.023Z</time>
      </trkpt>
      <trkpt lat="43.54037" lon="5.51906">
        <ele>338.6</ele>
        <time>2025-11-05T10:52:48.023Z</time>
      </trkpt>
      <trkpt lat="43.54036" lon="5.51908">
        <ele>338.9</ele>
        <time>2025-11-05T10:52:52.023Z</time>
      </trkpt>
      <trkpt lat="43.54034" lon="5.51912">
        <ele>339.2</ele>
        <time>2025-11-05T10:52:56.022Z</time>
      </trkpt>
      <trkpt lat="43.54033" lon="5.51915">
        <ele>339.5</ele>
        <time>2025-11-05T10:52:59.023Z</time>
      </trkpt>
      <trkpt lat="43.54032" lon="5.51919">
        <ele>339.9</ele>
        <time>2025-11-05T10:53:01.023Z</time>
      </trkpt>
      <trkpt lat="43.54031" lon="5.51922">
        <ele>340.2</ele>
        <time>2025-11-05T10:53:04.023Z</time>
      </trkpt>
      <trkpt lat="43.5403" lon="5.51925">
        <ele>340.5</ele>
        <time>2025-11-05T10:53:07.023Z</time>
      </trkpt>
      <trkpt lat="43.54029" lon="5.51928">
        <ele>340.7</ele>
        <time>2025-11-05T10:53:11.022Z</time>
      </trkpt>
      <trkpt lat="43.54026" lon="5.5193">
        <ele>340.7</ele>
        <time>2025-11-05T10:53:14.023Z</time>
      </trkpt>
      <trkpt lat="43.54024" lon="5.51931">
        <ele>340.5</ele>
        <time>2025-11-05T10:53:18.023Z</time>
      </trkpt>
      <trkpt lat="43.54021" lon="5.51932">
        <ele>340.3</ele>
        <time>2025-11-05T10:53:20.023Z</time>
      </trkpt>
      <trkpt lat="43.54019" lon="5.51934">
        <ele>340.3</ele>
        <time>2025-11-05T10:53:23.023Z</time>
      </trkpt>
      <trkpt lat="43.54016" lon="5.51935">
        <ele>340.1</ele>
        <time>2025-11-05T10:53:26.023Z</time>
      </trkpt>
      <trkpt lat="43.54013" lon="5.51937">
        <ele>340.1</ele>
        <time>2025-11-05T10:53:29.023Z</time>
      </trkpt>
      <trkpt lat="43.54011" lon="5.5194">
        <ele>340.4</ele>
        <time>2025-11-05T10:53:31.023Z</time>
      </trkpt>
      <trkpt lat="43.54009" lon="5.51942">
        <ele>340.6</ele>
        <time>2025-11-05T10:53:36.022Z</time>
      </trkpt>
      <trkpt lat="43.54008" lon="5.51945">
        <ele>341</ele>
        <time>2025-11-05T10:53:38.023Z</time>
      </trkpt>
      <trkpt lat="43.54006" lon="5.51949">
        <ele>341.6</ele>
        <time>2025-11-05T10:53:41.023Z</time>
      </trkpt>
      <trkpt lat="43.54005" lon="5.51952">
        <ele>342.2</ele>
        <time>2025-11-05T10:53:44.023Z</time>
      </trkpt>
      <trkpt lat="43.54003" lon="5.51954">
        <ele>342.3</ele>
        <time>2025-11-05T10:53:47.023Z</time>
      </trkpt>
      <trkpt lat="43.53999" lon="5.51956">
        <ele>342.4</ele>
        <time>2025-11-05T10:53:50.023Z</time>
      </trkpt>
      <trkpt lat="43.53997" lon="5.51955">
        <ele>342.1</ele>
        <time>2025-11-05T10:53:54.023Z</time>
      </trkpt>
      <trkpt lat="43.53995" lon="5.51956">
        <ele>342.3</ele>
        <time>2025-11-05T10:53:58.023Z</time>
      </trkpt>
      <trkpt lat="43.53992" lon="5.51956">
        <ele>342.1</ele>
        <time>2025-11-05T10:54:01.023Z</time>
      </trkpt>
      <trkpt lat="43.53989" lon="5.51959">
        <ele>342.6</ele>
        <time>2025-11-05T10:54:06.022Z</time>
      </trkpt>
      <trkpt lat="43.53987" lon="5.51961">
        <ele>342.8</ele>
        <time>2025-11-05T10:54:08.023Z</time>
      </trkpt>
      <trkpt lat="43.53984" lon="5.51961">
        <ele>342.7</ele>
        <time>2025-11-05T10:54:11.022Z</time>
      </trkpt>
      <trkpt lat="43.53981" lon="5.51961">
        <ele>342.4</ele>
        <time>2025-11-05T10:54:14.023Z</time>
      </trkpt>
      <trkpt lat="43.53979" lon="5.51961">
        <ele>342.3</ele>
        <time>2025-11-05T10:54:17.023Z</time>
      </trkpt>
      <trkpt lat="43.53976" lon="5.5196">
        <ele>342.1</ele>
        <time>2025-11-05T10:54:19.022Z</time>
      </trkpt>
      <trkpt lat="43.53973" lon="5.51962">
        <ele>342.2</ele>
        <time>2025-11-05T10:54:22.023Z</time>
      </trkpt>
      <trkpt lat="43.53971" lon="5.51964">
        <ele>342.4</ele>
        <time>2025-11-05T10:54:24.023Z</time>
      </trkpt>
      <trkpt lat="43.5397" lon="5.51966">
        <ele>342.8</ele>
        <time>2025-11-05T10:54:26.023Z</time>
      </trkpt>
      <trkpt lat="43.53968" lon="5.51967">
        <ele>343</ele>
        <time>2025-11-05T10:54:29.022Z</time>
      </trkpt>
      <trkpt lat="43.53965" lon="5.51969">
        <ele>343.2</ele>
        <time>2025-11-05T10:54:34.023Z</time>
      </trkpt>
      <trkpt lat="43.53962" lon="5.51971">
        <ele>343.3</ele>
        <time>2025-11-05T10:54:36.023Z</time>
      </trkpt>
      <trkpt lat="43.5396" lon="5.51972">
        <ele>343.5</ele>
        <time>2025-11-05T10:54:39.023Z</time>
      </trkpt>
      <trkpt lat="43.53957" lon="5.51976">
        <ele>343.9</ele>
        <time>2025-11-05T10:54:43.023Z</time>
      </trkpt>
      <trkpt lat="43.53955" lon="5.51978">
        <ele>344</ele>
        <time>2025-11-05T10:54:45.023Z</time>
      </trkpt>
      <trkpt lat="43.53953" lon="5.51981">
        <ele>344.2</ele>
        <time>2025-11-05T10:54:46.023Z</time>
      </trkpt>
      <trkpt lat="43.5395" lon="5.51981">
        <ele>344.2</ele>
        <time>2025-11-05T10:54:48.023Z</time>
      </trkpt>
      <trkpt lat="43.53948" lon="5.51983">
        <ele>344.3</ele>
        <time>2025-11-05T10:54:50.023Z</time>
      </trkpt>
      <trkpt lat="43.53945" lon="5.51985">
        <ele>344.4</ele>
        <time>2025-11-05T10:54:53.023Z</time>
      </trkpt>
      <trkpt lat="43.53943" lon="5.51987">
        <ele>344.5</ele>
        <time>2025-11-05T10:54:56.023Z</time>
      </trkpt>
      <trkpt lat="43.53941" lon="5.51987">
        <ele>344.6</ele>
        <time>2025-11-05T10:54:58.023Z</time>
      </trkpt>
      <trkpt lat="43.53938" lon="5.5199">
        <ele>344.7</ele>
        <time>2025-11-05T10:55:00.023Z</time>
      </trkpt>
      <trkpt lat="43.53935" lon="5.51991">
        <ele>344.7</ele>
        <time>2025-11-05T10:55:03.023Z</time>
      </trkpt>
      <trkpt lat="43.53933" lon="5.51994">
        <ele>344.8</ele>
        <time>2025-11-05T10:55:07.023Z</time>
      </trkpt>
      <trkpt lat="43.5393" lon="5.51995">
        <ele>344.7</ele>
        <time>2025-11-05T10:55:10.023Z</time>
      </trkpt>
      <trkpt lat="43.53929" lon="5.51999">
        <ele>344.8</ele>
        <time>2025-11-05T10:55:13.023Z</time>
      </trkpt>
      <trkpt lat="43.53927" lon="5.52002">
        <ele>344.8</ele>
        <time>2025-11-05T10:55:15.023Z</time>
      </trkpt>
      <trkpt lat="43.53927" lon="5.52007">
        <ele>344.7</ele>
        <time>2025-11-05T10:55:18.022Z</time>
      </trkpt>
      <trkpt lat="43.53926" lon="5.52011">
        <ele>344.7</ele>
        <time>2025-11-05T10:55:20.023Z</time>
      </trkpt>
      <trkpt lat="43.53925" lon="5.52014">
        <ele>344.6</ele>
        <time>2025-11-05T10:55:23.022Z</time>
      </trkpt>
      <trkpt lat="43.53925" lon="5.52019">
        <ele>344.6</ele>
        <time>2025-11-05T10:55:26.022Z</time>
      </trkpt>
      <trkpt lat="43.53926" lon="5.52023">
        <ele>344.7</ele>
        <time>2025-11-05T10:55:28.022Z</time>
      </trkpt>
      <trkpt lat="43.53927" lon="5.52026">
        <ele>344.7</ele>
        <time>2025-11-05T10:55:30.023Z</time>
      </trkpt>
      <trkpt lat="43.53928" lon="5.52029">
        <ele>344.8</ele>
        <time>2025-11-05T10:55:32.023Z</time>
      </trkpt>
      <trkpt lat="43.53929" lon="5.52032">
        <ele>344.7</ele>
        <time>2025-11-05T10:55:35.023Z</time>
      </trkpt>
      <trkpt lat="43.53931" lon="5.52033">
        <ele>344.7</ele>
        <time>2025-11-05T10:55:37.023Z</time>
      </trkpt>
      <trkpt lat="43.53934" lon="5.52035">
        <ele>344.9</ele>
        <time>2025-11-05T10:55:40.023Z</time>
      </trkpt>
      <trkpt lat="43.53936" lon="5.52037">
        <ele>344.9</ele>
        <time>2025-11-05T10:55:43.023Z</time>
      </trkpt>
      <trkpt lat="43.53937" lon="5.5204">
        <ele>344.9</ele>
        <time>2025-11-05T10:55:46.023Z</time>
      </trkpt>
      <trkpt lat="43.53939" lon="5.52044">
        <ele>345</ele>
        <time>2025-11-05T10:55:49.022Z</time>
      </trkpt>
      <trkpt lat="43.53941" lon="5.52047">
        <ele>344.9</ele>
        <time>2025-11-05T10:55:52.022Z</time>
      </trkpt>
      <trkpt lat="43.53943" lon="5.5205">
        <ele>345.1</ele>
        <time>2025-11-05T10:55:55.023Z</time>
      </trkpt>
      <trkpt lat="43.53946" lon="5.52053">
        <ele>345.2</ele>
        <time>2025-11-05T10:55:58.023Z</time>
      </trkpt>
      <trkpt lat="43.53947" lon="5.52057">
        <ele>345.1</ele>
        <time>2025-11-05T10:56:01.023Z</time>
      </trkpt>
      <trkpt lat="43.53948" lon="5.5206">
        <ele>344.7</ele>
        <time>2025-11-05T10:56:04.023Z</time>
      </trkpt>
      <trkpt lat="43.53948" lon="5.52063">
        <ele>344.2</ele>
        <time>2025-11-05T10:56:06.023Z</time>
      </trkpt>
      <trkpt lat="43.53949" lon="5.52066">
        <ele>343.8</ele>
        <time>2025-11-05T10:56:08.023Z</time>
      </trkpt>
      <trkpt lat="43.5395" lon="5.5207">
        <ele>343.4</ele>
        <time>2025-11-05T10:56:14.023Z</time>
      </trkpt>
      <trkpt lat="43.5395" lon="5.52075">
        <ele>342.8</ele>
        <time>2025-11-05T10:56:18.023Z</time>
      </trkpt>
      <trkpt lat="43.53952" lon="5.52078">
        <ele>342.6</ele>
        <time>2025-11-05T10:56:21.023Z</time>
      </trkpt>
      <trkpt lat="43.53955" lon="5.52079">
        <ele>342.7</ele>
        <time>2025-11-05T10:56:23.023Z</time>
      </trkpt>
      <trkpt lat="43.53957" lon="5.52082">
        <ele>342.5</ele>
        <time>2025-11-05T10:56:26.023Z</time>
      </trkpt>
      <trkpt lat="43.5396" lon="5.52082">
        <ele>342.8</ele>
        <time>2025-11-05T10:56:29.023Z</time>
      </trkpt>
      <trkpt lat="43.53961" lon="5.52085">
        <ele>342.6</ele>
        <time>2025-11-05T10:56:33.023Z</time>
      </trkpt>
      <trkpt lat="43.53963" lon="5.52087">
        <ele>342.5</ele>
        <time>2025-11-05T10:56:35.023Z</time>
      </trkpt>
      <trkpt lat="43.53965" lon="5.52089">
        <ele>342.6</ele>
        <time>2025-11-05T10:56:37.023Z</time>
      </trkpt>
      <trkpt lat="43.53967" lon="5.5209">
        <ele>342.7</ele>
        <time>2025-11-05T10:56:39.023Z</time>
      </trkpt>
      <trkpt lat="43.5397" lon="5.52091">
        <ele>342.9</ele>
        <time>2025-11-05T10:56:41.023Z</time>
      </trkpt>
      <trkpt lat="43.53972" lon="5.52093">
        <ele>343</ele>
        <time>2025-11-05T10:56:44.023Z</time>
      </trkpt>
      <trkpt lat="43.53972" lon="5.52097">
        <ele>342.5</ele>
        <time>2025-11-05T10:56:50.022Z</time>
      </trkpt>
      <trkpt lat="43.53971" lon="5.521">
        <ele>342</ele>
        <time>2025-11-05T10:56:53.022Z</time>
      </trkpt>
      <trkpt lat="43.53971" lon="5.52104">
        <ele>341.6</ele>
        <time>2025-11-05T10:56:55.023Z</time>
      </trkpt>
      <trkpt lat="43.5397" lon="5.52108">
        <ele>341.1</ele>
        <time>2025-11-05T10:56:59.023Z</time>
      </trkpt>
      <trkpt lat="43.5397" lon="5.52111">
        <ele>340.7</ele>
        <time>2025-11-05T10:57:03.022Z</time>
      </trkpt>
      <trkpt lat="43.53968" lon="5.52112">
        <ele>340.4</ele>
        <time>2025-11-05T10:57:06.023Z</time>
      </trkpt>
      <trkpt lat="43.53965" lon="5.52116">
        <ele>340.2</ele>
        <time>2025-11-05T10:57:09.023Z</time>
      </trkpt>
      <trkpt lat="43.53963" lon="5.52118">
        <ele>340</ele>
        <time>2025-11-05T10:57:11.023Z</time>
      </trkpt>
      <trkpt lat="43.53963" lon="5.52121">
        <ele>340.1</ele>
        <time>2025-11-05T10:57:15.023Z</time>
      </trkpt>
      <trkpt lat="43.53961" lon="5.52124">
        <ele>340.1</ele>
        <time>2025-11-05T10:57:18.023Z</time>
      </trkpt>
      <trkpt lat="43.5396" lon="5.52126">
        <ele>340</ele>
        <time>2025-11-05T10:57:20.023Z</time>
      </trkpt>
      <trkpt lat="43.53957" lon="5.52128">
        <ele>339.8</ele>
        <time>2025-11-05T10:57:23.022Z</time>
      </trkpt>
      <trkpt lat="43.53955" lon="5.52131">
        <ele>339.7</ele>
        <time>2025-11-05T10:57:26.023Z</time>
      </trkpt>
      <trkpt lat="43.53953" lon="5.52133">
        <ele>339.5</ele>
        <time>2025-11-05T10:57:30.023Z</time>
      </trkpt>
      <trkpt lat="43.5395" lon="5.52134">
        <ele>339.3</ele>
        <time>2025-11-05T10:57:32.023Z</time>
      </trkpt>
      <trkpt lat="43.53947" lon="5.52135">
        <ele>339</ele>
        <time>2025-11-05T10:57:35.023Z</time>
      </trkpt>
      <trkpt lat="43.53944" lon="5.52136">
        <ele>338.8</ele>
        <time>2025-11-05T10:57:37.023Z</time>
      </trkpt>
      <trkpt lat="43.53942" lon="5.52139">
        <ele>338.7</ele>
        <time>2025-11-05T10:57:41.023Z</time>
      </trkpt>
      <trkpt lat="43.5394" lon="5.52142">
        <ele>339.1</ele>
        <time>2025-11-05T10:57:44.023Z</time>
      </trkpt>
      <trkpt lat="43.53938" lon="5.52145">
        <ele>339.5</ele>
        <time>2025-11-05T10:57:46.023Z</time>
      </trkpt>
      <trkpt lat="43.53935" lon="5.52148">
        <ele>339.9</ele>
        <time>2025-11-05T10:57:48.023Z</time>
      </trkpt>
      <trkpt lat="43.53933" lon="5.52149">
        <ele>339.9</ele>
        <time>2025-11-05T10:57:51.022Z</time>
      </trkpt>
      <trkpt lat="43.5393" lon="5.52149">
        <ele>339.7</ele>
        <time>2025-11-05T10:57:54.023Z</time>
      </trkpt>
      <trkpt lat="43.53928" lon="5.52151">
        <ele>339.9</ele>
        <time>2025-11-05T10:57:58.023Z</time>
      </trkpt>
      <trkpt lat="43.53926" lon="5.52154">
        <ele>340.3</ele>
        <time>2025-11-05T10:58:01.023Z</time>
      </trkpt>
      <trkpt lat="43.53923" lon="5.52155">
        <ele>340.2</ele>
        <time>2025-11-05T10:58:04.023Z</time>
      </trkpt>
      <trkpt lat="43.53921" lon="5.52156">
        <ele>340.1</ele>
        <time>2025-11-05T10:58:07.023Z</time>
      </trkpt>
      <trkpt lat="43.53918" lon="5.52158">
        <ele>340.3</ele>
        <time>2025-11-05T10:58:10.023Z</time>
      </trkpt>
      <trkpt lat="43.53916" lon="5.5216">
        <ele>340.4</ele>
        <time>2025-11-05T10:58:12.022Z</time>
      </trkpt>
      <trkpt lat="43.53913" lon="5.52162">
        <ele>340.6</ele>
        <time>2025-11-05T10:58:15.023Z</time>
      </trkpt>
      <trkpt lat="43.53911" lon="5.52164">
        <ele>340.9</ele>
        <time>2025-11-05T10:58:17.023Z</time>
      </trkpt>
      <trkpt lat="43.53908" lon="5.52166">
        <ele>341.1</ele>
        <time>2025-11-05T10:58:20.023Z</time>
      </trkpt>
      <trkpt lat="43.53905" lon="5.52166">
        <ele>341.1</ele>
        <time>2025-11-05T10:58:22.022Z</time>
      </trkpt>
      <trkpt lat="43.53903" lon="5.52168">
        <ele>341.2</ele>
        <time>2025-11-05T10:58:24.022Z</time>
      </trkpt>
      <trkpt lat="43.53901" lon="5.52169">
        <ele>341.1</ele>
        <time>2025-11-05T10:58:27.023Z</time>
      </trkpt>
      <trkpt lat="43.53898" lon="5.5217">
        <ele>341.1</ele>
        <time>2025-11-05T10:58:30.023Z</time>
      </trkpt>
      <trkpt lat="43.53895" lon="5.52172">
        <ele>341.2</ele>
        <time>2025-11-05T10:58:33.022Z</time>
      </trkpt>
      <trkpt lat="43.53893" lon="5.52173">
        <ele>341.2</ele>
        <time>2025-11-05T10:58:36.023Z</time>
      </trkpt>
      <trkpt lat="43.5389" lon="5.52175">
        <ele>341.3</ele>
        <time>2025-11-05T10:58:39.023Z</time>
      </trkpt>
      <trkpt lat="43.53888" lon="5.52176">
        <ele>341.4</ele>
        <time>2025-11-05T10:58:41.023Z</time>
      </trkpt>
      <trkpt lat="43.53886" lon="5.52176">
        <ele>341.5</ele>
        <time>2025-11-05T10:58:43.022Z</time>
      </trkpt>
      <trkpt lat="43.53883" lon="5.52176">
        <ele>341.5</ele>
        <time>2025-11-05T10:58:45.023Z</time>
      </trkpt>
      <trkpt lat="43.53881" lon="5.52176">
        <ele>341.6</ele>
        <time>2025-11-05T10:58:48.023Z</time>
      </trkpt>
      <trkpt lat="43.53879" lon="5.52176">
        <ele>341.7</ele>
        <time>2025-11-05T10:58:51.023Z</time>
      </trkpt>
      <trkpt lat="43.53876" lon="5.52175">
        <ele>341.6</ele>
        <time>2025-11-05T10:58:54.023Z</time>
      </trkpt>
      <trkpt lat="43.53873" lon="5.52173">
        <ele>341.4</ele>
        <time>2025-11-05T10:58:56.023Z</time>
      </trkpt>
      <trkpt lat="43.53871" lon="5.52172">
        <ele>341.4</ele>
        <time>2025-11-05T10:58:58.023Z</time>
      </trkpt>
      <trkpt lat="43.53868" lon="5.52171">
        <ele>341.4</ele>
        <time>2025-11-05T10:59:00.022Z</time>
      </trkpt>
      <trkpt lat="43.53865" lon="5.5217">
        <ele>341.3</ele>
        <time>2025-11-05T10:59:02.023Z</time>
      </trkpt>
      <trkpt lat="43.53863" lon="5.52168">
        <ele>341.2</ele>
        <time>2025-11-05T10:59:04.023Z</time>
      </trkpt>
      <trkpt lat="43.53861" lon="5.52167">
        <ele>341.1</ele>
        <time>2025-11-05T10:59:06.023Z</time>
      </trkpt>
      <trkpt lat="43.53858" lon="5.52166">
        <ele>341.3</ele>
        <time>2025-11-05T10:59:10.023Z</time>
      </trkpt>
      <trkpt lat="43.53855" lon="5.52165">
        <ele>341.3</ele>
        <time>2025-11-05T10:59:12.023Z</time>
      </trkpt>
      <trkpt lat="43.53853" lon="5.52163">
        <ele>341.4</ele>
        <time>2025-11-05T10:59:15.023Z</time>
      </trkpt>
      <trkpt lat="43.53851" lon="5.5216">
        <ele>341.2</ele>
        <time>2025-11-05T10:59:18.022Z</time>
      </trkpt>
      <trkpt lat="43.53849" lon="5.52157">
        <ele>341</ele>
        <time>2025-11-05T10:59:22.023Z</time>
      </trkpt>
      <trkpt lat="43.53848" lon="5.52155">
        <ele>340.7</ele>
        <time>2025-11-05T10:59:24.022Z</time>
      </trkpt>
      <trkpt lat="43.53846" lon="5.52153">
        <ele>340.7</ele>
        <time>2025-11-05T10:59:27.023Z</time>
      </trkpt>
      <trkpt lat="43.53843" lon="5.52153">
        <ele>341</ele>
        <time>2025-11-05T10:59:29.023Z</time>
      </trkpt>
      <trkpt lat="43.53841" lon="5.52152">
        <ele>341.1</ele>
        <time>2025-11-05T10:59:32.023Z</time>
      </trkpt>
      <trkpt lat="43.53838" lon="5.52151">
        <ele>341.2</ele>
        <time>2025-11-05T10:59:36.023Z</time>
      </trkpt>
      <trkpt lat="43.53836" lon="5.5215">
        <ele>341.3</ele>
        <time>2025-11-05T10:59:40.023Z</time>
      </trkpt>
      <trkpt lat="43.53833" lon="5.52147">
        <ele>341.2</ele>
        <time>2025-11-05T10:59:44.022Z</time>
      </trkpt>
      <trkpt lat="43.5383" lon="5.52146">
        <ele>341</ele>
        <time>2025-11-05T10:59:47.023Z</time>
      </trkpt>
      <trkpt lat="43.53828" lon="5.52146">
        <ele>340.9</ele>
        <time>2025-11-05T10:59:50.022Z</time>
      </trkpt>
      <trkpt lat="43.53825" lon="5.52146">
        <ele>341</ele>
        <time>2025-11-05T10:59:53.023Z</time>
      </trkpt>
      <trkpt lat="43.53823" lon="5.52149">
        <ele>341.3</ele>
        <time>2025-11-05T10:59:57.023Z</time>
      </trkpt>
      <trkpt lat="43.5382" lon="5.5215">
        <ele>341.4</ele>
        <time>2025-11-05T11:00:00.023Z</time>
      </trkpt>
      <trkpt lat="43.53817" lon="5.52149">
        <ele>341.3</ele>
        <time>2025-11-05T11:00:02.023Z</time>
      </trkpt>
      <trkpt lat="43.53814" lon="5.5215">
        <ele>341.3</ele>
        <time>2025-11-05T11:00:04.022Z</time>
      </trkpt>
      <trkpt lat="43.53813" lon="5.52152">
        <ele>341.6</ele>
        <time>2025-11-05T11:00:07.023Z</time>
      </trkpt>
      <trkpt lat="43.5381" lon="5.52154">
        <ele>341.7</ele>
        <time>2025-11-05T11:00:11.023Z</time>
      </trkpt>
      <trkpt lat="43.53807" lon="5.52155">
        <ele>341.7</ele>
        <time>2025-11-05T11:00:13.023Z</time>
      </trkpt>
      <trkpt lat="43.53805" lon="5.52156">
        <ele>341.5</ele>
        <time>2025-11-05T11:00:16.022Z</time>
      </trkpt>
      <trkpt lat="43.53803" lon="5.52158">
        <ele>341.1</ele>
        <time>2025-11-05T11:00:19.023Z</time>
      </trkpt>
      <trkpt lat="43.53802" lon="5.52162">
        <ele>341</ele>
        <time>2025-11-05T11:00:22.023Z</time>
      </trkpt>
      <trkpt lat="43.538" lon="5.52165">
        <ele>340.8</ele>
        <time>2025-11-05T11:00:25.023Z</time>
      </trkpt>
      <trkpt lat="43.53799" lon="5.52168">
        <ele>340.4</ele>
        <time>2025-11-05T11:00:27.023Z</time>
      </trkpt>
      <trkpt lat="43.53798" lon="5.52173">
        <ele>340.6</ele>
        <time>2025-11-05T11:00:30.022Z</time>
      </trkpt>
      <trkpt lat="43.53799" lon="5.52176">
        <ele>340.9</ele>
        <time>2025-11-05T11:00:35.023Z</time>
      </trkpt>
      <trkpt lat="43.53798" lon="5.5218">
        <ele>341.1</ele>
        <time>2025-11-05T11:00:38.023Z</time>
      </trkpt>
      <trkpt lat="43.53798" lon="5.52185">
        <ele>341.4</ele>
        <time>2025-11-05T11:00:41.022Z</time>
      </trkpt>
      <trkpt lat="43.53799" lon="5.52188">
        <ele>341.8</ele>
        <time>2025-11-05T11:00:44.023Z</time>
      </trkpt>
      <trkpt lat="43.538" lon="5.52191">
        <ele>342.4</ele>
        <time>2025-11-05T11:00:48.023Z</time>
      </trkpt>
      <trkpt lat="43.53802" lon="5.52194">
        <ele>343.2</ele>
        <time>2025-11-05T11:00:51.023Z</time>
      </trkpt>
      <trkpt lat="43.53803" lon="5.52198">
        <ele>343.3</ele>
        <time>2025-11-05T11:00:54.022Z</time>
      </trkpt>
      <trkpt lat="43.53805" lon="5.52201">
        <ele>343.5</ele>
        <time>2025-11-05T11:00:57.023Z</time>
      </trkpt>
      <trkpt lat="43.53805" lon="5.52205">
        <ele>343.6</ele>
        <time>2025-11-05T11:01:01.023Z</time>
      </trkpt>
      <trkpt lat="43.53806" lon="5.52208">
        <ele>343.5</ele>
        <time>2025-11-05T11:01:04.023Z</time>
      </trkpt>
      <trkpt lat="43.53807" lon="5.52212">
        <ele>343.5</ele>
        <time>2025-11-05T11:01:07.023Z</time>
      </trkpt>
      <trkpt lat="43.53808" lon="5.52215">
        <ele>343.6</ele>
        <time>2025-11-05T11:01:09.022Z</time>
      </trkpt>
      <trkpt lat="43.53809" lon="5.5222">
        <ele>343.6</ele>
        <time>2025-11-05T11:01:12.023Z</time>
      </trkpt>
      <trkpt lat="43.53811" lon="5.52224">
        <ele>343.4</ele>
        <time>2025-11-05T11:01:14.022Z</time>
      </trkpt>
      <trkpt lat="43.53813" lon="5.52225">
        <ele>343.4</ele>
        <time>2025-11-05T11:01:18.023Z</time>
      </trkpt>
      <trkpt lat="43.53816" lon="5.52227">
        <ele>343.6</ele>
        <time>2025-11-05T11:01:21.023Z</time>
      </trkpt>
      <trkpt lat="43.53819" lon="5.52228">
        <ele>343.8</ele>
        <time>2025-11-05T11:01:25.023Z</time>
      </trkpt>
      <trkpt lat="43.53821" lon="5.52228">
        <ele>344.3</ele>
        <time>2025-11-05T11:01:31.022Z</time>
      </trkpt>
      <trkpt lat="43.53824" lon="5.52228">
        <ele>344.7</ele>
        <time>2025-11-05T11:01:34.023Z</time>
      </trkpt>
      <trkpt lat="43.53826" lon="5.5223">
        <ele>344.8</ele>
        <time>2025-11-05T11:01:37.023Z</time>
      </trkpt>
      <trkpt lat="43.53828" lon="5.52234">
        <ele>344.8</ele>
        <time>2025-11-05T11:01:40.023Z</time>
      </trkpt>
      <trkpt lat="43.53831" lon="5.52235">
        <ele>345</ele>
        <time>2025-11-05T11:01:42.023Z</time>
      </trkpt>
      <trkpt lat="43.53833" lon="5.52236">
        <ele>345.3</ele>
        <time>2025-11-05T11:01:44.023Z</time>
      </trkpt>
      <trkpt lat="43.53835" lon="5.52239">
        <ele>345.3</ele>
        <time>2025-11-05T11:01:46.022Z</time>
      </trkpt>
      <trkpt lat="43.53837" lon="5.52241">
        <ele>345.3</ele>
        <time>2025-11-05T11:01:48.023Z</time>
      </trkpt>
      <trkpt lat="43.53839" lon="5.52243">
        <ele>345.3</ele>
        <time>2025-11-05T11:01:51.023Z</time>
      </trkpt>
      <trkpt lat="43.53841" lon="5.52245">
        <ele>345.4</ele>
        <time>2025-11-05T11:01:54.023Z</time>
      </trkpt>
      <trkpt lat="43.53842" lon="5.52248">
        <ele>345.4</ele>
        <time>2025-11-05T11:01:58.023Z</time>
      </trkpt>
      <trkpt lat="43.53844" lon="5.5225">
        <ele>345.5</ele>
        <time>2025-11-05T11:02:01.023Z</time>
      </trkpt>
      <trkpt lat="43.53846" lon="5.52253">
        <ele>345.2</ele>
        <time>2025-11-05T11:02:03.023Z</time>
      </trkpt>
      <trkpt lat="43.53848" lon="5.52257">
        <ele>344.9</ele>
        <time>2025-11-05T11:02:06.023Z</time>
      </trkpt>
      <trkpt lat="43.5385" lon="5.5226">
        <ele>344.8</ele>
        <time>2025-11-05T11:02:09.023Z</time>
      </trkpt>
      <trkpt lat="43.53853" lon="5.52263">
        <ele>345</ele>
        <time>2025-11-05T11:02:12.023Z</time>
      </trkpt>
      <trkpt lat="43.53855" lon="5.52265">
        <ele>345.2</ele>
        <time>2025-11-05T11:02:14.023Z</time>
      </trkpt>
      <trkpt lat="43.53857" lon="5.52267">
        <ele>345.7</ele>
        <time>2025-11-05T11:02:17.023Z</time>
      </trkpt>
      <trkpt lat="43.5386" lon="5.52271">
        <ele>346.1</ele>
        <time>2025-11-05T11:02:20.023Z</time>
      </trkpt>
      <trkpt lat="43.53862" lon="5.52274">
        <ele>346.4</ele>
        <time>2025-11-05T11:02:23.023Z</time>
      </trkpt>
      <trkpt lat="43.53862" lon="5.52278">
        <ele>346.1</ele>
        <time>2025-11-05T11:02:25.023Z</time>
      </trkpt>
      <trkpt lat="43.53864" lon="5.52278">
        <ele>346.4</ele>
        <time>2025-11-05T11:02:28.023Z</time>
      </trkpt>
      <trkpt lat="43.53866" lon="5.52282">
        <ele>346.2</ele>
        <time>2025-11-05T11:02:31.023Z</time>
      </trkpt>
      <trkpt lat="43.53867" lon="5.52285">
        <ele>346</ele>
        <time>2025-11-05T11:02:34.023Z</time>
      </trkpt>
      <trkpt lat="43.53868" lon="5.52288">
        <ele>345.9</ele>
        <time>2025-11-05T11:02:37.022Z</time>
      </trkpt>
      <trkpt lat="43.53869" lon="5.52292">
        <ele>345.8</ele>
        <time>2025-11-05T11:02:39.023Z</time>
      </trkpt>
      <trkpt lat="43.5387" lon="5.52295">
        <ele>345.5</ele>
        <time>2025-11-05T11:02:41.023Z</time>
      </trkpt>
      <trkpt lat="43.53871" lon="5.52299">
        <ele>345.3</ele>
        <time>2025-11-05T11:02:44.023Z</time>
      </trkpt>
      <trkpt lat="43.53871" lon="5.52303">
        <ele>345.1</ele>
        <time>2025-11-05T11:02:47.023Z</time>
      </trkpt>
      <trkpt lat="43.53872" lon="5.52307">
        <ele>345.1</ele>
        <time>2025-11-05T11:02:50.023Z</time>
      </trkpt>
      <trkpt lat="43.53873" lon="5.52311">
        <ele>345.1</ele>
        <time>2025-11-05T11:02:53.023Z</time>
      </trkpt>
      <trkpt lat="43.53874" lon="5.52314">
        <ele>345.3</ele>
        <time>2025-11-05T11:02:56.022Z</time>
      </trkpt>
      <trkpt lat="43.53874" lon="5.52318">
        <ele>345.3</ele>
        <time>2025-11-05T11:02:58.023Z</time>
      </trkpt>
      <trkpt lat="43.53875" lon="5.52321">
        <ele>345.4</ele>
        <time>2025-11-05T11:03:00.023Z</time>
      </trkpt>
      <trkpt lat="43.53876" lon="5.52324">
        <ele>345.7</ele>
        <time>2025-11-05T11:03:02.022Z</time>
      </trkpt>
      <trkpt lat="43.53877" lon="5.52327">
        <ele>346</ele>
        <time>2025-11-05T11:03:04.023Z</time>
      </trkpt>
      <trkpt lat="43.53878" lon="5.5233">
        <ele>346.2</ele>
        <time>2025-11-05T11:03:06.023Z</time>
      </trkpt>
      <trkpt lat="43.53879" lon="5.52335">
        <ele>346.3</ele>
        <time>2025-11-05T11:03:09.023Z</time>
      </trkpt>
      <trkpt lat="43.53879" lon="5.52339">
        <ele>346.2</ele>
        <time>2025-11-05T11:03:12.023Z</time>
      </trkpt>
      <trkpt lat="43.53881" lon="5.52341">
        <ele>346.6</ele>
        <time>2025-11-05T11:03:14.023Z</time>
      </trkpt>
      <trkpt lat="43.53883" lon="5.52344">
        <ele>347.4</ele>
        <time>2025-11-05T11:03:18.023Z</time>
      </trkpt>
      <trkpt lat="43.53885" lon="5.52347">
        <ele>347.9</ele>
        <time>2025-11-05T11:03:22.023Z</time>
      </trkpt>
      <trkpt lat="43.53887" lon="5.5235">
        <ele>348.5</ele>
        <time>2025-11-05T11:03:25.023Z</time>
      </trkpt>
      <trkpt lat="43.53887" lon="5.52354">
        <ele>348.5</ele>
        <time>2025-11-05T11:03:27.023Z</time>
      </trkpt>
      <trkpt lat="43.53888" lon="5.52356">
        <ele>349</ele>
        <time>2025-11-05T11:03:30.023Z</time>
      </trkpt>
      <trkpt lat="43.53888" lon="5.5236">
        <ele>348.8</ele>
        <time>2025-11-05T11:03:33.023Z</time>
      </trkpt>
      <trkpt lat="43.53889" lon="5.52364">
        <ele>348.9</ele>
        <time>2025-11-05T11:03:36.023Z</time>
      </trkpt>
      <trkpt lat="43.5389" lon="5.52369">
        <ele>348.8</ele>
        <time>2025-11-05T11:03:40.023Z</time>
      </trkpt>
      <trkpt lat="43.53889" lon="5.52372">
        <ele>348.6</ele>
        <time>2025-11-05T11:03:44.023Z</time>
      </trkpt>
      <trkpt lat="43.53888" lon="5.52376">
        <ele>347.9</ele>
        <time>2025-11-05T11:03:46.023Z</time>
      </trkpt>
      <trkpt lat="43.53888" lon="5.52381">
        <ele>347.7</ele>
        <time>2025-11-05T11:03:49.023Z</time>
      </trkpt>
      <trkpt lat="43.53887" lon="5.52384">
        <ele>347.5</ele>
        <time>2025-11-05T11:03:51.023Z</time>
      </trkpt>
      <trkpt lat="43.53887" lon="5.52388">
        <ele>347.3</ele>
        <time>2025-11-05T11:03:53.023Z</time>
      </trkpt>
      <trkpt lat="43.53888" lon="5.52391">
        <ele>347.8</ele>
        <time>2025-11-05T11:03:55.022Z</time>
      </trkpt>
      <trkpt lat="43.53889" lon="5.52396">
        <ele>348</ele>
        <time>2025-11-05T11:03:58.023Z</time>
      </trkpt>
      <trkpt lat="43.5389" lon="5.524">
        <ele>348.2</ele>
        <time>2025-11-05T11:04:02.023Z</time>
      </trkpt>
      <trkpt lat="43.5389" lon="5.52404">
        <ele>348.2</ele>
        <time>2025-11-05T11:04:05.022Z</time>
      </trkpt>
      <trkpt lat="43.53891" lon="5.52407">
        <ele>348.3</ele>
        <time>2025-11-05T11:04:07.023Z</time>
      </trkpt>
      <trkpt lat="43.53891" lon="5.52412">
        <ele>348.3</ele>
        <time>2025-11-05T11:04:10.023Z</time>
      </trkpt>
      <trkpt lat="43.53892" lon="5.52416">
        <ele>348.6</ele>
        <time>2025-11-05T11:04:13.023Z</time>
      </trkpt>
      <trkpt lat="43.53894" lon="5.52419">
        <ele>348.9</ele>
        <time>2025-11-05T11:04:16.022Z</time>
      </trkpt>
      <trkpt lat="43.53895" lon="5.52422">
        <ele>349.1</ele>
        <time>2025-11-05T11:04:20.023Z</time>
      </trkpt>
      <trkpt lat="43.53895" lon="5.52427">
        <ele>349</ele>
        <time>2025-11-05T11:04:23.023Z</time>
      </trkpt>
      <trkpt lat="43.53895" lon="5.5243">
        <ele>349.1</ele>
        <time>2025-11-05T11:04:25.023Z</time>
      </trkpt>
      <trkpt lat="43.53896" lon="5.52433">
        <ele>349.2</ele>
        <time>2025-11-05T11:04:27.023Z</time>
      </trkpt>
      <trkpt lat="43.53896" lon="5.52436">
        <ele>349.2</ele>
        <time>2025-11-05T11:04:30.023Z</time>
      </trkpt>
      <trkpt lat="43.53896" lon="5.5244">
        <ele>349.2</ele>
        <time>2025-11-05T11:04:33.023Z</time>
      </trkpt>
      <trkpt lat="43.53897" lon="5.52443">
        <ele>349.5</ele>
        <time>2025-11-05T11:04:37.023Z</time>
      </trkpt>
      <trkpt lat="43.539" lon="5.52446">
        <ele>349.8</ele>
        <time>2025-11-05T11:04:40.023Z</time>
      </trkpt>
      <trkpt lat="43.53902" lon="5.52449">
        <ele>349.9</ele>
        <time>2025-11-05T11:04:42.023Z</time>
      </trkpt>
      <trkpt lat="43.53903" lon="5.52451">
        <ele>349.8</ele>
        <time>2025-11-05T11:04:44.023Z</time>
      </trkpt>
      <trkpt lat="43.53905" lon="5.52454">
        <ele>349.7</ele>
        <time>2025-11-05T11:04:47.023Z</time>
      </trkpt>
      <trkpt lat="43.53906" lon="5.52458">
        <ele>349.4</ele>
        <time>2025-11-05T11:04:49.023Z</time>
      </trkpt>
      <trkpt lat="43.53907" lon="5.52461">
        <ele>349.1</ele>
        <time>2025-11-05T11:04:51.023Z</time>
      </trkpt>
      <trkpt lat="43.53908" lon="5.52465">
        <ele>348.7</ele>
        <time>2025-11-05T11:04:53.023Z</time>
      </trkpt>
      <trkpt lat="43.53908" lon="5.52468">
        <ele>348.4</ele>
        <time>2025-11-05T11:04:55.023Z</time>
      </trkpt>
      <trkpt lat="43.53909" lon="5.52471">
        <ele>348.1</ele>
        <time>2025-11-05T11:04:57.023Z</time>
      </trkpt>
      <trkpt lat="43.53911" lon="5.52474">
        <ele>347.7</ele>
        <time>2025-11-05T11:05:00.022Z</time>
      </trkpt>
      <trkpt lat="43.53913" lon="5.52476">
        <ele>347.3</ele>
        <time>2025-11-05T11:05:02.023Z</time>
      </trkpt>
      <trkpt lat="43.53916" lon="5.52478">
        <ele>347</ele>
        <time>2025-11-05T11:05:04.022Z</time>
      </trkpt>
      <trkpt lat="43.53918" lon="5.5248">
        <ele>346.8</ele>
        <time>2025-11-05T11:05:06.023Z</time>
      </trkpt>
      <trkpt lat="43.5392" lon="5.52483">
        <ele>346.4</ele>
        <time>2025-11-05T11:05:09.023Z</time>
      </trkpt>
      <trkpt lat="43.53922" lon="5.52484">
        <ele>346.3</ele>
        <time>2025-11-05T11:05:12.023Z</time>
      </trkpt>
      <trkpt lat="43.53925" lon="5.52486">
        <ele>346.5</ele>
        <time>2025-11-05T11:05:14.023Z</time>
      </trkpt>
      <trkpt lat="43.53927" lon="5.52485">
        <ele>347.4</ele>
        <time>2025-11-05T11:05:16.023Z</time>
      </trkpt>
      <trkpt lat="43.53931" lon="5.52485">
        <ele>348.1</ele>
        <time>2025-11-05T11:05:19.023Z</time>
      </trkpt>
      <trkpt lat="43.53933" lon="5.52484">
        <ele>348.9</ele>
        <time>2025-11-05T11:05:24.023Z</time>
      </trkpt>
      <trkpt lat="43.53936" lon="5.52484">
        <ele>349.6</ele>
        <time>2025-11-05T11:05:27.023Z</time>
      </trkpt>
      <trkpt lat="43.53938" lon="5.52485">
        <ele>349.7</ele>
        <time>2025-11-05T11:05:30.023Z</time>
      </trkpt>
      <trkpt lat="43.5394" lon="5.52488">
        <ele>349.5</ele>
        <time>2025-11-05T11:05:32.023Z</time>
      </trkpt>
      <trkpt lat="43.53941" lon="5.52492">
        <ele>348.7</ele>
        <time>2025-11-05T11:05:35.023Z</time>
      </trkpt>
      <trkpt lat="43.53943" lon="5.52495">
        <ele>348.7</ele>
        <time>2025-11-05T11:05:38.022Z</time>
      </trkpt>
      <trkpt lat="43.53946" lon="5.52499">
        <ele>348.5</ele>
        <time>2025-11-05T11:05:41.023Z</time>
      </trkpt>
      <trkpt lat="43.53948" lon="5.52502">
        <ele>348.5</ele>
        <time>2025-11-05T11:05:44.023Z</time>
      </trkpt>
      <trkpt lat="43.53949" lon="5.52504">
        <ele>348.5</ele>
        <time>2025-11-05T11:05:47.022Z</time>
      </trkpt>
      <trkpt lat="43.53951" lon="5.52507">
        <ele>348.5</ele>
        <time>2025-11-05T11:05:50.023Z</time>
      </trkpt>
      <trkpt lat="43.53952" lon="5.5251">
        <ele>348.4</ele>
        <time>2025-11-05T11:05:55.023Z</time>
      </trkpt>
      <trkpt lat="43.53952" lon="5.52515">
        <ele>347.8</ele>
        <time>2025-11-05T11:06:05.023Z</time>
      </trkpt>
      <trkpt lat="43.53952" lon="5.52518">
        <ele>347.3</ele>
        <time>2025-11-05T11:06:11.023Z</time>
      </trkpt>
      <trkpt lat="43.53952" lon="5.52522">
        <ele>347</ele>
        <time>2025-11-05T11:06:14.023Z</time>
      </trkpt>
      <trkpt lat="43.53953" lon="5.52525">
        <ele>346.7</ele>
        <time>2025-11-05T11:06:16.023Z</time>
      </trkpt>
      <trkpt lat="43.53953" lon="5.52529">
        <ele>346.4</ele>
        <time>2025-11-05T11:06:18.023Z</time>
      </trkpt>
      <trkpt lat="43.53952" lon="5.52532">
        <ele>346.3</ele>
        <time>2025-11-05T11:06:20.023Z</time>
      </trkpt>
      <trkpt lat="43.53951" lon="5.52536">
        <ele>346</ele>
        <time>2025-11-05T11:06:23.022Z</time>
      </trkpt>
      <trkpt lat="43.53949" lon="5.52539">
        <ele>345.7</ele>
        <time>2025-11-05T11:06:25.023Z</time>
      </trkpt>
      <trkpt lat="43.53948" lon="5.52542">
        <ele>345.5</ele>
        <time>2025-11-05T11:06:27.022Z</time>
      </trkpt>
      <trkpt lat="43.53948" lon="5.52546">
        <ele>345.5</ele>
        <time>2025-11-05T11:06:29.023Z</time>
      </trkpt>
      <trkpt lat="43.53948" lon="5.5255">
        <ele>345.7</ele>
        <time>2025-11-05T11:06:32.022Z</time>
      </trkpt>
      <trkpt lat="43.53948" lon="5.52554">
        <ele>345.9</ele>
        <time>2025-11-05T11:06:35.022Z</time>
      </trkpt>
      <trkpt lat="43.53948" lon="5.52558">
        <ele>345.6</ele>
        <time>2025-11-05T11:06:38.023Z</time>
      </trkpt>
      <trkpt lat="43.53949" lon="5.52562">
        <ele>345.4</ele>
        <time>2025-11-05T11:06:41.023Z</time>
      </trkpt>
      <trkpt lat="43.53951" lon="5.52566">
        <ele>345.3</ele>
        <time>2025-11-05T11:06:43.023Z</time>
      </trkpt>
      <trkpt lat="43.53952" lon="5.52569">
        <ele>345.3</ele>
        <time>2025-11-05T11:06:45.023Z</time>
      </trkpt>
      <trkpt lat="43.53952" lon="5.52573">
        <ele>344.9</ele>
        <time>2025-11-05T11:06:47.023Z</time>
      </trkpt>
      <trkpt lat="43.53953" lon="5.52576">
        <ele>344.9</ele>
        <time>2025-11-05T11:06:49.023Z</time>
      </trkpt>
      <trkpt lat="43.53954" lon="5.5258">
        <ele>344.6</ele>
        <time>2025-11-05T11:06:52.023Z</time>
      </trkpt>
      <trkpt lat="43.53954" lon="5.52583">
        <ele>344.4</ele>
        <time>2025-11-05T11:06:54.023Z</time>
      </trkpt>
      <trkpt lat="43.53956" lon="5.52586">
        <ele>344.7</ele>
        <time>2025-11-05T11:06:56.023Z</time>
      </trkpt>
      <trkpt lat="43.53955" lon="5.52589">
        <ele>344.1</ele>
        <time>2025-11-05T11:06:58.023Z</time>
      </trkpt>
      <trkpt lat="43.53956" lon="5.52592">
        <ele>343.7</ele>
        <time>2025-11-05T11:07:00.023Z</time>
      </trkpt>
      <trkpt lat="43.53956" lon="5.52596">
        <ele>343.3</ele>
        <time>2025-11-05T11:07:03.023Z</time>
      </trkpt>
      <trkpt lat="43.53959" lon="5.52597">
        <ele>344.1</ele>
        <time>2025-11-05T11:07:06.023Z</time>
      </trkpt>
      <trkpt lat="43.53961" lon="5.526">
        <ele>344.5</ele>
        <time>2025-11-05T11:07:09.023Z</time>
      </trkpt>
      <trkpt lat="43.53962" lon="5.52603">
        <ele>344.6</ele>
        <time>2025-11-05T11:07:11.023Z</time>
      </trkpt>
      <trkpt lat="43.53962" lon="5.52606">
        <ele>344.4</ele>
        <time>2025-11-05T11:07:14.023Z</time>
      </trkpt>
      <trkpt lat="43.53964" lon="5.52609">
        <ele>344.8</ele>
        <time>2025-11-05T11:07:16.023Z</time>
      </trkpt>
      <trkpt lat="43.53966" lon="5.52612">
        <ele>345.2</ele>
        <time>2025-11-05T11:07:18.023Z</time>
      </trkpt>
      <trkpt lat="43.53967" lon="5.52616">
        <ele>345.5</ele>
        <time>2025-11-05T11:07:21.022Z</time>
      </trkpt>
      <trkpt lat="43.53967" lon="5.5262">
        <ele>345.6</ele>
        <time>2025-11-05T11:07:23.023Z</time>
      </trkpt>
      <trkpt lat="43.53966" lon="5.52624">
        <ele>345.2</ele>
        <time>2025-11-05T11:07:26.023Z</time>
      </trkpt>
      <trkpt lat="43.53966" lon="5.52628">
        <ele>345.1</ele>
        <time>2025-11-05T11:07:28.023Z</time>
      </trkpt>
      <trkpt lat="43.53966" lon="5.52632">
        <ele>344.9</ele>
        <time>2025-11-05T11:07:31.023Z</time>
      </trkpt>
      <trkpt lat="43.53966" lon="5.52635">
        <ele>344.8</ele>
        <time>2025-11-05T11:07:33.023Z</time>
      </trkpt>
      <trkpt lat="43.53966" lon="5.52639">
        <ele>344.7</ele>
        <time>2025-11-05T11:07:35.023Z</time>
      </trkpt>
      <trkpt lat="43.53965" lon="5.52643">
        <ele>344.4</ele>
        <time>2025-11-05T11:07:37.023Z</time>
      </trkpt>
      <trkpt lat="43.53965" lon="5.52646">
        <ele>343.9</ele>
        <time>2025-11-05T11:07:39.022Z</time>
      </trkpt>
      <trkpt lat="43.53964" lon="5.5265">
        <ele>343.5</ele>
        <time>2025-11-05T11:07:42.022Z</time>
      </trkpt>
      <trkpt lat="43.53964" lon="5.52654">
        <ele>343.6</ele>
        <time>2025-11-05T11:07:45.023Z</time>
      </trkpt>
      <trkpt lat="43.53965" lon="5.52658">
        <ele>343.6</ele>
        <time>2025-11-05T11:07:47.023Z</time>
      </trkpt>
      <trkpt lat="43.53967" lon="5.52661">
        <ele>344.8</ele>
        <time>2025-11-05T11:07:50.023Z</time>
      </trkpt>
      <trkpt lat="43.53969" lon="5.52664">
        <ele>345.9</ele>
        <time>2025-11-05T11:07:54.023Z</time>
      </trkpt>
      <trkpt lat="43.5397" lon="5.52667">
        <ele>346.8</ele>
        <time>2025-11-05T11:07:57.023Z</time>
      </trkpt>
      <trkpt lat="43.5397" lon="5.52671">
        <ele>346.4</ele>
        <time>2025-11-05T11:08:00.023Z</time>
      </trkpt>
      <trkpt lat="43.53971" lon="5.52676">
        <ele>346.8</ele>
        <time>2025-11-05T11:08:04.023Z</time>
      </trkpt>
      <trkpt lat="43.53973" lon="5.52679">
        <ele>347.3</ele>
        <time>2025-11-05T11:08:06.023Z</time>
      </trkpt>
      <trkpt lat="43.53974" lon="5.52682">
        <ele>347.3</ele>
        <time>2025-11-05T11:08:08.023Z</time>
      </trkpt>
      <trkpt lat="43.53975" lon="5.52684">
        <ele>347.3</ele>
        <time>2025-11-05T11:08:10.023Z</time>
      </trkpt>
      <trkpt lat="43.53976" lon="5.52687">
        <ele>347.3</ele>
        <time>2025-11-05T11:08:12.023Z</time>
      </trkpt>
      <trkpt lat="43.53976" lon="5.52691">
        <ele>347.1</ele>
        <time>2025-11-05T11:08:14.022Z</time>
      </trkpt>
      <trkpt lat="43.53976" lon="5.52694">
        <ele>346.9</ele>
        <time>2025-11-05T11:08:16.023Z</time>
      </trkpt>
      <trkpt lat="43.53978" lon="5.52697">
        <ele>347.2</ele>
        <time>2025-11-05T11:08:19.023Z</time>
      </trkpt>
      <trkpt lat="43.53979" lon="5.527">
        <ele>347.5</ele>
        <time>2025-11-05T11:08:22.023Z</time>
      </trkpt>
      <trkpt lat="43.53981" lon="5.52703">
        <ele>347.9</ele>
        <time>2025-11-05T11:08:25.022Z</time>
      </trkpt>
      <trkpt lat="43.53981" lon="5.52706">
        <ele>348</ele>
        <time>2025-11-05T11:08:27.022Z</time>
      </trkpt>
      <trkpt lat="43.53981" lon="5.5271">
        <ele>348</ele>
        <time>2025-11-05T11:08:29.022Z</time>
      </trkpt>
      <trkpt lat="43.53982" lon="5.52714">
        <ele>348.1</ele>
        <time>2025-11-05T11:08:32.022Z</time>
      </trkpt>
      <trkpt lat="43.53983" lon="5.5272">
        <ele>348.3</ele>
        <time>2025-11-05T11:08:37.023Z</time>
      </trkpt>
      <trkpt lat="43.53984" lon="5.52723">
        <ele>348.5</ele>
        <time>2025-11-05T11:08:39.023Z</time>
      </trkpt>
      <trkpt lat="43.53984" lon="5.52727">
        <ele>348.9</ele>
        <time>2025-11-05T11:08:42.022Z</time>
      </trkpt>
      <trkpt lat="43.53984" lon="5.52731">
        <ele>349.2</ele>
        <time>2025-11-05T11:08:45.023Z</time>
      </trkpt>
      <trkpt lat="43.53984" lon="5.52735">
        <ele>349.5</ele>
        <time>2025-11-05T11:08:48.023Z</time>
      </trkpt>
      <trkpt lat="43.53985" lon="5.52738">
        <ele>350</ele>
        <time>2025-11-05T11:08:51.022Z</time>
      </trkpt>
      <trkpt lat="43.53985" lon="5.52742">
        <ele>350.2</ele>
        <time>2025-11-05T11:08:55.023Z</time>
      </trkpt>
      <trkpt lat="43.53986" lon="5.52746">
        <ele>350.6</ele>
        <time>2025-11-05T11:08:58.023Z</time>
      </trkpt>
      <trkpt lat="43.53985" lon="5.52749">
        <ele>350.8</ele>
        <time>2025-11-05T11:09:00.023Z</time>
      </trkpt>
      <trkpt lat="43.53985" lon="5.52753">
        <ele>350.9</ele>
        <time>2025-11-05T11:09:04.023Z</time>
      </trkpt>
      <trkpt lat="43.53985" lon="5.52757">
        <ele>351.2</ele>
        <time>2025-11-05T11:09:07.023Z</time>
      </trkpt>
      <trkpt lat="43.53986" lon="5.5276">
        <ele>351.5</ele>
        <time>2025-11-05T11:09:11.022Z</time>
      </trkpt>
      <trkpt lat="43.53984" lon="5.52764">
        <ele>351.5</ele>
        <time>2025-11-05T11:09:14.023Z</time>
      </trkpt>
      <trkpt lat="43.53984" lon="5.52767">
        <ele>351.7</ele>
        <time>2025-11-05T11:09:17.023Z</time>
      </trkpt>
      <trkpt lat="43.53984" lon="5.52771">
        <ele>351.9</ele>
        <time>2025-11-05T11:09:20.023Z</time>
      </trkpt>
      <trkpt lat="43.53986" lon="5.52775">
        <ele>352.3</ele>
        <time>2025-11-05T11:09:25.023Z</time>
      </trkpt>
      <trkpt lat="43.53986" lon="5.52779">
        <ele>352.5</ele>
        <time>2025-11-05T11:09:28.023Z</time>
      </trkpt>
      <trkpt lat="43.53986" lon="5.52783">
        <ele>352.5</ele>
        <time>2025-11-05T11:09:31.023Z</time>
      </trkpt>
      <trkpt lat="43.53987" lon="5.52787">
        <ele>352.6</ele>
        <time>2025-11-05T11:09:34.023Z</time>
      </trkpt>
      <trkpt lat="43.53988" lon="5.52792">
        <ele>352.7</ele>
        <time>2025-11-05T11:09:37.023Z</time>
      </trkpt>
      <trkpt lat="43.53987" lon="5.52796">
        <ele>352.6</ele>
        <time>2025-11-05T11:09:40.023Z</time>
      </trkpt>
      <trkpt lat="43.53986" lon="5.52801">
        <ele>352.5</ele>
        <time>2025-11-05T11:09:43.023Z</time>
      </trkpt>
      <trkpt lat="43.53987" lon="5.52805">
        <ele>352.5</ele>
        <time>2025-11-05T11:09:46.023Z</time>
      </trkpt>
      <trkpt lat="43.53988" lon="5.52809">
        <ele>352.7</ele>
        <time>2025-11-05T11:09:48.023Z</time>
      </trkpt>
      <trkpt lat="43.5399" lon="5.52812">
        <ele>352.8</ele>
        <time>2025-11-05T11:09:51.023Z</time>
      </trkpt>
      <trkpt lat="43.53991" lon="5.52814">
        <ele>352.9</ele>
        <time>2025-11-05T11:09:53.023Z</time>
      </trkpt>
      <trkpt lat="43.53993" lon="5.52816">
        <ele>353.1</ele>
        <time>2025-11-05T11:09:55.023Z</time>
      </trkpt>
      <trkpt lat="43.53995" lon="5.52818">
        <ele>353.2</ele>
        <time>2025-11-05T11:09:58.023Z</time>
      </trkpt>
      <trkpt lat="43.53997" lon="5.5282">
        <ele>353.3</ele>
        <time>2025-11-05T11:10:01.023Z</time>
      </trkpt>
      <trkpt lat="43.53999" lon="5.52821">
        <ele>353.4</ele>
        <time>2025-11-05T11:10:03.023Z</time>
      </trkpt>
      <trkpt lat="43.54002" lon="5.52824">
        <ele>353.4</ele>
        <time>2025-11-05T11:10:06.023Z</time>
      </trkpt>
      <trkpt lat="43.54004" lon="5.52825">
        <ele>353.3</ele>
        <time>2025-11-05T11:10:08.023Z</time>
      </trkpt>
      <trkpt lat="43.54007" lon="5.52827">
        <ele>353.3</ele>
        <time>2025-11-05T11:10:10.023Z</time>
      </trkpt>
      <trkpt lat="43.54009" lon="5.52827">
        <ele>353.3</ele>
        <time>2025-11-05T11:10:12.023Z</time>
      </trkpt>
      <trkpt lat="43.54012" lon="5.52828">
        <ele>353.3</ele>
        <time>2025-11-05T11:10:15.022Z</time>
      </trkpt>
      <trkpt lat="43.54014" lon="5.52831">
        <ele>353.1</ele>
        <time>2025-11-05T11:10:21.022Z</time>
      </trkpt>
      <trkpt lat="43.54016" lon="5.52833">
        <ele>353</ele>
        <time>2025-11-05T11:10:23.022Z</time>
      </trkpt>
      <trkpt lat="43.54017" lon="5.52836">
        <ele>352.9</ele>
        <time>2025-11-05T11:10:25.023Z</time>
      </trkpt>
      <trkpt lat="43.54019" lon="5.52839">
        <ele>352.8</ele>
        <time>2025-11-05T11:10:27.023Z</time>
      </trkpt>
      <trkpt lat="43.54022" lon="5.52841">
        <ele>352.7</ele>
        <time>2025-11-05T11:10:29.023Z</time>
      </trkpt>
      <trkpt lat="43.54024" lon="5.52843">
        <ele>352.6</ele>
        <time>2025-11-05T11:10:31.023Z</time>
      </trkpt>
      <trkpt lat="43.54026" lon="5.52846">
        <ele>352.6</ele>
        <time>2025-11-05T11:10:33.023Z</time>
      </trkpt>
      <trkpt lat="43.54029" lon="5.52848">
        <ele>352.5</ele>
        <time>2025-11-05T11:10:36.023Z</time>
      </trkpt>
      <trkpt lat="43.54031" lon="5.5285">
        <ele>352.5</ele>
        <time>2025-11-05T11:10:38.023Z</time>
      </trkpt>
      <trkpt lat="43.54032" lon="5.52853">
        <ele>352.5</ele>
        <time>2025-11-05T11:10:42.023Z</time>
      </trkpt>
      <trkpt lat="43.54036" lon="5.52856">
        <ele>352.5</ele>
        <time>2025-11-05T11:10:45.023Z</time>
      </trkpt>
      <trkpt lat="43.54038" lon="5.52858">
        <ele>352.5</ele>
        <time>2025-11-05T11:10:47.022Z</time>
      </trkpt>
      <trkpt lat="43.54041" lon="5.52859">
        <ele>352.5</ele>
        <time>2025-11-05T11:10:49.022Z</time>
      </trkpt>
      <trkpt lat="43.54043" lon="5.52861">
        <ele>352.6</ele>
        <time>2025-11-05T11:10:51.023Z</time>
      </trkpt>
      <trkpt lat="43.54046" lon="5.52862">
        <ele>352.6</ele>
        <time>2025-11-05T11:10:53.023Z</time>
      </trkpt>
      <trkpt lat="43.54047" lon="5.52864">
        <ele>352.5</ele>
        <time>2025-11-05T11:10:56.023Z</time>
      </trkpt>
      <trkpt lat="43.54049" lon="5.52867">
        <ele>352.5</ele>
        <time>2025-11-05T11:10:59.023Z</time>
      </trkpt>
      <trkpt lat="43.54051" lon="5.52869">
        <ele>352.5</ele>
        <time>2025-11-05T11:11:03.023Z</time>
      </trkpt>
      <trkpt lat="43.54053" lon="5.52872">
        <ele>352.5</ele>
        <time>2025-11-05T11:11:05.023Z</time>
      </trkpt>
      <trkpt lat="43.54056" lon="5.52874">
        <ele>352.6</ele>
        <time>2025-11-05T11:11:07.023Z</time>
      </trkpt>
      <trkpt lat="43.54059" lon="5.52876">
        <ele>352.7</ele>
        <time>2025-11-05T11:11:10.023Z</time>
      </trkpt>
      <trkpt lat="43.5406" lon="5.52879">
        <ele>352.7</ele>
        <time>2025-11-05T11:11:12.023Z</time>
      </trkpt>
      <trkpt lat="43.54063" lon="5.52881">
        <ele>352.8</ele>
        <time>2025-11-05T11:11:15.022Z</time>
      </trkpt>
      <trkpt lat="43.54065" lon="5.52884">
        <ele>352.9</ele>
        <time>2025-11-05T11:11:18.023Z</time>
      </trkpt>
      <trkpt lat="43.54068" lon="5.52886">
        <ele>353</ele>
        <time>2025-11-05T11:11:21.023Z</time>
      </trkpt>
      <trkpt lat="43.5407" lon="5.52889">
        <ele>353</ele>
        <time>2025-11-05T11:11:24.023Z</time>
      </trkpt>
      <trkpt lat="43.54071" lon="5.52892">
        <ele>353.1</ele>
        <time>2025-11-05T11:11:26.023Z</time>
      </trkpt>
      <trkpt lat="43.54072" lon="5.52897">
        <ele>353.2</ele>
        <time>2025-11-05T11:11:28.023Z</time>
      </trkpt>
      <trkpt lat="43.54073" lon="5.529">
        <ele>353.3</ele>
        <time>2025-11-05T11:11:30.022Z</time>
      </trkpt>
      <trkpt lat="43.54073" lon="5.52903">
        <ele>353.3</ele>
        <time>2025-11-05T11:11:32.022Z</time>
      </trkpt>
      <trkpt lat="43.54074" lon="5.52906">
        <ele>353.3</ele>
        <time>2025-11-05T11:11:34.023Z</time>
      </trkpt>
      <trkpt lat="43.54075" lon="5.5291">
        <ele>353.4</ele>
        <time>2025-11-05T11:11:37.023Z</time>
      </trkpt>
      <trkpt lat="43.54077" lon="5.52913">
        <ele>353.5</ele>
        <time>2025-11-05T11:11:39.022Z</time>
      </trkpt>
      <trkpt lat="43.54078" lon="5.52917">
        <ele>353.6</ele>
        <time>2025-11-05T11:11:42.023Z</time>
      </trkpt>
      <trkpt lat="43.54079" lon="5.5292">
        <ele>353.6</ele>
        <time>2025-11-05T11:11:45.023Z</time>
      </trkpt>
      <trkpt lat="43.54081" lon="5.52924">
        <ele>353.7</ele>
        <time>2025-11-05T11:11:48.023Z</time>
      </trkpt>
      <trkpt lat="43.54081" lon="5.52927">
        <ele>353.7</ele>
        <time>2025-11-05T11:11:50.023Z</time>
      </trkpt>
      <trkpt lat="43.54083" lon="5.5293">
        <ele>353.9</ele>
        <time>2025-11-05T11:11:53.023Z</time>
      </trkpt>
      <trkpt lat="43.54084" lon="5.52932">
        <ele>354.1</ele>
        <time>2025-11-05T11:11:55.022Z</time>
      </trkpt>
      <trkpt lat="43.54086" lon="5.52935">
        <ele>354.2</ele>
        <time>2025-11-05T11:11:57.023Z</time>
      </trkpt>
      <trkpt lat="43.54088" lon="5.52937">
        <ele>354.3</ele>
        <time>2025-11-05T11:12:00.023Z</time>
      </trkpt>
      <trkpt lat="43.54091" lon="5.5294">
        <ele>354.3</ele>
        <time>2025-11-05T11:12:03.023Z</time>
      </trkpt>
      <trkpt lat="43.54092" lon="5.52942">
        <ele>354.4</ele>
        <time>2025-11-05T11:12:06.023Z</time>
      </trkpt>
      <trkpt lat="43.54094" lon="5.52946">
        <ele>354.2</ele>
        <time>2025-11-05T11:12:09.023Z</time>
      </trkpt>
      <trkpt lat="43.54095" lon="5.52949">
        <ele>354</ele>
        <time>2025-11-05T11:12:11.023Z</time>
      </trkpt>
      <trkpt lat="43.54096" lon="5.52953">
        <ele>353.7</ele>
        <time>2025-11-05T11:12:13.023Z</time>
      </trkpt>
      <trkpt lat="43.54098" lon="5.52955">
        <ele>353.6</ele>
        <time>2025-11-05T11:12:15.022Z</time>
      </trkpt>
      <trkpt lat="43.541" lon="5.52957">
        <ele>353.6</ele>
        <time>2025-11-05T11:12:17.023Z</time>
      </trkpt>
      <trkpt lat="43.54102" lon="5.5296">
        <ele>353.6</ele>
        <time>2025-11-05T11:12:20.023Z</time>
      </trkpt>
      <trkpt lat="43.54105" lon="5.52962">
        <ele>353.7</ele>
        <time>2025-11-05T11:12:22.022Z</time>
      </trkpt>
      <trkpt lat="43.54107" lon="5.52962">
        <ele>353.9</ele>
        <time>2025-11-05T11:12:24.023Z</time>
      </trkpt>
      <trkpt lat="43.54109" lon="5.52964">
        <ele>354.1</ele>
        <time>2025-11-05T11:12:26.022Z</time>
      </trkpt>
      <trkpt lat="43.5411" lon="5.52967">
        <ele>354.1</ele>
        <time>2025-11-05T11:12:28.022Z</time>
      </trkpt>
      <trkpt lat="43.54111" lon="5.5297">
        <ele>354.1</ele>
        <time>2025-11-05T11:12:30.023Z</time>
      </trkpt>
      <trkpt lat="43.54114" lon="5.52969">
        <ele>354.2</ele>
        <time>2025-11-05T11:12:32.023Z</time>
      </trkpt>
      <trkpt lat="43.54116" lon="5.5297">
        <ele>354.3</ele>
        <time>2025-11-05T11:12:34.023Z</time>
      </trkpt>
      <trkpt lat="43.54118" lon="5.52971">
        <ele>354.3</ele>
        <time>2025-11-05T11:12:36.023Z</time>
      </trkpt>
      <trkpt lat="43.54121" lon="5.52973">
        <ele>354.3</ele>
        <time>2025-11-05T11:12:40.023Z</time>
      </trkpt>
      <trkpt lat="43.54124" lon="5.52972">
        <ele>354.5</ele>
        <time>2025-11-05T11:12:43.022Z</time>
      </trkpt>
      <trkpt lat="43.54126" lon="5.52976">
        <ele>354.3</ele>
        <time>2025-11-05T11:12:46.022Z</time>
      </trkpt>
      <trkpt lat="43.54128" lon="5.52979">
        <ele>354.3</ele>
        <time>2025-11-05T11:12:49.023Z</time>
      </trkpt>
      <trkpt lat="43.5413" lon="5.52983">
        <ele>354.2</ele>
        <time>2025-11-05T11:12:52.023Z</time>
      </trkpt>
      <trkpt lat="43.54131" lon="5.52987">
        <ele>354</ele>
        <time>2025-11-05T11:12:57.023Z</time>
      </trkpt>
      <trkpt lat="43.54132" lon="5.52991">
        <ele>353.9</ele>
        <time>2025-11-05T11:12:59.022Z</time>
      </trkpt>
      <trkpt lat="43.54132" lon="5.52995">
        <ele>353.7</ele>
        <time>2025-11-05T11:13:01.023Z</time>
      </trkpt>
      <trkpt lat="43.54132" lon="5.52998">
        <ele>353.6</ele>
        <time>2025-11-05T11:13:03.023Z</time>
      </trkpt>
      <trkpt lat="43.54133" lon="5.53002">
        <ele>353.7</ele>
        <time>2025-11-05T11:13:05.022Z</time>
      </trkpt>
      <trkpt lat="43.54132" lon="5.53006">
        <ele>353.8</ele>
        <time>2025-11-05T11:13:08.023Z</time>
      </trkpt>
      <trkpt lat="43.54131" lon="5.53009">
        <ele>354</ele>
        <time>2025-11-05T11:13:12.023Z</time>
      </trkpt>
      <trkpt lat="43.5413" lon="5.53013">
        <ele>354.1</ele>
        <time>2025-11-05T11:13:16.023Z</time>
      </trkpt>
      <trkpt lat="43.54129" lon="5.53016">
        <ele>354.2</ele>
        <time>2025-11-05T11:13:18.023Z</time>
      </trkpt>
      <trkpt lat="43.54127" lon="5.53019">
        <ele>354.4</ele>
        <time>2025-11-05T11:13:21.023Z</time>
      </trkpt>
      <trkpt lat="43.54125" lon="5.53021">
        <ele>354.5</ele>
        <time>2025-11-05T11:13:23.022Z</time>
      </trkpt>
      <trkpt lat="43.54123" lon="5.53023">
        <ele>354.6</ele>
        <time>2025-11-05T11:13:25.022Z</time>
      </trkpt>
      <trkpt lat="43.54122" lon="5.53028">
        <ele>355</ele>
        <time>2025-11-05T11:13:28.022Z</time>
      </trkpt>
      <trkpt lat="43.54119" lon="5.5303">
        <ele>355.1</ele>
        <time>2025-11-05T11:13:31.023Z</time>
      </trkpt>
      <trkpt lat="43.54117" lon="5.53032">
        <ele>355.1</ele>
        <time>2025-11-05T11:13:34.023Z</time>
      </trkpt>
      <trkpt lat="43.54114" lon="5.53034">
        <ele>355.2</ele>
        <time>2025-11-05T11:13:36.023Z</time>
      </trkpt>
      <trkpt lat="43.54113" lon="5.53037">
        <ele>355.3</ele>
        <time>2025-11-05T11:13:38.022Z</time>
      </trkpt>
      <trkpt lat="43.54111" lon="5.5304">
        <ele>355.4</ele>
        <time>2025-11-05T11:13:41.023Z</time>
      </trkpt>
      <trkpt lat="43.54109" lon="5.53042">
        <ele>355.5</ele>
        <time>2025-11-05T11:13:43.023Z</time>
      </trkpt>
      <trkpt lat="43.54107" lon="5.53044">
        <ele>355.6</ele>
        <time>2025-11-05T11:13:45.023Z</time>
      </trkpt>
      <trkpt lat="43.54105" lon="5.53046">
        <ele>355.7</ele>
        <time>2025-11-05T11:13:47.023Z</time>
      </trkpt>
      <trkpt lat="43.54102" lon="5.53047">
        <ele>355.7</ele>
        <time>2025-11-05T11:13:49.023Z</time>
      </trkpt>
      <trkpt lat="43.541" lon="5.53049">
        <ele>355.8</ele>
        <time>2025-11-05T11:13:52.023Z</time>
      </trkpt>
      <trkpt lat="43.54098" lon="5.53051">
        <ele>355.8</ele>
        <time>2025-11-05T11:13:54.023Z</time>
      </trkpt>
      <trkpt lat="43.54096" lon="5.53055">
        <ele>356</ele>
        <time>2025-11-05T11:13:57.023Z</time>
      </trkpt>
      <trkpt lat="43.54095" lon="5.53058">
        <ele>356</ele>
        <time>2025-11-05T11:14:00.023Z</time>
      </trkpt>
      <trkpt lat="43.54094" lon="5.53062">
        <ele>356.1</ele>
        <time>2025-11-05T11:14:02.023Z</time>
      </trkpt>
      <trkpt lat="43.54093" lon="5.53065">
        <ele>356.1</ele>
        <time>2025-11-05T11:14:05.023Z</time>
      </trkpt>
      <trkpt lat="43.54092" lon="5.53068">
        <ele>356.1</ele>
        <time>2025-11-05T11:14:07.022Z</time>
      </trkpt>
      <trkpt lat="43.5409" lon="5.53071">
        <ele>356.1</ele>
        <time>2025-11-05T11:14:10.023Z</time>
      </trkpt>
      <trkpt lat="43.54088" lon="5.53073">
        <ele>356.1</ele>
        <time>2025-11-05T11:14:13.023Z</time>
      </trkpt>
      <trkpt lat="43.54086" lon="5.53076">
        <ele>356.1</ele>
        <time>2025-11-05T11:14:16.023Z</time>
      </trkpt>
      <trkpt lat="43.54084" lon="5.53079">
        <ele>356</ele>
        <time>2025-11-05T11:14:19.023Z</time>
      </trkpt>
      <trkpt lat="43.54083" lon="5.53082">
        <ele>356</ele>
        <time>2025-11-05T11:14:21.023Z</time>
      </trkpt>
      <trkpt lat="43.54082" lon="5.53085">
        <ele>356</ele>
        <time>2025-11-05T11:14:23.023Z</time>
      </trkpt>
      <trkpt lat="43.54081" lon="5.53089">
        <ele>356</ele>
        <time>2025-11-05T11:14:26.023Z</time>
      </trkpt>
      <trkpt lat="43.5408" lon="5.53093">
        <ele>356</ele>
        <time>2025-11-05T11:14:29.023Z</time>
      </trkpt>
      <trkpt lat="43.54078" lon="5.53095">
        <ele>356</ele>
        <time>2025-11-05T11:14:31.022Z</time>
      </trkpt>
      <trkpt lat="43.54077" lon="5.53099">
        <ele>356</ele>
        <time>2025-11-05T11:14:33.023Z</time>
      </trkpt>
      <trkpt lat="43.54077" lon="5.53102">
        <ele>356</ele>
        <time>2025-11-05T11:14:36.023Z</time>
      </trkpt>
      <trkpt lat="43.54077" lon="5.53105">
        <ele>356</ele>
        <time>2025-11-05T11:14:38.023Z</time>
      </trkpt>
      <trkpt lat="43.54078" lon="5.53109">
        <ele>356</ele>
        <time>2025-11-05T11:14:40.023Z</time>
      </trkpt>
      <trkpt lat="43.54079" lon="5.53113">
        <ele>356</ele>
        <time>2025-11-05T11:14:43.023Z</time>
      </trkpt>
      <trkpt lat="43.54079" lon="5.53117">
        <ele>356</ele>
        <time>2025-11-05T11:14:45.023Z</time>
      </trkpt>
      <trkpt lat="43.5408" lon="5.53121">
        <ele>356</ele>
        <time>2025-11-05T11:14:48.022Z</time>
      </trkpt>
      <trkpt lat="43.54081" lon="5.53124">
        <ele>356</ele>
        <time>2025-11-05T11:14:50.023Z</time>
      </trkpt>
      <trkpt lat="43.54082" lon="5.53127">
        <ele>356</ele>
        <time>2025-11-05T11:14:52.023Z</time>
      </trkpt>
      <trkpt lat="43.54083" lon="5.5313">
        <ele>356</ele>
        <time>2025-11-05T11:14:55.023Z</time>
      </trkpt>
      <trkpt lat="43.54084" lon="5.53133">
        <ele>356</ele>
        <time>2025-11-05T11:14:57.022Z</time>
      </trkpt>
      <trkpt lat="43.54086" lon="5.53136">
        <ele>356.1</ele>
        <time>2025-11-05T11:15:00.023Z</time>
      </trkpt>
      <trkpt lat="43.54086" lon="5.5314">
        <ele>356.1</ele>
        <time>2025-11-05T11:15:02.023Z</time>
      </trkpt>
      <trkpt lat="43.54087" lon="5.53143">
        <ele>356.1</ele>
        <time>2025-11-05T11:15:04.023Z</time>
      </trkpt>
      <trkpt lat="43.54089" lon="5.53146">
        <ele>356.1</ele>
        <time>2025-11-05T11:15:06.023Z</time>
      </trkpt>
      <trkpt lat="43.5409" lon="5.53149">
        <ele>356.2</ele>
        <time>2025-11-05T11:15:09.023Z</time>
      </trkpt>
      <trkpt lat="43.54091" lon="5.53153">
        <ele>356.1</ele>
        <time>2025-11-05T11:15:12.023Z</time>
      </trkpt>
      <trkpt lat="43.54091" lon="5.53157">
        <ele>356.1</ele>
        <time>2025-11-05T11:15:14.023Z</time>
      </trkpt>
      <trkpt lat="43.54092" lon="5.5316">
        <ele>356.1</ele>
        <time>2025-11-05T11:15:16.022Z</time>
      </trkpt>
      <trkpt lat="43.54092" lon="5.53164">
        <ele>356</ele>
        <time>2025-11-05T11:15:18.023Z</time>
      </trkpt>
      <trkpt lat="43.54094" lon="5.53168">
        <ele>355.9</ele>
        <time>2025-11-05T11:15:21.023Z</time>
      </trkpt>
      <trkpt lat="43.54096" lon="5.5317">
        <ele>355.7</ele>
        <time>2025-11-05T11:15:24.022Z</time>
      </trkpt>
      <trkpt lat="43.54098" lon="5.53173">
        <ele>355.5</ele>
        <time>2025-11-05T11:15:27.023Z</time>
      </trkpt>
      <trkpt lat="43.54101" lon="5.53175">
        <ele>355.4</ele>
        <time>2025-11-05T11:15:30.022Z</time>
      </trkpt>
      <trkpt lat="43.54103" lon="5.53179">
        <ele>355.4</ele>
        <time>2025-11-05T11:15:33.023Z</time>
      </trkpt>
      <trkpt lat="43.54104" lon="5.53182">
        <ele>355.3</ele>
        <time>2025-11-05T11:15:35.023Z</time>
      </trkpt>
      <trkpt lat="43.54105" lon="5.53185">
        <ele>355.3</ele>
        <time>2025-11-05T11:15:37.023Z</time>
      </trkpt>
      <trkpt lat="43.54107" lon="5.53188">
        <ele>355.4</ele>
        <time>2025-11-05T11:15:40.022Z</time>
      </trkpt>
      <trkpt lat="43.54109" lon="5.5319">
        <ele>355.7</ele>
        <time>2025-11-05T11:15:43.023Z</time>
      </trkpt>
      <trkpt lat="43.5411" lon="5.53193">
        <ele>355.9</ele>
        <time>2025-11-05T11:15:46.023Z</time>
      </trkpt>
      <trkpt lat="43.54112" lon="5.53194">
        <ele>356.1</ele>
        <time>2025-11-05T11:15:48.023Z</time>
      </trkpt>
      <trkpt lat="43.54114" lon="5.53198">
        <ele>355.3</ele>
        <time>2025-11-05T11:15:51.023Z</time>
      </trkpt>
      <trkpt lat="43.54116" lon="5.53201">
        <ele>354.9</ele>
        <time>2025-11-05T11:15:55.022Z</time>
      </trkpt>
      <trkpt lat="43.54118" lon="5.53204">
        <ele>354.6</ele>
        <time>2025-11-05T11:15:58.023Z</time>
      </trkpt>
      <trkpt lat="43.5412" lon="5.53205">
        <ele>354.5</ele>
        <time>2025-11-05T11:16:01.023Z</time>
      </trkpt>
      <trkpt lat="43.54122" lon="5.53208">
        <ele>354.3</ele>
        <time>2025-11-05T11:16:04.022Z</time>
      </trkpt>
      <trkpt lat="43.54124" lon="5.53211">
        <ele>354.1</ele>
        <time>2025-11-05T11:16:06.023Z</time>
      </trkpt>
      <trkpt lat="43.54126" lon="5.53215">
        <ele>353.9</ele>
        <time>2025-11-05T11:16:09.023Z</time>
      </trkpt>
      <trkpt lat="43.54128" lon="5.53218">
        <ele>353.8</ele>
        <time>2025-11-05T11:16:12.023Z</time>
      </trkpt>
      <trkpt lat="43.54129" lon="5.53222">
        <ele>353.6</ele>
        <time>2025-11-05T11:16:15.023Z</time>
      </trkpt>
      <trkpt lat="43.54131" lon="5.53225">
        <ele>353.7</ele>
        <time>2025-11-05T11:16:18.022Z</time>
      </trkpt>
      <trkpt lat="43.54133" lon="5.53228">
        <ele>354.2</ele>
        <time>2025-11-05T11:16:21.023Z</time>
      </trkpt>
      <trkpt lat="43.54134" lon="5.53231">
        <ele>354.3</ele>
        <time>2025-11-05T11:16:23.022Z</time>
      </trkpt>
      <trkpt lat="43.54136" lon="5.53234">
        <ele>354.9</ele>
        <time>2025-11-05T11:16:25.023Z</time>
      </trkpt>
      <trkpt lat="43.54138" lon="5.53236">
        <ele>355.6</ele>
        <time>2025-11-05T11:16:27.022Z</time>
      </trkpt>
      <trkpt lat="43.5414" lon="5.53238">
        <ele>356.1</ele>
        <time>2025-11-05T11:16:29.023Z</time>
      </trkpt>
      <trkpt lat="43.54142" lon="5.53241">
        <ele>356.2</ele>
        <time>2025-11-05T11:16:32.023Z</time>
      </trkpt>
      <trkpt lat="43.54144" lon="5.53245">
        <ele>356.3</ele>
        <time>2025-11-05T11:16:35.022Z</time>
      </trkpt>
      <trkpt lat="43.54146" lon="5.53248">
        <ele>356.3</ele>
        <time>2025-11-05T11:16:38.022Z</time>
      </trkpt>
      <trkpt lat="43.54148" lon="5.53249">
        <ele>356.4</ele>
        <time>2025-11-05T11:16:40.023Z</time>
      </trkpt>
      <trkpt lat="43.5415" lon="5.53252">
        <ele>356.2</ele>
        <time>2025-11-05T11:16:43.022Z</time>
      </trkpt>
      <trkpt lat="43.54152" lon="5.53254">
        <ele>356.2</ele>
        <time>2025-11-05T11:16:46.023Z</time>
      </trkpt>
      <trkpt lat="43.54155" lon="5.53257">
        <ele>356.1</ele>
        <time>2025-11-05T11:16:49.023Z</time>
      </trkpt>
      <trkpt lat="43.54156" lon="5.53261">
        <ele>356</ele>
        <time>2025-11-05T11:16:52.023Z</time>
      </trkpt>
      <trkpt lat="43.54156" lon="5.53264">
        <ele>355.9</ele>
        <time>2025-11-05T11:16:54.023Z</time>
      </trkpt>
      <trkpt lat="43.54158" lon="5.53267">
        <ele>355.9</ele>
        <time>2025-11-05T11:16:57.023Z</time>
      </trkpt>
      <trkpt lat="43.5416" lon="5.5327">
        <ele>356</ele>
        <time>2025-11-05T11:16:59.023Z</time>
      </trkpt>
      <trkpt lat="43.54161" lon="5.53275">
        <ele>356</ele>
        <time>2025-11-05T11:17:02.023Z</time>
      </trkpt>
      <trkpt lat="43.54162" lon="5.53278">
        <ele>356.1</ele>
        <time>2025-11-05T11:17:04.022Z</time>
      </trkpt>
      <trkpt lat="43.54162" lon="5.53282">
        <ele>356.1</ele>
        <time>2025-11-05T11:17:07.023Z</time>
      </trkpt>
      <trkpt lat="43.54162" lon="5.53286">
        <ele>356.2</ele>
        <time>2025-11-05T11:17:09.023Z</time>
      </trkpt>
      <trkpt lat="43.54162" lon="5.5329">
        <ele>356.2</ele>
        <time>2025-11-05T11:17:11.023Z</time>
      </trkpt>
      <trkpt lat="43.54162" lon="5.53293">
        <ele>356.2</ele>
        <time>2025-11-05T11:17:13.023Z</time>
      </trkpt>
      <trkpt lat="43.54162" lon="5.53297">
        <ele>356.2</ele>
        <time>2025-11-05T11:17:16.023Z</time>
      </trkpt>
      <trkpt lat="43.54163" lon="5.53301">
        <ele>356.4</ele>
        <time>2025-11-05T11:17:19.023Z</time>
      </trkpt>
      <trkpt lat="43.54163" lon="5.53306">
        <ele>356.4</ele>
        <time>2025-11-05T11:17:22.023Z</time>
      </trkpt>
      <trkpt lat="43.54163" lon="5.53311">
        <ele>356.4</ele>
        <time>2025-11-05T11:17:25.023Z</time>
      </trkpt>
      <trkpt lat="43.54163" lon="5.53314">
        <ele>356.4</ele>
        <time>2025-11-05T11:17:27.023Z</time>
      </trkpt>
      <trkpt lat="43.54162" lon="5.53317">
        <ele>356.4</ele>
        <time>2025-11-05T11:17:29.022Z</time>
      </trkpt>
      <trkpt lat="43.54162" lon="5.53321">
        <ele>356.3</ele>
        <time>2025-11-05T11:17:32.023Z</time>
      </trkpt>
      <trkpt lat="43.54161" lon="5.53325">
        <ele>356.3</ele>
        <time>2025-11-05T11:17:34.023Z</time>
      </trkpt>
      <trkpt lat="43.54162" lon="5.5333">
        <ele>356.4</ele>
        <time>2025-11-05T11:17:37.023Z</time>
      </trkpt>
      <trkpt lat="43.54162" lon="5.53333">
        <ele>356.5</ele>
        <time>2025-11-05T11:17:39.023Z</time>
      </trkpt>
      <trkpt lat="43.54163" lon="5.53338">
        <ele>356.6</ele>
        <time>2025-11-05T11:17:41.023Z</time>
      </trkpt>
      <trkpt lat="43.54163" lon="5.53342">
        <ele>356.7</ele>
        <time>2025-11-05T11:17:44.023Z</time>
      </trkpt>
      <trkpt lat="43.54164" lon="5.53345">
        <ele>356.9</ele>
        <time>2025-11-05T11:17:47.023Z</time>
      </trkpt>
      <trkpt lat="43.54164" lon="5.53348">
        <ele>357.1</ele>
        <time>2025-11-05T11:17:51.023Z</time>
      </trkpt>
      <trkpt lat="43.54164" lon="5.53352">
        <ele>357.1</ele>
        <time>2025-11-05T11:17:54.023Z</time>
      </trkpt>
      <trkpt lat="43.54163" lon="5.53355">
        <ele>357</ele>
        <time>2025-11-05T11:18:03.023Z</time>
      </trkpt>
      <trkpt lat="43.54163" lon="5.53358">
        <ele>357</ele>
        <time>2025-11-05T11:18:11.022Z</time>
      </trkpt>
      <trkpt lat="43.54165" lon="5.53362">
        <ele>357.4</ele>
        <time>2025-11-05T11:18:22.022Z</time>
      </trkpt>
      <trkpt lat="43.54164" lon="5.53366">
        <ele>357.3</ele>
        <time>2025-11-05T11:18:25.022Z</time>
      </trkpt>
      <trkpt lat="43.54162" lon="5.53369">
        <ele>357</ele>
        <time>2025-11-05T11:18:27.023Z</time>
      </trkpt>
      <trkpt lat="43.54163" lon="5.53373">
        <ele>357.2</ele>
        <time>2025-11-05T11:18:29.023Z</time>
      </trkpt>
      <trkpt lat="43.54163" lon="5.53376">
        <ele>357.3</ele>
        <time>2025-11-05T11:18:31.023Z</time>
      </trkpt>
      <trkpt lat="43.54163" lon="5.5338">
        <ele>357.5</ele>
        <time>2025-11-05T11:18:34.023Z</time>
      </trkpt>
      <trkpt lat="43.54162" lon="5.53383">
        <ele>357.3</ele>
        <time>2025-11-05T11:18:36.023Z</time>
      </trkpt>
      <trkpt lat="43.54161" lon="5.53386">
        <ele>357</ele>
        <time>2025-11-05T11:18:38.023Z</time>
      </trkpt>
      <trkpt lat="43.54159" lon="5.5339">
        <ele>356.5</ele>
        <time>2025-11-05T11:18:41.023Z</time>
      </trkpt>
      <trkpt lat="43.54157" lon="5.53393">
        <ele>356.3</ele>
        <time>2025-11-05T11:18:44.022Z</time>
      </trkpt>
      <trkpt lat="43.54156" lon="5.53397">
        <ele>356.4</ele>
        <time>2025-11-05T11:18:46.023Z</time>
      </trkpt>
      <trkpt lat="43.54154" lon="5.53401">
        <ele>356.5</ele>
        <time>2025-11-05T11:18:49.022Z</time>
      </trkpt>
      <trkpt lat="43.54153" lon="5.53405">
        <ele>356.8</ele>
        <time>2025-11-05T11:18:52.023Z</time>
      </trkpt>
      <trkpt lat="43.54151" lon="5.53408">
        <ele>356.9</ele>
        <time>2025-11-05T11:18:54.022Z</time>
      </trkpt>
      <trkpt lat="43.54149" lon="5.53411">
        <ele>357.1</ele>
        <time>2025-11-05T11:18:56.023Z</time>
      </trkpt>
      <trkpt lat="43.54148" lon="5.53414">
        <ele>357.4</ele>
        <time>2025-11-05T11:18:58.022Z</time>
      </trkpt>
      <trkpt lat="43.54147" lon="5.53417">
        <ele>357.8</ele>
        <time>2025-11-05T11:19:00.023Z</time>
      </trkpt>
      <trkpt lat="43.54146" lon="5.5342">
        <ele>357.9</ele>
        <time>2025-11-05T11:19:02.022Z</time>
      </trkpt>
      <trkpt lat="43.54144" lon="5.53424">
        <ele>358</ele>
        <time>2025-11-05T11:19:04.022Z</time>
      </trkpt>
      <trkpt lat="43.54143" lon="5.53426">
        <ele>358.1</ele>
        <time>2025-11-05T11:19:06.023Z</time>
      </trkpt>
      <trkpt lat="43.54141" lon="5.5343">
        <ele>358.1</ele>
        <time>2025-11-05T11:19:09.023Z</time>
      </trkpt>
      <trkpt lat="43.54138" lon="5.53432">
        <ele>357.9</ele>
        <time>2025-11-05T11:19:11.023Z</time>
      </trkpt>
      <trkpt lat="43.54136" lon="5.53433">
        <ele>357.2</ele>
        <time>2025-11-05T11:19:13.023Z</time>
      </trkpt>
      <trkpt lat="43.54134" lon="5.53436">
        <ele>357.1</ele>
        <time>2025-11-05T11:19:16.023Z</time>
      </trkpt>
      <trkpt lat="43.54133" lon="5.5344">
        <ele>357.3</ele>
        <time>2025-11-05T11:19:19.022Z</time>
      </trkpt>
      <trkpt lat="43.54131" lon="5.53443">
        <ele>357.3</ele>
        <time>2025-11-05T11:19:22.023Z</time>
      </trkpt>
      <trkpt lat="43.54128" lon="5.53446">
        <ele>356.8</ele>
        <time>2025-11-05T11:19:25.023Z</time>
      </trkpt>
      <trkpt lat="43.54126" lon="5.53448">
        <ele>356.1</ele>
        <time>2025-11-05T11:19:28.023Z</time>
      </trkpt>
      <trkpt lat="43.54124" lon="5.5345">
        <ele>355.3</ele>
        <time>2025-11-05T11:19:30.023Z</time>
      </trkpt>
      <trkpt lat="43.54122" lon="5.53452">
        <ele>354.5</ele>
        <time>2025-11-05T11:19:33.023Z</time>
      </trkpt>
      <trkpt lat="43.5412" lon="5.53454">
        <ele>353.4</ele>
        <time>2025-11-05T11:19:38.023Z</time>
      </trkpt>
      <trkpt lat="43.54117" lon="5.53454">
        <ele>352.6</ele>
        <time>2025-11-05T11:19:41.023Z</time>
      </trkpt>
      <trkpt lat="43.54115" lon="5.53455">
        <ele>351.8</ele>
        <time>2025-11-05T11:20:08.023Z</time>
      </trkpt>
      <trkpt lat="43.54114" lon="5.53458">
        <ele>350.6</ele>
        <time>2025-11-05T11:20:14.023Z</time>
      </trkpt>
      <trkpt lat="43.54116" lon="5.53458">
        <ele>351.2</ele>
        <time>2025-11-05T11:21:02.022Z</time>
      </trkpt>
      <trkpt lat="43.5412" lon="5.53456">
        <ele>352.7</ele>
        <time>2025-11-05T11:21:18.022Z</time>
      </trkpt>
      <trkpt lat="43.54122" lon="5.53455">
        <ele>353.6</ele>
        <time>2025-11-05T11:21:25.023Z</time>
      </trkpt>
      <trkpt lat="43.54125" lon="5.53456">
        <ele>354.4</ele>
        <time>2025-11-05T11:22:06.023Z</time>
      </trkpt>
      <trkpt lat="43.54128" lon="5.53456">
        <ele>355.3</ele>
        <time>2025-11-05T11:22:09.023Z</time>
      </trkpt>
      <trkpt lat="43.5413" lon="5.53457">
        <ele>355.8</ele>
        <time>2025-11-05T11:22:12.023Z</time>
      </trkpt>
      <trkpt lat="43.54132" lon="5.5346">
        <ele>356.1</ele>
        <time>2025-11-05T11:22:15.022Z</time>
      </trkpt>
      <trkpt lat="43.54132" lon="5.53464">
        <ele>355.8</ele>
        <time>2025-11-05T11:22:19.023Z</time>
      </trkpt>
      <trkpt lat="43.54134" lon="5.53467">
        <ele>356.1</ele>
        <time>2025-11-05T11:22:22.023Z</time>
      </trkpt>
      <trkpt lat="43.54135" lon="5.53471">
        <ele>356.1</ele>
        <time>2025-11-05T11:22:25.023Z</time>
      </trkpt>
      <trkpt lat="43.54136" lon="5.53474">
        <ele>356.4</ele>
        <time>2025-11-05T11:22:28.023Z</time>
      </trkpt>
      <trkpt lat="43.54137" lon="5.53478">
        <ele>356.4</ele>
        <time>2025-11-05T11:22:31.022Z</time>
      </trkpt>
      <trkpt lat="43.54137" lon="5.53481">
        <ele>356.5</ele>
        <time>2025-11-05T11:22:35.023Z</time>
      </trkpt>
      <trkpt lat="43.54139" lon="5.53485">
        <ele>356.8</ele>
        <time>2025-11-05T11:22:39.022Z</time>
      </trkpt>
      <trkpt lat="43.5414" lon="5.53489">
        <ele>356.9</ele>
        <time>2025-11-05T11:22:42.023Z</time>
      </trkpt>
      <trkpt lat="43.54141" lon="5.53492">
        <ele>356.8</ele>
        <time>2025-11-05T11:22:44.022Z</time>
      </trkpt>
      <trkpt lat="43.54142" lon="5.53496">
        <ele>356.6</ele>
        <time>2025-11-05T11:22:46.023Z</time>
      </trkpt>
      <trkpt lat="43.54142" lon="5.535">
        <ele>356.3</ele>
        <time>2025-11-05T11:22:50.023Z</time>
      </trkpt>
      <trkpt lat="43.54143" lon="5.53503">
        <ele>355.9</ele>
        <time>2025-11-05T11:22:53.022Z</time>
      </trkpt>
      <trkpt lat="43.54143" lon="5.53506">
        <ele>355.5</ele>
        <time>2025-11-05T11:22:55.023Z</time>
      </trkpt>
      <trkpt lat="43.54144" lon="5.53511">
        <ele>354.9</ele>
        <time>2025-11-05T11:22:58.023Z</time>
      </trkpt>
      <trkpt lat="43.54145" lon="5.53514">
        <ele>354.5</ele>
        <time>2025-11-05T11:23:01.023Z</time>
      </trkpt>
      <trkpt lat="43.54146" lon="5.53517">
        <ele>354.1</ele>
        <time>2025-11-05T11:23:05.023Z</time>
      </trkpt>
      <trkpt lat="43.54147" lon="5.53521">
        <ele>353.7</ele>
        <time>2025-11-05T11:23:08.022Z</time>
      </trkpt>
      <trkpt lat="43.54148" lon="5.53525">
        <ele>353.3</ele>
        <time>2025-11-05T11:23:11.023Z</time>
      </trkpt>
      <trkpt lat="43.5415" lon="5.53528">
        <ele>353.3</ele>
        <time>2025-11-05T11:23:14.023Z</time>
      </trkpt>
      <trkpt lat="43.54151" lon="5.53531">
        <ele>353.6</ele>
        <time>2025-11-05T11:23:18.023Z</time>
      </trkpt>
      <trkpt lat="43.54152" lon="5.53534">
        <ele>353.8</ele>
        <time>2025-11-05T11:23:23.022Z</time>
      </trkpt>
      <trkpt lat="43.54153" lon="5.53537">
        <ele>353.9</ele>
        <time>2025-11-05T11:23:29.023Z</time>
      </trkpt>
      <trkpt lat="43.54154" lon="5.5354">
        <ele>354.1</ele>
        <time>2025-11-05T11:23:32.023Z</time>
      </trkpt>
      <trkpt lat="43.54154" lon="5.53544">
        <ele>354</ele>
        <time>2025-11-05T11:23:35.023Z</time>
      </trkpt>
      <trkpt lat="43.54153" lon="5.53548">
        <ele>353.6</ele>
        <time>2025-11-05T11:23:38.023Z</time>
      </trkpt>
      <trkpt lat="43.54152" lon="5.53551">
        <ele>353.4</ele>
        <time>2025-11-05T11:23:40.023Z</time>
      </trkpt>
      <trkpt lat="43.5415" lon="5.53554">
        <ele>353</ele>
        <time>2025-11-05T11:23:43.022Z</time>
      </trkpt>
      <trkpt lat="43.5415" lon="5.53558">
        <ele>353</ele>
        <time>2025-11-05T11:23:46.023Z</time>
      </trkpt>
      <trkpt lat="43.54149" lon="5.53562">
        <ele>352.9</ele>
        <time>2025-11-05T11:23:49.023Z</time>
      </trkpt>
      <trkpt lat="43.54148" lon="5.53566">
        <ele>352.8</ele>
        <time>2025-11-05T11:23:52.022Z</time>
      </trkpt>
      <trkpt lat="43.54147" lon="5.5357">
        <ele>352.6</ele>
        <time>2025-11-05T11:23:55.023Z</time>
      </trkpt>
      <trkpt lat="43.54146" lon="5.53574">
        <ele>352.6</ele>
        <time>2025-11-05T11:23:58.023Z</time>
      </trkpt>
      <trkpt lat="43.54144" lon="5.53577">
        <ele>352.4</ele>
        <time>2025-11-05T11:24:01.023Z</time>
      </trkpt>
      <trkpt lat="43.54142" lon="5.5358">
        <ele>352.3</ele>
        <time>2025-11-05T11:24:03.022Z</time>
      </trkpt>
      <trkpt lat="43.54141" lon="5.53584">
        <ele>352.1</ele>
        <time>2025-11-05T11:24:06.023Z</time>
      </trkpt>
      <trkpt lat="43.54139" lon="5.53587">
        <ele>351.3</ele>
        <time>2025-11-05T11:24:09.023Z</time>
      </trkpt>
      <trkpt lat="43.54137" lon="5.5359">
        <ele>349.6</ele>
        <time>2025-11-05T11:24:12.023Z</time>
      </trkpt>
      <trkpt lat="43.54135" lon="5.53592">
        <ele>348</ele>
        <time>2025-11-05T11:24:15.023Z</time>
      </trkpt>
      <trkpt lat="43.54133" lon="5.53595">
        <ele>346.1</ele>
        <time>2025-11-05T11:24:18.023Z</time>
      </trkpt>
      <trkpt lat="43.54131" lon="5.53598">
        <ele>344.9</ele>
        <time>2025-11-05T11:24:21.022Z</time>
      </trkpt>
      <trkpt lat="43.5413" lon="5.53601">
        <ele>343.7</ele>
        <time>2025-11-05T11:24:24.023Z</time>
      </trkpt>
      <trkpt lat="43.54128" lon="5.53603">
        <ele>341.9</ele>
        <time>2025-11-05T11:24:27.022Z</time>
      </trkpt>
      <trkpt lat="43.54125" lon="5.53606">
        <ele>340.4</ele>
        <time>2025-11-05T11:24:30.023Z</time>
      </trkpt>
      <trkpt lat="43.54123" lon="5.53608">
        <ele>339</ele>
        <time>2025-11-05T11:24:34.022Z</time>
      </trkpt>
      <trkpt lat="43.54121" lon="5.53611">
        <ele>337.5</ele>
        <time>2025-11-05T11:24:38.023Z</time>
      </trkpt>
      <trkpt lat="43.54119" lon="5.53613">
        <ele>336</ele>
        <time>2025-11-05T11:24:41.023Z</time>
      </trkpt>
      <trkpt lat="43.54117" lon="5.53616">
        <ele>334.4</ele>
        <time>2025-11-05T11:24:44.023Z</time>
      </trkpt>
      <trkpt lat="43.54115" lon="5.53618">
        <ele>333</ele>
        <time>2025-11-05T11:24:48.023Z</time>
      </trkpt>
      <trkpt lat="43.54113" lon="5.53621">
        <ele>331.2</ele>
        <time>2025-11-05T11:24:51.023Z</time>
      </trkpt>
      <trkpt lat="43.54111" lon="5.53623">
        <ele>329.8</ele>
        <time>2025-11-05T11:24:53.022Z</time>
      </trkpt>
      <trkpt lat="43.54109" lon="5.53625">
        <ele>328.5</ele>
        <time>2025-11-05T11:24:56.023Z</time>
      </trkpt>
      <trkpt lat="43.54107" lon="5.53626">
        <ele>327</ele>
        <time>2025-11-05T11:24:59.023Z</time>
      </trkpt>
      <trkpt lat="43.54104" lon="5.53628">
        <ele>325.7</ele>
        <time>2025-11-05T11:25:03.023Z</time>
      </trkpt>
      <trkpt lat="43.54103" lon="5.5363">
        <ele>325</ele>
        <time>2025-11-05T11:25:11.023Z</time>
      </trkpt>
      <trkpt lat="43.54101" lon="5.53631">
        <ele>323.9</ele>
        <time>2025-11-05T11:25:15.022Z</time>
      </trkpt>
      <trkpt lat="43.54098" lon="5.53633">
        <ele>323.1</ele>
        <time>2025-11-05T11:25:18.023Z</time>
      </trkpt>
      <trkpt lat="43.54096" lon="5.53635">
        <ele>322.6</ele>
        <time>2025-11-05T11:25:22.023Z</time>
      </trkpt>
      <trkpt lat="43.54094" lon="5.53637">
        <ele>322.3</ele>
        <time>2025-11-05T11:25:25.023Z</time>
      </trkpt>
      <trkpt lat="43.54091" lon="5.53637">
        <ele>321.3</ele>
        <time>2025-11-05T11:25:28.023Z</time>
      </trkpt>
      <trkpt lat="43.54089" lon="5.5364">
        <ele>321.1</ele>
        <time>2025-11-05T11:25:32.023Z</time>
      </trkpt>
      <trkpt lat="43.54086" lon="5.53642">
        <ele>320.8</ele>
        <time>2025-11-05T11:25:35.023Z</time>
      </trkpt>
      <trkpt lat="43.54084" lon="5.53642">
        <ele>320.3</ele>
        <time>2025-11-05T11:25:38.023Z</time>
      </trkpt>
      <trkpt lat="43.54082" lon="5.53645">
        <ele>319.7</ele>
        <time>2025-11-05T11:25:42.023Z</time>
      </trkpt>
      <trkpt lat="43.54079" lon="5.53646">
        <ele>317.9</ele>
        <time>2025-11-05T11:25:47.023Z</time>
      </trkpt>
      <trkpt lat="43.54077" lon="5.53647">
        <ele>316.1</ele>
        <time>2025-11-05T11:25:51.023Z</time>
      </trkpt>
      <trkpt lat="43.54074" lon="5.53647">
        <ele>314.3</ele>
        <time>2025-11-05T11:25:54.022Z</time>
      </trkpt>
      <trkpt lat="43.54071" lon="5.53649">
        <ele>313.1</ele>
        <time>2025-11-05T11:25:57.023Z</time>
      </trkpt>
      <trkpt lat="43.54069" lon="5.5365">
        <ele>312.5</ele>
        <time>2025-11-05T11:25:59.023Z</time>
      </trkpt>
      <trkpt lat="43.54066" lon="5.53651">
        <ele>310.9</ele>
        <time>2025-11-05T11:26:02.023Z</time>
      </trkpt>
      <trkpt lat="43.54063" lon="5.53652">
        <ele>310.3</ele>
        <time>2025-11-05T11:26:05.023Z</time>
      </trkpt>
      <trkpt lat="43.5406" lon="5.53652">
        <ele>309.5</ele>
        <time>2025-11-05T11:26:08.023Z</time>
      </trkpt>
      <trkpt lat="43.54058" lon="5.53652">
        <ele>308.1</ele>
        <time>2025-11-05T11:26:11.022Z</time>
      </trkpt>
      <trkpt lat="43.54055" lon="5.53653">
        <ele>308</ele>
        <time>2025-11-05T11:26:15.023Z</time>
      </trkpt>
      <trkpt lat="43.54052" lon="5.53653">
        <ele>308.5</ele>
        <time>2025-11-05T11:26:17.022Z</time>
      </trkpt>
      <trkpt lat="43.54049" lon="5.53654">
        <ele>308.8</ele>
        <time>2025-11-05T11:26:20.023Z</time>
      </trkpt>
      <trkpt lat="43.54047" lon="5.53655">
        <ele>310.5</ele>
        <time>2025-11-05T11:26:22.022Z</time>
      </trkpt>
      <trkpt lat="43.54045" lon="5.53655">
        <ele>311.3</ele>
        <time>2025-11-05T11:26:25.023Z</time>
      </trkpt>
      <trkpt lat="43.54042" lon="5.53655">
        <ele>311.6</ele>
        <time>2025-11-05T11:26:28.022Z</time>
      </trkpt>
      <trkpt lat="43.54039" lon="5.53655">
        <ele>311.1</ele>
        <time>2025-11-05T11:26:31.023Z</time>
      </trkpt>
      <trkpt lat="43.54036" lon="5.53655">
        <ele>310.7</ele>
        <time>2025-11-05T11:26:34.023Z</time>
      </trkpt>
      <trkpt lat="43.54034" lon="5.53654">
        <ele>310.6</ele>
        <time>2025-11-05T11:26:37.023Z</time>
      </trkpt>
      <trkpt lat="43.54031" lon="5.53655">
        <ele>311.2</ele>
        <time>2025-11-05T11:26:41.023Z</time>
      </trkpt>
      <trkpt lat="43.54028" lon="5.53655">
        <ele>311.5</ele>
        <time>2025-11-05T11:26:44.023Z</time>
      </trkpt>
      <trkpt lat="43.54026" lon="5.53655">
        <ele>312.8</ele>
        <time>2025-11-05T11:26:46.023Z</time>
      </trkpt>
      <trkpt lat="43.54023" lon="5.53656">
        <ele>315</ele>
        <time>2025-11-05T11:26:49.023Z</time>
      </trkpt>
      <trkpt lat="43.54021" lon="5.53655">
        <ele>314.7</ele>
        <time>2025-11-05T11:26:52.023Z</time>
      </trkpt>
      <trkpt lat="43.54017" lon="5.53655">
        <ele>316.5</ele>
        <time>2025-11-05T11:26:55.023Z</time>
      </trkpt>
      <trkpt lat="43.54015" lon="5.53654">
        <ele>317</ele>
        <time>2025-11-05T11:26:58.022Z</time>
      </trkpt>
      <trkpt lat="43.54012" lon="5.53654">
        <ele>317.6</ele>
        <time>2025-11-05T11:27:00.022Z</time>
      </trkpt>
      <trkpt lat="43.54009" lon="5.53652">
        <ele>318.3</ele>
        <time>2025-11-05T11:27:03.022Z</time>
      </trkpt>
      <trkpt lat="43.54007" lon="5.53651">
        <ele>319.3</ele>
        <time>2025-11-05T11:27:06.023Z</time>
      </trkpt>
      <trkpt lat="43.54004" lon="5.53651">
        <ele>321.2</ele>
        <time>2025-11-05T11:27:09.022Z</time>
      </trkpt>
      <trkpt lat="43.54001" lon="5.5365">
        <ele>322.2</ele>
        <time>2025-11-05T11:27:12.022Z</time>
      </trkpt>
      <trkpt lat="43.53999" lon="5.53649">
        <ele>323.6</ele>
        <time>2025-11-05T11:27:15.023Z</time>
      </trkpt>
      <trkpt lat="43.53996" lon="5.53648">
        <ele>324.8</ele>
        <time>2025-11-05T11:27:17.023Z</time>
      </trkpt>
      <trkpt lat="43.53994" lon="5.53647">
        <ele>325.8</ele>
        <time>2025-11-05T11:27:20.023Z</time>
      </trkpt>
      <trkpt lat="43.53992" lon="5.53645">
        <ele>326.8</ele>
        <time>2025-11-05T11:27:22.023Z</time>
      </trkpt>
      <trkpt lat="43.53989" lon="5.53643">
        <ele>328.2</ele>
        <time>2025-11-05T11:27:25.022Z</time>
      </trkpt>
      <trkpt lat="43.53987" lon="5.53642">
        <ele>329.4</ele>
        <time>2025-11-05T11:27:27.023Z</time>
      </trkpt>
      <trkpt lat="43.53984" lon="5.53641">
        <ele>331</ele>
        <time>2025-11-05T11:27:30.022Z</time>
      </trkpt>
      <trkpt lat="43.53982" lon="5.53639">
        <ele>332.6</ele>
        <time>2025-11-05T11:27:33.023Z</time>
      </trkpt>
      <trkpt lat="43.53979" lon="5.53637">
        <ele>334.5</ele>
        <time>2025-11-05T11:27:36.023Z</time>
      </trkpt>
      <trkpt lat="43.53976" lon="5.53635">
        <ele>336.6</ele>
        <time>2025-11-05T11:27:39.023Z</time>
      </trkpt>
      <trkpt lat="43.53974" lon="5.53633">
        <ele>338.3</ele>
        <time>2025-11-05T11:27:41.022Z</time>
      </trkpt>
      <trkpt lat="43.53971" lon="5.53632">
        <ele>339.9</ele>
        <time>2025-11-05T11:27:43.023Z</time>
      </trkpt>
      <trkpt lat="43.53969" lon="5.5363">
        <ele>341.2</ele>
        <time>2025-11-05T11:27:46.022Z</time>
      </trkpt>
      <trkpt lat="43.53966" lon="5.53628">
        <ele>342.5</ele>
        <time>2025-11-05T11:27:50.022Z</time>
      </trkpt>
      <trkpt lat="43.53965" lon="5.53625">
        <ele>343.1</ele>
        <time>2025-11-05T11:27:54.023Z</time>
      </trkpt>
      <trkpt lat="43.53963" lon="5.53622">
        <ele>344.3</ele>
        <time>2025-11-05T11:27:56.023Z</time>
      </trkpt>
      <trkpt lat="43.5396" lon="5.53621">
        <ele>345.6</ele>
        <time>2025-11-05T11:27:58.023Z</time>
      </trkpt>
      <trkpt lat="43.53958" lon="5.5362">
        <ele>346.7</ele>
        <time>2025-11-05T11:28:00.023Z</time>
      </trkpt>
      <trkpt lat="43.53955" lon="5.53618">
        <ele>348</ele>
        <time>2025-11-05T11:28:02.022Z</time>
      </trkpt>
      <trkpt lat="43.53952" lon="5.53616">
        <ele>349.1</ele>
        <time>2025-11-05T11:28:05.023Z</time>
      </trkpt>
      <trkpt lat="43.5395" lon="5.53614">
        <ele>349.9</ele>
        <time>2025-11-05T11:28:08.023Z</time>
      </trkpt>
      <trkpt lat="43.53947" lon="5.53611">
        <ele>350.9</ele>
        <time>2025-11-05T11:28:11.022Z</time>
      </trkpt>
      <trkpt lat="43.53945" lon="5.53609">
        <ele>351.5</ele>
        <time>2025-11-05T11:28:14.023Z</time>
      </trkpt>
      <trkpt lat="43.53942" lon="5.53608">
        <ele>352</ele>
        <time>2025-11-05T11:28:17.023Z</time>
      </trkpt>
      <trkpt lat="43.5394" lon="5.53606">
        <ele>352.3</ele>
        <time>2025-11-05T11:28:19.023Z</time>
      </trkpt>
      <trkpt lat="43.53938" lon="5.53603">
        <ele>352.5</ele>
        <time>2025-11-05T11:28:22.023Z</time>
      </trkpt>
      <trkpt lat="43.53936" lon="5.53603">
        <ele>353</ele>
        <time>2025-11-05T11:28:25.022Z</time>
      </trkpt>
      <trkpt lat="43.53935" lon="5.536">
        <ele>353</ele>
        <time>2025-11-05T11:28:27.023Z</time>
      </trkpt>
      <trkpt lat="43.53933" lon="5.53597">
        <ele>353.2</ele>
        <time>2025-11-05T11:28:30.023Z</time>
      </trkpt>
      <trkpt lat="43.53931" lon="5.53593">
        <ele>353.4</ele>
        <time>2025-11-05T11:28:33.023Z</time>
      </trkpt>
      <trkpt lat="43.53929" lon="5.5359">
        <ele>353.4</ele>
        <time>2025-11-05T11:28:36.023Z</time>
      </trkpt>
      <trkpt lat="43.53928" lon="5.53587">
        <ele>353.5</ele>
        <time>2025-11-05T11:28:39.023Z</time>
      </trkpt>
      <trkpt lat="43.53927" lon="5.53584">
        <ele>353.5</ele>
        <time>2025-11-05T11:28:42.023Z</time>
      </trkpt>
      <trkpt lat="43.53925" lon="5.53581">
        <ele>353.6</ele>
        <time>2025-11-05T11:28:45.022Z</time>
      </trkpt>
      <trkpt lat="43.53923" lon="5.53578">
        <ele>353.9</ele>
        <time>2025-11-05T11:28:48.023Z</time>
      </trkpt>
      <trkpt lat="43.53922" lon="5.53575">
        <ele>354.2</ele>
        <time>2025-11-05T11:28:52.022Z</time>
      </trkpt>
      <trkpt lat="43.5392" lon="5.53572">
        <ele>354.9</ele>
        <time>2025-11-05T11:28:55.023Z</time>
      </trkpt>
      <trkpt lat="43.53918" lon="5.5357">
        <ele>355.5</ele>
        <time>2025-11-05T11:28:58.022Z</time>
      </trkpt>
      <trkpt lat="43.53916" lon="5.53568">
        <ele>356</ele>
        <time>2025-11-05T11:29:00.023Z</time>
      </trkpt>
      <trkpt lat="43.53914" lon="5.53565">
        <ele>356</ele>
        <time>2025-11-05T11:29:03.023Z</time>
      </trkpt>
      <trkpt lat="43.53912" lon="5.53563">
        <ele>356</ele>
        <time>2025-11-05T11:29:06.023Z</time>
      </trkpt>
      <trkpt lat="43.53909" lon="5.53562">
        <ele>356.1</ele>
        <time>2025-11-05T11:29:10.022Z</time>
      </trkpt>
      <trkpt lat="43.53906" lon="5.53563">
        <ele>356.3</ele>
        <time>2025-11-05T11:29:12.022Z</time>
      </trkpt>
      <trkpt lat="43.53904" lon="5.53562">
        <ele>356.6</ele>
        <time>2025-11-05T11:29:15.023Z</time>
      </trkpt>
      <trkpt lat="43.53901" lon="5.53563">
        <ele>356.8</ele>
        <time>2025-11-05T11:29:18.023Z</time>
      </trkpt>
      <trkpt lat="43.53898" lon="5.53564">
        <ele>357.1</ele>
        <time>2025-11-05T11:29:22.023Z</time>
      </trkpt>
      <trkpt lat="43.53896" lon="5.53564">
        <ele>357.3</ele>
        <time>2025-11-05T11:29:25.022Z</time>
      </trkpt>
      <trkpt lat="43.53893" lon="5.53565">
        <ele>357.7</ele>
        <time>2025-11-05T11:29:29.023Z</time>
      </trkpt>
      <trkpt lat="43.53891" lon="5.53567">
        <ele>358.1</ele>
        <time>2025-11-05T11:29:32.022Z</time>
      </trkpt>
      <trkpt lat="43.53888" lon="5.53569">
        <ele>358.5</ele>
        <time>2025-11-05T11:29:35.022Z</time>
      </trkpt>
      <trkpt lat="43.53885" lon="5.53569">
        <ele>358.7</ele>
        <time>2025-11-05T11:29:39.023Z</time>
      </trkpt>
      <trkpt lat="43.53883" lon="5.53571">
        <ele>359</ele>
        <time>2025-11-05T11:29:41.022Z</time>
      </trkpt>
      <trkpt lat="43.5388" lon="5.53572">
        <ele>359.3</ele>
        <time>2025-11-05T11:29:44.023Z</time>
      </trkpt>
      <trkpt lat="43.53878" lon="5.53573">
        <ele>359.5</ele>
        <time>2025-11-05T11:29:47.023Z</time>
      </trkpt>
      <trkpt lat="43.53874" lon="5.53574">
        <ele>359.9</ele>
        <time>2025-11-05T11:29:50.023Z</time>
      </trkpt>
      <trkpt lat="43.53872" lon="5.53575">
        <ele>360.1</ele>
        <time>2025-11-05T11:29:52.023Z</time>
      </trkpt>
      <trkpt lat="43.5387" lon="5.53577">
        <ele>360.3</ele>
        <time>2025-11-05T11:29:56.023Z</time>
      </trkpt>
      <trkpt lat="43.53868" lon="5.5358">
        <ele>360.6</ele>
        <time>2025-11-05T11:29:59.023Z</time>
      </trkpt>
      <trkpt lat="43.53866" lon="5.53581">
        <ele>360.7</ele>
        <time>2025-11-05T11:30:02.022Z</time>
      </trkpt>
      <trkpt lat="43.53864" lon="5.53583">
        <ele>360.9</ele>
        <time>2025-11-05T11:30:05.022Z</time>
      </trkpt>
      <trkpt lat="43.53862" lon="5.53585">
        <ele>361.1</ele>
        <time>2025-11-05T11:30:09.022Z</time>
      </trkpt>
      <trkpt lat="43.53859" lon="5.53586">
        <ele>361.4</ele>
        <time>2025-11-05T11:30:12.023Z</time>
      </trkpt>
      <trkpt lat="43.53857" lon="5.53588">
        <ele>361.8</ele>
        <time>2025-11-05T11:30:18.022Z</time>
      </trkpt>
      <trkpt lat="43.53854" lon="5.53589">
        <ele>362.2</ele>
        <time>2025-11-05T11:30:22.022Z</time>
      </trkpt>
      <trkpt lat="43.53851" lon="5.53589">
        <ele>362.4</ele>
        <time>2025-11-05T11:30:25.023Z</time>
      </trkpt>
      <trkpt lat="43.53848" lon="5.53587">
        <ele>362.7</ele>
        <time>2025-11-05T11:30:28.023Z</time>
      </trkpt>
      <trkpt lat="43.53845" lon="5.53589">
        <ele>363</ele>
        <time>2025-11-05T11:30:30.022Z</time>
      </trkpt>
      <trkpt lat="43.53843" lon="5.53589">
        <ele>363.3</ele>
        <time>2025-11-05T11:30:34.022Z</time>
      </trkpt>
      <trkpt lat="43.5384" lon="5.5359">
        <ele>363.6</ele>
        <time>2025-11-05T11:30:37.023Z</time>
      </trkpt>
      <trkpt lat="43.53838" lon="5.53589">
        <ele>363.8</ele>
        <time>2025-11-05T11:30:41.023Z</time>
      </trkpt>
      <trkpt lat="43.53835" lon="5.53587">
        <ele>363.9</ele>
        <time>2025-11-05T11:30:46.023Z</time>
      </trkpt>
      <trkpt lat="43.53833" lon="5.53588">
        <ele>364.2</ele>
        <time>2025-11-05T11:30:53.022Z</time>
      </trkpt>
      <trkpt lat="43.53831" lon="5.5359">
        <ele>364.4</ele>
        <time>2025-11-05T11:31:15.022Z</time>
      </trkpt>
      <trkpt lat="43.5383" lon="5.53593">
        <ele>364.7</ele>
        <time>2025-11-05T11:32:44.022Z</time>
      </trkpt>
      <trkpt lat="43.5383" lon="5.53597">
        <ele>364.8</ele>
        <time>2025-11-05T11:33:20.023Z</time>
      </trkpt>
      <trkpt lat="43.53831" lon="5.536">
        <ele>364.8</ele>
        <time>2025-11-05T11:33:25.023Z</time>
      </trkpt>
      <trkpt lat="43.53833" lon="5.53601">
        <ele>364.7</ele>
        <time>2025-11-05T11:33:29.023Z</time>
      </trkpt>
      <trkpt lat="43.53832" lon="5.53599">
        <ele>364.7</ele>
        <time>2025-11-05T11:33:38.022Z</time>
      </trkpt>
      <trkpt lat="43.53829" lon="5.536">
        <ele>364.9</ele>
        <time>2025-11-05T11:33:41.022Z</time>
      </trkpt>
      <trkpt lat="43.53827" lon="5.53602">
        <ele>365.2</ele>
        <time>2025-11-05T11:33:44.022Z</time>
      </trkpt>
      <trkpt lat="43.53825" lon="5.53603">
        <ele>365.4</ele>
        <time>2025-11-05T11:33:47.022Z</time>
      </trkpt>
      <trkpt lat="43.53824" lon="5.53607">
        <ele>365.6</ele>
        <time>2025-11-05T11:33:51.023Z</time>
      </trkpt>
      <trkpt lat="43.53824" lon="5.5361">
        <ele>365.7</ele>
        <time>2025-11-05T11:33:54.022Z</time>
      </trkpt>
      <trkpt lat="43.53823" lon="5.53614">
        <ele>365.9</ele>
        <time>2025-11-05T11:33:57.023Z</time>
      </trkpt>
      <trkpt lat="43.5382" lon="5.53617">
        <ele>366.2</ele>
        <time>2025-11-05T11:34:01.023Z</time>
      </trkpt>
      <trkpt lat="43.53819" lon="5.53621">
        <ele>366.4</ele>
        <time>2025-11-05T11:34:04.022Z</time>
      </trkpt>
      <trkpt lat="43.53817" lon="5.53624">
        <ele>366.6</ele>
        <time>2025-11-05T11:34:07.022Z</time>
      </trkpt>
      <trkpt lat="43.53816" lon="5.53628">
        <ele>366.8</ele>
        <time>2025-11-05T11:34:11.022Z</time>
      </trkpt>
      <trkpt lat="43.53815" lon="5.5363">
        <ele>367</ele>
        <time>2025-11-05T11:34:14.022Z</time>
      </trkpt>
      <trkpt lat="43.53813" lon="5.53632">
        <ele>367.2</ele>
        <time>2025-11-05T11:34:19.022Z</time>
      </trkpt>
      <trkpt lat="43.53811" lon="5.53634">
        <ele>367.5</ele>
        <time>2025-11-05T11:34:23.023Z</time>
      </trkpt>
      <trkpt lat="43.5381" lon="5.53637">
        <ele>367.6</ele>
        <time>2025-11-05T11:34:25.023Z</time>
      </trkpt>
      <trkpt lat="43.5381" lon="5.5364">
        <ele>367.7</ele>
        <time>2025-11-05T11:34:27.023Z</time>
      </trkpt>
      <trkpt lat="43.53812" lon="5.53644">
        <ele>367.7</ele>
        <time>2025-11-05T11:34:33.022Z</time>
      </trkpt>
      <trkpt lat="43.53814" lon="5.53646">
        <ele>367.7</ele>
        <time>2025-11-05T11:34:36.023Z</time>
      </trkpt>
      <trkpt lat="43.53815" lon="5.53649">
        <ele>367.8</ele>
        <time>2025-11-05T11:34:38.023Z</time>
      </trkpt>
      <trkpt lat="43.53818" lon="5.53651">
        <ele>367.8</ele>
        <time>2025-11-05T11:34:41.023Z</time>
      </trkpt>
      <trkpt lat="43.53821" lon="5.53653">
        <ele>367.7</ele>
        <time>2025-11-05T11:34:44.023Z</time>
      </trkpt>
      <trkpt lat="43.53823" lon="5.53655">
        <ele>367.7</ele>
        <time>2025-11-05T11:34:47.022Z</time>
      </trkpt>
      <trkpt lat="43.53825" lon="5.53656">
        <ele>367.6</ele>
        <time>2025-11-05T11:34:49.023Z</time>
      </trkpt>
      <trkpt lat="43.53827" lon="5.53659">
        <ele>367.7</ele>
        <time>2025-11-05T11:34:52.023Z</time>
      </trkpt>
      <trkpt lat="43.53829" lon="5.53661">
        <ele>367.8</ele>
        <time>2025-11-05T11:34:54.023Z</time>
      </trkpt>
      <trkpt lat="43.53831" lon="5.53663">
        <ele>367.8</ele>
        <time>2025-11-05T11:34:57.022Z</time>
      </trkpt>
      <trkpt lat="43.53833" lon="5.53665">
        <ele>367.9</ele>
        <time>2025-11-05T11:35:00.022Z</time>
      </trkpt>
      <trkpt lat="43.53834" lon="5.53668">
        <ele>368</ele>
        <time>2025-11-05T11:35:03.022Z</time>
      </trkpt>
      <trkpt lat="43.53837" lon="5.53671">
        <ele>368</ele>
        <time>2025-11-05T11:35:06.022Z</time>
      </trkpt>
      <trkpt lat="43.5384" lon="5.53673">
        <ele>368</ele>
        <time>2025-11-05T11:35:09.023Z</time>
      </trkpt>
      <trkpt lat="43.53842" lon="5.53676">
        <ele>368.1</ele>
        <time>2025-11-05T11:35:11.023Z</time>
      </trkpt>
      <trkpt lat="43.53843" lon="5.53679">
        <ele>368.2</ele>
        <time>2025-11-05T11:35:14.023Z</time>
      </trkpt>
      <trkpt lat="43.53844" lon="5.53683">
        <ele>368.5</ele>
        <time>2025-11-05T11:35:17.023Z</time>
      </trkpt>
      <trkpt lat="43.53844" lon="5.53687">
        <ele>368.7</ele>
        <time>2025-11-05T11:35:20.022Z</time>
      </trkpt>
      <trkpt lat="43.53843" lon="5.5369">
        <ele>369</ele>
        <time>2025-11-05T11:35:24.022Z</time>
      </trkpt>
      <trkpt lat="43.53841" lon="5.53693">
        <ele>369.3</ele>
        <time>2025-11-05T11:35:28.022Z</time>
      </trkpt>
      <trkpt lat="43.53839" lon="5.53695">
        <ele>369.6</ele>
        <time>2025-11-05T11:35:31.023Z</time>
      </trkpt>
      <trkpt lat="43.53838" lon="5.53697">
        <ele>369.8</ele>
        <time>2025-11-05T11:35:34.023Z</time>
      </trkpt>
      <trkpt lat="43.53836" lon="5.537">
        <ele>370</ele>
        <time>2025-11-05T11:35:38.023Z</time>
      </trkpt>
      <trkpt lat="43.53836" lon="5.53703">
        <ele>370.2</ele>
        <time>2025-11-05T11:35:40.022Z</time>
      </trkpt>
      <trkpt lat="43.53835" lon="5.53706">
        <ele>370.3</ele>
        <time>2025-11-05T11:35:42.022Z</time>
      </trkpt>
      <trkpt lat="43.53835" lon="5.5371">
        <ele>370.4</ele>
        <time>2025-11-05T11:35:45.023Z</time>
      </trkpt>
      <trkpt lat="43.53836" lon="5.53714">
        <ele>370.5</ele>
        <time>2025-11-05T11:35:49.023Z</time>
      </trkpt>
      <trkpt lat="43.53837" lon="5.53717">
        <ele>370.6</ele>
        <time>2025-11-05T11:35:52.023Z</time>
      </trkpt>
      <trkpt lat="43.53836" lon="5.53722">
        <ele>370.8</ele>
        <time>2025-11-05T11:35:55.023Z</time>
      </trkpt>
      <trkpt lat="43.53835" lon="5.53724">
        <ele>371</ele>
        <time>2025-11-05T11:35:57.023Z</time>
      </trkpt>
      <trkpt lat="43.53834" lon="5.53727">
        <ele>371.1</ele>
        <time>2025-11-05T11:36:00.022Z</time>
      </trkpt>
      <trkpt lat="43.53833" lon="5.53731">
        <ele>371.3</ele>
        <time>2025-11-05T11:36:03.022Z</time>
      </trkpt>
      <trkpt lat="43.53831" lon="5.53733">
        <ele>371.4</ele>
        <time>2025-11-05T11:36:06.022Z</time>
      </trkpt>
      <trkpt lat="43.53829" lon="5.53735">
        <ele>371.5</ele>
        <time>2025-11-05T11:36:09.023Z</time>
      </trkpt>
      <trkpt lat="43.53827" lon="5.53736">
        <ele>371.6</ele>
        <time>2025-11-05T11:36:11.023Z</time>
      </trkpt>
      <trkpt lat="43.53824" lon="5.53736">
        <ele>371.7</ele>
        <time>2025-11-05T11:36:13.023Z</time>
      </trkpt>
      <trkpt lat="43.53822" lon="5.53737">
        <ele>371.7</ele>
        <time>2025-11-05T11:36:16.023Z</time>
      </trkpt>
      <trkpt lat="43.53819" lon="5.53739">
        <ele>371.8</ele>
        <time>2025-11-05T11:36:19.022Z</time>
      </trkpt>
      <trkpt lat="43.53817" lon="5.53741">
        <ele>371.9</ele>
        <time>2025-11-05T11:36:21.023Z</time>
      </trkpt>
      <trkpt lat="43.53814" lon="5.53743">
        <ele>371.9</ele>
        <time>2025-11-05T11:36:25.022Z</time>
      </trkpt>
      <trkpt lat="43.53812" lon="5.53746">
        <ele>372</ele>
        <time>2025-11-05T11:36:28.022Z</time>
      </trkpt>
      <trkpt lat="43.53812" lon="5.53751">
        <ele>372</ele>
        <time>2025-11-05T11:36:33.023Z</time>
      </trkpt>
      <trkpt lat="43.53812" lon="5.53756">
        <ele>372.2</ele>
        <time>2025-11-05T11:36:36.023Z</time>
      </trkpt>
      <trkpt lat="43.53812" lon="5.53761">
        <ele>372.3</ele>
        <time>2025-11-05T11:36:38.023Z</time>
      </trkpt>
      <trkpt lat="43.53813" lon="5.53765">
        <ele>372.4</ele>
        <time>2025-11-05T11:36:40.023Z</time>
      </trkpt>
      <trkpt lat="43.53813" lon="5.53768">
        <ele>372.5</ele>
        <time>2025-11-05T11:36:43.023Z</time>
      </trkpt>
      <trkpt lat="43.53812" lon="5.53772">
        <ele>372.6</ele>
        <time>2025-11-05T11:36:46.023Z</time>
      </trkpt>
      <trkpt lat="43.53812" lon="5.53775">
        <ele>372.7</ele>
        <time>2025-11-05T11:36:48.023Z</time>
      </trkpt>
      <trkpt lat="43.53813" lon="5.5378">
        <ele>372.7</ele>
        <time>2025-11-05T11:36:51.022Z</time>
      </trkpt>
      <trkpt lat="43.53813" lon="5.53784">
        <ele>372.7</ele>
        <time>2025-11-05T11:36:54.023Z</time>
      </trkpt>
      <trkpt lat="43.53811" lon="5.53787">
        <ele>372.7</ele>
        <time>2025-11-05T11:36:57.022Z</time>
      </trkpt>
      <trkpt lat="43.5381" lon="5.53791">
        <ele>372.8</ele>
        <time>2025-11-05T11:37:00.022Z</time>
      </trkpt>
      <trkpt lat="43.53808" lon="5.53793">
        <ele>372.9</ele>
        <time>2025-11-05T11:37:02.023Z</time>
      </trkpt>
      <trkpt lat="43.53806" lon="5.53797">
        <ele>373</ele>
        <time>2025-11-05T11:37:05.022Z</time>
      </trkpt>
      <trkpt lat="43.53804" lon="5.538">
        <ele>373</ele>
        <time>2025-11-05T11:37:08.023Z</time>
      </trkpt>
      <trkpt lat="43.53802" lon="5.53802">
        <ele>373.1</ele>
        <time>2025-11-05T11:37:10.022Z</time>
      </trkpt>
      <trkpt lat="43.53801" lon="5.53806">
        <ele>373.1</ele>
        <time>2025-11-05T11:37:13.022Z</time>
      </trkpt>
      <trkpt lat="43.538" lon="5.53809">
        <ele>373.1</ele>
        <time>2025-11-05T11:37:15.022Z</time>
      </trkpt>
      <trkpt lat="43.53799" lon="5.53814">
        <ele>372.9</ele>
        <time>2025-11-05T11:37:17.022Z</time>
      </trkpt>
      <trkpt lat="43.53799" lon="5.53818">
        <ele>372.8</ele>
        <time>2025-11-05T11:37:20.022Z</time>
      </trkpt>
      <trkpt lat="43.53797" lon="5.53821">
        <ele>372.7</ele>
        <time>2025-11-05T11:37:22.023Z</time>
      </trkpt>
      <trkpt lat="43.53797" lon="5.53826">
        <ele>372.6</ele>
        <time>2025-11-05T11:37:25.022Z</time>
      </trkpt>
      <trkpt lat="43.53796" lon="5.5383">
        <ele>372.5</ele>
        <time>2025-11-05T11:37:28.022Z</time>
      </trkpt>
      <trkpt lat="43.53794" lon="5.53833">
        <ele>372.4</ele>
        <time>2025-11-05T11:37:31.022Z</time>
      </trkpt>
      <trkpt lat="43.53794" lon="5.53837">
        <ele>372.2</ele>
        <time>2025-11-05T11:37:33.022Z</time>
      </trkpt>
      <trkpt lat="43.53794" lon="5.5384">
        <ele>372</ele>
        <time>2025-11-05T11:37:37.023Z</time>
      </trkpt>
      <trkpt lat="43.53792" lon="5.53844">
        <ele>371.9</ele>
        <time>2025-11-05T11:37:40.023Z</time>
      </trkpt>
      <trkpt lat="43.53789" lon="5.53846">
        <ele>371.9</ele>
        <time>2025-11-05T11:37:43.023Z</time>
      </trkpt>
      <trkpt lat="43.53788" lon="5.53849">
        <ele>371.9</ele>
        <time>2025-11-05T11:37:45.022Z</time>
      </trkpt>
      <trkpt lat="43.53786" lon="5.53852">
        <ele>371.8</ele>
        <time>2025-11-05T11:37:47.023Z</time>
      </trkpt>
      <trkpt lat="43.53785" lon="5.53856">
        <ele>371.7</ele>
        <time>2025-11-05T11:37:50.022Z</time>
      </trkpt>
      <trkpt lat="43.53783" lon="5.53858">
        <ele>371.8</ele>
        <time>2025-11-05T11:37:53.022Z</time>
      </trkpt>
      <trkpt lat="43.53782" lon="5.53863">
        <ele>371.7</ele>
        <time>2025-11-05T11:37:56.022Z</time>
      </trkpt>
      <trkpt lat="43.53781" lon="5.53867">
        <ele>371.9</ele>
        <time>2025-11-05T11:37:59.023Z</time>
      </trkpt>
      <trkpt lat="43.5378" lon="5.53871">
        <ele>372.2</ele>
        <time>2025-11-05T11:38:02.022Z</time>
      </trkpt>
      <trkpt lat="43.5378" lon="5.53875">
        <ele>372.3</ele>
        <time>2025-11-05T11:38:04.022Z</time>
      </trkpt>
      <trkpt lat="43.53779" lon="5.53879">
        <ele>372.5</ele>
        <time>2025-11-05T11:38:06.022Z</time>
      </trkpt>
      <trkpt lat="43.53779" lon="5.53883">
        <ele>372.7</ele>
        <time>2025-11-05T11:38:08.023Z</time>
      </trkpt>
      <trkpt lat="43.53777" lon="5.53886">
        <ele>372.9</ele>
        <time>2025-11-05T11:38:11.023Z</time>
      </trkpt>
      <trkpt lat="43.53775" lon="5.53889">
        <ele>373.1</ele>
        <time>2025-11-05T11:38:14.023Z</time>
      </trkpt>
      <trkpt lat="43.53773" lon="5.53891">
        <ele>373.2</ele>
        <time>2025-11-05T11:38:17.023Z</time>
      </trkpt>
      <trkpt lat="43.5377" lon="5.53894">
        <ele>373.3</ele>
        <time>2025-11-05T11:38:20.023Z</time>
      </trkpt>
      <trkpt lat="43.53768" lon="5.53895">
        <ele>373.4</ele>
        <time>2025-11-05T11:38:22.023Z</time>
      </trkpt>
      <trkpt lat="43.53766" lon="5.53899">
        <ele>373.6</ele>
        <time>2025-11-05T11:38:25.022Z</time>
      </trkpt>
      <trkpt lat="43.53764" lon="5.53899">
        <ele>373.7</ele>
        <time>2025-11-05T11:38:27.023Z</time>
      </trkpt>
      <trkpt lat="43.5376" lon="5.539">
        <ele>373.9</ele>
        <time>2025-11-05T11:38:30.023Z</time>
      </trkpt>
      <trkpt lat="43.53757" lon="5.53899">
        <ele>374</ele>
        <time>2025-11-05T11:38:32.022Z</time>
      </trkpt>
      <trkpt lat="43.53755" lon="5.53899">
        <ele>374.1</ele>
        <time>2025-11-05T11:38:35.022Z</time>
      </trkpt>
      <trkpt lat="43.53752" lon="5.53898">
        <ele>374.2</ele>
        <time>2025-11-05T11:38:39.023Z</time>
      </trkpt>
      <trkpt lat="43.53749" lon="5.53898">
        <ele>374.4</ele>
        <time>2025-11-05T11:38:41.022Z</time>
      </trkpt>
      <trkpt lat="43.53747" lon="5.53898">
        <ele>374.4</ele>
        <time>2025-11-05T11:38:43.023Z</time>
      </trkpt>
      <trkpt lat="43.53744" lon="5.53898">
        <ele>374.5</ele>
        <time>2025-11-05T11:38:46.023Z</time>
      </trkpt>
      <trkpt lat="43.53741" lon="5.53898">
        <ele>374.6</ele>
        <time>2025-11-05T11:38:48.023Z</time>
      </trkpt>
      <trkpt lat="43.53739" lon="5.53899">
        <ele>374.8</ele>
        <time>2025-11-05T11:38:52.023Z</time>
      </trkpt>
      <trkpt lat="43.53737" lon="5.53899">
        <ele>374.8</ele>
        <time>2025-11-05T11:38:54.022Z</time>
      </trkpt>
      <trkpt lat="43.53734" lon="5.53899">
        <ele>374.9</ele>
        <time>2025-11-05T11:38:57.023Z</time>
      </trkpt>
      <trkpt lat="43.53732" lon="5.539">
        <ele>375.1</ele>
        <time>2025-11-05T11:39:00.022Z</time>
      </trkpt>
      <trkpt lat="43.53729" lon="5.53901">
        <ele>375.2</ele>
        <time>2025-11-05T11:39:03.023Z</time>
      </trkpt>
      <trkpt lat="43.53727" lon="5.53901">
        <ele>375.3</ele>
        <time>2025-11-05T11:39:06.023Z</time>
      </trkpt>
      <trkpt lat="43.53725" lon="5.539">
        <ele>375.3</ele>
        <time>2025-11-05T11:39:09.023Z</time>
      </trkpt>
      <trkpt lat="43.53722" lon="5.539">
        <ele>375.4</ele>
        <time>2025-11-05T11:39:12.022Z</time>
      </trkpt>
      <trkpt lat="43.53718" lon="5.53899">
        <ele>375.4</ele>
        <time>2025-11-05T11:39:14.022Z</time>
      </trkpt>
      <trkpt lat="43.53716" lon="5.53897">
        <ele>375.4</ele>
        <time>2025-11-05T11:39:17.022Z</time>
      </trkpt>
      <trkpt lat="43.53713" lon="5.53896">
        <ele>375.3</ele>
        <time>2025-11-05T11:39:20.023Z</time>
      </trkpt>
      <trkpt lat="43.5371" lon="5.53894">
        <ele>375.3</ele>
        <time>2025-11-05T11:39:22.022Z</time>
      </trkpt>
      <trkpt lat="43.53707" lon="5.53895">
        <ele>375.4</ele>
        <time>2025-11-05T11:39:25.022Z</time>
      </trkpt>
      <trkpt lat="43.53704" lon="5.53896">
        <ele>375.4</ele>
        <time>2025-11-05T11:39:27.023Z</time>
      </trkpt>
      <trkpt lat="43.53702" lon="5.53897">
        <ele>375.5</ele>
        <time>2025-11-05T11:39:29.022Z</time>
      </trkpt>
      <trkpt lat="43.537" lon="5.53898">
        <ele>375.6</ele>
        <time>2025-11-05T11:39:32.022Z</time>
      </trkpt>
      <trkpt lat="43.53698" lon="5.53899">
        <ele>375.7</ele>
        <time>2025-11-05T11:39:35.023Z</time>
      </trkpt>
      <trkpt lat="43.53695" lon="5.53901">
        <ele>375.9</ele>
        <time>2025-11-05T11:39:39.022Z</time>
      </trkpt>
      <trkpt lat="43.53692" lon="5.53902">
        <ele>376</ele>
        <time>2025-11-05T11:39:42.022Z</time>
      </trkpt>
      <trkpt lat="43.53689" lon="5.53903">
        <ele>376.2</ele>
        <time>2025-11-05T11:39:44.022Z</time>
      </trkpt>
      <trkpt lat="43.53687" lon="5.53904">
        <ele>376.3</ele>
        <time>2025-11-05T11:39:46.023Z</time>
      </trkpt>
      <trkpt lat="43.53683" lon="5.53904">
        <ele>376.5</ele>
        <time>2025-11-05T11:39:49.023Z</time>
      </trkpt>
      <trkpt lat="43.53681" lon="5.53904">
        <ele>376.5</ele>
        <time>2025-11-05T11:39:51.023Z</time>
      </trkpt>
      <trkpt lat="43.53678" lon="5.53903">
        <ele>376.6</ele>
        <time>2025-11-05T11:39:53.022Z</time>
      </trkpt>
      <trkpt lat="43.53676" lon="5.53902">
        <ele>376.6</ele>
        <time>2025-11-05T11:39:57.022Z</time>
      </trkpt>
      <trkpt lat="43.53673" lon="5.53902">
        <ele>376.7</ele>
        <time>2025-11-05T11:40:00.022Z</time>
      </trkpt>
      <trkpt lat="43.53671" lon="5.53902">
        <ele>376.8</ele>
        <time>2025-11-05T11:40:02.022Z</time>
      </trkpt>
      <trkpt lat="43.53668" lon="5.53901">
        <ele>376.9</ele>
        <time>2025-11-05T11:40:04.023Z</time>
      </trkpt>
      <trkpt lat="43.53665" lon="5.539">
        <ele>376.8</ele>
        <time>2025-11-05T11:40:06.023Z</time>
      </trkpt>
      <trkpt lat="43.53662" lon="5.539">
        <ele>376.8</ele>
        <time>2025-11-05T11:40:08.022Z</time>
      </trkpt>
      <trkpt lat="43.53659" lon="5.53899">
        <ele>376.7</ele>
        <time>2025-11-05T11:40:11.023Z</time>
      </trkpt>
      <trkpt lat="43.53657" lon="5.53898">
        <ele>376.6</ele>
        <time>2025-11-05T11:40:13.022Z</time>
      </trkpt>
      <trkpt lat="43.53655" lon="5.53897">
        <ele>376.6</ele>
        <time>2025-11-05T11:40:17.023Z</time>
      </trkpt>
      <trkpt lat="43.53651" lon="5.53898">
        <ele>376.7</ele>
        <time>2025-11-05T11:40:20.022Z</time>
      </trkpt>
      <trkpt lat="43.53647" lon="5.53898">
        <ele>376.6</ele>
        <time>2025-11-05T11:40:22.022Z</time>
      </trkpt>
      <trkpt lat="43.53644" lon="5.53899">
        <ele>376.7</ele>
        <time>2025-11-05T11:40:25.023Z</time>
      </trkpt>
      <trkpt lat="43.53641" lon="5.53899">
        <ele>376.7</ele>
        <time>2025-11-05T11:40:28.023Z</time>
      </trkpt>
      <trkpt lat="43.53638" lon="5.53898">
        <ele>376.7</ele>
        <time>2025-11-05T11:40:31.022Z</time>
      </trkpt>
      <trkpt lat="43.53635" lon="5.53897">
        <ele>376.7</ele>
        <time>2025-11-05T11:40:34.022Z</time>
      </trkpt>
      <trkpt lat="43.53631" lon="5.53897">
        <ele>376.8</ele>
        <time>2025-11-05T11:40:37.023Z</time>
      </trkpt>
      <trkpt lat="43.53628" lon="5.53898">
        <ele>376.9</ele>
        <time>2025-11-05T11:40:40.023Z</time>
      </trkpt>
      <trkpt lat="43.53625" lon="5.53898">
        <ele>377</ele>
        <time>2025-11-05T11:40:43.022Z</time>
      </trkpt>
      <trkpt lat="43.53622" lon="5.53899">
        <ele>377.1</ele>
        <time>2025-11-05T11:40:46.022Z</time>
      </trkpt>
      <trkpt lat="43.5362" lon="5.53898">
        <ele>377.1</ele>
        <time>2025-11-05T11:40:49.022Z</time>
      </trkpt>
      <trkpt lat="43.53617" lon="5.53897">
        <ele>377.1</ele>
        <time>2025-11-05T11:40:52.022Z</time>
      </trkpt>
      <trkpt lat="43.53615" lon="5.53899">
        <ele>377.3</ele>
        <time>2025-11-05T11:40:59.022Z</time>
      </trkpt>
      <trkpt lat="43.53613" lon="5.53902">
        <ele>377.4</ele>
        <time>2025-11-05T11:41:06.022Z</time>
      </trkpt>
      <trkpt lat="43.53614" lon="5.53898">
        <ele>377.3</ele>
        <time>2025-11-05T11:41:13.022Z</time>
      </trkpt>
      <trkpt lat="43.53612" lon="5.53899">
        <ele>377.3</ele>
        <time>2025-11-05T11:41:27.022Z</time>
      </trkpt>
      <trkpt lat="43.5361" lon="5.53898">
        <ele>377.3</ele>
        <time>2025-11-05T11:41:31.023Z</time>
      </trkpt>
      <trkpt lat="43.53607" lon="5.53898">
        <ele>377.2</ele>
        <time>2025-11-05T11:41:35.023Z</time>
      </trkpt>
      <trkpt lat="43.53603" lon="5.53897">
        <ele>377.1</ele>
        <time>2025-11-05T11:41:45.023Z</time>
      </trkpt>
      <trkpt lat="43.53601" lon="5.53899">
        <ele>377.1</ele>
        <time>2025-11-05T11:41:49.022Z</time>
      </trkpt>
      <trkpt lat="43.53599" lon="5.53901">
        <ele>377.2</ele>
        <time>2025-11-05T11:41:54.023Z</time>
      </trkpt>
      <trkpt lat="43.53595" lon="5.53902">
        <ele>377.2</ele>
        <time>2025-11-05T11:41:57.022Z</time>
      </trkpt>
      <trkpt lat="43.53593" lon="5.53904">
        <ele>377.2</ele>
        <time>2025-11-05T11:42:00.022Z</time>
      </trkpt>
      <trkpt lat="43.53591" lon="5.53906">
        <ele>377.3</ele>
        <time>2025-11-05T11:42:03.022Z</time>
      </trkpt>
      <trkpt lat="43.53592" lon="5.53909">
        <ele>377.5</ele>
        <time>2025-11-05T11:43:06.022Z</time>
      </trkpt>
      <trkpt lat="43.53594" lon="5.53911">
        <ele>377.6</ele>
        <time>2025-11-05T11:48:11.022Z</time>
      </trkpt>
      <trkpt lat="43.53591" lon="5.53912">
        <ele>377.7</ele>
        <time>2025-11-05T11:50:01.022Z</time>
      </trkpt>
      <trkpt lat="43.53591" lon="5.53916">
        <ele>377.9</ele>
        <time>2025-11-05T11:53:52.022Z</time>
      </trkpt>
      <trkpt lat="43.53588" lon="5.53916">
        <ele>378</ele>
        <time>2025-11-05T11:53:56.023Z</time>
      </trkpt>
      <trkpt lat="43.53587" lon="5.53919">
        <ele>378.3</ele>
        <time>2025-11-05T11:55:47.022Z</time>
      </trkpt>
      <trkpt lat="43.53589" lon="5.53918">
        <ele>378.1</ele>
        <time>2025-11-05T11:57:33.022Z</time>
      </trkpt>
      <trkpt lat="43.53592" lon="5.53917">
        <ele>378</ele>
        <time>2025-11-05T11:58:32.022Z</time>
      </trkpt>
      <trkpt lat="43.53594" lon="5.53914">
        <ele>377.8</ele>
        <time>2025-11-05T12:00:22.022Z</time>
      </trkpt>
      <trkpt lat="43.53595" lon="5.53917">
        <ele>378</ele>
        <time>2025-11-05T12:00:27.023Z</time>
      </trkpt>
      <trkpt lat="43.53596" lon="5.53914">
        <ele>377.8</ele>
        <time>2025-11-05T12:00:32.022Z</time>
      </trkpt>
      <trkpt lat="43.53594" lon="5.53915">
        <ele>377.9</ele>
        <time>2025-11-05T12:01:51.023Z</time>
      </trkpt>
      <trkpt lat="43.53593" lon="5.53912">
        <ele>377.7</ele>
        <time>2025-11-05T12:04:20.022Z</time>
      </trkpt>
      <trkpt lat="43.53592" lon="5.53909">
        <ele>377.5</ele>
        <time>2025-11-05T12:05:24.022Z</time>
      </trkpt>
      <trkpt lat="43.53595" lon="5.53909">
        <ele>377.5</ele>
        <time>2025-11-05T12:06:43.022Z</time>
      </trkpt>
      <trkpt lat="43.53596" lon="5.53912">
        <ele>377.7</ele>
        <time>2025-11-05T12:07:00.022Z</time>
      </trkpt>
      <trkpt lat="43.53594" lon="5.5391">
        <ele>377.6</ele>
        <time>2025-11-05T12:10:22.022Z</time>
      </trkpt>
      <trkpt lat="43.53591" lon="5.53909">
        <ele>377.5</ele>
        <time>2025-11-05T12:22:42.021Z</time>
      </trkpt>
      <trkpt lat="43.53591" lon="5.53905">
        <ele>377.3</ele>
        <time>2025-11-05T12:29:06.021Z</time>
      </trkpt>
      <trkpt lat="43.5359" lon="5.53901">
        <ele>377</ele>
        <time>2025-11-05T12:29:16.021Z</time>
      </trkpt>
      <trkpt lat="43.53588" lon="5.53899">
        <ele>376.8</ele>
        <time>2025-11-05T12:29:19.021Z</time>
      </trkpt>
      <trkpt lat="43.53585" lon="5.53899">
        <ele>376.8</ele>
        <time>2025-11-05T12:29:25.021Z</time>
      </trkpt>
      <trkpt lat="43.53583" lon="5.53901">
        <ele>376.8</ele>
        <time>2025-11-05T12:29:35.021Z</time>
      </trkpt>
      <trkpt lat="43.53581" lon="5.53902">
        <ele>376.9</ele>
        <time>2025-11-05T12:29:40.021Z</time>
      </trkpt>
      <trkpt lat="43.53578" lon="5.53903">
        <ele>376.9</ele>
        <time>2025-11-05T12:29:44.021Z</time>
      </trkpt>
      <trkpt lat="43.53575" lon="5.53905">
        <ele>377</ele>
        <time>2025-11-05T12:29:49.021Z</time>
      </trkpt>
      <trkpt lat="43.53572" lon="5.53906">
        <ele>377</ele>
        <time>2025-11-05T12:29:52.021Z</time>
      </trkpt>
      <trkpt lat="43.5357" lon="5.53907">
        <ele>377</ele>
        <time>2025-11-05T12:29:56.021Z</time>
      </trkpt>
      <trkpt lat="43.53568" lon="5.53907">
        <ele>377</ele>
        <time>2025-11-05T12:30:00.021Z</time>
      </trkpt>
      <trkpt lat="43.53566" lon="5.53909">
        <ele>377</ele>
        <time>2025-11-05T12:30:03.021Z</time>
      </trkpt>
      <trkpt lat="43.53564" lon="5.5391">
        <ele>377</ele>
        <time>2025-11-05T12:30:06.021Z</time>
      </trkpt>
      <trkpt lat="43.53561" lon="5.53911">
        <ele>377</ele>
        <time>2025-11-05T12:30:12.021Z</time>
      </trkpt>
      <trkpt lat="43.53559" lon="5.53911">
        <ele>376.9</ele>
        <time>2025-11-05T12:30:15.021Z</time>
      </trkpt>
      <trkpt lat="43.53557" lon="5.53913">
        <ele>376.9</ele>
        <time>2025-11-05T12:30:19.021Z</time>
      </trkpt>
      <trkpt lat="43.53554" lon="5.53915">
        <ele>376.9</ele>
        <time>2025-11-05T12:30:22.021Z</time>
      </trkpt>
      <trkpt lat="43.53552" lon="5.53915">
        <ele>376.9</ele>
        <time>2025-11-05T12:30:25.021Z</time>
      </trkpt>
      <trkpt lat="43.53549" lon="5.53916">
        <ele>377</ele>
        <time>2025-11-05T12:30:29.021Z</time>
      </trkpt>
      <trkpt lat="43.53547" lon="5.53917">
        <ele>377</ele>
        <time>2025-11-05T12:30:31.021Z</time>
      </trkpt>
      <trkpt lat="43.53544" lon="5.53918">
        <ele>377.1</ele>
        <time>2025-11-05T12:30:34.021Z</time>
      </trkpt>
      <trkpt lat="43.53542" lon="5.53918">
        <ele>377.1</ele>
        <time>2025-11-05T12:30:38.021Z</time>
      </trkpt>
      <trkpt lat="43.5354" lon="5.53919">
        <ele>377.2</ele>
        <time>2025-11-05T12:30:41.021Z</time>
      </trkpt>
      <trkpt lat="43.53537" lon="5.5392">
        <ele>377.3</ele>
        <time>2025-11-05T12:30:44.021Z</time>
      </trkpt>
      <trkpt lat="43.53534" lon="5.53921">
        <ele>377.3</ele>
        <time>2025-11-05T12:30:47.021Z</time>
      </trkpt>
      <trkpt lat="43.53531" lon="5.53921">
        <ele>377.3</ele>
        <time>2025-11-05T12:30:50.021Z</time>
      </trkpt>
      <trkpt lat="43.53529" lon="5.53922">
        <ele>377.4</ele>
        <time>2025-11-05T12:30:54.021Z</time>
      </trkpt>
      <trkpt lat="43.53526" lon="5.53924">
        <ele>377.4</ele>
        <time>2025-11-05T12:30:57.021Z</time>
      </trkpt>
      <trkpt lat="43.53523" lon="5.53926">
        <ele>377.4</ele>
        <time>2025-11-05T12:31:02.021Z</time>
      </trkpt>
      <trkpt lat="43.53521" lon="5.53928">
        <ele>377.4</ele>
        <time>2025-11-05T12:31:05.021Z</time>
      </trkpt>
      <trkpt lat="43.53518" lon="5.53929">
        <ele>377.4</ele>
        <time>2025-11-05T12:31:08.021Z</time>
      </trkpt>
      <trkpt lat="43.53516" lon="5.53931">
        <ele>377.4</ele>
        <time>2025-11-05T12:31:11.021Z</time>
      </trkpt>
      <trkpt lat="43.53513" lon="5.53931">
        <ele>377.2</ele>
        <time>2025-11-05T12:31:14.021Z</time>
      </trkpt>
      <trkpt lat="43.53511" lon="5.53933">
        <ele>377.2</ele>
        <time>2025-11-05T12:31:17.021Z</time>
      </trkpt>
      <trkpt lat="43.53508" lon="5.53934">
        <ele>377.1</ele>
        <time>2025-11-05T12:31:19.021Z</time>
      </trkpt>
      <trkpt lat="43.53506" lon="5.53934">
        <ele>377</ele>
        <time>2025-11-05T12:31:22.021Z</time>
      </trkpt>
      <trkpt lat="43.53504" lon="5.53936">
        <ele>377</ele>
        <time>2025-11-05T12:31:25.021Z</time>
      </trkpt>
      <trkpt lat="43.53503" lon="5.53939">
        <ele>377</ele>
        <time>2025-11-05T12:31:27.020Z</time>
      </trkpt>
      <trkpt lat="43.53501" lon="5.53941">
        <ele>376.9</ele>
        <time>2025-11-05T12:31:30.021Z</time>
      </trkpt>
      <trkpt lat="43.53498" lon="5.53943">
        <ele>376.9</ele>
        <time>2025-11-05T12:31:34.021Z</time>
      </trkpt>
      <trkpt lat="43.53496" lon="5.53945">
        <ele>376.9</ele>
        <time>2025-11-05T12:31:37.021Z</time>
      </trkpt>
      <trkpt lat="43.53493" lon="5.53946">
        <ele>376.9</ele>
        <time>2025-11-05T12:31:41.021Z</time>
      </trkpt>
      <trkpt lat="43.53491" lon="5.53948">
        <ele>377</ele>
        <time>2025-11-05T12:31:44.021Z</time>
      </trkpt>
      <trkpt lat="43.53488" lon="5.53949">
        <ele>377</ele>
        <time>2025-11-05T12:31:48.021Z</time>
      </trkpt>
      <trkpt lat="43.53485" lon="5.5395">
        <ele>377</ele>
        <time>2025-11-05T12:31:51.021Z</time>
      </trkpt>
      <trkpt lat="43.53483" lon="5.53952">
        <ele>377</ele>
        <time>2025-11-05T12:31:54.021Z</time>
      </trkpt>
      <trkpt lat="43.53481" lon="5.53953">
        <ele>377</ele>
        <time>2025-11-05T12:31:57.021Z</time>
      </trkpt>
      <trkpt lat="43.53479" lon="5.53956">
        <ele>377.1</ele>
        <time>2025-11-05T12:32:00.021Z</time>
      </trkpt>
      <trkpt lat="43.53476" lon="5.53958">
        <ele>377.2</ele>
        <time>2025-11-05T12:32:03.021Z</time>
      </trkpt>
      <trkpt lat="43.53473" lon="5.53961">
        <ele>377.3</ele>
        <time>2025-11-05T12:32:06.021Z</time>
      </trkpt>
      <trkpt lat="43.53471" lon="5.53964">
        <ele>377.3</ele>
        <time>2025-11-05T12:32:09.021Z</time>
      </trkpt>
      <trkpt lat="43.53469" lon="5.53966">
        <ele>377.3</ele>
        <time>2025-11-05T12:32:13.021Z</time>
      </trkpt>
      <trkpt lat="43.53467" lon="5.5397">
        <ele>377.5</ele>
        <time>2025-11-05T12:32:16.021Z</time>
      </trkpt>
      <trkpt lat="43.53465" lon="5.53972">
        <ele>377.5</ele>
        <time>2025-11-05T12:32:18.021Z</time>
      </trkpt>
      <trkpt lat="43.53464" lon="5.53975">
        <ele>377.5</ele>
        <time>2025-11-05T12:32:20.021Z</time>
      </trkpt>
      <trkpt lat="43.53462" lon="5.53979">
        <ele>377.5</ele>
        <time>2025-11-05T12:32:22.021Z</time>
      </trkpt>
      <trkpt lat="43.53461" lon="5.53983">
        <ele>377.5</ele>
        <time>2025-11-05T12:32:25.021Z</time>
      </trkpt>
      <trkpt lat="43.53461" lon="5.53987">
        <ele>377.7</ele>
        <time>2025-11-05T12:32:28.021Z</time>
      </trkpt>
      <trkpt lat="43.53459" lon="5.5399">
        <ele>377.7</ele>
        <time>2025-11-05T12:32:31.021Z</time>
      </trkpt>
      <trkpt lat="43.53457" lon="5.53994">
        <ele>377.7</ele>
        <time>2025-11-05T12:32:34.021Z</time>
      </trkpt>
      <trkpt lat="43.53455" lon="5.53997">
        <ele>377.7</ele>
        <time>2025-11-05T12:32:38.021Z</time>
      </trkpt>
      <trkpt lat="43.53453" lon="5.54">
        <ele>377.6</ele>
        <time>2025-11-05T12:32:41.021Z</time>
      </trkpt>
      <trkpt lat="43.53451" lon="5.54003">
        <ele>377.7</ele>
        <time>2025-11-05T12:32:43.021Z</time>
      </trkpt>
      <trkpt lat="43.53449" lon="5.54005">
        <ele>377.7</ele>
        <time>2025-11-05T12:32:47.021Z</time>
      </trkpt>
      <trkpt lat="43.53446" lon="5.54007">
        <ele>377.7</ele>
        <time>2025-11-05T12:32:50.021Z</time>
      </trkpt>
      <trkpt lat="43.53445" lon="5.5401">
        <ele>377.8</ele>
        <time>2025-11-05T12:32:53.021Z</time>
      </trkpt>
      <trkpt lat="43.53443" lon="5.54013">
        <ele>377.5</ele>
        <time>2025-11-05T12:32:56.021Z</time>
      </trkpt>
      <trkpt lat="43.53442" lon="5.54015">
        <ele>377.3</ele>
        <time>2025-11-05T12:32:58.021Z</time>
      </trkpt>
      <trkpt lat="43.53442" lon="5.5402">
        <ele>377.5</ele>
        <time>2025-11-05T12:33:01.021Z</time>
      </trkpt>
      <trkpt lat="43.53441" lon="5.54024">
        <ele>377.4</ele>
        <time>2025-11-05T12:33:04.021Z</time>
      </trkpt>
      <trkpt lat="43.53441" lon="5.54028">
        <ele>377.7</ele>
        <time>2025-11-05T12:33:06.021Z</time>
      </trkpt>
      <trkpt lat="43.53441" lon="5.54032">
        <ele>377.9</ele>
        <time>2025-11-05T12:33:08.021Z</time>
      </trkpt>
      <trkpt lat="43.53441" lon="5.54036">
        <ele>378.1</ele>
        <time>2025-11-05T12:33:11.021Z</time>
      </trkpt>
      <trkpt lat="43.5344" lon="5.5404">
        <ele>378</ele>
        <time>2025-11-05T12:33:14.021Z</time>
      </trkpt>
      <trkpt lat="43.53439" lon="5.54043">
        <ele>378</ele>
        <time>2025-11-05T12:33:16.021Z</time>
      </trkpt>
      <trkpt lat="43.53438" lon="5.54046">
        <ele>377.9</ele>
        <time>2025-11-05T12:33:18.021Z</time>
      </trkpt>
      <trkpt lat="43.53437" lon="5.54049">
        <ele>377.9</ele>
        <time>2025-11-05T12:33:20.021Z</time>
      </trkpt>
      <trkpt lat="43.53435" lon="5.54052">
        <ele>377.6</ele>
        <time>2025-11-05T12:33:23.020Z</time>
      </trkpt>
      <trkpt lat="43.53433" lon="5.54055">
        <ele>377.5</ele>
        <time>2025-11-05T12:33:26.021Z</time>
      </trkpt>
      <trkpt lat="43.53431" lon="5.54057">
        <ele>377.2</ele>
        <time>2025-11-05T12:33:29.021Z</time>
      </trkpt>
      <trkpt lat="43.53429" lon="5.54061">
        <ele>377.1</ele>
        <time>2025-11-05T12:33:32.021Z</time>
      </trkpt>
      <trkpt lat="43.53427" lon="5.54063">
        <ele>376.9</ele>
        <time>2025-11-05T12:33:35.021Z</time>
      </trkpt>
      <trkpt lat="43.53426" lon="5.54066">
        <ele>376.9</ele>
        <time>2025-11-05T12:33:38.020Z</time>
      </trkpt>
      <trkpt lat="43.53423" lon="5.54069">
        <ele>376.5</ele>
        <time>2025-11-05T12:33:41.020Z</time>
      </trkpt>
      <trkpt lat="43.53422" lon="5.54072">
        <ele>376.7</ele>
        <time>2025-11-05T12:33:43.021Z</time>
      </trkpt>
      <trkpt lat="43.53421" lon="5.54075">
        <ele>376.8</ele>
        <time>2025-11-05T12:33:45.021Z</time>
      </trkpt>
      <trkpt lat="43.53418" lon="5.54077">
        <ele>376.6</ele>
        <time>2025-11-05T12:33:48.021Z</time>
      </trkpt>
      <trkpt lat="43.53416" lon="5.54079">
        <ele>376.3</ele>
        <time>2025-11-05T12:33:51.021Z</time>
      </trkpt>
      <trkpt lat="43.53413" lon="5.54082">
        <ele>376.2</ele>
        <time>2025-11-05T12:33:56.021Z</time>
      </trkpt>
      <trkpt lat="43.5341" lon="5.54084">
        <ele>375.9</ele>
        <time>2025-11-05T12:33:59.021Z</time>
      </trkpt>
      <trkpt lat="43.53408" lon="5.54085">
        <ele>375.5</ele>
        <time>2025-11-05T12:34:01.021Z</time>
      </trkpt>
      <trkpt lat="43.53405" lon="5.54086">
        <ele>375.3</ele>
        <time>2025-11-05T12:34:03.020Z</time>
      </trkpt>
      <trkpt lat="43.53403" lon="5.54087">
        <ele>375</ele>
        <time>2025-11-05T12:34:06.020Z</time>
      </trkpt>
      <trkpt lat="43.534" lon="5.54087">
        <ele>374.6</ele>
        <time>2025-11-05T12:34:09.021Z</time>
      </trkpt>
      <trkpt lat="43.53397" lon="5.54087">
        <ele>374.1</ele>
        <time>2025-11-05T12:34:12.021Z</time>
      </trkpt>
      <trkpt lat="43.53394" lon="5.54089">
        <ele>373.8</ele>
        <time>2025-11-05T12:34:15.021Z</time>
      </trkpt>
      <trkpt lat="43.53392" lon="5.54089">
        <ele>373.5</ele>
        <time>2025-11-05T12:34:17.021Z</time>
      </trkpt>
      <trkpt lat="43.53389" lon="5.54089">
        <ele>373.2</ele>
        <time>2025-11-05T12:34:19.021Z</time>
      </trkpt>
      <trkpt lat="43.53387" lon="5.54089">
        <ele>372.8</ele>
        <time>2025-11-05T12:34:21.021Z</time>
      </trkpt>
      <trkpt lat="43.53385" lon="5.5409">
        <ele>372.6</ele>
        <time>2025-11-05T12:34:24.021Z</time>
      </trkpt>
      <trkpt lat="43.53382" lon="5.5409">
        <ele>372.2</ele>
        <time>2025-11-05T12:34:26.021Z</time>
      </trkpt>
      <trkpt lat="43.53379" lon="5.5409">
        <ele>371.7</ele>
        <time>2025-11-05T12:34:29.021Z</time>
      </trkpt>
      <trkpt lat="43.53376" lon="5.54092">
        <ele>371.7</ele>
        <time>2025-11-05T12:34:32.021Z</time>
      </trkpt>
      <trkpt lat="43.53373" lon="5.54093">
        <ele>371.5</ele>
        <time>2025-11-05T12:34:36.021Z</time>
      </trkpt>
      <trkpt lat="43.53371" lon="5.54094">
        <ele>371.3</ele>
        <time>2025-11-05T12:34:38.020Z</time>
      </trkpt>
      <trkpt lat="43.53369" lon="5.54095">
        <ele>371.1</ele>
        <time>2025-11-05T12:34:40.021Z</time>
      </trkpt>
      <trkpt lat="43.53366" lon="5.54097">
        <ele>371.1</ele>
        <time>2025-11-05T12:34:42.021Z</time>
      </trkpt>
      <trkpt lat="43.53364" lon="5.54098">
        <ele>371</ele>
        <time>2025-11-05T12:34:45.021Z</time>
      </trkpt>
      <trkpt lat="43.53361" lon="5.54098">
        <ele>370.8</ele>
        <time>2025-11-05T12:34:48.021Z</time>
      </trkpt>
      <trkpt lat="43.53359" lon="5.54101">
        <ele>370.4</ele>
        <time>2025-11-05T12:34:51.021Z</time>
      </trkpt>
      <trkpt lat="43.53357" lon="5.54104">
        <ele>370.4</ele>
        <time>2025-11-05T12:34:54.021Z</time>
      </trkpt>
      <trkpt lat="43.53354" lon="5.54107">
        <ele>370</ele>
        <time>2025-11-05T12:34:57.021Z</time>
      </trkpt>
      <trkpt lat="43.53352" lon="5.54108">
        <ele>369.6</ele>
        <time>2025-11-05T12:34:59.021Z</time>
      </trkpt>
      <trkpt lat="43.53351" lon="5.54111">
        <ele>369.6</ele>
        <time>2025-11-05T12:35:01.021Z</time>
      </trkpt>
      <trkpt lat="43.5335" lon="5.54114">
        <ele>369.4</ele>
        <time>2025-11-05T12:35:03.021Z</time>
      </trkpt>
      <trkpt lat="43.53348" lon="5.54118">
        <ele>368.8</ele>
        <time>2025-11-05T12:35:06.021Z</time>
      </trkpt>
      <trkpt lat="43.53346" lon="5.5412">
        <ele>368.1</ele>
        <time>2025-11-05T12:35:09.021Z</time>
      </trkpt>
      <trkpt lat="43.53345" lon="5.54123">
        <ele>367.8</ele>
        <time>2025-11-05T12:35:11.021Z</time>
      </trkpt>
      <trkpt lat="43.53345" lon="5.54127">
        <ele>367.9</ele>
        <time>2025-11-05T12:35:14.021Z</time>
      </trkpt>
      <trkpt lat="43.53346" lon="5.5413">
        <ele>367.9</ele>
        <time>2025-11-05T12:35:17.021Z</time>
      </trkpt>
      <trkpt lat="43.53345" lon="5.54134">
        <ele>367.8</ele>
        <time>2025-11-05T12:35:20.021Z</time>
      </trkpt>
      <trkpt lat="43.53346" lon="5.54137">
        <ele>368.2</ele>
        <time>2025-11-05T12:35:24.021Z</time>
      </trkpt>
      <trkpt lat="43.53347" lon="5.54141">
        <ele>368.1</ele>
        <time>2025-11-05T12:35:27.021Z</time>
      </trkpt>
      <trkpt lat="43.53348" lon="5.54144">
        <ele>368</ele>
        <time>2025-11-05T12:35:29.021Z</time>
      </trkpt>
      <trkpt lat="43.53348" lon="5.54147">
        <ele>367.7</ele>
        <time>2025-11-05T12:35:31.021Z</time>
      </trkpt>
      <trkpt lat="43.53349" lon="5.54151">
        <ele>367.5</ele>
        <time>2025-11-05T12:35:33.020Z</time>
      </trkpt>
      <trkpt lat="43.53348" lon="5.54155">
        <ele>366.6</ele>
        <time>2025-11-05T12:35:37.021Z</time>
      </trkpt>
      <trkpt lat="43.53347" lon="5.54159">
        <ele>366</ele>
        <time>2025-11-05T12:35:40.021Z</time>
      </trkpt>
      <trkpt lat="43.53349" lon="5.54162">
        <ele>366.1</ele>
        <time>2025-11-05T12:35:43.021Z</time>
      </trkpt>
      <trkpt lat="43.5335" lon="5.54167">
        <ele>365.7</ele>
        <time>2025-11-05T12:35:46.021Z</time>
      </trkpt>
      <trkpt lat="43.53351" lon="5.5417">
        <ele>366</ele>
        <time>2025-11-05T12:35:49.021Z</time>
      </trkpt>
      <trkpt lat="43.53351" lon="5.54174">
        <ele>366</ele>
        <time>2025-11-05T12:35:52.021Z</time>
      </trkpt>
      <trkpt lat="43.53352" lon="5.54177">
        <ele>366.1</ele>
        <time>2025-11-05T12:35:57.021Z</time>
      </trkpt>
      <trkpt lat="43.53352" lon="5.54181">
        <ele>366.1</ele>
        <time>2025-11-05T12:35:59.021Z</time>
      </trkpt>
      <trkpt lat="43.53352" lon="5.54184">
        <ele>366.1</ele>
        <time>2025-11-05T12:36:02.021Z</time>
      </trkpt>
      <trkpt lat="43.53351" lon="5.54187">
        <ele>365.8</ele>
        <time>2025-11-05T12:36:05.021Z</time>
      </trkpt>
      <trkpt lat="43.5335" lon="5.54191">
        <ele>365.6</ele>
        <time>2025-11-05T12:36:09.021Z</time>
      </trkpt>
      <trkpt lat="43.53348" lon="5.54194">
        <ele>365.2</ele>
        <time>2025-11-05T12:36:12.021Z</time>
      </trkpt>
      <trkpt lat="43.53346" lon="5.54196">
        <ele>364.8</ele>
        <time>2025-11-05T12:36:16.021Z</time>
      </trkpt>
      <trkpt lat="43.53344" lon="5.54197">
        <ele>364.6</ele>
        <time>2025-11-05T12:36:19.021Z</time>
      </trkpt>
      <trkpt lat="43.53341" lon="5.54199">
        <ele>364</ele>
        <time>2025-11-05T12:36:22.021Z</time>
      </trkpt>
      <trkpt lat="43.53338" lon="5.542">
        <ele>363.5</ele>
        <time>2025-11-05T12:36:24.021Z</time>
      </trkpt>
      <trkpt lat="43.53335" lon="5.54202">
        <ele>362.8</ele>
        <time>2025-11-05T12:36:27.021Z</time>
      </trkpt>
      <trkpt lat="43.53333" lon="5.54203">
        <ele>362.2</ele>
        <time>2025-11-05T12:36:31.021Z</time>
      </trkpt>
      <trkpt lat="43.5333" lon="5.54202">
        <ele>362</ele>
        <time>2025-11-05T12:36:33.021Z</time>
      </trkpt>
      <trkpt lat="43.53328" lon="5.54205">
        <ele>362</ele>
        <time>2025-11-05T12:36:36.021Z</time>
      </trkpt>
      <trkpt lat="43.53326" lon="5.54206">
        <ele>361.9</ele>
        <time>2025-11-05T12:36:39.021Z</time>
      </trkpt>
      <trkpt lat="43.53323" lon="5.54207">
        <ele>361.7</ele>
        <time>2025-11-05T12:36:42.021Z</time>
      </trkpt>
      <trkpt lat="43.53321" lon="5.54208">
        <ele>361.6</ele>
        <time>2025-11-05T12:36:45.020Z</time>
      </trkpt>
      <trkpt lat="43.53318" lon="5.54206">
        <ele>361.3</ele>
        <time>2025-11-05T12:36:48.021Z</time>
      </trkpt>
      <trkpt lat="43.53316" lon="5.54205">
        <ele>361.1</ele>
        <time>2025-11-05T12:36:51.021Z</time>
      </trkpt>
      <trkpt lat="43.53312" lon="5.54204">
        <ele>360.8</ele>
        <time>2025-11-05T12:36:54.021Z</time>
      </trkpt>
      <trkpt lat="43.53309" lon="5.54205">
        <ele>360.6</ele>
        <time>2025-11-05T12:36:57.021Z</time>
      </trkpt>
      <trkpt lat="43.53306" lon="5.54205">
        <ele>360.4</ele>
        <time>2025-11-05T12:36:59.021Z</time>
      </trkpt>
      <trkpt lat="43.53304" lon="5.54204">
        <ele>360.5</ele>
        <time>2025-11-05T12:37:02.021Z</time>
      </trkpt>
      <trkpt lat="43.53301" lon="5.54205">
        <ele>360.7</ele>
        <time>2025-11-05T12:37:05.021Z</time>
      </trkpt>
      <trkpt lat="43.53299" lon="5.54205">
        <ele>360.9</ele>
        <time>2025-11-05T12:37:08.021Z</time>
      </trkpt>
      <trkpt lat="43.53295" lon="5.54205">
        <ele>361.1</ele>
        <time>2025-11-05T12:37:11.021Z</time>
      </trkpt>
      <trkpt lat="43.53293" lon="5.54205">
        <ele>361.3</ele>
        <time>2025-11-05T12:37:14.020Z</time>
      </trkpt>
      <trkpt lat="43.5329" lon="5.54205">
        <ele>361.5</ele>
        <time>2025-11-05T12:37:17.021Z</time>
      </trkpt>
      <trkpt lat="43.53287" lon="5.54204">
        <ele>361.7</ele>
        <time>2025-11-05T12:37:20.021Z</time>
      </trkpt>
      <trkpt lat="43.53285" lon="5.54202">
        <ele>361.8</ele>
        <time>2025-11-05T12:37:23.020Z</time>
      </trkpt>
      <trkpt lat="43.53282" lon="5.54202">
        <ele>362</ele>
        <time>2025-11-05T12:37:25.021Z</time>
      </trkpt>
      <trkpt lat="43.53279" lon="5.54201">
        <ele>362.1</ele>
        <time>2025-11-05T12:37:28.021Z</time>
      </trkpt>
      <trkpt lat="43.53277" lon="5.542">
        <ele>362.2</ele>
        <time>2025-11-05T12:37:31.021Z</time>
      </trkpt>
      <trkpt lat="43.53274" lon="5.542">
        <ele>362.2</ele>
        <time>2025-11-05T12:37:34.020Z</time>
      </trkpt>
      <trkpt lat="43.53272" lon="5.542">
        <ele>362.2</ele>
        <time>2025-11-05T12:37:37.021Z</time>
      </trkpt>
      <trkpt lat="43.53269" lon="5.54198">
        <ele>362.3</ele>
        <time>2025-11-05T12:37:41.021Z</time>
      </trkpt>
      <trkpt lat="43.53267" lon="5.54196">
        <ele>362.4</ele>
        <time>2025-11-05T12:37:45.021Z</time>
      </trkpt>
      <trkpt lat="43.53264" lon="5.54195">
        <ele>362.5</ele>
        <time>2025-11-05T12:37:48.021Z</time>
      </trkpt>
      <trkpt lat="43.53261" lon="5.54195">
        <ele>362.6</ele>
        <time>2025-11-05T12:37:53.021Z</time>
      </trkpt>
      <trkpt lat="43.53257" lon="5.54193">
        <ele>362.6</ele>
        <time>2025-11-05T12:37:57.020Z</time>
      </trkpt>
      <trkpt lat="43.53254" lon="5.54192">
        <ele>362.7</ele>
        <time>2025-11-05T12:37:59.020Z</time>
      </trkpt>
      <trkpt lat="43.53252" lon="5.5419">
        <ele>362.7</ele>
        <time>2025-11-05T12:38:02.021Z</time>
      </trkpt>
      <trkpt lat="43.5325" lon="5.54188">
        <ele>362.8</ele>
        <time>2025-11-05T12:38:05.021Z</time>
      </trkpt>
      <trkpt lat="43.53247" lon="5.54186">
        <ele>362.8</ele>
        <time>2025-11-05T12:38:08.021Z</time>
      </trkpt>
      <trkpt lat="43.53245" lon="5.54184">
        <ele>363</ele>
        <time>2025-11-05T12:38:11.021Z</time>
      </trkpt>
      <trkpt lat="43.53243" lon="5.54181">
        <ele>363.1</ele>
        <time>2025-11-05T12:38:14.021Z</time>
      </trkpt>
      <trkpt lat="43.53241" lon="5.54179">
        <ele>363.4</ele>
        <time>2025-11-05T12:38:17.021Z</time>
      </trkpt>
      <trkpt lat="43.53238" lon="5.54177">
        <ele>363.7</ele>
        <time>2025-11-05T12:38:19.020Z</time>
      </trkpt>
      <trkpt lat="43.53236" lon="5.54177">
        <ele>364</ele>
        <time>2025-11-05T12:38:22.021Z</time>
      </trkpt>
      <trkpt lat="43.53233" lon="5.54175">
        <ele>364.4</ele>
        <time>2025-11-05T12:38:25.021Z</time>
      </trkpt>
      <trkpt lat="43.5323" lon="5.54173">
        <ele>364.9</ele>
        <time>2025-11-05T12:38:28.021Z</time>
      </trkpt>
      <trkpt lat="43.53228" lon="5.54172">
        <ele>365.4</ele>
        <time>2025-11-05T12:38:31.021Z</time>
      </trkpt>
      <trkpt lat="43.53225" lon="5.54171">
        <ele>365.8</ele>
        <time>2025-11-05T12:38:34.021Z</time>
      </trkpt>
      <trkpt lat="43.53224" lon="5.54169">
        <ele>366.5</ele>
        <time>2025-11-05T12:38:38.020Z</time>
      </trkpt>
      <trkpt lat="43.53221" lon="5.54168">
        <ele>366.9</ele>
        <time>2025-11-05T12:38:41.020Z</time>
      </trkpt>
      <trkpt lat="43.53219" lon="5.54167">
        <ele>367.2</ele>
        <time>2025-11-05T12:38:45.021Z</time>
      </trkpt>
      <trkpt lat="43.53216" lon="5.54166">
        <ele>367.4</ele>
        <time>2025-11-05T12:38:47.021Z</time>
      </trkpt>
      <trkpt lat="43.53214" lon="5.54165">
        <ele>367.6</ele>
        <time>2025-11-05T12:38:49.021Z</time>
      </trkpt>
      <trkpt lat="43.53212" lon="5.54164">
        <ele>367.8</ele>
        <time>2025-11-05T12:38:52.021Z</time>
      </trkpt>
      <trkpt lat="43.53209" lon="5.54163">
        <ele>368</ele>
        <time>2025-11-05T12:38:55.021Z</time>
      </trkpt>
      <trkpt lat="43.53206" lon="5.54164">
        <ele>368.3</ele>
        <time>2025-11-05T12:38:59.021Z</time>
      </trkpt>
      <trkpt lat="43.53202" lon="5.54163">
        <ele>368.7</ele>
        <time>2025-11-05T12:39:03.020Z</time>
      </trkpt>
      <trkpt lat="43.532" lon="5.54161">
        <ele>369</ele>
        <time>2025-11-05T12:39:06.020Z</time>
      </trkpt>
      <trkpt lat="43.53198" lon="5.5416">
        <ele>369.4</ele>
        <time>2025-11-05T12:39:09.021Z</time>
      </trkpt>
      <trkpt lat="43.53195" lon="5.54159">
        <ele>369.7</ele>
        <time>2025-11-05T12:39:11.021Z</time>
      </trkpt>
      <trkpt lat="43.53193" lon="5.54159">
        <ele>370.1</ele>
        <time>2025-11-05T12:39:14.021Z</time>
      </trkpt>
      <trkpt lat="43.5319" lon="5.54158">
        <ele>370.3</ele>
        <time>2025-11-05T12:39:17.021Z</time>
      </trkpt>
      <trkpt lat="43.53187" lon="5.54157">
        <ele>370.7</ele>
        <time>2025-11-05T12:39:20.021Z</time>
      </trkpt>
      <trkpt lat="43.53185" lon="5.54157">
        <ele>371</ele>
        <time>2025-11-05T12:39:24.020Z</time>
      </trkpt>
      <trkpt lat="43.53182" lon="5.54156">
        <ele>371.4</ele>
        <time>2025-11-05T12:39:28.021Z</time>
      </trkpt>
      <trkpt lat="43.53179" lon="5.54155">
        <ele>371.7</ele>
        <time>2025-11-05T12:39:31.021Z</time>
      </trkpt>
      <trkpt lat="43.53177" lon="5.54154">
        <ele>372</ele>
        <time>2025-11-05T12:39:34.020Z</time>
      </trkpt>
      <trkpt lat="43.53174" lon="5.54153">
        <ele>372.3</ele>
        <time>2025-11-05T12:39:37.021Z</time>
      </trkpt>
      <trkpt lat="43.53171" lon="5.54154">
        <ele>372.5</ele>
        <time>2025-11-05T12:39:40.020Z</time>
      </trkpt>
      <trkpt lat="43.53169" lon="5.54155">
        <ele>372.6</ele>
        <time>2025-11-05T12:39:43.020Z</time>
      </trkpt>
      <trkpt lat="43.53167" lon="5.54159">
        <ele>372.5</ele>
        <time>2025-11-05T12:39:46.021Z</time>
      </trkpt>
      <trkpt lat="43.53165" lon="5.54161">
        <ele>372.1</ele>
        <time>2025-11-05T12:39:49.021Z</time>
      </trkpt>
      <trkpt lat="43.53163" lon="5.54163">
        <ele>371.6</ele>
        <time>2025-11-05T12:39:52.021Z</time>
      </trkpt>
      <trkpt lat="43.53161" lon="5.54165">
        <ele>371.3</ele>
        <time>2025-11-05T12:39:54.020Z</time>
      </trkpt>
      <trkpt lat="43.53159" lon="5.54169">
        <ele>370.9</ele>
        <time>2025-11-05T12:39:57.020Z</time>
      </trkpt>
      <trkpt lat="43.53157" lon="5.54172">
        <ele>370.6</ele>
        <time>2025-11-05T12:40:00.021Z</time>
      </trkpt>
      <trkpt lat="43.53156" lon="5.54174">
        <ele>370.4</ele>
        <time>2025-11-05T12:40:02.021Z</time>
      </trkpt>
      <trkpt lat="43.53154" lon="5.54177">
        <ele>370.2</ele>
        <time>2025-11-05T12:40:04.020Z</time>
      </trkpt>
      <trkpt lat="43.53152" lon="5.54179">
        <ele>370</ele>
        <time>2025-11-05T12:40:07.021Z</time>
      </trkpt>
      <trkpt lat="43.5315" lon="5.54181">
        <ele>370</ele>
        <time>2025-11-05T12:40:10.020Z</time>
      </trkpt>
      <trkpt lat="43.53147" lon="5.54182">
        <ele>370</ele>
        <time>2025-11-05T12:40:13.021Z</time>
      </trkpt>
      <trkpt lat="43.53144" lon="5.54184">
        <ele>370.1</ele>
        <time>2025-11-05T12:40:15.020Z</time>
      </trkpt>
      <trkpt lat="43.53142" lon="5.54187">
        <ele>370.3</ele>
        <time>2025-11-05T12:40:18.020Z</time>
      </trkpt>
      <trkpt lat="43.53139" lon="5.54188">
        <ele>370.5</ele>
        <time>2025-11-05T12:40:21.020Z</time>
      </trkpt>
      <trkpt lat="43.53137" lon="5.5419">
        <ele>369.9</ele>
        <time>2025-11-05T12:40:23.020Z</time>
      </trkpt>
      <trkpt lat="43.53135" lon="5.54192">
        <ele>369.2</ele>
        <time>2025-11-05T12:40:26.021Z</time>
      </trkpt>
      <trkpt lat="43.53133" lon="5.54195">
        <ele>368.5</ele>
        <time>2025-11-05T12:40:28.021Z</time>
      </trkpt>
      <trkpt lat="43.53132" lon="5.54197">
        <ele>367.7</ele>
        <time>2025-11-05T12:40:30.021Z</time>
      </trkpt>
      <trkpt lat="43.5313" lon="5.542">
        <ele>366.9</ele>
        <time>2025-11-05T12:40:32.021Z</time>
      </trkpt>
      <trkpt lat="43.53128" lon="5.54203">
        <ele>366.1</ele>
        <time>2025-11-05T12:40:34.021Z</time>
      </trkpt>
      <trkpt lat="43.53126" lon="5.54206">
        <ele>365.4</ele>
        <time>2025-11-05T12:40:37.021Z</time>
      </trkpt>
      <trkpt lat="43.53125" lon="5.54209">
        <ele>364.9</ele>
        <time>2025-11-05T12:40:40.021Z</time>
      </trkpt>
      <trkpt lat="43.53123" lon="5.54211">
        <ele>364.5</ele>
        <time>2025-11-05T12:40:42.021Z</time>
      </trkpt>
      <trkpt lat="43.53123" lon="5.54215">
        <ele>364.5</ele>
        <time>2025-11-05T12:40:45.021Z</time>
      </trkpt>
      <trkpt lat="43.53122" lon="5.54218">
        <ele>364.4</ele>
        <time>2025-11-05T12:40:48.020Z</time>
      </trkpt>
      <trkpt lat="43.53121" lon="5.54223">
        <ele>364.5</ele>
        <time>2025-11-05T12:40:51.020Z</time>
      </trkpt>
      <trkpt lat="43.53121" lon="5.54227">
        <ele>364.5</ele>
        <time>2025-11-05T12:40:54.021Z</time>
      </trkpt>
      <trkpt lat="43.53121" lon="5.54231">
        <ele>364.5</ele>
        <time>2025-11-05T12:40:57.021Z</time>
      </trkpt>
      <trkpt lat="43.53121" lon="5.54234">
        <ele>364.5</ele>
        <time>2025-11-05T12:41:00.021Z</time>
      </trkpt>
      <trkpt lat="43.53122" lon="5.54238">
        <ele>364.6</ele>
        <time>2025-11-05T12:41:09.021Z</time>
      </trkpt>
      <trkpt lat="43.53121" lon="5.54241">
        <ele>364.6</ele>
        <time>2025-11-05T12:41:12.021Z</time>
      </trkpt>
      <trkpt lat="43.53122" lon="5.54247">
        <ele>364.6</ele>
        <time>2025-11-05T12:41:21.021Z</time>
      </trkpt>
      <trkpt lat="43.53122" lon="5.5425">
        <ele>364.6</ele>
        <time>2025-11-05T12:41:24.021Z</time>
      </trkpt>
      <trkpt lat="43.53122" lon="5.54254">
        <ele>364.5</ele>
        <time>2025-11-05T12:41:28.021Z</time>
      </trkpt>
      <trkpt lat="43.53122" lon="5.54258">
        <ele>364.4</ele>
        <time>2025-11-05T12:41:31.020Z</time>
      </trkpt>
      <trkpt lat="43.53121" lon="5.54261">
        <ele>364.4</ele>
        <time>2025-11-05T12:41:35.021Z</time>
      </trkpt>
      <trkpt lat="43.5312" lon="5.54265">
        <ele>364.4</ele>
        <time>2025-11-05T12:41:39.021Z</time>
      </trkpt>
      <trkpt lat="43.53119" lon="5.54268">
        <ele>364.4</ele>
        <time>2025-11-05T12:41:42.020Z</time>
      </trkpt>
      <trkpt lat="43.53118" lon="5.54272">
        <ele>364.3</ele>
        <time>2025-11-05T12:41:46.021Z</time>
      </trkpt>
      <trkpt lat="43.53119" lon="5.54277">
        <ele>364.2</ele>
        <time>2025-11-05T12:41:49.021Z</time>
      </trkpt>
      <trkpt lat="43.53117" lon="5.5428">
        <ele>364.2</ele>
        <time>2025-11-05T12:41:51.020Z</time>
      </trkpt>
      <trkpt lat="43.53116" lon="5.54283">
        <ele>364.1</ele>
        <time>2025-11-05T12:41:53.020Z</time>
      </trkpt>
      <trkpt lat="43.53115" lon="5.54286">
        <ele>364</ele>
        <time>2025-11-05T12:41:56.021Z</time>
      </trkpt>
      <trkpt lat="43.53114" lon="5.54289">
        <ele>363.8</ele>
        <time>2025-11-05T12:42:00.020Z</time>
      </trkpt>
      <trkpt lat="43.53113" lon="5.54293">
        <ele>363.6</ele>
        <time>2025-11-05T12:42:03.021Z</time>
      </trkpt>
      <trkpt lat="43.53113" lon="5.54297">
        <ele>363.4</ele>
        <time>2025-11-05T12:42:07.021Z</time>
      </trkpt>
      <trkpt lat="43.53112" lon="5.54301">
        <ele>363.2</ele>
        <time>2025-11-05T12:42:10.021Z</time>
      </trkpt>
      <trkpt lat="43.53111" lon="5.54305">
        <ele>363</ele>
        <time>2025-11-05T12:42:14.021Z</time>
      </trkpt>
      <trkpt lat="43.5311" lon="5.54308">
        <ele>362.1</ele>
        <time>2025-11-05T12:42:17.020Z</time>
      </trkpt>
      <trkpt lat="43.53109" lon="5.54312">
        <ele>361.4</ele>
        <time>2025-11-05T12:42:20.020Z</time>
      </trkpt>
      <trkpt lat="43.53109" lon="5.54317">
        <ele>360.8</ele>
        <time>2025-11-05T12:42:23.021Z</time>
      </trkpt>
      <trkpt lat="43.53109" lon="5.5432">
        <ele>360.3</ele>
        <time>2025-11-05T12:42:26.021Z</time>
      </trkpt>
      <trkpt lat="43.53109" lon="5.54324">
        <ele>359.8</ele>
        <time>2025-11-05T12:42:28.021Z</time>
      </trkpt>
      <trkpt lat="43.53109" lon="5.54328">
        <ele>359.5</ele>
        <time>2025-11-05T12:42:31.021Z</time>
      </trkpt>
      <trkpt lat="43.53108" lon="5.54332">
        <ele>359</ele>
        <time>2025-11-05T12:42:34.021Z</time>
      </trkpt>
      <trkpt lat="43.53108" lon="5.54336">
        <ele>358.6</ele>
        <time>2025-11-05T12:42:37.020Z</time>
      </trkpt>
      <trkpt lat="43.53108" lon="5.54339">
        <ele>358.4</ele>
        <time>2025-11-05T12:42:39.020Z</time>
      </trkpt>
      <trkpt lat="43.53108" lon="5.54342">
        <ele>358.2</ele>
        <time>2025-11-05T12:42:41.021Z</time>
      </trkpt>
      <trkpt lat="43.53108" lon="5.54346">
        <ele>357.9</ele>
        <time>2025-11-05T12:42:44.021Z</time>
      </trkpt>
      <trkpt lat="43.53108" lon="5.54351">
        <ele>357.5</ele>
        <time>2025-11-05T12:42:47.021Z</time>
      </trkpt>
      <trkpt lat="43.53108" lon="5.54354">
        <ele>357.3</ele>
        <time>2025-11-05T12:42:50.021Z</time>
      </trkpt>
      <trkpt lat="43.53108" lon="5.54358">
        <ele>356.9</ele>
        <time>2025-11-05T12:42:52.021Z</time>
      </trkpt>
      <trkpt lat="43.53107" lon="5.54362">
        <ele>356.5</ele>
        <time>2025-11-05T12:42:54.020Z</time>
      </trkpt>
      <trkpt lat="43.53107" lon="5.54366">
        <ele>356.1</ele>
        <time>2025-11-05T12:42:58.020Z</time>
      </trkpt>
      <trkpt lat="43.53106" lon="5.54369">
        <ele>355.4</ele>
        <time>2025-11-05T12:43:00.021Z</time>
      </trkpt>
      <trkpt lat="43.53105" lon="5.54372">
        <ele>355</ele>
        <time>2025-11-05T12:43:03.020Z</time>
      </trkpt>
      <trkpt lat="43.53104" lon="5.54376">
        <ele>354.5</ele>
        <time>2025-11-05T12:43:06.021Z</time>
      </trkpt>
      <trkpt lat="43.53105" lon="5.5438">
        <ele>354.5</ele>
        <time>2025-11-05T12:43:10.021Z</time>
      </trkpt>
      <trkpt lat="43.53105" lon="5.54383">
        <ele>354.1</ele>
        <time>2025-11-05T12:43:13.021Z</time>
      </trkpt>
      <trkpt lat="43.53104" lon="5.54387">
        <ele>353.5</ele>
        <time>2025-11-05T12:43:16.021Z</time>
      </trkpt>
      <trkpt lat="43.53103" lon="5.54391">
        <ele>353.1</ele>
        <time>2025-11-05T12:43:18.020Z</time>
      </trkpt>
      <trkpt lat="43.53104" lon="5.54395">
        <ele>352.8</ele>
        <time>2025-11-05T12:43:21.021Z</time>
      </trkpt>
      <trkpt lat="43.53104" lon="5.54398">
        <ele>352.5</ele>
        <time>2025-11-05T12:43:24.021Z</time>
      </trkpt>
      <trkpt lat="43.53102" lon="5.54402">
        <ele>351.9</ele>
        <time>2025-11-05T12:43:27.021Z</time>
      </trkpt>
      <trkpt lat="43.53103" lon="5.54405">
        <ele>351.7</ele>
        <time>2025-11-05T12:43:29.020Z</time>
      </trkpt>
      <trkpt lat="43.53103" lon="5.54409">
        <ele>351.6</ele>
        <time>2025-11-05T12:43:33.020Z</time>
      </trkpt>
      <trkpt lat="43.53103" lon="5.54413">
        <ele>351.2</ele>
        <time>2025-11-05T12:43:37.021Z</time>
      </trkpt>
      <trkpt lat="43.53104" lon="5.54417">
        <ele>351.2</ele>
        <time>2025-11-05T12:43:40.020Z</time>
      </trkpt>
      <trkpt lat="43.53103" lon="5.5442">
        <ele>350.9</ele>
        <time>2025-11-05T12:43:42.021Z</time>
      </trkpt>
      <trkpt lat="43.53103" lon="5.54424">
        <ele>350.7</ele>
        <time>2025-11-05T12:43:45.021Z</time>
      </trkpt>
      <trkpt lat="43.53103" lon="5.54429">
        <ele>350.3</ele>
        <time>2025-11-05T12:43:48.020Z</time>
      </trkpt>
      <trkpt lat="43.53103" lon="5.54433">
        <ele>350</ele>
        <time>2025-11-05T12:43:51.021Z</time>
      </trkpt>
      <trkpt lat="43.53102" lon="5.54436">
        <ele>349.7</ele>
        <time>2025-11-05T12:43:53.021Z</time>
      </trkpt>
      <trkpt lat="43.53102" lon="5.54439">
        <ele>349.5</ele>
        <time>2025-11-05T12:43:56.021Z</time>
      </trkpt>
      <trkpt lat="43.53102" lon="5.54443">
        <ele>349.4</ele>
        <time>2025-11-05T12:43:58.021Z</time>
      </trkpt>
      <trkpt lat="43.53102" lon="5.54446">
        <ele>349.3</ele>
        <time>2025-11-05T12:44:00.021Z</time>
      </trkpt>
      <trkpt lat="43.53102" lon="5.54449">
        <ele>349.2</ele>
        <time>2025-11-05T12:44:03.020Z</time>
      </trkpt>
      <trkpt lat="43.53101" lon="5.54452">
        <ele>349</ele>
        <time>2025-11-05T12:44:05.021Z</time>
      </trkpt>
      <trkpt lat="43.53102" lon="5.54455">
        <ele>349</ele>
        <time>2025-11-05T12:44:07.020Z</time>
      </trkpt>
      <trkpt lat="43.53101" lon="5.54459">
        <ele>348.7</ele>
        <time>2025-11-05T12:44:11.020Z</time>
      </trkpt>
      <trkpt lat="43.53102" lon="5.54463">
        <ele>348.7</ele>
        <time>2025-11-05T12:44:14.020Z</time>
      </trkpt>
      <trkpt lat="43.53101" lon="5.54467">
        <ele>348.4</ele>
        <time>2025-11-05T12:44:17.021Z</time>
      </trkpt>
      <trkpt lat="43.531" lon="5.54471">
        <ele>348.1</ele>
        <time>2025-11-05T12:44:21.021Z</time>
      </trkpt>
      <trkpt lat="43.531" lon="5.54475">
        <ele>347.9</ele>
        <time>2025-11-05T12:44:24.020Z</time>
      </trkpt>
      <trkpt lat="43.531" lon="5.54479">
        <ele>347.8</ele>
        <time>2025-11-05T12:44:27.021Z</time>
      </trkpt>
      <trkpt lat="43.531" lon="5.54483">
        <ele>347.7</ele>
        <time>2025-11-05T12:44:30.020Z</time>
      </trkpt>
      <trkpt lat="43.53102" lon="5.54486">
        <ele>347.9</ele>
        <time>2025-11-05T12:44:33.020Z</time>
      </trkpt>
      <trkpt lat="43.53103" lon="5.54489">
        <ele>348.2</ele>
        <time>2025-11-05T12:44:35.020Z</time>
      </trkpt>
      <trkpt lat="43.53106" lon="5.54491">
        <ele>348.8</ele>
        <time>2025-11-05T12:44:38.021Z</time>
      </trkpt>
      <trkpt lat="43.53108" lon="5.54494">
        <ele>349.2</ele>
        <time>2025-11-05T12:44:40.020Z</time>
      </trkpt>
      <trkpt lat="43.53109" lon="5.54498">
        <ele>349.4</ele>
        <time>2025-11-05T12:44:43.020Z</time>
      </trkpt>
      <trkpt lat="43.5311" lon="5.54502">
        <ele>349.6</ele>
        <time>2025-11-05T12:44:47.021Z</time>
      </trkpt>
      <trkpt lat="43.5311" lon="5.54506">
        <ele>349.6</ele>
        <time>2025-11-05T12:44:50.020Z</time>
      </trkpt>
      <trkpt lat="43.53108" lon="5.5451">
        <ele>349.3</ele>
        <time>2025-11-05T12:44:54.021Z</time>
      </trkpt>
      <trkpt lat="43.53107" lon="5.54513">
        <ele>349</ele>
        <time>2025-11-05T12:44:56.020Z</time>
      </trkpt>
      <trkpt lat="43.53106" lon="5.54518">
        <ele>348.7</ele>
        <time>2025-11-05T12:44:59.020Z</time>
      </trkpt>
      <trkpt lat="43.53105" lon="5.54521">
        <ele>348.5</ele>
        <time>2025-11-05T12:45:01.021Z</time>
      </trkpt>
      <trkpt lat="43.53104" lon="5.54524">
        <ele>348.1</ele>
        <time>2025-11-05T12:45:03.020Z</time>
      </trkpt>
      <trkpt lat="43.53103" lon="5.54527">
        <ele>348</ele>
        <time>2025-11-05T12:45:06.021Z</time>
      </trkpt>
      <trkpt lat="43.53102" lon="5.54531">
        <ele>347.7</ele>
        <time>2025-11-05T12:45:10.020Z</time>
      </trkpt>
      <trkpt lat="43.53102" lon="5.54534">
        <ele>347.7</ele>
        <time>2025-11-05T12:45:13.021Z</time>
      </trkpt>
      <trkpt lat="43.53103" lon="5.54538">
        <ele>347.8</ele>
        <time>2025-11-05T12:45:16.021Z</time>
      </trkpt>
      <trkpt lat="43.53102" lon="5.54541">
        <ele>347.5</ele>
        <time>2025-11-05T12:45:19.021Z</time>
      </trkpt>
      <trkpt lat="43.531" lon="5.54543">
        <ele>347.1</ele>
        <time>2025-11-05T12:45:23.020Z</time>
      </trkpt>
      <trkpt lat="43.53097" lon="5.54543">
        <ele>346.5</ele>
        <time>2025-11-05T12:45:35.021Z</time>
      </trkpt>
      <trkpt lat="43.53096" lon="5.54545">
        <ele>346.3</ele>
        <time>2025-11-05T12:46:36.021Z</time>
      </trkpt>
      <trkpt lat="43.53098" lon="5.54546">
        <ele>346.7</ele>
        <time>2025-11-05T12:46:55.020Z</time>
      </trkpt>
      <trkpt lat="43.531" lon="5.54544">
        <ele>347</ele>
        <time>2025-11-05T12:48:26.020Z</time>
      </trkpt>
      <trkpt lat="43.53101" lon="5.5454">
        <ele>347.4</ele>
        <time>2025-11-05T12:48:32.021Z</time>
      </trkpt>
      <trkpt lat="43.53103" lon="5.54537">
        <ele>347.8</ele>
        <time>2025-11-05T12:48:38.021Z</time>
      </trkpt>
      <trkpt lat="43.53106" lon="5.54537">
        <ele>348.4</ele>
        <time>2025-11-05T12:48:41.021Z</time>
      </trkpt>
      <trkpt lat="43.53108" lon="5.54537">
        <ele>349.1</ele>
        <time>2025-11-05T12:48:46.020Z</time>
      </trkpt>
      <trkpt lat="43.53111" lon="5.54537">
        <ele>349.6</ele>
        <time>2025-11-05T12:48:50.021Z</time>
      </trkpt>
      <trkpt lat="43.53114" lon="5.54534">
        <ele>349.3</ele>
        <time>2025-11-05T12:48:54.020Z</time>
      </trkpt>
      <trkpt lat="43.53116" lon="5.54532">
        <ele>349</ele>
        <time>2025-11-05T12:48:56.020Z</time>
      </trkpt>
      <trkpt lat="43.53117" lon="5.54529">
        <ele>348.9</ele>
        <time>2025-11-05T12:49:00.020Z</time>
      </trkpt>
      <trkpt lat="43.53119" lon="5.54526">
        <ele>348.5</ele>
        <time>2025-11-05T12:49:02.021Z</time>
      </trkpt>
      <trkpt lat="43.53121" lon="5.54522">
        <ele>348.1</ele>
        <time>2025-11-05T12:49:05.020Z</time>
      </trkpt>
      <trkpt lat="43.53123" lon="5.5452">
        <ele>347.9</ele>
        <time>2025-11-05T12:49:07.020Z</time>
      </trkpt>
      <trkpt lat="43.53125" lon="5.54518">
        <ele>347.5</ele>
        <time>2025-11-05T12:49:11.020Z</time>
      </trkpt>
      <trkpt lat="43.53127" lon="5.54516">
        <ele>347.1</ele>
        <time>2025-11-05T12:49:14.021Z</time>
      </trkpt>
      <trkpt lat="43.53129" lon="5.54513">
        <ele>346.8</ele>
        <time>2025-11-05T12:49:17.021Z</time>
      </trkpt>
      <trkpt lat="43.5313" lon="5.54509">
        <ele>346.6</ele>
        <time>2025-11-05T12:49:20.020Z</time>
      </trkpt>
      <trkpt lat="43.53131" lon="5.54505">
        <ele>346.4</ele>
        <time>2025-11-05T12:49:23.020Z</time>
      </trkpt>
      <trkpt lat="43.53132" lon="5.54502">
        <ele>346.2</ele>
        <time>2025-11-05T12:49:28.021Z</time>
      </trkpt>
      <trkpt lat="43.53132" lon="5.54498">
        <ele>346.1</ele>
        <time>2025-11-05T12:49:31.021Z</time>
      </trkpt>
      <trkpt lat="43.53133" lon="5.54494">
        <ele>345.8</ele>
        <time>2025-11-05T12:49:33.021Z</time>
      </trkpt>
      <trkpt lat="43.53136" lon="5.54491">
        <ele>345.3</ele>
        <time>2025-11-05T12:49:36.020Z</time>
      </trkpt>
      <trkpt lat="43.53137" lon="5.54488">
        <ele>345</ele>
        <time>2025-11-05T12:49:38.021Z</time>
      </trkpt>
      <trkpt lat="43.53138" lon="5.54485">
        <ele>344.7</ele>
        <time>2025-11-05T12:49:40.021Z</time>
      </trkpt>
      <trkpt lat="43.53141" lon="5.54484">
        <ele>344.2</ele>
        <time>2025-11-05T12:49:43.020Z</time>
      </trkpt>
      <trkpt lat="43.53143" lon="5.54486">
        <ele>344</ele>
        <time>2025-11-05T12:49:46.020Z</time>
      </trkpt>
      <trkpt lat="43.53145" lon="5.54488">
        <ele>343.8</ele>
        <time>2025-11-05T12:49:49.021Z</time>
      </trkpt>
      <trkpt lat="43.53147" lon="5.54492">
        <ele>343.6</ele>
        <time>2025-11-05T12:49:52.020Z</time>
      </trkpt>
      <trkpt lat="43.53149" lon="5.54494">
        <ele>343.5</ele>
        <time>2025-11-05T12:49:54.020Z</time>
      </trkpt>
      <trkpt lat="43.5315" lon="5.54498">
        <ele>343.4</ele>
        <time>2025-11-05T12:49:56.020Z</time>
      </trkpt>
      <trkpt lat="43.53151" lon="5.54501">
        <ele>343.2</ele>
        <time>2025-11-05T12:49:59.021Z</time>
      </trkpt>
      <trkpt lat="43.53154" lon="5.54503">
        <ele>342.8</ele>
        <time>2025-11-05T12:50:02.020Z</time>
      </trkpt>
      <trkpt lat="43.53156" lon="5.54506">
        <ele>342.4</ele>
        <time>2025-11-05T12:50:04.020Z</time>
      </trkpt>
      <trkpt lat="43.53158" lon="5.54508">
        <ele>342</ele>
        <time>2025-11-05T12:50:07.020Z</time>
      </trkpt>
      <trkpt lat="43.5316" lon="5.5451">
        <ele>341.7</ele>
        <time>2025-11-05T12:50:10.020Z</time>
      </trkpt>
      <trkpt lat="43.53162" lon="5.54513">
        <ele>341.4</ele>
        <time>2025-11-05T12:50:13.020Z</time>
      </trkpt>
      <trkpt lat="43.53163" lon="5.54516">
        <ele>341</ele>
        <time>2025-11-05T12:50:17.020Z</time>
      </trkpt>
      <trkpt lat="43.53165" lon="5.5452">
        <ele>340.6</ele>
        <time>2025-11-05T12:50:20.020Z</time>
      </trkpt>
      <trkpt lat="43.53167" lon="5.54522">
        <ele>340.1</ele>
        <time>2025-11-05T12:50:23.021Z</time>
      </trkpt>
      <trkpt lat="43.5317" lon="5.54524">
        <ele>339.3</ele>
        <time>2025-11-05T12:50:26.021Z</time>
      </trkpt>
      <trkpt lat="43.53172" lon="5.54526">
        <ele>338.6</ele>
        <time>2025-11-05T12:50:28.021Z</time>
      </trkpt>
      <trkpt lat="43.53174" lon="5.54527">
        <ele>338</ele>
        <time>2025-11-05T12:50:31.020Z</time>
      </trkpt>
      <trkpt lat="43.53177" lon="5.54529">
        <ele>337.1</ele>
        <time>2025-11-05T12:50:35.021Z</time>
      </trkpt>
      <trkpt lat="43.53179" lon="5.5453">
        <ele>336.4</ele>
        <time>2025-11-05T12:50:38.021Z</time>
      </trkpt>
      <trkpt lat="43.53181" lon="5.54533">
        <ele>335.8</ele>
        <time>2025-11-05T12:50:42.020Z</time>
      </trkpt>
      <trkpt lat="43.53183" lon="5.54536">
        <ele>335.5</ele>
        <time>2025-11-05T12:50:46.020Z</time>
      </trkpt>
      <trkpt lat="43.53184" lon="5.5454">
        <ele>335.2</ele>
        <time>2025-11-05T12:50:50.020Z</time>
      </trkpt>
      <trkpt lat="43.53182" lon="5.54543">
        <ele>335.5</ele>
        <time>2025-11-05T12:50:52.020Z</time>
      </trkpt>
      <trkpt lat="43.53181" lon="5.54546">
        <ele>335.9</ele>
        <time>2025-11-05T12:50:54.020Z</time>
      </trkpt>
      <trkpt lat="43.5318" lon="5.5455">
        <ele>336.2</ele>
        <time>2025-11-05T12:50:57.020Z</time>
      </trkpt>
      <trkpt lat="43.5318" lon="5.54554">
        <ele>336.2</ele>
        <time>2025-11-05T12:51:00.020Z</time>
      </trkpt>
      <trkpt lat="43.5318" lon="5.54557">
        <ele>336.1</ele>
        <time>2025-11-05T12:51:02.021Z</time>
      </trkpt>
      <trkpt lat="43.53179" lon="5.54561">
        <ele>335.8</ele>
        <time>2025-11-05T12:51:15.020Z</time>
      </trkpt>
      <trkpt lat="43.53181" lon="5.54564">
        <ele>335.2</ele>
        <time>2025-11-05T12:51:30.020Z</time>
      </trkpt>
      <trkpt lat="43.53183" lon="5.54566">
        <ele>334.6</ele>
        <time>2025-11-05T12:51:35.020Z</time>
      </trkpt>
      <trkpt lat="43.53181" lon="5.54569">
        <ele>334.6</ele>
        <time>2025-11-05T12:51:41.020Z</time>
      </trkpt>
      <trkpt lat="43.53181" lon="5.54572">
        <ele>334.4</ele>
        <time>2025-11-05T12:51:45.020Z</time>
      </trkpt>
      <trkpt lat="43.5318" lon="5.54576">
        <ele>334.2</ele>
        <time>2025-11-05T12:51:50.021Z</time>
      </trkpt>
      <trkpt lat="43.53181" lon="5.54579">
        <ele>333.8</ele>
        <time>2025-11-05T12:51:54.020Z</time>
      </trkpt>
      <trkpt lat="43.53181" lon="5.54582">
        <ele>333.5</ele>
        <time>2025-11-05T12:52:04.020Z</time>
      </trkpt>
      <trkpt lat="43.53181" lon="5.54586">
        <ele>333.2</ele>
        <time>2025-11-05T12:52:10.020Z</time>
      </trkpt>
      <trkpt lat="43.53182" lon="5.54589">
        <ele>332.9</ele>
        <time>2025-11-05T12:52:14.020Z</time>
      </trkpt>
      <trkpt lat="43.53182" lon="5.54594">
        <ele>332.6</ele>
        <time>2025-11-05T12:52:21.020Z</time>
      </trkpt>
      <trkpt lat="43.53182" lon="5.54599">
        <ele>332.3</ele>
        <time>2025-11-05T12:52:30.021Z</time>
      </trkpt>
      <trkpt lat="43.53182" lon="5.54602">
        <ele>332.3</ele>
        <time>2025-11-05T12:52:33.020Z</time>
      </trkpt>
      <trkpt lat="43.53182" lon="5.54605">
        <ele>332</ele>
        <time>2025-11-05T12:52:37.020Z</time>
      </trkpt>
      <trkpt lat="43.53183" lon="5.54609">
        <ele>331.7</ele>
        <time>2025-11-05T12:52:41.021Z</time>
      </trkpt>
      <trkpt lat="43.53184" lon="5.54612">
        <ele>331.3</ele>
        <time>2025-11-05T12:52:43.020Z</time>
      </trkpt>
      <trkpt lat="43.53184" lon="5.54615">
        <ele>331</ele>
        <time>2025-11-05T12:52:46.020Z</time>
      </trkpt>
      <trkpt lat="43.53184" lon="5.54619">
        <ele>330.6</ele>
        <time>2025-11-05T12:52:52.020Z</time>
      </trkpt>
      <trkpt lat="43.53185" lon="5.54622">
        <ele>330.1</ele>
        <time>2025-11-05T12:52:55.020Z</time>
      </trkpt>
      <trkpt lat="43.53186" lon="5.54625">
        <ele>329.6</ele>
        <time>2025-11-05T12:52:58.020Z</time>
      </trkpt>
      <trkpt lat="43.53186" lon="5.5463">
        <ele>329.2</ele>
        <time>2025-11-05T12:53:01.020Z</time>
      </trkpt>
      <trkpt lat="43.53187" lon="5.54633">
        <ele>328.8</ele>
        <time>2025-11-05T12:53:04.021Z</time>
      </trkpt>
      <trkpt lat="43.53186" lon="5.54637">
        <ele>328.7</ele>
        <time>2025-11-05T12:53:08.020Z</time>
      </trkpt>
      <trkpt lat="43.53186" lon="5.54641">
        <ele>328.3</ele>
        <time>2025-11-05T12:53:11.020Z</time>
      </trkpt>
      <trkpt lat="43.53187" lon="5.54645">
        <ele>327.9</ele>
        <time>2025-11-05T12:53:14.020Z</time>
      </trkpt>
      <trkpt lat="43.53187" lon="5.54649">
        <ele>327.7</ele>
        <time>2025-11-05T12:53:18.021Z</time>
      </trkpt>
      <trkpt lat="43.53187" lon="5.54653">
        <ele>327.4</ele>
        <time>2025-11-05T12:53:21.020Z</time>
      </trkpt>
      <trkpt lat="43.53187" lon="5.54657">
        <ele>327.1</ele>
        <time>2025-11-05T12:53:24.021Z</time>
      </trkpt>
      <trkpt lat="43.53187" lon="5.54661">
        <ele>326.8</ele>
        <time>2025-11-05T12:53:28.020Z</time>
      </trkpt>
      <trkpt lat="43.53188" lon="5.54665">
        <ele>326.4</ele>
        <time>2025-11-05T12:53:32.021Z</time>
      </trkpt>
      <trkpt lat="43.53187" lon="5.54668">
        <ele>326.3</ele>
        <time>2025-11-05T12:53:35.021Z</time>
      </trkpt>
      <trkpt lat="43.53186" lon="5.54672">
        <ele>326</ele>
        <time>2025-11-05T12:53:38.020Z</time>
      </trkpt>
      <trkpt lat="43.53186" lon="5.54676">
        <ele>325.7</ele>
        <time>2025-11-05T12:53:41.020Z</time>
      </trkpt>
      <trkpt lat="43.53186" lon="5.5468">
        <ele>325.4</ele>
        <time>2025-11-05T12:53:44.020Z</time>
      </trkpt>
      <trkpt lat="43.53187" lon="5.54684">
        <ele>325</ele>
        <time>2025-11-05T12:53:47.020Z</time>
      </trkpt>
      <trkpt lat="43.53188" lon="5.54686">
        <ele>324.6</ele>
        <time>2025-11-05T12:53:58.020Z</time>
      </trkpt>
      <trkpt lat="43.53188" lon="5.5469">
        <ele>324.2</ele>
        <time>2025-11-05T12:54:03.020Z</time>
      </trkpt>
      <trkpt lat="43.53188" lon="5.54694">
        <ele>324</ele>
        <time>2025-11-05T12:54:05.020Z</time>
      </trkpt>
      <trkpt lat="43.53187" lon="5.54697">
        <ele>323.9</ele>
        <time>2025-11-05T12:54:07.020Z</time>
      </trkpt>
      <trkpt lat="43.53187" lon="5.54701">
        <ele>323.7</ele>
        <time>2025-11-05T12:54:09.021Z</time>
      </trkpt>
      <trkpt lat="43.53187" lon="5.54704">
        <ele>323.5</ele>
        <time>2025-11-05T12:54:11.020Z</time>
      </trkpt>
      <trkpt lat="43.53189" lon="5.54706">
        <ele>323.2</ele>
        <time>2025-11-05T12:54:13.021Z</time>
      </trkpt>
      <trkpt lat="43.53191" lon="5.5471">
        <ele>322.8</ele>
        <time>2025-11-05T12:54:16.021Z</time>
      </trkpt>
      <trkpt lat="43.53192" lon="5.54713">
        <ele>322.5</ele>
        <time>2025-11-05T12:54:19.021Z</time>
      </trkpt>
      <trkpt lat="43.53194" lon="5.54717">
        <ele>322.3</ele>
        <time>2025-11-05T12:54:23.020Z</time>
      </trkpt>
      <trkpt lat="43.53196" lon="5.5472">
        <ele>321.7</ele>
        <time>2025-11-05T12:54:27.020Z</time>
      </trkpt>
      <trkpt lat="43.53197" lon="5.54722">
        <ele>321</ele>
        <time>2025-11-05T12:54:29.020Z</time>
      </trkpt>
      <trkpt lat="43.53199" lon="5.54725">
        <ele>319.9</ele>
        <time>2025-11-05T12:54:32.021Z</time>
      </trkpt>
      <trkpt lat="43.53202" lon="5.54728">
        <ele>318.8</ele>
        <time>2025-11-05T12:54:35.020Z</time>
      </trkpt>
      <trkpt lat="43.53203" lon="5.54731">
        <ele>318</ele>
        <time>2025-11-05T12:54:38.020Z</time>
      </trkpt>
      <trkpt lat="43.53203" lon="5.54735">
        <ele>317.6</ele>
        <time>2025-11-05T12:54:42.020Z</time>
      </trkpt>
      <trkpt lat="43.53204" lon="5.54738">
        <ele>317</ele>
        <time>2025-11-05T12:54:45.020Z</time>
      </trkpt>
      <trkpt lat="43.53205" lon="5.54742">
        <ele>316.3</ele>
        <time>2025-11-05T12:54:48.020Z</time>
      </trkpt>
      <trkpt lat="43.53206" lon="5.54745">
        <ele>315.8</ele>
        <time>2025-11-05T12:54:52.020Z</time>
      </trkpt>
      <trkpt lat="43.53206" lon="5.5475">
        <ele>315.5</ele>
        <time>2025-11-05T12:54:54.020Z</time>
      </trkpt>
      <trkpt lat="43.53206" lon="5.54754">
        <ele>314.5</ele>
        <time>2025-11-05T12:54:56.021Z</time>
      </trkpt>
      <trkpt lat="43.53206" lon="5.54757">
        <ele>313.8</ele>
        <time>2025-11-05T12:54:59.020Z</time>
      </trkpt>
      <trkpt lat="43.53206" lon="5.5476">
        <ele>313</ele>
        <time>2025-11-05T12:55:03.021Z</time>
      </trkpt>
      <trkpt lat="43.53206" lon="5.54764">
        <ele>312.3</ele>
        <time>2025-11-05T12:55:07.020Z</time>
      </trkpt>
      <trkpt lat="43.53206" lon="5.54767">
        <ele>311.5</ele>
        <time>2025-11-05T12:55:11.020Z</time>
      </trkpt>
      <trkpt lat="43.53206" lon="5.54771">
        <ele>310.6</ele>
        <time>2025-11-05T12:55:27.020Z</time>
      </trkpt>
      <trkpt lat="43.53205" lon="5.54775">
        <ele>310.3</ele>
        <time>2025-11-05T12:55:30.021Z</time>
      </trkpt>
      <trkpt lat="43.53204" lon="5.54778">
        <ele>310</ele>
        <time>2025-11-05T12:55:33.020Z</time>
      </trkpt>
      <trkpt lat="43.53203" lon="5.54781">
        <ele>309.5</ele>
        <time>2025-11-05T12:55:37.020Z</time>
      </trkpt>
      <trkpt lat="43.53201" lon="5.54784">
        <ele>309.3</ele>
        <time>2025-11-05T12:55:41.020Z</time>
      </trkpt>
      <trkpt lat="43.53199" lon="5.54787">
        <ele>309.1</ele>
        <time>2025-11-05T12:55:44.020Z</time>
      </trkpt>
      <trkpt lat="43.53198" lon="5.5479">
        <ele>308.8</ele>
        <time>2025-11-05T12:55:47.020Z</time>
      </trkpt>
      <trkpt lat="43.53198" lon="5.54793">
        <ele>308.3</ele>
        <time>2025-11-05T12:55:50.020Z</time>
      </trkpt>
      <trkpt lat="43.53196" lon="5.54796">
        <ele>308.1</ele>
        <time>2025-11-05T12:55:53.020Z</time>
      </trkpt>
      <trkpt lat="43.53193" lon="5.54798">
        <ele>307.7</ele>
        <time>2025-11-05T12:55:57.020Z</time>
      </trkpt>
      <trkpt lat="43.5319" lon="5.548">
        <ele>307</ele>
        <time>2025-11-05T12:56:00.021Z</time>
      </trkpt>
      <trkpt lat="43.53188" lon="5.54801">
        <ele>306.2</ele>
        <time>2025-11-05T12:56:06.020Z</time>
      </trkpt>
      <trkpt lat="43.53185" lon="5.54803">
        <ele>305.5</ele>
        <time>2025-11-05T12:56:10.020Z</time>
      </trkpt>
      <trkpt lat="43.53182" lon="5.54804">
        <ele>304.8</ele>
        <time>2025-11-05T12:56:15.021Z</time>
      </trkpt>
      <trkpt lat="43.5318" lon="5.54804">
        <ele>304.4</ele>
        <time>2025-11-05T12:56:18.021Z</time>
      </trkpt>
      <trkpt lat="43.53177" lon="5.54802">
        <ele>304.6</ele>
        <time>2025-11-05T12:56:21.020Z</time>
      </trkpt>
      <trkpt lat="43.53175" lon="5.54803">
        <ele>304.1</ele>
        <time>2025-11-05T12:56:24.020Z</time>
      </trkpt>
      <trkpt lat="43.53172" lon="5.54802">
        <ele>303.9</ele>
        <time>2025-11-05T12:56:27.020Z</time>
      </trkpt>
      <trkpt lat="43.5317" lon="5.54801">
        <ele>304.1</ele>
        <time>2025-11-05T12:56:30.020Z</time>
      </trkpt>
      <trkpt lat="43.53167" lon="5.548">
        <ele>304.2</ele>
        <time>2025-11-05T12:56:33.020Z</time>
      </trkpt>
      <trkpt lat="43.53165" lon="5.54798">
        <ele>304.4</ele>
        <time>2025-11-05T12:56:36.020Z</time>
      </trkpt>
      <trkpt lat="43.53162" lon="5.54799">
        <ele>303.8</ele>
        <time>2025-11-05T12:56:39.020Z</time>
      </trkpt>
      <trkpt lat="43.5316" lon="5.54798">
        <ele>303.8</ele>
        <time>2025-11-05T12:56:44.020Z</time>
      </trkpt>
      <trkpt lat="43.53157" lon="5.54798">
        <ele>303.5</ele>
        <time>2025-11-05T12:56:47.020Z</time>
      </trkpt>
      <trkpt lat="43.53154" lon="5.54799">
        <ele>302.5</ele>
        <time>2025-11-05T12:56:52.021Z</time>
      </trkpt>
      <trkpt lat="43.53152" lon="5.548">
        <ele>301.4</ele>
        <time>2025-11-05T12:56:59.021Z</time>
      </trkpt>
      <trkpt lat="43.53148" lon="5.548">
        <ele>301</ele>
        <time>2025-11-05T12:57:02.020Z</time>
      </trkpt>
      <trkpt lat="43.53145" lon="5.54802">
        <ele>299.8</ele>
        <time>2025-11-05T12:57:05.020Z</time>
      </trkpt>
      <trkpt lat="43.53142" lon="5.54803">
        <ele>298.8</ele>
        <time>2025-11-05T12:57:12.021Z</time>
      </trkpt>
      <trkpt lat="43.53139" lon="5.54804">
        <ele>297.9</ele>
        <time>2025-11-05T12:57:14.021Z</time>
      </trkpt>
      <trkpt lat="43.53136" lon="5.54805">
        <ele>297.1</ele>
        <time>2025-11-05T12:57:18.020Z</time>
      </trkpt>
      <trkpt lat="43.53133" lon="5.54805">
        <ele>296.7</ele>
        <time>2025-11-05T12:57:21.020Z</time>
      </trkpt>
      <trkpt lat="43.5313" lon="5.54806">
        <ele>296</ele>
        <time>2025-11-05T12:57:24.020Z</time>
      </trkpt>
      <trkpt lat="43.53128" lon="5.54808">
        <ele>295.2</ele>
        <time>2025-11-05T12:57:27.021Z</time>
      </trkpt>
      <trkpt lat="43.53126" lon="5.54808">
        <ele>295</ele>
        <time>2025-11-05T12:57:31.020Z</time>
      </trkpt>
      <trkpt lat="43.53123" lon="5.54808">
        <ele>294.7</ele>
        <time>2025-11-05T12:57:35.020Z</time>
      </trkpt>
      <trkpt lat="43.5312" lon="5.54809">
        <ele>294.4</ele>
        <time>2025-11-05T12:57:39.020Z</time>
      </trkpt>
      <trkpt lat="43.53118" lon="5.54809">
        <ele>294.3</ele>
        <time>2025-11-05T12:57:41.021Z</time>
      </trkpt>
      <trkpt lat="43.53115" lon="5.54809">
        <ele>293.9</ele>
        <time>2025-11-05T12:57:43.021Z</time>
      </trkpt>
      <trkpt lat="43.53113" lon="5.54812">
        <ele>292.6</ele>
        <time>2025-11-05T12:57:47.020Z</time>
      </trkpt>
      <trkpt lat="43.53111" lon="5.54813">
        <ele>292</ele>
        <time>2025-11-05T12:57:50.020Z</time>
      </trkpt>
      <trkpt lat="43.53108" lon="5.54814">
        <ele>291.3</ele>
        <time>2025-11-05T12:57:55.020Z</time>
      </trkpt>
      <trkpt lat="43.53105" lon="5.54818">
        <ele>290</ele>
        <time>2025-11-05T12:58:00.020Z</time>
      </trkpt>
      <trkpt lat="43.53103" lon="5.54819">
        <ele>289.5</ele>
        <time>2025-11-05T12:58:02.020Z</time>
      </trkpt>
      <trkpt lat="43.531" lon="5.54819">
        <ele>289.3</ele>
        <time>2025-11-05T12:58:04.020Z</time>
      </trkpt>
      <trkpt lat="43.53097" lon="5.5482">
        <ele>288.8</ele>
        <time>2025-11-05T12:58:07.020Z</time>
      </trkpt>
      <trkpt lat="43.53094" lon="5.5482">
        <ele>288.7</ele>
        <time>2025-11-05T12:58:09.020Z</time>
      </trkpt>
      <trkpt lat="43.53092" lon="5.5482">
        <ele>288.7</ele>
        <time>2025-11-05T12:58:12.020Z</time>
      </trkpt>
      <trkpt lat="43.53089" lon="5.54821">
        <ele>288.2</ele>
        <time>2025-11-05T12:58:15.020Z</time>
      </trkpt>
      <trkpt lat="43.53086" lon="5.54822">
        <ele>287.8</ele>
        <time>2025-11-05T12:58:19.020Z</time>
      </trkpt>
      <trkpt lat="43.53083" lon="5.54819">
        <ele>288.5</ele>
        <time>2025-11-05T12:58:22.020Z</time>
      </trkpt>
      <trkpt lat="43.53081" lon="5.54819">
        <ele>288.4</ele>
        <time>2025-11-05T12:58:26.021Z</time>
      </trkpt>
      <trkpt lat="43.53078" lon="5.5482">
        <ele>288.2</ele>
        <time>2025-11-05T12:58:29.020Z</time>
      </trkpt>
      <trkpt lat="43.53075" lon="5.54821">
        <ele>287.8</ele>
        <time>2025-11-05T12:58:32.021Z</time>
      </trkpt>
      <trkpt lat="43.53072" lon="5.54822">
        <ele>287.4</ele>
        <time>2025-11-05T12:58:37.020Z</time>
      </trkpt>
      <trkpt lat="43.53069" lon="5.54822">
        <ele>287.3</ele>
        <time>2025-11-05T12:58:39.020Z</time>
      </trkpt>
      <trkpt lat="43.53067" lon="5.54823">
        <ele>286.9</ele>
        <time>2025-11-05T12:58:41.021Z</time>
      </trkpt>
      <trkpt lat="43.53065" lon="5.54825">
        <ele>286.3</ele>
        <time>2025-11-05T12:58:43.020Z</time>
      </trkpt>
      <trkpt lat="43.53064" lon="5.54828">
        <ele>285.5</ele>
        <time>2025-11-05T12:58:45.020Z</time>
      </trkpt>
      <trkpt lat="43.53062" lon="5.5483">
        <ele>284.8</ele>
        <time>2025-11-05T12:58:49.020Z</time>
      </trkpt>
      <trkpt lat="43.53061" lon="5.54834">
        <ele>283.9</ele>
        <time>2025-11-05T12:58:52.021Z</time>
      </trkpt>
      <trkpt lat="43.5306" lon="5.54837">
        <ele>283.4</ele>
        <time>2025-11-05T12:58:56.020Z</time>
      </trkpt>
      <trkpt lat="43.53058" lon="5.54842">
        <ele>282.7</ele>
        <time>2025-11-05T12:59:01.020Z</time>
      </trkpt>
      <trkpt lat="43.53056" lon="5.54845">
        <ele>282.3</ele>
        <time>2025-11-05T12:59:04.020Z</time>
      </trkpt>
      <trkpt lat="43.53053" lon="5.54847">
        <ele>281.8</ele>
        <time>2025-11-05T12:59:07.020Z</time>
      </trkpt>
      <trkpt lat="43.53051" lon="5.5485">
        <ele>281.2</ele>
        <time>2025-11-05T12:59:09.020Z</time>
      </trkpt>
      <trkpt lat="43.53049" lon="5.54852">
        <ele>280.7</ele>
        <time>2025-11-05T12:59:13.020Z</time>
      </trkpt>
      <trkpt lat="43.53047" lon="5.54855">
        <ele>280.1</ele>
        <time>2025-11-05T12:59:16.020Z</time>
      </trkpt>
      <trkpt lat="43.53046" lon="5.54858">
        <ele>279.4</ele>
        <time>2025-11-05T12:59:19.021Z</time>
      </trkpt>
      <trkpt lat="43.53044" lon="5.54861">
        <ele>278.7</ele>
        <time>2025-11-05T12:59:23.020Z</time>
      </trkpt>
      <trkpt lat="43.53041" lon="5.54863">
        <ele>278.3</ele>
        <time>2025-11-05T12:59:26.020Z</time>
      </trkpt>
      <trkpt lat="43.53039" lon="5.54865">
        <ele>277.9</ele>
        <time>2025-11-05T12:59:29.021Z</time>
      </trkpt>
      <trkpt lat="43.53038" lon="5.54869">
        <ele>277.5</ele>
        <time>2025-11-05T12:59:34.020Z</time>
      </trkpt>
      <trkpt lat="43.53035" lon="5.5487">
        <ele>277.2</ele>
        <time>2025-11-05T12:59:37.021Z</time>
      </trkpt>
      <trkpt lat="43.53033" lon="5.54872">
        <ele>276.8</ele>
        <time>2025-11-05T12:59:39.020Z</time>
      </trkpt>
      <trkpt lat="43.53031" lon="5.54874">
        <ele>276.4</ele>
        <time>2025-11-05T12:59:41.020Z</time>
      </trkpt>
      <trkpt lat="43.53029" lon="5.54876">
        <ele>276</ele>
        <time>2025-11-05T12:59:44.020Z</time>
      </trkpt>
      <trkpt lat="43.53027" lon="5.54877">
        <ele>275.8</ele>
        <time>2025-11-05T12:59:47.020Z</time>
      </trkpt>
      <trkpt lat="43.53024" lon="5.54881">
        <ele>275.5</ele>
        <time>2025-11-05T12:59:50.020Z</time>
      </trkpt>
      <trkpt lat="43.53023" lon="5.54885">
        <ele>275.1</ele>
        <time>2025-11-05T12:59:55.020Z</time>
      </trkpt>
      <trkpt lat="43.53021" lon="5.54888">
        <ele>274.9</ele>
        <time>2025-11-05T12:59:59.020Z</time>
      </trkpt>
      <trkpt lat="43.53019" lon="5.54891">
        <ele>274.7</ele>
        <time>2025-11-05T13:00:02.020Z</time>
      </trkpt>
      <trkpt lat="43.53017" lon="5.54893">
        <ele>274.7</ele>
        <time>2025-11-05T13:00:05.020Z</time>
      </trkpt>
      <trkpt lat="43.53014" lon="5.54895">
        <ele>274.5</ele>
        <time>2025-11-05T13:00:12.020Z</time>
      </trkpt>
      <trkpt lat="43.53014" lon="5.54898">
        <ele>274.5</ele>
        <time>2025-11-05T13:01:16.020Z</time>
      </trkpt>
      <trkpt lat="43.53013" lon="5.54902">
        <ele>274.4</ele>
        <time>2025-11-05T13:01:38.020Z</time>
      </trkpt>
      <trkpt lat="43.53013" lon="5.54906">
        <ele>274.4</ele>
        <time>2025-11-05T13:01:41.020Z</time>
      </trkpt>
      <trkpt lat="43.53013" lon="5.54909">
        <ele>274.4</ele>
        <time>2025-11-05T13:01:43.020Z</time>
      </trkpt>
      <trkpt lat="43.53012" lon="5.54913">
        <ele>274.4</ele>
        <time>2025-11-05T13:01:45.020Z</time>
      </trkpt>
      <trkpt lat="43.53012" lon="5.54917">
        <ele>274.3</ele>
        <time>2025-11-05T13:01:48.020Z</time>
      </trkpt>
      <trkpt lat="43.53011" lon="5.54921">
        <ele>274.3</ele>
        <time>2025-11-05T13:01:51.021Z</time>
      </trkpt>
      <trkpt lat="43.53011" lon="5.54925">
        <ele>274.3</ele>
        <time>2025-11-05T13:02:00.020Z</time>
      </trkpt>
      <trkpt lat="43.53009" lon="5.54929">
        <ele>274.2</ele>
        <time>2025-11-05T13:02:02.020Z</time>
      </trkpt>
      <trkpt lat="43.53007" lon="5.54931">
        <ele>274.1</ele>
        <time>2025-11-05T13:02:06.020Z</time>
      </trkpt>
      <trkpt lat="43.53005" lon="5.54933">
        <ele>274.1</ele>
        <time>2025-11-05T13:02:10.020Z</time>
      </trkpt>
      <trkpt lat="43.53004" lon="5.54936">
        <ele>274</ele>
        <time>2025-11-05T13:02:13.019Z</time>
      </trkpt>
      <trkpt lat="43.53001" lon="5.54937">
        <ele>273.8</ele>
        <time>2025-11-05T13:02:15.020Z</time>
      </trkpt>
      <trkpt lat="43.53001" lon="5.54941">
        <ele>274</ele>
        <time>2025-11-05T13:02:17.020Z</time>
      </trkpt>
      <trkpt lat="43.52999" lon="5.54943">
        <ele>273.9</ele>
        <time>2025-11-05T13:02:21.020Z</time>
      </trkpt>
      <trkpt lat="43.52996" lon="5.54944">
        <ele>273.9</ele>
        <time>2025-11-05T13:02:24.020Z</time>
      </trkpt>
      <trkpt lat="43.52993" lon="5.54944">
        <ele>273.7</ele>
        <time>2025-11-05T13:02:32.020Z</time>
      </trkpt>
      <trkpt lat="43.5299" lon="5.54944">
        <ele>273.6</ele>
        <time>2025-11-05T13:02:35.020Z</time>
      </trkpt>
      <trkpt lat="43.52987" lon="5.54945">
        <ele>273.5</ele>
        <time>2025-11-05T13:02:37.020Z</time>
      </trkpt>
      <trkpt lat="43.52985" lon="5.54944">
        <ele>273.4</ele>
        <time>2025-11-05T13:02:40.020Z</time>
      </trkpt>
      <trkpt lat="43.52982" lon="5.54943">
        <ele>273.3</ele>
        <time>2025-11-05T13:02:42.020Z</time>
      </trkpt>
      <trkpt lat="43.5298" lon="5.54942">
        <ele>273.2</ele>
        <time>2025-11-05T13:02:44.020Z</time>
      </trkpt>
      <trkpt lat="43.52977" lon="5.54941">
        <ele>273.1</ele>
        <time>2025-11-05T13:02:48.020Z</time>
      </trkpt>
      <trkpt lat="43.52974" lon="5.5494">
        <ele>273</ele>
        <time>2025-11-05T13:02:51.020Z</time>
      </trkpt>
      <trkpt lat="43.52971" lon="5.54941">
        <ele>273</ele>
        <time>2025-11-05T13:02:54.020Z</time>
      </trkpt>
      <trkpt lat="43.52969" lon="5.54944">
        <ele>272.9</ele>
        <time>2025-11-05T13:02:57.020Z</time>
      </trkpt>
      <trkpt lat="43.52967" lon="5.54945">
        <ele>272.8</ele>
        <time>2025-11-05T13:02:59.021Z</time>
      </trkpt>
      <trkpt lat="43.52964" lon="5.54948">
        <ele>272.6</ele>
        <time>2025-11-05T13:03:02.020Z</time>
      </trkpt>
      <trkpt lat="43.52962" lon="5.54949">
        <ele>272.5</ele>
        <time>2025-11-05T13:03:04.020Z</time>
      </trkpt>
      <trkpt lat="43.5296" lon="5.54951">
        <ele>272.3</ele>
        <time>2025-11-05T13:03:08.020Z</time>
      </trkpt>
      <trkpt lat="43.52958" lon="5.54952">
        <ele>272.2</ele>
        <time>2025-11-05T13:03:11.020Z</time>
      </trkpt>
      <trkpt lat="43.52955" lon="5.54953">
        <ele>272.1</ele>
        <time>2025-11-05T13:03:14.020Z</time>
      </trkpt>
      <trkpt lat="43.52952" lon="5.54954">
        <ele>271.9</ele>
        <time>2025-11-05T13:03:18.020Z</time>
      </trkpt>
      <trkpt lat="43.5295" lon="5.54954">
        <ele>271.8</ele>
        <time>2025-11-05T13:03:20.020Z</time>
      </trkpt>
      <trkpt lat="43.52946" lon="5.54955">
        <ele>271.7</ele>
        <time>2025-11-05T13:03:23.020Z</time>
      </trkpt>
      <trkpt lat="43.52944" lon="5.54957">
        <ele>271.6</ele>
        <time>2025-11-05T13:03:25.020Z</time>
      </trkpt>
      <trkpt lat="43.52942" lon="5.54959">
        <ele>271.6</ele>
        <time>2025-11-05T13:03:27.020Z</time>
      </trkpt>
      <trkpt lat="43.52939" lon="5.54961">
        <ele>271.8</ele>
        <time>2025-11-05T13:03:30.020Z</time>
      </trkpt>
      <trkpt lat="43.52936" lon="5.54962">
        <ele>272.1</ele>
        <time>2025-11-05T13:03:43.020Z</time>
      </trkpt>
      <trkpt lat="43.52934" lon="5.5496">
        <ele>272.2</ele>
        <time>2025-11-05T13:03:48.020Z</time>
      </trkpt>
      <trkpt lat="43.52932" lon="5.54958">
        <ele>272.1</ele>
        <time>2025-11-05T13:03:51.020Z</time>
      </trkpt>
      <trkpt lat="43.52932" lon="5.54955">
        <ele>271.9</ele>
        <time>2025-11-05T13:03:54.021Z</time>
      </trkpt>
      <trkpt lat="43.5293" lon="5.54951">
        <ele>271.6</ele>
        <time>2025-11-05T13:03:57.020Z</time>
      </trkpt>
      <trkpt lat="43.52928" lon="5.54948">
        <ele>271.2</ele>
        <time>2025-11-05T13:04:00.020Z</time>
      </trkpt>
      <trkpt lat="43.52927" lon="5.54945">
        <ele>270.8</ele>
        <time>2025-11-05T13:04:03.020Z</time>
      </trkpt>
      <trkpt lat="43.52924" lon="5.54944">
        <ele>270.6</ele>
        <time>2025-11-05T13:04:07.020Z</time>
      </trkpt>
      <trkpt lat="43.52923" lon="5.54942">
        <ele>270.4</ele>
        <time>2025-11-05T13:04:22.020Z</time>
      </trkpt>
      <trkpt lat="43.5292" lon="5.54942">
        <ele>270.2</ele>
        <time>2025-11-05T13:04:25.020Z</time>
      </trkpt>
      <trkpt lat="43.52918" lon="5.54942">
        <ele>270.1</ele>
        <time>2025-11-05T13:04:28.020Z</time>
      </trkpt>
      <trkpt lat="43.52915" lon="5.54942">
        <ele>270.1</ele>
        <time>2025-11-05T13:04:33.020Z</time>
      </trkpt>
      <trkpt lat="43.52914" lon="5.54939">
        <ele>270.1</ele>
        <time>2025-11-05T13:04:38.020Z</time>
      </trkpt>
      <trkpt lat="43.52911" lon="5.54938">
        <ele>270.2</ele>
        <time>2025-11-05T13:04:41.020Z</time>
      </trkpt>
      <trkpt lat="43.5291" lon="5.54934">
        <ele>270.3</ele>
        <time>2025-11-05T13:04:44.020Z</time>
      </trkpt>
      <trkpt lat="43.52908" lon="5.54931">
        <ele>270.3</ele>
        <time>2025-11-05T13:04:46.020Z</time>
      </trkpt>
      <trkpt lat="43.52906" lon="5.5493">
        <ele>270.4</ele>
        <time>2025-11-05T13:04:48.020Z</time>
      </trkpt>
      <trkpt lat="43.52903" lon="5.54927">
        <ele>270.5</ele>
        <time>2025-11-05T13:04:51.020Z</time>
      </trkpt>
      <trkpt lat="43.52901" lon="5.54925">
        <ele>270.6</ele>
        <time>2025-11-05T13:04:55.020Z</time>
      </trkpt>
      <trkpt lat="43.52898" lon="5.54923">
        <ele>270.7</ele>
        <time>2025-11-05T13:04:58.020Z</time>
      </trkpt>
      <trkpt lat="43.52896" lon="5.54919">
        <ele>270.7</ele>
        <time>2025-11-05T13:05:01.020Z</time>
      </trkpt>
      <trkpt lat="43.52894" lon="5.54917">
        <ele>270.8</ele>
        <time>2025-11-05T13:05:04.020Z</time>
      </trkpt>
      <trkpt lat="43.52891" lon="5.54915">
        <ele>270.9</ele>
        <time>2025-11-05T13:05:06.020Z</time>
      </trkpt>
      <trkpt lat="43.52889" lon="5.54912">
        <ele>270.8</ele>
        <time>2025-11-05T13:05:12.020Z</time>
      </trkpt>
      <trkpt lat="43.52887" lon="5.5491">
        <ele>270.9</ele>
        <time>2025-11-05T13:05:15.020Z</time>
      </trkpt>
      <trkpt lat="43.52884" lon="5.54907">
        <ele>270.9</ele>
        <time>2025-11-05T13:05:18.020Z</time>
      </trkpt>
      <trkpt lat="43.52882" lon="5.54904">
        <ele>270.8</ele>
        <time>2025-11-05T13:05:21.020Z</time>
      </trkpt>
      <trkpt lat="43.5288" lon="5.54901">
        <ele>270.7</ele>
        <time>2025-11-05T13:05:24.020Z</time>
      </trkpt>
      <trkpt lat="43.52877" lon="5.54899">
        <ele>270.7</ele>
        <time>2025-11-05T13:05:27.020Z</time>
      </trkpt>
      <trkpt lat="43.52874" lon="5.54898">
        <ele>270.7</ele>
        <time>2025-11-05T13:05:29.020Z</time>
      </trkpt>
      <trkpt lat="43.52872" lon="5.54896">
        <ele>270.5</ele>
        <time>2025-11-05T13:05:31.020Z</time>
      </trkpt>
      <trkpt lat="43.52869" lon="5.54895">
        <ele>270.5</ele>
        <time>2025-11-05T13:05:33.020Z</time>
      </trkpt>
      <trkpt lat="43.52867" lon="5.54895">
        <ele>270.5</ele>
        <time>2025-11-05T13:05:35.020Z</time>
      </trkpt>
      <trkpt lat="43.52865" lon="5.54891">
        <ele>270.2</ele>
        <time>2025-11-05T13:05:39.020Z</time>
      </trkpt>
      <trkpt lat="43.52863" lon="5.54889">
        <ele>270</ele>
        <time>2025-11-05T13:05:41.020Z</time>
      </trkpt>
      <trkpt lat="43.52862" lon="5.54887">
        <ele>269.9</ele>
        <time>2025-11-05T13:05:43.020Z</time>
      </trkpt>
      <trkpt lat="43.52862" lon="5.54883">
        <ele>269.8</ele>
        <time>2025-11-05T13:05:47.020Z</time>
      </trkpt>
      <trkpt lat="43.5286" lon="5.5488">
        <ele>269.8</ele>
        <time>2025-11-05T13:05:51.020Z</time>
      </trkpt>
      <trkpt lat="43.52858" lon="5.54877">
        <ele>269.7</ele>
        <time>2025-11-05T13:05:53.020Z</time>
      </trkpt>
      <trkpt lat="43.52857" lon="5.54874">
        <ele>269.6</ele>
        <time>2025-11-05T13:05:55.020Z</time>
      </trkpt>
      <trkpt lat="43.52855" lon="5.54873">
        <ele>269.7</ele>
        <time>2025-11-05T13:05:57.020Z</time>
      </trkpt>
      <trkpt lat="43.52853" lon="5.54871">
        <ele>269.6</ele>
        <time>2025-11-05T13:05:59.020Z</time>
      </trkpt>
      <trkpt lat="43.52851" lon="5.54869">
        <ele>269.6</ele>
        <time>2025-11-05T13:06:02.020Z</time>
      </trkpt>
      <trkpt lat="43.52847" lon="5.54866">
        <ele>269.4</ele>
        <time>2025-11-05T13:06:04.020Z</time>
      </trkpt>
      <trkpt lat="43.52846" lon="5.54863">
        <ele>269.1</ele>
        <time>2025-11-05T13:06:06.020Z</time>
      </trkpt>
      <trkpt lat="43.52843" lon="5.54862">
        <ele>269.1</ele>
        <time>2025-11-05T13:06:09.020Z</time>
      </trkpt>
      <trkpt lat="43.5284" lon="5.5486">
        <ele>268.9</ele>
        <time>2025-11-05T13:06:14.020Z</time>
      </trkpt>
      <trkpt lat="43.52838" lon="5.54858">
        <ele>268.9</ele>
        <time>2025-11-05T13:06:16.020Z</time>
      </trkpt>
      <trkpt lat="43.52836" lon="5.54854">
        <ele>268.7</ele>
        <time>2025-11-05T13:06:19.020Z</time>
      </trkpt>
      <trkpt lat="43.52835" lon="5.54851">
        <ele>268.6</ele>
        <time>2025-11-05T13:06:23.020Z</time>
      </trkpt>
      <trkpt lat="43.52835" lon="5.54847">
        <ele>268.5</ele>
        <time>2025-11-05T13:06:26.020Z</time>
      </trkpt>
      <trkpt lat="43.52833" lon="5.54842">
        <ele>268.5</ele>
        <time>2025-11-05T13:06:30.020Z</time>
      </trkpt>
      <trkpt lat="43.5283" lon="5.54841">
        <ele>269</ele>
        <time>2025-11-05T13:06:32.020Z</time>
      </trkpt>
      <trkpt lat="43.52828" lon="5.54838">
        <ele>269.3</ele>
        <time>2025-11-05T13:06:34.020Z</time>
      </trkpt>
      <trkpt lat="43.52826" lon="5.54836">
        <ele>269.6</ele>
        <time>2025-11-05T13:06:36.020Z</time>
      </trkpt>
      <trkpt lat="43.52824" lon="5.54834">
        <ele>269.8</ele>
        <time>2025-11-05T13:06:39.020Z</time>
      </trkpt>
      <trkpt lat="43.52822" lon="5.54831">
        <ele>269.7</ele>
        <time>2025-11-05T13:06:43.020Z</time>
      </trkpt>
      <trkpt lat="43.52822" lon="5.54827">
        <ele>269.3</ele>
        <time>2025-11-05T13:06:46.020Z</time>
      </trkpt>
      <trkpt lat="43.52821" lon="5.54824">
        <ele>268.9</ele>
        <time>2025-11-05T13:06:49.020Z</time>
      </trkpt>
      <trkpt lat="43.52819" lon="5.54822">
        <ele>268.8</ele>
        <time>2025-11-05T13:06:52.020Z</time>
      </trkpt>
      <trkpt lat="43.52817" lon="5.5482">
        <ele>268.5</ele>
        <time>2025-11-05T13:06:55.020Z</time>
      </trkpt>
      <trkpt lat="43.52814" lon="5.54818">
        <ele>268.2</ele>
        <time>2025-11-05T13:06:58.020Z</time>
      </trkpt>
      <trkpt lat="43.52812" lon="5.54817">
        <ele>268</ele>
        <time>2025-11-05T13:07:01.020Z</time>
      </trkpt>
      <trkpt lat="43.5281" lon="5.54813">
        <ele>267.2</ele>
        <time>2025-11-05T13:07:07.020Z</time>
      </trkpt>
      <trkpt lat="43.52808" lon="5.5481">
        <ele>266.3</ele>
        <time>2025-11-05T13:07:10.020Z</time>
      </trkpt>
      <trkpt lat="43.52806" lon="5.54809">
        <ele>265.9</ele>
        <time>2025-11-05T13:07:14.020Z</time>
      </trkpt>
      <trkpt lat="43.52803" lon="5.54807">
        <ele>265.3</ele>
        <time>2025-11-05T13:07:17.020Z</time>
      </trkpt>
      <trkpt lat="43.528" lon="5.54807">
        <ele>265.3</ele>
        <time>2025-11-05T13:07:20.020Z</time>
      </trkpt>
      <trkpt lat="43.52798" lon="5.54807">
        <ele>265</ele>
        <time>2025-11-05T13:07:23.020Z</time>
      </trkpt>
      <trkpt lat="43.52796" lon="5.54808">
        <ele>265.3</ele>
        <time>2025-11-05T13:07:26.019Z</time>
      </trkpt>
      <trkpt lat="43.52793" lon="5.54807">
        <ele>265</ele>
        <time>2025-11-05T13:07:29.020Z</time>
      </trkpt>
      <trkpt lat="43.52791" lon="5.54805">
        <ele>264.5</ele>
        <time>2025-11-05T13:07:32.019Z</time>
      </trkpt>
      <trkpt lat="43.52788" lon="5.54802">
        <ele>265</ele>
        <time>2025-11-05T13:07:35.020Z</time>
      </trkpt>
      <trkpt lat="43.52787" lon="5.548">
        <ele>265.6</ele>
        <time>2025-11-05T13:07:39.020Z</time>
      </trkpt>
      <trkpt lat="43.52784" lon="5.54798">
        <ele>266</ele>
        <time>2025-11-05T13:07:42.020Z</time>
      </trkpt>
      <trkpt lat="43.52781" lon="5.54797">
        <ele>266.4</ele>
        <time>2025-11-05T13:07:44.020Z</time>
      </trkpt>
      <trkpt lat="43.52779" lon="5.54795">
        <ele>267</ele>
        <time>2025-11-05T13:07:47.019Z</time>
      </trkpt>
      <trkpt lat="43.52776" lon="5.54794">
        <ele>267.1</ele>
        <time>2025-11-05T13:07:50.020Z</time>
      </trkpt>
      <trkpt lat="43.52774" lon="5.54791">
        <ele>267.7</ele>
        <time>2025-11-05T13:07:55.020Z</time>
      </trkpt>
      <trkpt lat="43.52771" lon="5.5479">
        <ele>267.6</ele>
        <time>2025-11-05T13:07:58.020Z</time>
      </trkpt>
      <trkpt lat="43.52769" lon="5.54789">
        <ele>267.5</ele>
        <time>2025-11-05T13:08:01.020Z</time>
      </trkpt>
      <trkpt lat="43.52767" lon="5.54788">
        <ele>267.4</ele>
        <time>2025-11-05T13:08:04.020Z</time>
      </trkpt>
      <trkpt lat="43.52765" lon="5.54786">
        <ele>267.3</ele>
        <time>2025-11-05T13:08:06.020Z</time>
      </trkpt>
      <trkpt lat="43.5276" lon="5.54782">
        <ele>266.9</ele>
        <time>2025-11-05T13:08:08.020Z</time>
      </trkpt>
      <trkpt lat="43.52756" lon="5.54784">
        <ele>266</ele>
        <time>2025-11-05T13:08:11.020Z</time>
      </trkpt>
      <trkpt lat="43.52754" lon="5.54783">
        <ele>265.5</ele>
        <time>2025-11-05T13:08:14.020Z</time>
      </trkpt>
      <trkpt lat="43.52752" lon="5.54779">
        <ele>265.5</ele>
        <time>2025-11-05T13:08:19.020Z</time>
      </trkpt>
      <trkpt lat="43.5275" lon="5.54778">
        <ele>265</ele>
        <time>2025-11-05T13:08:23.019Z</time>
      </trkpt>
      <trkpt lat="43.52747" lon="5.54777">
        <ele>265.2</ele>
        <time>2025-11-05T13:08:26.020Z</time>
      </trkpt>
      <trkpt lat="43.52744" lon="5.54775">
        <ele>265.7</ele>
        <time>2025-11-05T13:08:29.020Z</time>
      </trkpt>
      <trkpt lat="43.52741" lon="5.54773">
        <ele>266</ele>
        <time>2025-11-05T13:08:32.020Z</time>
      </trkpt>
      <trkpt lat="43.52738" lon="5.54772">
        <ele>266</ele>
        <time>2025-11-05T13:08:34.020Z</time>
      </trkpt>
      <trkpt lat="43.52734" lon="5.54773">
        <ele>265.6</ele>
        <time>2025-11-05T13:08:38.020Z</time>
      </trkpt>
      <trkpt lat="43.52732" lon="5.54772">
        <ele>265.7</ele>
        <time>2025-11-05T13:08:40.020Z</time>
      </trkpt>
      <trkpt lat="43.52729" lon="5.54771">
        <ele>265.8</ele>
        <time>2025-11-05T13:08:44.020Z</time>
      </trkpt>
      <trkpt lat="43.52726" lon="5.54768">
        <ele>266</ele>
        <time>2025-11-05T13:08:48.020Z</time>
      </trkpt>
      <trkpt lat="43.52723" lon="5.54769">
        <ele>265.7</ele>
        <time>2025-11-05T13:08:50.020Z</time>
      </trkpt>
      <trkpt lat="43.5272" lon="5.54767">
        <ele>265.7</ele>
        <time>2025-11-05T13:08:53.020Z</time>
      </trkpt>
      <trkpt lat="43.52718" lon="5.54767">
        <ele>265.6</ele>
        <time>2025-11-05T13:08:56.020Z</time>
      </trkpt>
      <trkpt lat="43.52715" lon="5.54766">
        <ele>265.4</ele>
        <time>2025-11-05T13:08:59.019Z</time>
      </trkpt>
      <trkpt lat="43.52713" lon="5.54764">
        <ele>265.5</ele>
        <time>2025-11-05T13:09:02.020Z</time>
      </trkpt>
      <trkpt lat="43.5271" lon="5.54762">
        <ele>265.4</ele>
        <time>2025-11-05T13:09:05.019Z</time>
      </trkpt>
      <trkpt lat="43.52708" lon="5.5476">
        <ele>265.4</ele>
        <time>2025-11-05T13:09:08.020Z</time>
      </trkpt>
      <trkpt lat="43.52705" lon="5.54758">
        <ele>265.2</ele>
        <time>2025-11-05T13:09:11.020Z</time>
      </trkpt>
      <trkpt lat="43.52704" lon="5.54755">
        <ele>265.2</ele>
        <time>2025-11-05T13:09:13.020Z</time>
      </trkpt>
      <trkpt lat="43.52702" lon="5.54751">
        <ele>265.2</ele>
        <time>2025-11-05T13:09:16.019Z</time>
      </trkpt>
      <trkpt lat="43.527" lon="5.54748">
        <ele>265.3</ele>
        <time>2025-11-05T13:09:20.020Z</time>
      </trkpt>
      <trkpt lat="43.52698" lon="5.54745">
        <ele>265.4</ele>
        <time>2025-11-05T13:09:23.020Z</time>
      </trkpt>
      <trkpt lat="43.52696" lon="5.54742">
        <ele>265.3</ele>
        <time>2025-11-05T13:09:28.020Z</time>
      </trkpt>
      <trkpt lat="43.52695" lon="5.54739">
        <ele>265.3</ele>
        <time>2025-11-05T13:09:30.020Z</time>
      </trkpt>
      <trkpt lat="43.52693" lon="5.54736">
        <ele>265.4</ele>
        <time>2025-11-05T13:09:32.020Z</time>
      </trkpt>
      <trkpt lat="43.5269" lon="5.54734">
        <ele>265.3</ele>
        <time>2025-11-05T13:09:35.020Z</time>
      </trkpt>
      <trkpt lat="43.52688" lon="5.54731">
        <ele>265.3</ele>
        <time>2025-11-05T13:09:38.020Z</time>
      </trkpt>
      <trkpt lat="43.52687" lon="5.54728">
        <ele>265.4</ele>
        <time>2025-11-05T13:09:40.020Z</time>
      </trkpt>
      <trkpt lat="43.52685" lon="5.54725">
        <ele>265.4</ele>
        <time>2025-11-05T13:09:43.020Z</time>
      </trkpt>
      <trkpt lat="43.52683" lon="5.54722">
        <ele>265.4</ele>
        <time>2025-11-05T13:09:46.019Z</time>
      </trkpt>
      <trkpt lat="43.52682" lon="5.54718">
        <ele>265.9</ele>
        <time>2025-11-05T13:09:49.020Z</time>
      </trkpt>
      <trkpt lat="43.5268" lon="5.54714">
        <ele>266.5</ele>
        <time>2025-11-05T13:09:51.020Z</time>
      </trkpt>
      <trkpt lat="43.52678" lon="5.54711">
        <ele>266.5</ele>
        <time>2025-11-05T13:09:54.020Z</time>
      </trkpt>
      <trkpt lat="43.52676" lon="5.54711">
        <ele>266</ele>
        <time>2025-11-05T13:09:55.020Z</time>
      </trkpt>
      <trkpt lat="43.52673" lon="5.54711">
        <ele>265.6</ele>
        <time>2025-11-05T13:09:56.020Z</time>
      </trkpt>
      <trkpt lat="43.52672" lon="5.54708">
        <ele>265.8</ele>
        <time>2025-11-05T13:09:59.020Z</time>
      </trkpt>
      <trkpt lat="43.52671" lon="5.54704">
        <ele>266</ele>
        <time>2025-11-05T13:10:02.020Z</time>
      </trkpt>
      <trkpt lat="43.52669" lon="5.54702">
        <ele>265.8</ele>
        <time>2025-11-05T13:10:06.020Z</time>
      </trkpt>
      <trkpt lat="43.52667" lon="5.54699">
        <ele>265.7</ele>
        <time>2025-11-05T13:10:09.019Z</time>
      </trkpt>
      <trkpt lat="43.52665" lon="5.54696">
        <ele>265.6</ele>
        <time>2025-11-05T13:10:12.020Z</time>
      </trkpt>
      <trkpt lat="43.52663" lon="5.54694">
        <ele>265.6</ele>
        <time>2025-11-05T13:10:16.020Z</time>
      </trkpt>
      <trkpt lat="43.52662" lon="5.5469">
        <ele>265.9</ele>
        <time>2025-11-05T13:10:19.020Z</time>
      </trkpt>
      <trkpt lat="43.52661" lon="5.54688">
        <ele>266</ele>
        <time>2025-11-05T13:10:21.019Z</time>
      </trkpt>
      <trkpt lat="43.52659" lon="5.54684">
        <ele>266.2</ele>
        <time>2025-11-05T13:10:24.020Z</time>
      </trkpt>
      <trkpt lat="43.52658" lon="5.54682">
        <ele>266.2</ele>
        <time>2025-11-05T13:10:26.020Z</time>
      </trkpt>
      <trkpt lat="43.52657" lon="5.54678">
        <ele>266.5</ele>
        <time>2025-11-05T13:10:29.020Z</time>
      </trkpt>
      <trkpt lat="43.52656" lon="5.54675">
        <ele>266.8</ele>
        <time>2025-11-05T13:10:31.020Z</time>
      </trkpt>
      <trkpt lat="43.52655" lon="5.54671">
        <ele>267</ele>
        <time>2025-11-05T13:10:34.020Z</time>
      </trkpt>
      <trkpt lat="43.52653" lon="5.54668">
        <ele>266.9</ele>
        <time>2025-11-05T13:10:36.020Z</time>
      </trkpt>
      <trkpt lat="43.52651" lon="5.54666">
        <ele>266.9</ele>
        <time>2025-11-05T13:10:38.020Z</time>
      </trkpt>
      <trkpt lat="43.52649" lon="5.54664">
        <ele>266.7</ele>
        <time>2025-11-05T13:10:40.020Z</time>
      </trkpt>
      <trkpt lat="43.52648" lon="5.54661">
        <ele>266.8</ele>
        <time>2025-11-05T13:10:42.020Z</time>
      </trkpt>
      <trkpt lat="43.52646" lon="5.54658">
        <ele>266.8</ele>
        <time>2025-11-05T13:10:44.020Z</time>
      </trkpt>
      <trkpt lat="43.52645" lon="5.54655">
        <ele>266.9</ele>
        <time>2025-11-05T13:10:47.020Z</time>
      </trkpt>
      <trkpt lat="43.52643" lon="5.54653">
        <ele>266.7</ele>
        <time>2025-11-05T13:10:49.020Z</time>
      </trkpt>
      <trkpt lat="43.52642" lon="5.54649">
        <ele>266.7</ele>
        <time>2025-11-05T13:10:51.019Z</time>
      </trkpt>
      <trkpt lat="43.52641" lon="5.54647">
        <ele>266.7</ele>
        <time>2025-11-05T13:10:54.020Z</time>
      </trkpt>
      <trkpt lat="43.52639" lon="5.54643">
        <ele>266.6</ele>
        <time>2025-11-05T13:10:58.020Z</time>
      </trkpt>
      <trkpt lat="43.52638" lon="5.54639">
        <ele>266.8</ele>
        <time>2025-11-05T13:11:01.020Z</time>
      </trkpt>
      <trkpt lat="43.52636" lon="5.54635">
        <ele>267</ele>
        <time>2025-11-05T13:11:04.020Z</time>
      </trkpt>
      <trkpt lat="43.52635" lon="5.54632">
        <ele>267.1</ele>
        <time>2025-11-05T13:11:06.020Z</time>
      </trkpt>
      <trkpt lat="43.52633" lon="5.5463">
        <ele>267.1</ele>
        <time>2025-11-05T13:11:08.020Z</time>
      </trkpt>
      <trkpt lat="43.52631" lon="5.54627">
        <ele>267.1</ele>
        <time>2025-11-05T13:11:11.020Z</time>
      </trkpt>
      <trkpt lat="43.52629" lon="5.54624">
        <ele>266.9</ele>
        <time>2025-11-05T13:11:13.020Z</time>
      </trkpt>
      <trkpt lat="43.52627" lon="5.54622">
        <ele>266.9</ele>
        <time>2025-11-05T13:11:15.019Z</time>
      </trkpt>
      <trkpt lat="43.52626" lon="5.54619">
        <ele>266.9</ele>
        <time>2025-11-05T13:11:17.020Z</time>
      </trkpt>
      <trkpt lat="43.52624" lon="5.54616">
        <ele>266.6</ele>
        <time>2025-11-05T13:11:20.019Z</time>
      </trkpt>
      <trkpt lat="43.52621" lon="5.54614">
        <ele>266.3</ele>
        <time>2025-11-05T13:11:23.020Z</time>
      </trkpt>
      <trkpt lat="43.52618" lon="5.54614">
        <ele>265.5</ele>
        <time>2025-11-05T13:11:26.020Z</time>
      </trkpt>
      <trkpt lat="43.52617" lon="5.5461">
        <ele>265.6</ele>
        <time>2025-11-05T13:11:28.020Z</time>
      </trkpt>
      <trkpt lat="43.52615" lon="5.54607">
        <ele>265.6</ele>
        <time>2025-11-05T13:11:30.020Z</time>
      </trkpt>
      <trkpt lat="43.52615" lon="5.54603">
        <ele>265.9</ele>
        <time>2025-11-05T13:11:32.020Z</time>
      </trkpt>
      <trkpt lat="43.52615" lon="5.54599">
        <ele>266.3</ele>
        <time>2025-11-05T13:11:36.020Z</time>
      </trkpt>
      <trkpt lat="43.52614" lon="5.54597">
        <ele>266.3</ele>
        <time>2025-11-05T13:11:38.020Z</time>
      </trkpt>
      <trkpt lat="43.52612" lon="5.54594">
        <ele>266</ele>
        <time>2025-11-05T13:11:41.020Z</time>
      </trkpt>
      <trkpt lat="43.5261" lon="5.54591">
        <ele>266</ele>
        <time>2025-11-05T13:11:43.020Z</time>
      </trkpt>
      <trkpt lat="43.52608" lon="5.54589">
        <ele>266</ele>
        <time>2025-11-05T13:11:45.020Z</time>
      </trkpt>
      <trkpt lat="43.52605" lon="5.54587">
        <ele>265.8</ele>
        <time>2025-11-05T13:11:47.020Z</time>
      </trkpt>
      <trkpt lat="43.52603" lon="5.54585">
        <ele>265.7</ele>
        <time>2025-11-05T13:11:49.020Z</time>
      </trkpt>
      <trkpt lat="43.52603" lon="5.54581">
        <ele>266</ele>
        <time>2025-11-05T13:11:52.020Z</time>
      </trkpt>
      <trkpt lat="43.52602" lon="5.54578">
        <ele>266.2</ele>
        <time>2025-11-05T13:11:54.020Z</time>
      </trkpt>
      <trkpt lat="43.526" lon="5.54575">
        <ele>266.2</ele>
        <time>2025-11-05T13:11:57.020Z</time>
      </trkpt>
      <trkpt lat="43.52598" lon="5.54572">
        <ele>266</ele>
        <time>2025-11-05T13:11:59.020Z</time>
      </trkpt>
      <trkpt lat="43.52597" lon="5.5457">
        <ele>266.1</ele>
        <time>2025-11-05T13:12:01.020Z</time>
      </trkpt>
      <trkpt lat="43.52596" lon="5.54566">
        <ele>266.2</ele>
        <time>2025-11-05T13:12:04.020Z</time>
      </trkpt>
      <trkpt lat="43.52594" lon="5.54564">
        <ele>266.2</ele>
        <time>2025-11-05T13:12:06.020Z</time>
      </trkpt>
      <trkpt lat="43.52592" lon="5.5456">
        <ele>265.9</ele>
        <time>2025-11-05T13:12:09.020Z</time>
      </trkpt>
      <trkpt lat="43.52591" lon="5.54558">
        <ele>265.7</ele>
        <time>2025-11-05T13:12:11.020Z</time>
      </trkpt>
      <trkpt lat="43.52588" lon="5.54556">
        <ele>265.2</ele>
        <time>2025-11-05T13:12:15.020Z</time>
      </trkpt>
      <trkpt lat="43.52587" lon="5.54553">
        <ele>265.3</ele>
        <time>2025-11-05T13:12:18.019Z</time>
      </trkpt>
      <trkpt lat="43.52586" lon="5.54549">
        <ele>265.5</ele>
        <time>2025-11-05T13:12:20.020Z</time>
      </trkpt>
      <trkpt lat="43.52585" lon="5.54546">
        <ele>265.7</ele>
        <time>2025-11-05T13:12:23.020Z</time>
      </trkpt>
      <trkpt lat="43.52583" lon="5.54543">
        <ele>265.8</ele>
        <time>2025-11-05T13:12:26.019Z</time>
      </trkpt>
      <trkpt lat="43.52581" lon="5.54539">
        <ele>266.2</ele>
        <time>2025-11-05T13:12:29.020Z</time>
      </trkpt>
      <trkpt lat="43.52579" lon="5.54537">
        <ele>266.2</ele>
        <time>2025-11-05T13:12:31.020Z</time>
      </trkpt>
      <trkpt lat="43.52577" lon="5.54534">
        <ele>266.4</ele>
        <time>2025-11-05T13:12:33.020Z</time>
      </trkpt>
      <trkpt lat="43.52576" lon="5.54531">
        <ele>266.6</ele>
        <time>2025-11-05T13:12:35.019Z</time>
      </trkpt>
      <trkpt lat="43.52574" lon="5.54529">
        <ele>266.6</ele>
        <time>2025-11-05T13:12:39.020Z</time>
      </trkpt>
      <trkpt lat="43.52574" lon="5.54524">
        <ele>266.9</ele>
        <time>2025-11-05T13:13:51.020Z</time>
      </trkpt>
      <trkpt lat="43.52573" lon="5.54521">
        <ele>267</ele>
        <time>2025-11-05T13:13:56.020Z</time>
      </trkpt>
      <trkpt lat="43.52572" lon="5.54517">
        <ele>267.2</ele>
        <time>2025-11-05T13:14:00.020Z</time>
      </trkpt>
      <trkpt lat="43.5257" lon="5.54515">
        <ele>267.1</ele>
        <time>2025-11-05T13:14:20.020Z</time>
      </trkpt>
      <trkpt lat="43.5257" lon="5.5451">
        <ele>267.4</ele>
        <time>2025-11-05T13:14:24.020Z</time>
      </trkpt>
      <trkpt lat="43.52572" lon="5.54506">
        <ele>267.9</ele>
        <time>2025-11-05T13:14:27.019Z</time>
      </trkpt>
      <trkpt lat="43.52571" lon="5.54503">
        <ele>268</ele>
        <time>2025-11-05T13:14:29.019Z</time>
      </trkpt>
      <trkpt lat="43.52571" lon="5.545">
        <ele>268.2</ele>
        <time>2025-11-05T13:14:31.020Z</time>
      </trkpt>
      <trkpt lat="43.5257" lon="5.54496">
        <ele>268.4</ele>
        <time>2025-11-05T13:14:34.020Z</time>
      </trkpt>
      <trkpt lat="43.52568" lon="5.54493">
        <ele>268.4</ele>
        <time>2025-11-05T13:14:36.020Z</time>
      </trkpt>
      <trkpt lat="43.52568" lon="5.54489">
        <ele>268.7</ele>
        <time>2025-11-05T13:14:39.020Z</time>
      </trkpt>
      <trkpt lat="43.52568" lon="5.54485">
        <ele>269</ele>
        <time>2025-11-05T13:14:42.020Z</time>
      </trkpt>
      <trkpt lat="43.52568" lon="5.54482">
        <ele>269.3</ele>
        <time>2025-11-05T13:14:47.020Z</time>
      </trkpt>
      <trkpt lat="43.52568" lon="5.54478">
        <ele>269.8</ele>
        <time>2025-11-05T13:14:50.020Z</time>
      </trkpt>
      <trkpt lat="43.52567" lon="5.54473">
        <ele>270</ele>
        <time>2025-11-05T13:14:53.019Z</time>
      </trkpt>
      <trkpt lat="43.52566" lon="5.5447">
        <ele>270.1</ele>
        <time>2025-11-05T13:14:56.020Z</time>
      </trkpt>
      <trkpt lat="43.52564" lon="5.54465">
        <ele>270.3</ele>
        <time>2025-11-05T13:14:59.020Z</time>
      </trkpt>
      <trkpt lat="43.52564" lon="5.5446">
        <ele>270.7</ele>
        <time>2025-11-05T13:15:02.020Z</time>
      </trkpt>
      <trkpt lat="43.52564" lon="5.54456">
        <ele>271.1</ele>
        <time>2025-11-05T13:15:06.020Z</time>
      </trkpt>
      <trkpt lat="43.52563" lon="5.54453">
        <ele>271.1</ele>
        <time>2025-11-05T13:15:09.020Z</time>
      </trkpt>
      <trkpt lat="43.52564" lon="5.54448">
        <ele>271.7</ele>
        <time>2025-11-05T13:15:11.019Z</time>
      </trkpt>
      <trkpt lat="43.52561" lon="5.54447">
        <ele>271.1</ele>
        <time>2025-11-05T13:15:14.020Z</time>
      </trkpt>
      <trkpt lat="43.52558" lon="5.54446">
        <ele>270.5</ele>
        <time>2025-11-05T13:15:17.020Z</time>
      </trkpt>
      <trkpt lat="43.52556" lon="5.54443">
        <ele>270.3</ele>
        <time>2025-11-05T13:15:19.020Z</time>
      </trkpt>
      <trkpt lat="43.52553" lon="5.54442">
        <ele>270</ele>
        <time>2025-11-05T13:15:22.020Z</time>
      </trkpt>
      <trkpt lat="43.52551" lon="5.5444">
        <ele>270</ele>
        <time>2025-11-05T13:15:24.020Z</time>
      </trkpt>
      <trkpt lat="43.52552" lon="5.54436">
        <ele>270.4</ele>
        <time>2025-11-05T13:15:27.019Z</time>
      </trkpt>
      <trkpt lat="43.52552" lon="5.54433">
        <ele>270.9</ele>
        <time>2025-11-05T13:15:30.019Z</time>
      </trkpt>
      <trkpt lat="43.52554" lon="5.5443">
        <ele>271.4</ele>
        <time>2025-11-05T13:15:33.020Z</time>
      </trkpt>
      <trkpt lat="43.52555" lon="5.54427">
        <ele>271.8</ele>
        <time>2025-11-05T13:15:35.020Z</time>
      </trkpt>
      <trkpt lat="43.52555" lon="5.54423">
        <ele>272.1</ele>
        <time>2025-11-05T13:15:37.020Z</time>
      </trkpt>
      <trkpt lat="43.52553" lon="5.5442">
        <ele>272.4</ele>
        <time>2025-11-05T13:15:41.020Z</time>
      </trkpt>
      <trkpt lat="43.52554" lon="5.54417">
        <ele>272.8</ele>
        <time>2025-11-05T13:15:43.020Z</time>
      </trkpt>
      <trkpt lat="43.52556" lon="5.54413">
        <ele>273.9</ele>
        <time>2025-11-05T13:15:46.020Z</time>
      </trkpt>
      <trkpt lat="43.52554" lon="5.5441">
        <ele>274.1</ele>
        <time>2025-11-05T13:15:50.020Z</time>
      </trkpt>
      <trkpt lat="43.52553" lon="5.54406">
        <ele>274.5</ele>
        <time>2025-11-05T13:15:53.019Z</time>
      </trkpt>
      <trkpt lat="43.52553" lon="5.54401">
        <ele>275.4</ele>
        <time>2025-11-05T13:15:56.020Z</time>
      </trkpt>
      <trkpt lat="43.52553" lon="5.54398">
        <ele>275.9</ele>
        <time>2025-11-05T13:15:59.020Z</time>
      </trkpt>
      <trkpt lat="43.52552" lon="5.54394">
        <ele>276.4</ele>
        <time>2025-11-05T13:16:02.019Z</time>
      </trkpt>
      <trkpt lat="43.52549" lon="5.54392">
        <ele>276.4</ele>
        <time>2025-11-05T13:16:05.020Z</time>
      </trkpt>
      <trkpt lat="43.52549" lon="5.54388">
        <ele>276.9</ele>
        <time>2025-11-05T13:16:08.020Z</time>
      </trkpt>
      <trkpt lat="43.5255" lon="5.54385">
        <ele>277.6</ele>
        <time>2025-11-05T13:16:09.020Z</time>
      </trkpt>
      <trkpt lat="43.52546" lon="5.54386">
        <ele>276.6</ele>
        <time>2025-11-05T13:16:13.019Z</time>
      </trkpt>
      <trkpt lat="43.52543" lon="5.54384">
        <ele>276.5</ele>
        <time>2025-11-05T13:16:15.019Z</time>
      </trkpt>
      <trkpt lat="43.52545" lon="5.54381">
        <ele>277.4</ele>
        <time>2025-11-05T13:16:18.020Z</time>
      </trkpt>
      <trkpt lat="43.52547" lon="5.54377">
        <ele>278.3</ele>
        <time>2025-11-05T13:16:20.020Z</time>
      </trkpt>
      <trkpt lat="43.52549" lon="5.54375">
        <ele>279.2</ele>
        <time>2025-11-05T13:16:22.019Z</time>
      </trkpt>
      <trkpt lat="43.52548" lon="5.54372">
        <ele>279.2</ele>
        <time>2025-11-05T13:16:24.020Z</time>
      </trkpt>
      <trkpt lat="43.52546" lon="5.54369">
        <ele>279.4</ele>
        <time>2025-11-05T13:16:27.020Z</time>
      </trkpt>
      <trkpt lat="43.52544" lon="5.54366">
        <ele>279.3</ele>
        <time>2025-11-05T13:16:30.019Z</time>
      </trkpt>
      <trkpt lat="43.52545" lon="5.54362">
        <ele>280.1</ele>
        <time>2025-11-05T13:16:34.020Z</time>
      </trkpt>
      <trkpt lat="43.52544" lon="5.54358">
        <ele>280.4</ele>
        <time>2025-11-05T13:16:38.020Z</time>
      </trkpt>
      <trkpt lat="43.52543" lon="5.54355">
        <ele>280.6</ele>
        <time>2025-11-05T13:16:41.020Z</time>
      </trkpt>
      <trkpt lat="43.52543" lon="5.54351">
        <ele>280.9</ele>
        <time>2025-11-05T13:16:44.020Z</time>
      </trkpt>
      <trkpt lat="43.52543" lon="5.54347">
        <ele>281.3</ele>
        <time>2025-11-05T13:16:46.019Z</time>
      </trkpt>
      <trkpt lat="43.52541" lon="5.54343">
        <ele>281.1</ele>
        <time>2025-11-05T13:16:49.020Z</time>
      </trkpt>
      <trkpt lat="43.52539" lon="5.5434">
        <ele>281.1</ele>
        <time>2025-11-05T13:16:54.019Z</time>
      </trkpt>
      <trkpt lat="43.5254" lon="5.54336">
        <ele>281.6</ele>
        <time>2025-11-05T13:16:58.020Z</time>
      </trkpt>
      <trkpt lat="43.5254" lon="5.54332">
        <ele>281.9</ele>
        <time>2025-11-05T13:17:01.020Z</time>
      </trkpt>
      <trkpt lat="43.5254" lon="5.54329">
        <ele>282.5</ele>
        <time>2025-11-05T13:17:04.020Z</time>
      </trkpt>
      <trkpt lat="43.52541" lon="5.54326">
        <ele>283.1</ele>
        <time>2025-11-05T13:17:06.019Z</time>
      </trkpt>
      <trkpt lat="43.52542" lon="5.54323">
        <ele>283.5</ele>
        <time>2025-11-05T13:17:09.019Z</time>
      </trkpt>
      <trkpt lat="43.52542" lon="5.54319">
        <ele>284</ele>
        <time>2025-11-05T13:17:11.020Z</time>
      </trkpt>
      <trkpt lat="43.52542" lon="5.54315">
        <ele>284.2</ele>
        <time>2025-11-05T13:17:16.020Z</time>
      </trkpt>
      <trkpt lat="43.52541" lon="5.54312">
        <ele>284.2</ele>
        <time>2025-11-05T13:17:20.020Z</time>
      </trkpt>
      <trkpt lat="43.52542" lon="5.54309">
        <ele>284.7</ele>
        <time>2025-11-05T13:17:25.020Z</time>
      </trkpt>
      <trkpt lat="43.52543" lon="5.54305">
        <ele>285.3</ele>
        <time>2025-11-05T13:17:29.020Z</time>
      </trkpt>
      <trkpt lat="43.52545" lon="5.54301">
        <ele>286</ele>
        <time>2025-11-05T13:17:32.019Z</time>
      </trkpt>
      <trkpt lat="43.52544" lon="5.54297">
        <ele>286</ele>
        <time>2025-11-05T13:17:35.020Z</time>
      </trkpt>
      <trkpt lat="43.52545" lon="5.54293">
        <ele>286.4</ele>
        <time>2025-11-05T13:17:38.020Z</time>
      </trkpt>
      <trkpt lat="43.52546" lon="5.5429">
        <ele>286.8</ele>
        <time>2025-11-05T13:17:40.020Z</time>
      </trkpt>
      <trkpt lat="43.52545" lon="5.54287">
        <ele>286.7</ele>
        <time>2025-11-05T13:17:44.020Z</time>
      </trkpt>
      <trkpt lat="43.52545" lon="5.54283">
        <ele>286.9</ele>
        <time>2025-11-05T13:17:46.019Z</time>
      </trkpt>
      <trkpt lat="43.52546" lon="5.5428">
        <ele>287.2</ele>
        <time>2025-11-05T13:17:49.019Z</time>
      </trkpt>
      <trkpt lat="43.52547" lon="5.54277">
        <ele>287.6</ele>
        <time>2025-11-05T13:17:53.020Z</time>
      </trkpt>
      <trkpt lat="43.52549" lon="5.54273">
        <ele>288.1</ele>
        <time>2025-11-05T13:17:56.020Z</time>
      </trkpt>
      <trkpt lat="43.5255" lon="5.54269">
        <ele>288.5</ele>
        <time>2025-11-05T13:17:59.020Z</time>
      </trkpt>
      <trkpt lat="43.52551" lon="5.54266">
        <ele>288.8</ele>
        <time>2025-11-05T13:18:02.020Z</time>
      </trkpt>
      <trkpt lat="43.52552" lon="5.54263">
        <ele>289</ele>
        <time>2025-11-05T13:18:06.020Z</time>
      </trkpt>
      <trkpt lat="43.52551" lon="5.5426">
        <ele>288.9</ele>
        <time>2025-11-05T13:18:09.020Z</time>
      </trkpt>
      <trkpt lat="43.52553" lon="5.54256">
        <ele>289.3</ele>
        <time>2025-11-05T13:18:12.020Z</time>
      </trkpt>
      <trkpt lat="43.52553" lon="5.54252">
        <ele>289.4</ele>
        <time>2025-11-05T13:18:15.019Z</time>
      </trkpt>
      <trkpt lat="43.52554" lon="5.54248">
        <ele>289.7</ele>
        <time>2025-11-05T13:18:19.020Z</time>
      </trkpt>
      <trkpt lat="43.52556" lon="5.54245">
        <ele>290.2</ele>
        <time>2025-11-05T13:18:22.020Z</time>
      </trkpt>
      <trkpt lat="43.52555" lon="5.54241">
        <ele>290.2</ele>
        <time>2025-11-05T13:18:25.020Z</time>
      </trkpt>
      <trkpt lat="43.52556" lon="5.54239">
        <ele>290.8</ele>
        <time>2025-11-05T13:18:27.020Z</time>
      </trkpt>
      <trkpt lat="43.52558" lon="5.54235">
        <ele>291.5</ele>
        <time>2025-11-05T13:18:30.019Z</time>
      </trkpt>
      <trkpt lat="43.52559" lon="5.54232">
        <ele>292.1</ele>
        <time>2025-11-05T13:18:32.020Z</time>
      </trkpt>
      <trkpt lat="43.52559" lon="5.54228">
        <ele>292.4</ele>
        <time>2025-11-05T13:18:35.020Z</time>
      </trkpt>
      <trkpt lat="43.52561" lon="5.54224">
        <ele>293.1</ele>
        <time>2025-11-05T13:18:39.019Z</time>
      </trkpt>
      <trkpt lat="43.5256" lon="5.54221">
        <ele>293.2</ele>
        <time>2025-11-05T13:18:43.020Z</time>
      </trkpt>
      <trkpt lat="43.52561" lon="5.54218">
        <ele>293.8</ele>
        <time>2025-11-05T13:18:46.020Z</time>
      </trkpt>
      <trkpt lat="43.52561" lon="5.54214">
        <ele>294</ele>
        <time>2025-11-05T13:18:50.019Z</time>
      </trkpt>
      <trkpt lat="43.52561" lon="5.54211">
        <ele>294.3</ele>
        <time>2025-11-05T13:18:53.019Z</time>
      </trkpt>
      <trkpt lat="43.52563" lon="5.54208">
        <ele>295.5</ele>
        <time>2025-11-05T13:18:56.020Z</time>
      </trkpt>
      <trkpt lat="43.52563" lon="5.54204">
        <ele>296.1</ele>
        <time>2025-11-05T13:18:59.019Z</time>
      </trkpt>
      <trkpt lat="43.52564" lon="5.542">
        <ele>296.7</ele>
        <time>2025-11-05T13:19:02.020Z</time>
      </trkpt>
      <trkpt lat="43.52563" lon="5.54196">
        <ele>296.9</ele>
        <time>2025-11-05T13:19:05.020Z</time>
      </trkpt>
      <trkpt lat="43.52564" lon="5.54192">
        <ele>297.4</ele>
        <time>2025-11-05T13:19:09.019Z</time>
      </trkpt>
      <trkpt lat="43.52564" lon="5.54189">
        <ele>297.4</ele>
        <time>2025-11-05T13:19:11.020Z</time>
      </trkpt>
      <trkpt lat="43.52565" lon="5.54185">
        <ele>297.4</ele>
        <time>2025-11-05T13:19:14.020Z</time>
      </trkpt>
      <trkpt lat="43.52564" lon="5.54181">
        <ele>297.2</ele>
        <time>2025-11-05T13:19:17.020Z</time>
      </trkpt>
      <trkpt lat="43.52562" lon="5.54178">
        <ele>296.5</ele>
        <time>2025-11-05T13:19:20.020Z</time>
      </trkpt>
      <trkpt lat="43.52561" lon="5.54175">
        <ele>296</ele>
        <time>2025-11-05T13:19:22.019Z</time>
      </trkpt>
      <trkpt lat="43.5256" lon="5.54172">
        <ele>295.6</ele>
        <time>2025-11-05T13:19:24.020Z</time>
      </trkpt>
      <trkpt lat="43.52559" lon="5.54167">
        <ele>295.4</ele>
        <time>2025-11-05T13:19:27.020Z</time>
      </trkpt>
      <trkpt lat="43.5256" lon="5.54164">
        <ele>295.7</ele>
        <time>2025-11-05T13:19:30.019Z</time>
      </trkpt>
      <trkpt lat="43.5256" lon="5.54159">
        <ele>295.9</ele>
        <time>2025-11-05T13:19:33.020Z</time>
      </trkpt>
      <trkpt lat="43.52562" lon="5.54156">
        <ele>296.6</ele>
        <time>2025-11-05T13:19:38.020Z</time>
      </trkpt>
      <trkpt lat="43.52564" lon="5.54152">
        <ele>297.5</ele>
        <time>2025-11-05T13:19:41.020Z</time>
      </trkpt>
      <trkpt lat="43.52565" lon="5.54149">
        <ele>298</ele>
        <time>2025-11-05T13:19:44.020Z</time>
      </trkpt>
      <trkpt lat="43.52567" lon="5.54145">
        <ele>298.8</ele>
        <time>2025-11-05T13:19:47.019Z</time>
      </trkpt>
      <trkpt lat="43.52569" lon="5.54141">
        <ele>299.6</ele>
        <time>2025-11-05T13:19:50.020Z</time>
      </trkpt>
      <trkpt lat="43.52568" lon="5.54137">
        <ele>299.4</ele>
        <time>2025-11-05T13:19:53.020Z</time>
      </trkpt>
      <trkpt lat="43.52567" lon="5.54134">
        <ele>298.8</ele>
        <time>2025-11-05T13:19:55.020Z</time>
      </trkpt>
      <trkpt lat="43.52568" lon="5.5413">
        <ele>298.7</ele>
        <time>2025-11-05T13:19:57.019Z</time>
      </trkpt>
      <trkpt lat="43.52568" lon="5.54126">
        <ele>298.3</ele>
        <time>2025-11-05T13:20:01.020Z</time>
      </trkpt>
      <trkpt lat="43.52568" lon="5.54122">
        <ele>298.1</ele>
        <time>2025-11-05T13:20:05.019Z</time>
      </trkpt>
      <trkpt lat="43.52567" lon="5.54119">
        <ele>297.6</ele>
        <time>2025-11-05T13:20:08.019Z</time>
      </trkpt>
      <trkpt lat="43.52567" lon="5.54116">
        <ele>297.4</ele>
        <time>2025-11-05T13:20:11.020Z</time>
      </trkpt>
      <trkpt lat="43.52566" lon="5.54113">
        <ele>297</ele>
        <time>2025-11-05T13:20:19.020Z</time>
      </trkpt>
      <trkpt lat="43.52563" lon="5.54113">
        <ele>296.5</ele>
        <time>2025-11-05T13:21:05.020Z</time>
      </trkpt>
      <trkpt lat="43.52562" lon="5.54111">
        <ele>296.1</ele>
        <time>2025-11-05T13:23:07.020Z</time>
      </trkpt>
      <trkpt lat="43.5256" lon="5.54107">
        <ele>296.3</ele>
        <time>2025-11-05T13:23:56.020Z</time>
      </trkpt>
      <trkpt lat="43.52563" lon="5.54107">
        <ele>296.8</ele>
        <time>2025-11-05T13:24:06.019Z</time>
      </trkpt>
      <trkpt lat="43.52565" lon="5.54108">
        <ele>297.1</ele>
        <time>2025-11-05T13:24:10.020Z</time>
      </trkpt>
      <trkpt lat="43.52565" lon="5.54104">
        <ele>297.7</ele>
        <time>2025-11-05T13:24:57.020Z</time>
      </trkpt>
      <trkpt lat="43.52565" lon="5.54101">
        <ele>298.3</ele>
        <time>2025-11-05T13:25:00.020Z</time>
      </trkpt>
      <trkpt lat="43.52564" lon="5.54098">
        <ele>298.5</ele>
        <time>2025-11-05T13:25:03.020Z</time>
      </trkpt>
      <trkpt lat="43.52563" lon="5.54096">
        <ele>298.6</ele>
        <time>2025-11-05T13:25:06.019Z</time>
      </trkpt>
      <trkpt lat="43.52561" lon="5.54092">
        <ele>298.7</ele>
        <time>2025-11-05T13:25:10.020Z</time>
      </trkpt>
      <trkpt lat="43.52561" lon="5.54088">
        <ele>299.2</ele>
        <time>2025-11-05T13:25:13.019Z</time>
      </trkpt>
      <trkpt lat="43.52561" lon="5.54083">
        <ele>299.7</ele>
        <time>2025-11-05T13:25:16.020Z</time>
      </trkpt>
      <trkpt lat="43.5256" lon="5.54079">
        <ele>299.7</ele>
        <time>2025-11-05T13:25:19.020Z</time>
      </trkpt>
      <trkpt lat="43.52559" lon="5.54076">
        <ele>299.8</ele>
        <time>2025-11-05T13:25:22.019Z</time>
      </trkpt>
      <trkpt lat="43.52559" lon="5.54072">
        <ele>300.2</ele>
        <time>2025-11-05T13:25:26.020Z</time>
      </trkpt>
      <trkpt lat="43.5256" lon="5.54068">
        <ele>300.6</ele>
        <time>2025-11-05T13:25:29.019Z</time>
      </trkpt>
      <trkpt lat="43.52561" lon="5.54065">
        <ele>301.2</ele>
        <time>2025-11-05T13:25:34.020Z</time>
      </trkpt>
      <trkpt lat="43.52562" lon="5.54061">
        <ele>301.6</ele>
        <time>2025-11-05T13:25:38.020Z</time>
      </trkpt>
      <trkpt lat="43.52563" lon="5.54058">
        <ele>302.2</ele>
        <time>2025-11-05T13:25:42.019Z</time>
      </trkpt>
      <trkpt lat="43.52564" lon="5.54056">
        <ele>302.6</ele>
        <time>2025-11-05T13:25:45.019Z</time>
      </trkpt>
      <trkpt lat="43.52565" lon="5.54052">
        <ele>303</ele>
        <time>2025-11-05T13:25:51.020Z</time>
      </trkpt>
      <trkpt lat="43.52567" lon="5.54049">
        <ele>303.6</ele>
        <time>2025-11-05T13:25:57.020Z</time>
      </trkpt>
      <trkpt lat="43.52569" lon="5.54046">
        <ele>304.3</ele>
        <time>2025-11-05T13:26:01.020Z</time>
      </trkpt>
      <trkpt lat="43.5257" lon="5.54043">
        <ele>304.8</ele>
        <time>2025-11-05T13:26:03.020Z</time>
      </trkpt>
      <trkpt lat="43.5257" lon="5.54039">
        <ele>305</ele>
        <time>2025-11-05T13:26:07.019Z</time>
      </trkpt>
      <trkpt lat="43.52571" lon="5.54036">
        <ele>305.8</ele>
        <time>2025-11-05T13:26:11.019Z</time>
      </trkpt>
      <trkpt lat="43.52572" lon="5.54033">
        <ele>306.4</ele>
        <time>2025-11-05T13:26:15.019Z</time>
      </trkpt>
      <trkpt lat="43.52574" lon="5.5403">
        <ele>307</ele>
        <time>2025-11-05T13:26:20.020Z</time>
      </trkpt>
      <trkpt lat="43.52575" lon="5.54026">
        <ele>307.6</ele>
        <time>2025-11-05T13:26:26.020Z</time>
      </trkpt>
      <trkpt lat="43.52575" lon="5.54023">
        <ele>308</ele>
        <time>2025-11-05T13:26:29.020Z</time>
      </trkpt>
      <trkpt lat="43.52576" lon="5.54019">
        <ele>308.4</ele>
        <time>2025-11-05T13:26:32.020Z</time>
      </trkpt>
      <trkpt lat="43.52575" lon="5.54015">
        <ele>308.4</ele>
        <time>2025-11-05T13:26:35.019Z</time>
      </trkpt>
      <trkpt lat="43.52576" lon="5.54012">
        <ele>308.9</ele>
        <time>2025-11-05T13:26:37.019Z</time>
      </trkpt>
      <trkpt lat="43.52577" lon="5.54009">
        <ele>309.4</ele>
        <time>2025-11-05T13:26:40.020Z</time>
      </trkpt>
      <trkpt lat="43.52578" lon="5.54006">
        <ele>309.7</ele>
        <time>2025-11-05T13:26:43.019Z</time>
      </trkpt>
      <trkpt lat="43.52577" lon="5.54003">
        <ele>309.8</ele>
        <time>2025-11-05T13:26:46.020Z</time>
      </trkpt>
      <trkpt lat="43.52577" lon="5.53999">
        <ele>310.1</ele>
        <time>2025-11-05T13:26:50.020Z</time>
      </trkpt>
      <trkpt lat="43.52578" lon="5.53995">
        <ele>310.7</ele>
        <time>2025-11-05T13:26:54.020Z</time>
      </trkpt>
      <trkpt lat="43.52577" lon="5.53991">
        <ele>311</ele>
        <time>2025-11-05T13:26:58.020Z</time>
      </trkpt>
      <trkpt lat="43.52578" lon="5.53987">
        <ele>311.5</ele>
        <time>2025-11-05T13:27:01.020Z</time>
      </trkpt>
      <trkpt lat="43.52578" lon="5.53984">
        <ele>312.1</ele>
        <time>2025-11-05T13:27:04.020Z</time>
      </trkpt>
      <trkpt lat="43.52579" lon="5.5398">
        <ele>312.7</ele>
        <time>2025-11-05T13:27:08.019Z</time>
      </trkpt>
      <trkpt lat="43.5258" lon="5.53977">
        <ele>313.3</ele>
        <time>2025-11-05T13:27:12.020Z</time>
      </trkpt>
      <trkpt lat="43.5258" lon="5.53972">
        <ele>313.8</ele>
        <time>2025-11-05T13:27:18.020Z</time>
      </trkpt>
      <trkpt lat="43.5258" lon="5.53969">
        <ele>314.1</ele>
        <time>2025-11-05T13:27:21.019Z</time>
      </trkpt>
      <trkpt lat="43.52579" lon="5.53965">
        <ele>314.2</ele>
        <time>2025-11-05T13:27:23.020Z</time>
      </trkpt>
      <trkpt lat="43.5258" lon="5.53962">
        <ele>314.7</ele>
        <time>2025-11-05T13:27:26.020Z</time>
      </trkpt>
      <trkpt lat="43.5258" lon="5.53959">
        <ele>314.7</ele>
        <time>2025-11-05T13:27:32.020Z</time>
      </trkpt>
      <trkpt lat="43.52579" lon="5.53955">
        <ele>315</ele>
        <time>2025-11-05T13:27:38.019Z</time>
      </trkpt>
      <trkpt lat="43.52579" lon="5.53951">
        <ele>315.1</ele>
        <time>2025-11-05T13:27:41.019Z</time>
      </trkpt>
      <trkpt lat="43.52578" lon="5.53947">
        <ele>315</ele>
        <time>2025-11-05T13:27:44.019Z</time>
      </trkpt>
      <trkpt lat="43.52578" lon="5.53944">
        <ele>315.4</ele>
        <time>2025-11-05T13:27:47.020Z</time>
      </trkpt>
      <trkpt lat="43.5258" lon="5.53941">
        <ele>316.1</ele>
        <time>2025-11-05T13:27:50.020Z</time>
      </trkpt>
      <trkpt lat="43.52581" lon="5.53939">
        <ele>316.9</ele>
        <time>2025-11-05T13:27:54.019Z</time>
      </trkpt>
      <trkpt lat="43.52581" lon="5.53935">
        <ele>317.4</ele>
        <time>2025-11-05T13:28:00.019Z</time>
      </trkpt>
      <trkpt lat="43.52583" lon="5.53931">
        <ele>318.3</ele>
        <time>2025-11-05T13:28:04.019Z</time>
      </trkpt>
      <trkpt lat="43.52583" lon="5.53928">
        <ele>318.9</ele>
        <time>2025-11-05T13:28:08.020Z</time>
      </trkpt>
      <trkpt lat="43.52583" lon="5.53924">
        <ele>319.2</ele>
        <time>2025-11-05T13:28:11.019Z</time>
      </trkpt>
      <trkpt lat="43.52583" lon="5.5392">
        <ele>319.5</ele>
        <time>2025-11-05T13:28:14.019Z</time>
      </trkpt>
      <trkpt lat="43.52584" lon="5.53917">
        <ele>320.3</ele>
        <time>2025-11-05T13:28:17.020Z</time>
      </trkpt>
      <trkpt lat="43.52582" lon="5.53914">
        <ele>319.7</ele>
        <time>2025-11-05T13:28:22.020Z</time>
      </trkpt>
      <trkpt lat="43.52582" lon="5.53911">
        <ele>320.2</ele>
        <time>2025-11-05T13:28:25.020Z</time>
      </trkpt>
      <trkpt lat="43.52582" lon="5.53908">
        <ele>320.9</ele>
        <time>2025-11-05T13:28:28.019Z</time>
      </trkpt>
      <trkpt lat="43.52582" lon="5.53905">
        <ele>321.3</ele>
        <time>2025-11-05T13:28:32.019Z</time>
      </trkpt>
      <trkpt lat="43.52582" lon="5.539">
        <ele>321.7</ele>
        <time>2025-11-05T13:28:37.020Z</time>
      </trkpt>
      <trkpt lat="43.52582" lon="5.53897">
        <ele>322.5</ele>
        <time>2025-11-05T13:28:41.020Z</time>
      </trkpt>
      <trkpt lat="43.52582" lon="5.53894">
        <ele>322.6</ele>
        <time>2025-11-05T13:28:45.019Z</time>
      </trkpt>
      <trkpt lat="43.52581" lon="5.53889">
        <ele>322.7</ele>
        <time>2025-11-05T13:28:49.020Z</time>
      </trkpt>
      <trkpt lat="43.5258" lon="5.53886">
        <ele>323</ele>
        <time>2025-11-05T13:28:53.020Z</time>
      </trkpt>
      <trkpt lat="43.5258" lon="5.53883">
        <ele>323.4</ele>
        <time>2025-11-05T13:28:56.020Z</time>
      </trkpt>
      <trkpt lat="43.5258" lon="5.53879">
        <ele>324</ele>
        <time>2025-11-05T13:29:00.019Z</time>
      </trkpt>
      <trkpt lat="43.5258" lon="5.53876">
        <ele>324.4</ele>
        <time>2025-11-05T13:29:03.019Z</time>
      </trkpt>
      <trkpt lat="43.5258" lon="5.53871">
        <ele>325</ele>
        <time>2025-11-05T13:29:08.019Z</time>
      </trkpt>
      <trkpt lat="43.52581" lon="5.53868">
        <ele>325.8</ele>
        <time>2025-11-05T13:29:11.019Z</time>
      </trkpt>
      <trkpt lat="43.52582" lon="5.53864">
        <ele>326.6</ele>
        <time>2025-11-05T13:29:15.019Z</time>
      </trkpt>
      <trkpt lat="43.52581" lon="5.53861">
        <ele>327</ele>
        <time>2025-11-05T13:29:17.019Z</time>
      </trkpt>
      <trkpt lat="43.52581" lon="5.53857">
        <ele>326.8</ele>
        <time>2025-11-05T13:29:21.019Z</time>
      </trkpt>
      <trkpt lat="43.5258" lon="5.53854">
        <ele>326.5</ele>
        <time>2025-11-05T13:29:26.020Z</time>
      </trkpt>
      <trkpt lat="43.5258" lon="5.53851">
        <ele>326.5</ele>
        <time>2025-11-05T13:29:41.020Z</time>
      </trkpt>
      <trkpt lat="43.52579" lon="5.53847">
        <ele>326.4</ele>
        <time>2025-11-05T13:29:45.020Z</time>
      </trkpt>
      <trkpt lat="43.5258" lon="5.53843">
        <ele>326.6</ele>
        <time>2025-11-05T13:29:48.020Z</time>
      </trkpt>
      <trkpt lat="43.52579" lon="5.5384">
        <ele>326.4</ele>
        <time>2025-11-05T13:29:51.019Z</time>
      </trkpt>
      <trkpt lat="43.52579" lon="5.53836">
        <ele>326.7</ele>
        <time>2025-11-05T13:29:54.019Z</time>
      </trkpt>
      <trkpt lat="43.52579" lon="5.53832">
        <ele>326.6</ele>
        <time>2025-11-05T13:29:57.020Z</time>
      </trkpt>
      <trkpt lat="43.52578" lon="5.53829">
        <ele>326.1</ele>
        <time>2025-11-05T13:30:00.020Z</time>
      </trkpt>
      <trkpt lat="43.52577" lon="5.53825">
        <ele>325.9</ele>
        <time>2025-11-05T13:30:03.019Z</time>
      </trkpt>
      <trkpt lat="43.52577" lon="5.5382">
        <ele>325.7</ele>
        <time>2025-11-05T13:30:06.020Z</time>
      </trkpt>
      <trkpt lat="43.52577" lon="5.53816">
        <ele>325.7</ele>
        <time>2025-11-05T13:30:09.019Z</time>
      </trkpt>
      <trkpt lat="43.52576" lon="5.53813">
        <ele>325.4</ele>
        <time>2025-11-05T13:30:12.020Z</time>
      </trkpt>
      <trkpt lat="43.52575" lon="5.53809">
        <ele>325.1</ele>
        <time>2025-11-05T13:30:15.020Z</time>
      </trkpt>
      <trkpt lat="43.52574" lon="5.53805">
        <ele>324.5</ele>
        <time>2025-11-05T13:30:18.019Z</time>
      </trkpt>
      <trkpt lat="43.52573" lon="5.53802">
        <ele>324.9</ele>
        <time>2025-11-05T13:30:20.020Z</time>
      </trkpt>
      <trkpt lat="43.52574" lon="5.53797">
        <ele>325.8</ele>
        <time>2025-11-05T13:30:23.019Z</time>
      </trkpt>
      <trkpt lat="43.52574" lon="5.53794">
        <ele>326.2</ele>
        <time>2025-11-05T13:30:25.019Z</time>
      </trkpt>
      <trkpt lat="43.52573" lon="5.53791">
        <ele>326.5</ele>
        <time>2025-11-05T13:30:28.019Z</time>
      </trkpt>
      <trkpt lat="43.52573" lon="5.53786">
        <ele>326.7</ele>
        <time>2025-11-05T13:30:31.020Z</time>
      </trkpt>
      <trkpt lat="43.52571" lon="5.53783">
        <ele>326.6</ele>
        <time>2025-11-05T13:30:34.020Z</time>
      </trkpt>
      <trkpt lat="43.5257" lon="5.5378">
        <ele>326.5</ele>
        <time>2025-11-05T13:30:37.020Z</time>
      </trkpt>
      <trkpt lat="43.52569" lon="5.53776">
        <ele>326.7</ele>
        <time>2025-11-05T13:30:40.019Z</time>
      </trkpt>
      <trkpt lat="43.52567" lon="5.53773">
        <ele>326.4</ele>
        <time>2025-11-05T13:30:42.020Z</time>
      </trkpt>
      <trkpt lat="43.52566" lon="5.53771">
        <ele>326</ele>
        <time>2025-11-05T13:30:45.020Z</time>
      </trkpt>
      <trkpt lat="43.52565" lon="5.53767">
        <ele>326.4</ele>
        <time>2025-11-05T13:30:48.020Z</time>
      </trkpt>
      <trkpt lat="43.52564" lon="5.53762">
        <ele>326.6</ele>
        <time>2025-11-05T13:30:51.020Z</time>
      </trkpt>
      <trkpt lat="43.52562" lon="5.53759">
        <ele>326.2</ele>
        <time>2025-11-05T13:30:53.020Z</time>
      </trkpt>
      <trkpt lat="43.5256" lon="5.53757">
        <ele>325.6</ele>
        <time>2025-11-05T13:30:55.019Z</time>
      </trkpt>
      <trkpt lat="43.52559" lon="5.53753">
        <ele>325.7</ele>
        <time>2025-11-05T13:30:58.019Z</time>
      </trkpt>
      <trkpt lat="43.52559" lon="5.53749">
        <ele>326</ele>
        <time>2025-11-05T13:31:01.020Z</time>
      </trkpt>
      <trkpt lat="43.52558" lon="5.53745">
        <ele>325.6</ele>
        <time>2025-11-05T13:31:05.020Z</time>
      </trkpt>
      <trkpt lat="43.52556" lon="5.53742">
        <ele>324.8</ele>
        <time>2025-11-05T13:31:08.019Z</time>
      </trkpt>
      <trkpt lat="43.52555" lon="5.53738">
        <ele>324.3</ele>
        <time>2025-11-05T13:31:11.019Z</time>
      </trkpt>
      <trkpt lat="43.52555" lon="5.53735">
        <ele>324.1</ele>
        <time>2025-11-05T13:31:13.019Z</time>
      </trkpt>
      <trkpt lat="43.52553" lon="5.53732">
        <ele>323.8</ele>
        <time>2025-11-05T13:31:16.020Z</time>
      </trkpt>
      <trkpt lat="43.52552" lon="5.53729">
        <ele>323.4</ele>
        <time>2025-11-05T13:31:20.020Z</time>
      </trkpt>
      <trkpt lat="43.52551" lon="5.53726">
        <ele>323.2</ele>
        <time>2025-11-05T13:31:23.019Z</time>
      </trkpt>
      <trkpt lat="43.52551" lon="5.53722">
        <ele>323.1</ele>
        <time>2025-11-05T13:31:26.020Z</time>
      </trkpt>
      <trkpt lat="43.5255" lon="5.53719">
        <ele>322.5</ele>
        <time>2025-11-05T13:31:29.020Z</time>
      </trkpt>
      <trkpt lat="43.5255" lon="5.53715">
        <ele>322.1</ele>
        <time>2025-11-05T13:31:33.019Z</time>
      </trkpt>
      <trkpt lat="43.5255" lon="5.53711">
        <ele>322.1</ele>
        <time>2025-11-05T13:31:37.020Z</time>
      </trkpt>
      <trkpt lat="43.5255" lon="5.53708">
        <ele>321.7</ele>
        <time>2025-11-05T13:31:39.019Z</time>
      </trkpt>
      <trkpt lat="43.5255" lon="5.53705">
        <ele>321.5</ele>
        <time>2025-11-05T13:31:42.019Z</time>
      </trkpt>
      <trkpt lat="43.5255" lon="5.537">
        <ele>321.2</ele>
        <time>2025-11-05T13:31:45.019Z</time>
      </trkpt>
      <trkpt lat="43.52551" lon="5.53697">
        <ele>321.3</ele>
        <time>2025-11-05T13:31:48.019Z</time>
      </trkpt>
      <trkpt lat="43.52552" lon="5.53693">
        <ele>321.3</ele>
        <time>2025-11-05T13:31:54.020Z</time>
      </trkpt>
      <trkpt lat="43.52551" lon="5.53689">
        <ele>320.3</ele>
        <time>2025-11-05T13:31:58.020Z</time>
      </trkpt>
      <trkpt lat="43.52551" lon="5.53686">
        <ele>319.4</ele>
        <time>2025-11-05T13:32:02.019Z</time>
      </trkpt>
      <trkpt lat="43.52549" lon="5.53684">
        <ele>318.2</ele>
        <time>2025-11-05T13:32:05.020Z</time>
      </trkpt>
      <trkpt lat="43.52546" lon="5.53683">
        <ele>316.9</ele>
        <time>2025-11-05T13:32:07.019Z</time>
      </trkpt>
      <trkpt lat="43.52543" lon="5.53684">
        <ele>316.2</ele>
        <time>2025-11-05T13:32:09.020Z</time>
      </trkpt>
      <trkpt lat="43.52541" lon="5.53686">
        <ele>315.7</ele>
        <time>2025-11-05T13:32:12.020Z</time>
      </trkpt>
      <trkpt lat="43.52539" lon="5.5369">
        <ele>315.5</ele>
        <time>2025-11-05T13:32:14.019Z</time>
      </trkpt>
      <trkpt lat="43.52537" lon="5.53693">
        <ele>315.5</ele>
        <time>2025-11-05T13:32:17.020Z</time>
      </trkpt>
      <trkpt lat="43.52536" lon="5.53697">
        <ele>315.5</ele>
        <time>2025-11-05T13:32:21.020Z</time>
      </trkpt>
      <trkpt lat="43.52535" lon="5.53701">
        <ele>315.4</ele>
        <time>2025-11-05T13:32:24.019Z</time>
      </trkpt>
      <trkpt lat="43.52533" lon="5.53704">
        <ele>314.9</ele>
        <time>2025-11-05T13:32:27.019Z</time>
      </trkpt>
      <trkpt lat="43.52531" lon="5.53707">
        <ele>314.3</ele>
        <time>2025-11-05T13:32:30.019Z</time>
      </trkpt>
      <trkpt lat="43.5253" lon="5.5371">
        <ele>314</ele>
        <time>2025-11-05T13:32:33.020Z</time>
      </trkpt>
      <trkpt lat="43.52529" lon="5.53714">
        <ele>313.7</ele>
        <time>2025-11-05T13:32:37.020Z</time>
      </trkpt>
      <trkpt lat="43.52527" lon="5.53717">
        <ele>313.3</ele>
        <time>2025-11-05T13:32:40.019Z</time>
      </trkpt>
      <trkpt lat="43.52527" lon="5.5372">
        <ele>313.5</ele>
        <time>2025-11-05T13:32:44.020Z</time>
      </trkpt>
      <trkpt lat="43.52526" lon="5.53723">
        <ele>313.5</ele>
        <time>2025-11-05T13:32:47.020Z</time>
      </trkpt>
      <trkpt lat="43.52525" lon="5.53726">
        <ele>313.1</ele>
        <time>2025-11-05T13:32:50.020Z</time>
      </trkpt>
      <trkpt lat="43.52525" lon="5.53729">
        <ele>313.1</ele>
        <time>2025-11-05T13:32:53.020Z</time>
      </trkpt>
      <trkpt lat="43.52522" lon="5.5373">
        <ele>312.5</ele>
        <time>2025-11-05T13:32:56.020Z</time>
      </trkpt>
      <trkpt lat="43.52521" lon="5.53734">
        <ele>312.1</ele>
        <time>2025-11-05T13:32:59.020Z</time>
      </trkpt>
      <trkpt lat="43.52519" lon="5.53736">
        <ele>311.7</ele>
        <time>2025-11-05T13:33:02.020Z</time>
      </trkpt>
      <trkpt lat="43.52517" lon="5.53738">
        <ele>311.2</ele>
        <time>2025-11-05T13:33:06.020Z</time>
      </trkpt>
      <trkpt lat="43.52514" lon="5.53739">
        <ele>310.4</ele>
        <time>2025-11-05T13:33:09.019Z</time>
      </trkpt>
      <trkpt lat="43.52512" lon="5.53738">
        <ele>309.6</ele>
        <time>2025-11-05T13:33:14.019Z</time>
      </trkpt>
      <trkpt lat="43.52509" lon="5.53737">
        <ele>308.9</ele>
        <time>2025-11-05T13:33:18.020Z</time>
      </trkpt>
      <trkpt lat="43.52507" lon="5.53736">
        <ele>308.3</ele>
        <time>2025-11-05T13:33:21.019Z</time>
      </trkpt>
      <trkpt lat="43.52505" lon="5.53733">
        <ele>307.7</ele>
        <time>2025-11-05T13:33:24.020Z</time>
      </trkpt>
      <trkpt lat="43.52503" lon="5.53731">
        <ele>307.2</ele>
        <time>2025-11-05T13:33:27.020Z</time>
      </trkpt>
      <trkpt lat="43.52503" lon="5.53727">
        <ele>306.9</ele>
        <time>2025-11-05T13:33:32.020Z</time>
      </trkpt>
      <trkpt lat="43.52502" lon="5.53724">
        <ele>306.6</ele>
        <time>2025-11-05T13:33:35.019Z</time>
      </trkpt>
      <trkpt lat="43.52503" lon="5.53719">
        <ele>306.5</ele>
        <time>2025-11-05T13:33:41.019Z</time>
      </trkpt>
      <trkpt lat="43.52504" lon="5.53715">
        <ele>306.3</ele>
        <time>2025-11-05T13:33:44.019Z</time>
      </trkpt>
      <trkpt lat="43.52504" lon="5.5371">
        <ele>306</ele>
        <time>2025-11-05T13:33:47.019Z</time>
      </trkpt>
      <trkpt lat="43.52505" lon="5.53707">
        <ele>305.8</ele>
        <time>2025-11-05T13:33:50.020Z</time>
      </trkpt>
      <trkpt lat="43.52505" lon="5.53703">
        <ele>305.4</ele>
        <time>2025-11-05T13:33:53.020Z</time>
      </trkpt>
      <trkpt lat="43.52505" lon="5.53699">
        <ele>305.1</ele>
        <time>2025-11-05T13:33:56.019Z</time>
      </trkpt>
      <trkpt lat="43.52506" lon="5.53696">
        <ele>305</ele>
        <time>2025-11-05T13:33:58.020Z</time>
      </trkpt>
      <trkpt lat="43.52506" lon="5.53692">
        <ele>304.7</ele>
        <time>2025-11-05T13:34:01.019Z</time>
      </trkpt>
      <trkpt lat="43.52508" lon="5.53688">
        <ele>304.9</ele>
        <time>2025-11-05T13:34:03.019Z</time>
      </trkpt>
      <trkpt lat="43.52508" lon="5.53684">
        <ele>304.6</ele>
        <time>2025-11-05T13:34:06.019Z</time>
      </trkpt>
      <trkpt lat="43.52509" lon="5.53681">
        <ele>304.5</ele>
        <time>2025-11-05T13:34:09.020Z</time>
      </trkpt>
      <trkpt lat="43.52509" lon="5.53676">
        <ele>304.3</ele>
        <time>2025-11-05T13:34:12.019Z</time>
      </trkpt>
      <trkpt lat="43.5251" lon="5.53671">
        <ele>304.1</ele>
        <time>2025-11-05T13:34:15.020Z</time>
      </trkpt>
      <trkpt lat="43.52512" lon="5.53668">
        <ele>304.1</ele>
        <time>2025-11-05T13:34:17.020Z</time>
      </trkpt>
      <trkpt lat="43.52513" lon="5.53664">
        <ele>304</ele>
        <time>2025-11-05T13:34:20.019Z</time>
      </trkpt>
      <trkpt lat="43.52515" lon="5.53662">
        <ele>304.1</ele>
        <time>2025-11-05T13:34:22.020Z</time>
      </trkpt>
      <trkpt lat="43.52516" lon="5.53658">
        <ele>303.9</ele>
        <time>2025-11-05T13:34:25.020Z</time>
      </trkpt>
      <trkpt lat="43.52517" lon="5.53655">
        <ele>303.6</ele>
        <time>2025-11-05T13:34:28.020Z</time>
      </trkpt>
      <trkpt lat="43.52519" lon="5.53651">
        <ele>303.4</ele>
        <time>2025-11-05T13:34:31.019Z</time>
      </trkpt>
      <trkpt lat="43.5252" lon="5.53647">
        <ele>303.1</ele>
        <time>2025-11-05T13:34:34.019Z</time>
      </trkpt>
      <trkpt lat="43.52521" lon="5.53644">
        <ele>302.9</ele>
        <time>2025-11-05T13:34:36.019Z</time>
      </trkpt>
      <trkpt lat="43.52522" lon="5.53641">
        <ele>302.4</ele>
        <time>2025-11-05T13:34:39.019Z</time>
      </trkpt>
      <trkpt lat="43.52522" lon="5.53636">
        <ele>302.1</ele>
        <time>2025-11-05T13:34:41.020Z</time>
      </trkpt>
      <trkpt lat="43.52523" lon="5.53633">
        <ele>302.3</ele>
        <time>2025-11-05T13:34:43.019Z</time>
      </trkpt>
      <trkpt lat="43.52523" lon="5.53629">
        <ele>302.3</ele>
        <time>2025-11-05T13:34:45.019Z</time>
      </trkpt>
      <trkpt lat="43.52522" lon="5.53624">
        <ele>302.1</ele>
        <time>2025-11-05T13:34:47.020Z</time>
      </trkpt>
      <trkpt lat="43.52522" lon="5.53621">
        <ele>302</ele>
        <time>2025-11-05T13:34:49.020Z</time>
      </trkpt>
      <trkpt lat="43.52521" lon="5.53616">
        <ele>301.8</ele>
        <time>2025-11-05T13:34:52.020Z</time>
      </trkpt>
      <trkpt lat="43.5252" lon="5.53613">
        <ele>301.6</ele>
        <time>2025-11-05T13:34:54.020Z</time>
      </trkpt>
      <trkpt lat="43.52519" lon="5.53609">
        <ele>301.6</ele>
        <time>2025-11-05T13:34:56.019Z</time>
      </trkpt>
      <trkpt lat="43.52519" lon="5.53605">
        <ele>302</ele>
        <time>2025-11-05T13:34:58.020Z</time>
      </trkpt>
      <trkpt lat="43.52518" lon="5.536">
        <ele>302.2</ele>
        <time>2025-11-05T13:35:00.020Z</time>
      </trkpt>
      <trkpt lat="43.52518" lon="5.53597">
        <ele>302.3</ele>
        <time>2025-11-05T13:35:02.020Z</time>
      </trkpt>
      <trkpt lat="43.52517" lon="5.53594">
        <ele>302.4</ele>
        <time>2025-11-05T13:35:04.019Z</time>
      </trkpt>
      <trkpt lat="43.52516" lon="5.53589">
        <ele>302.5</ele>
        <time>2025-11-05T13:35:07.020Z</time>
      </trkpt>
      <trkpt lat="43.52514" lon="5.53586">
        <ele>302.3</ele>
        <time>2025-11-05T13:35:10.019Z</time>
      </trkpt>
      <trkpt lat="43.52512" lon="5.53584">
        <ele>302</ele>
        <time>2025-11-05T13:35:13.019Z</time>
      </trkpt>
      <trkpt lat="43.5251" lon="5.53581">
        <ele>301.6</ele>
        <time>2025-11-05T13:35:16.019Z</time>
      </trkpt>
      <trkpt lat="43.52507" lon="5.53578">
        <ele>301.2</ele>
        <time>2025-11-05T13:35:20.020Z</time>
      </trkpt>
      <trkpt lat="43.52505" lon="5.53576">
        <ele>300.9</ele>
        <time>2025-11-05T13:35:22.019Z</time>
      </trkpt>
      <trkpt lat="43.52504" lon="5.53573">
        <ele>300.7</ele>
        <time>2025-11-05T13:35:24.019Z</time>
      </trkpt>
      <trkpt lat="43.52503" lon="5.5357">
        <ele>300.7</ele>
        <time>2025-11-05T13:35:27.019Z</time>
      </trkpt>
      <trkpt lat="43.52501" lon="5.53567">
        <ele>300.5</ele>
        <time>2025-11-05T13:35:30.019Z</time>
      </trkpt>
      <trkpt lat="43.52499" lon="5.53563">
        <ele>300.1</ele>
        <time>2025-11-05T13:35:34.020Z</time>
      </trkpt>
      <trkpt lat="43.52497" lon="5.5356">
        <ele>300</ele>
        <time>2025-11-05T13:35:37.019Z</time>
      </trkpt>
      <trkpt lat="43.52497" lon="5.53556">
        <ele>300</ele>
        <time>2025-11-05T13:35:40.020Z</time>
      </trkpt>
      <trkpt lat="43.52495" lon="5.53553">
        <ele>299.5</ele>
        <time>2025-11-05T13:35:43.019Z</time>
      </trkpt>
      <trkpt lat="43.52495" lon="5.53549">
        <ele>299.2</ele>
        <time>2025-11-05T13:35:46.020Z</time>
      </trkpt>
      <trkpt lat="43.52494" lon="5.53546">
        <ele>298.8</ele>
        <time>2025-11-05T13:35:48.020Z</time>
      </trkpt>
      <trkpt lat="43.52494" lon="5.53541">
        <ele>298.5</ele>
        <time>2025-11-05T13:35:51.020Z</time>
      </trkpt>
      <trkpt lat="43.52493" lon="5.53536">
        <ele>298.2</ele>
        <time>2025-11-05T13:35:54.019Z</time>
      </trkpt>
      <trkpt lat="43.52493" lon="5.53532">
        <ele>297.9</ele>
        <time>2025-11-05T13:35:57.020Z</time>
      </trkpt>
      <trkpt lat="43.52492" lon="5.53528">
        <ele>297.4</ele>
        <time>2025-11-05T13:36:00.019Z</time>
      </trkpt>
      <trkpt lat="43.52492" lon="5.53524">
        <ele>297.1</ele>
        <time>2025-11-05T13:36:03.020Z</time>
      </trkpt>
      <trkpt lat="43.52492" lon="5.5352">
        <ele>296.7</ele>
        <time>2025-11-05T13:36:06.020Z</time>
      </trkpt>
      <trkpt lat="43.52491" lon="5.53516">
        <ele>296.2</ele>
        <time>2025-11-05T13:36:10.019Z</time>
      </trkpt>
      <trkpt lat="43.52491" lon="5.53513">
        <ele>295.9</ele>
        <time>2025-11-05T13:36:13.019Z</time>
      </trkpt>
      <trkpt lat="43.52491" lon="5.5351">
        <ele>295.5</ele>
        <time>2025-11-05T13:36:15.020Z</time>
      </trkpt>
      <trkpt lat="43.5249" lon="5.53507">
        <ele>295.1</ele>
        <time>2025-11-05T13:36:17.019Z</time>
      </trkpt>
      <trkpt lat="43.5249" lon="5.53503">
        <ele>294.7</ele>
        <time>2025-11-05T13:36:19.019Z</time>
      </trkpt>
      <trkpt lat="43.5249" lon="5.535">
        <ele>294.4</ele>
        <time>2025-11-05T13:36:21.019Z</time>
      </trkpt>
      <trkpt lat="43.5249" lon="5.53496">
        <ele>294.4</ele>
        <time>2025-11-05T13:36:24.020Z</time>
      </trkpt>
      <trkpt lat="43.52491" lon="5.53492">
        <ele>294.5</ele>
        <time>2025-11-05T13:36:26.020Z</time>
      </trkpt>
      <trkpt lat="43.52493" lon="5.53487">
        <ele>294.7</ele>
        <time>2025-11-05T13:36:29.020Z</time>
      </trkpt>
      <trkpt lat="43.52493" lon="5.53483">
        <ele>294.6</ele>
        <time>2025-11-05T13:36:31.019Z</time>
      </trkpt>
      <trkpt lat="43.52493" lon="5.5348">
        <ele>294.5</ele>
        <time>2025-11-05T13:36:34.020Z</time>
      </trkpt>
      <trkpt lat="43.52493" lon="5.53477">
        <ele>294.4</ele>
        <time>2025-11-05T13:36:36.020Z</time>
      </trkpt>
      <trkpt lat="43.52493" lon="5.53472">
        <ele>294.3</ele>
        <time>2025-11-05T13:36:39.020Z</time>
      </trkpt>
      <trkpt lat="43.52493" lon="5.53469">
        <ele>293.8</ele>
        <time>2025-11-05T13:36:41.020Z</time>
      </trkpt>
      <trkpt lat="43.52493" lon="5.53465">
        <ele>293.5</ele>
        <time>2025-11-05T13:36:44.019Z</time>
      </trkpt>
      <trkpt lat="43.52493" lon="5.53461">
        <ele>293.2</ele>
        <time>2025-11-05T13:36:47.019Z</time>
      </trkpt>
      <trkpt lat="43.52493" lon="5.53457">
        <ele>292.9</ele>
        <time>2025-11-05T13:36:49.020Z</time>
      </trkpt>
      <trkpt lat="43.52493" lon="5.53454">
        <ele>292.5</ele>
        <time>2025-11-05T13:36:51.019Z</time>
      </trkpt>
      <trkpt lat="43.52493" lon="5.53449">
        <ele>292.2</ele>
        <time>2025-11-05T13:36:54.019Z</time>
      </trkpt>
      <trkpt lat="43.52494" lon="5.53446">
        <ele>292</ele>
        <time>2025-11-05T13:36:56.019Z</time>
      </trkpt>
      <trkpt lat="43.52494" lon="5.53442">
        <ele>291.6</ele>
        <time>2025-11-05T13:36:58.019Z</time>
      </trkpt>
      <trkpt lat="43.52494" lon="5.53439">
        <ele>291.3</ele>
        <time>2025-11-05T13:37:00.020Z</time>
      </trkpt>
      <trkpt lat="43.52494" lon="5.53436">
        <ele>290.9</ele>
        <time>2025-11-05T13:37:03.019Z</time>
      </trkpt>
      <trkpt lat="43.52494" lon="5.53432">
        <ele>290.4</ele>
        <time>2025-11-05T13:37:06.019Z</time>
      </trkpt>
      <trkpt lat="43.52494" lon="5.53429">
        <ele>290.2</ele>
        <time>2025-11-05T13:37:08.020Z</time>
      </trkpt>
      <trkpt lat="43.52494" lon="5.53424">
        <ele>289.6</ele>
        <time>2025-11-05T13:37:11.019Z</time>
      </trkpt>
      <trkpt lat="43.52494" lon="5.5342">
        <ele>289.2</ele>
        <time>2025-11-05T13:37:14.019Z</time>
      </trkpt>
      <trkpt lat="43.52494" lon="5.53416">
        <ele>288.7</ele>
        <time>2025-11-05T13:37:17.020Z</time>
      </trkpt>
      <trkpt lat="43.52494" lon="5.53413">
        <ele>288.4</ele>
        <time>2025-11-05T13:37:19.019Z</time>
      </trkpt>
      <trkpt lat="43.52494" lon="5.5341">
        <ele>288.3</ele>
        <time>2025-11-05T13:37:21.019Z</time>
      </trkpt>
      <trkpt lat="43.52495" lon="5.53405">
        <ele>288</ele>
        <time>2025-11-05T13:37:24.019Z</time>
      </trkpt>
      <trkpt lat="43.52494" lon="5.53401">
        <ele>287.6</ele>
        <time>2025-11-05T13:37:27.020Z</time>
      </trkpt>
      <trkpt lat="43.52495" lon="5.53396">
        <ele>287.4</ele>
        <time>2025-11-05T13:37:30.019Z</time>
      </trkpt>
      <trkpt lat="43.52495" lon="5.53392">
        <ele>287.1</ele>
        <time>2025-11-05T13:37:33.019Z</time>
      </trkpt>
      <trkpt lat="43.52495" lon="5.53388">
        <ele>286.8</ele>
        <time>2025-11-05T13:37:36.019Z</time>
      </trkpt>
      <trkpt lat="43.52496" lon="5.53385">
        <ele>286.7</ele>
        <time>2025-11-05T13:37:38.020Z</time>
      </trkpt>
      <trkpt lat="43.52496" lon="5.53382">
        <ele>286.6</ele>
        <time>2025-11-05T13:37:40.019Z</time>
      </trkpt>
      <trkpt lat="43.52496" lon="5.53378">
        <ele>286.4</ele>
        <time>2025-11-05T13:37:42.020Z</time>
      </trkpt>
      <trkpt lat="43.52497" lon="5.53374">
        <ele>286.2</ele>
        <time>2025-11-05T13:37:45.020Z</time>
      </trkpt>
      <trkpt lat="43.52497" lon="5.5337">
        <ele>285.9</ele>
        <time>2025-11-05T13:37:48.020Z</time>
      </trkpt>
      <trkpt lat="43.52498" lon="5.53366">
        <ele>285.8</ele>
        <time>2025-11-05T13:37:50.020Z</time>
      </trkpt>
      <trkpt lat="43.52497" lon="5.53362">
        <ele>285.4</ele>
        <time>2025-11-05T13:37:53.019Z</time>
      </trkpt>
      <trkpt lat="43.52499" lon="5.53359">
        <ele>285.2</ele>
        <time>2025-11-05T13:37:56.019Z</time>
      </trkpt>
      <trkpt lat="43.52498" lon="5.53355">
        <ele>284.5</ele>
        <time>2025-11-05T13:37:59.019Z</time>
      </trkpt>
      <trkpt lat="43.52498" lon="5.5335">
        <ele>283.5</ele>
        <time>2025-11-05T13:38:02.020Z</time>
      </trkpt>
      <trkpt lat="43.52498" lon="5.53346">
        <ele>282.9</ele>
        <time>2025-11-05T13:38:05.020Z</time>
      </trkpt>
      <trkpt lat="43.52497" lon="5.53342">
        <ele>282.1</ele>
        <time>2025-11-05T13:38:08.019Z</time>
      </trkpt>
      <trkpt lat="43.52498" lon="5.53338">
        <ele>281.6</ele>
        <time>2025-11-05T13:38:11.020Z</time>
      </trkpt>
      <trkpt lat="43.52498" lon="5.53335">
        <ele>281</ele>
        <time>2025-11-05T13:38:13.020Z</time>
      </trkpt>
      <trkpt lat="43.52497" lon="5.53332">
        <ele>280.5</ele>
        <time>2025-11-05T13:38:15.019Z</time>
      </trkpt>
      <trkpt lat="43.52497" lon="5.53329">
        <ele>280.5</ele>
        <time>2025-11-05T13:38:18.019Z</time>
      </trkpt>
      <trkpt lat="43.52498" lon="5.53325">
        <ele>280.4</ele>
        <time>2025-11-05T13:38:21.020Z</time>
      </trkpt>
      <trkpt lat="43.52498" lon="5.53322">
        <ele>280.3</ele>
        <time>2025-11-05T13:38:23.019Z</time>
      </trkpt>
      <trkpt lat="43.52499" lon="5.53318">
        <ele>280.3</ele>
        <time>2025-11-05T13:38:26.020Z</time>
      </trkpt>
      <trkpt lat="43.52498" lon="5.53314">
        <ele>280.1</ele>
        <time>2025-11-05T13:38:28.019Z</time>
      </trkpt>
      <trkpt lat="43.52499" lon="5.5331">
        <ele>280.1</ele>
        <time>2025-11-05T13:38:31.019Z</time>
      </trkpt>
      <trkpt lat="43.525" lon="5.53306">
        <ele>280.1</ele>
        <time>2025-11-05T13:38:34.019Z</time>
      </trkpt>
      <trkpt lat="43.525" lon="5.53302">
        <ele>279.9</ele>
        <time>2025-11-05T13:38:37.019Z</time>
      </trkpt>
      <trkpt lat="43.525" lon="5.53298">
        <ele>279.6</ele>
        <time>2025-11-05T13:38:40.019Z</time>
      </trkpt>
      <trkpt lat="43.52499" lon="5.53294">
        <ele>279.5</ele>
        <time>2025-11-05T13:38:43.019Z</time>
      </trkpt>
      <trkpt lat="43.52498" lon="5.5329">
        <ele>279.1</ele>
        <time>2025-11-05T13:38:46.020Z</time>
      </trkpt>
      <trkpt lat="43.52499" lon="5.53286">
        <ele>279</ele>
        <time>2025-11-05T13:38:49.019Z</time>
      </trkpt>
      <trkpt lat="43.52498" lon="5.53282">
        <ele>278.9</ele>
        <time>2025-11-05T13:38:52.020Z</time>
      </trkpt>
      <trkpt lat="43.52497" lon="5.53278">
        <ele>278.6</ele>
        <time>2025-11-05T13:38:55.020Z</time>
      </trkpt>
      <trkpt lat="43.52497" lon="5.53275">
        <ele>278.4</ele>
        <time>2025-11-05T13:38:58.020Z</time>
      </trkpt>
      <trkpt lat="43.52495" lon="5.53272">
        <ele>278.2</ele>
        <time>2025-11-05T13:39:01.019Z</time>
      </trkpt>
      <trkpt lat="43.52495" lon="5.53268">
        <ele>278</ele>
        <time>2025-11-05T13:39:04.019Z</time>
      </trkpt>
      <trkpt lat="43.52494" lon="5.53264">
        <ele>277.9</ele>
        <time>2025-11-05T13:39:07.019Z</time>
      </trkpt>
      <trkpt lat="43.52493" lon="5.53262">
        <ele>277.7</ele>
        <time>2025-11-05T13:39:09.019Z</time>
      </trkpt>
      <trkpt lat="43.52492" lon="5.53258">
        <ele>277.6</ele>
        <time>2025-11-05T13:39:12.019Z</time>
      </trkpt>
      <trkpt lat="43.52491" lon="5.53255">
        <ele>277.3</ele>
        <time>2025-11-05T13:39:14.020Z</time>
      </trkpt>
      <trkpt lat="43.52488" lon="5.53256">
        <ele>276.9</ele>
        <time>2025-11-05T13:39:16.020Z</time>
      </trkpt>
      <trkpt lat="43.52487" lon="5.53252">
        <ele>276.6</ele>
        <time>2025-11-05T13:39:21.020Z</time>
      </trkpt>
      <trkpt lat="43.52485" lon="5.5325">
        <ele>276.3</ele>
        <time>2025-11-05T13:39:23.019Z</time>
      </trkpt>
      <trkpt lat="43.52483" lon="5.53248">
        <ele>275.8</ele>
        <time>2025-11-05T13:39:27.019Z</time>
      </trkpt>
      <trkpt lat="43.5248" lon="5.53247">
        <ele>275.1</ele>
        <time>2025-11-05T13:39:29.019Z</time>
      </trkpt>
      <trkpt lat="43.52476" lon="5.53245">
        <ele>274.2</ele>
        <time>2025-11-05T13:39:31.019Z</time>
      </trkpt>
      <trkpt lat="43.52474" lon="5.53244">
        <ele>273.6</ele>
        <time>2025-11-05T13:39:33.020Z</time>
      </trkpt>
      <trkpt lat="43.52471" lon="5.53242">
        <ele>273.4</ele>
        <time>2025-11-05T13:39:36.019Z</time>
      </trkpt>
      <trkpt lat="43.52468" lon="5.53241">
        <ele>273.8</ele>
        <time>2025-11-05T13:39:39.019Z</time>
      </trkpt>
      <trkpt lat="43.52467" lon="5.53238">
        <ele>273.7</ele>
        <time>2025-11-05T13:39:42.019Z</time>
      </trkpt>
      <trkpt lat="43.52465" lon="5.53236">
        <ele>273.7</ele>
        <time>2025-11-05T13:39:44.019Z</time>
      </trkpt>
      <trkpt lat="43.52462" lon="5.53234">
        <ele>274</ele>
        <time>2025-11-05T13:39:46.019Z</time>
      </trkpt>
      <trkpt lat="43.52459" lon="5.53232">
        <ele>273.9</ele>
        <time>2025-11-05T13:39:48.020Z</time>
      </trkpt>
      <trkpt lat="43.52457" lon="5.53231">
        <ele>274.1</ele>
        <time>2025-11-05T13:39:51.019Z</time>
      </trkpt>
      <trkpt lat="43.52455" lon="5.53228">
        <ele>273.9</ele>
        <time>2025-11-05T13:39:54.019Z</time>
      </trkpt>
      <trkpt lat="43.52453" lon="5.53225">
        <ele>273.6</ele>
        <time>2025-11-05T13:39:57.020Z</time>
      </trkpt>
      <trkpt lat="43.5245" lon="5.53225">
        <ele>273.9</ele>
        <time>2025-11-05T13:40:00.019Z</time>
      </trkpt>
      <trkpt lat="43.52448" lon="5.53223">
        <ele>273.9</ele>
        <time>2025-11-05T13:40:03.019Z</time>
      </trkpt>
      <trkpt lat="43.52445" lon="5.53224">
        <ele>274.3</ele>
        <time>2025-11-05T13:40:07.019Z</time>
      </trkpt>
      <trkpt lat="43.52442" lon="5.53222">
        <ele>273.7</ele>
        <time>2025-11-05T13:40:11.019Z</time>
      </trkpt>
      <trkpt lat="43.5244" lon="5.53219">
        <ele>273.1</ele>
        <time>2025-11-05T13:40:15.019Z</time>
      </trkpt>
      <trkpt lat="43.52437" lon="5.53218">
        <ele>272.6</ele>
        <time>2025-11-05T13:40:18.020Z</time>
      </trkpt>
      <trkpt lat="43.52434" lon="5.53216">
        <ele>272</ele>
        <time>2025-11-05T13:40:20.019Z</time>
      </trkpt>
      <trkpt lat="43.52431" lon="5.53216">
        <ele>271.9</ele>
        <time>2025-11-05T13:40:24.019Z</time>
      </trkpt>
      <trkpt lat="43.52428" lon="5.53216">
        <ele>271.7</ele>
        <time>2025-11-05T13:40:27.019Z</time>
      </trkpt>
      <trkpt lat="43.52426" lon="5.53216">
        <ele>271.7</ele>
        <time>2025-11-05T13:40:30.020Z</time>
      </trkpt>
      <trkpt lat="43.52423" lon="5.53214">
        <ele>271.1</ele>
        <time>2025-11-05T13:40:33.019Z</time>
      </trkpt>
      <trkpt lat="43.5242" lon="5.53214">
        <ele>270.9</ele>
        <time>2025-11-05T13:40:36.019Z</time>
      </trkpt>
      <trkpt lat="43.52417" lon="5.53213">
        <ele>270.7</ele>
        <time>2025-11-05T13:40:39.019Z</time>
      </trkpt>
      <trkpt lat="43.52415" lon="5.53212">
        <ele>270.4</ele>
        <time>2025-11-05T13:40:42.020Z</time>
      </trkpt>
      <trkpt lat="43.52412" lon="5.53211">
        <ele>270</ele>
        <time>2025-11-05T13:40:45.019Z</time>
      </trkpt>
      <trkpt lat="43.5241" lon="5.53209">
        <ele>269.6</ele>
        <time>2025-11-05T13:40:48.019Z</time>
      </trkpt>
      <trkpt lat="43.52407" lon="5.53207">
        <ele>269.1</ele>
        <time>2025-11-05T13:40:51.019Z</time>
      </trkpt>
      <trkpt lat="43.52405" lon="5.53205">
        <ele>268.8</ele>
        <time>2025-11-05T13:40:53.019Z</time>
      </trkpt>
      <trkpt lat="43.52403" lon="5.53203">
        <ele>268.4</ele>
        <time>2025-11-05T13:40:56.020Z</time>
      </trkpt>
      <trkpt lat="43.524" lon="5.53202">
        <ele>268.2</ele>
        <time>2025-11-05T13:40:59.020Z</time>
      </trkpt>
      <trkpt lat="43.52398" lon="5.53201">
        <ele>268</ele>
        <time>2025-11-05T13:41:01.019Z</time>
      </trkpt>
      <trkpt lat="43.52396" lon="5.53199">
        <ele>267.7</ele>
        <time>2025-11-05T13:41:05.019Z</time>
      </trkpt>
      <trkpt lat="43.52394" lon="5.53198">
        <ele>267.5</ele>
        <time>2025-11-05T13:41:08.019Z</time>
      </trkpt>
      <trkpt lat="43.52391" lon="5.53199">
        <ele>267.4</ele>
        <time>2025-11-05T13:41:12.020Z</time>
      </trkpt>
      <trkpt lat="43.52389" lon="5.53201">
        <ele>267.4</ele>
        <time>2025-11-05T13:41:15.019Z</time>
      </trkpt>
      <trkpt lat="43.52387" lon="5.53204">
        <ele>267.2</ele>
        <time>2025-11-05T13:41:27.019Z</time>
      </trkpt>
      <trkpt lat="43.52387" lon="5.532">
        <ele>266.8</ele>
        <time>2025-11-05T13:41:34.019Z</time>
      </trkpt>
      <trkpt lat="43.52387" lon="5.53196">
        <ele>266.6</ele>
        <time>2025-11-05T13:41:37.019Z</time>
      </trkpt>
      <trkpt lat="43.52388" lon="5.53193">
        <ele>266.5</ele>
        <time>2025-11-05T13:41:39.019Z</time>
      </trkpt>
      <trkpt lat="43.52388" lon="5.5319">
        <ele>266.6</ele>
        <time>2025-11-05T13:41:42.019Z</time>
      </trkpt>
      <trkpt lat="43.52386" lon="5.53187">
        <ele>266.1</ele>
        <time>2025-11-05T13:41:44.019Z</time>
      </trkpt>
      <trkpt lat="43.52386" lon="5.53184">
        <ele>266</ele>
        <time>2025-11-05T13:41:47.020Z</time>
      </trkpt>
      <trkpt lat="43.52386" lon="5.53181">
        <ele>265.9</ele>
        <time>2025-11-05T13:41:50.019Z</time>
      </trkpt>
      <trkpt lat="43.52383" lon="5.53177">
        <ele>265.6</ele>
        <time>2025-11-05T13:41:53.019Z</time>
      </trkpt>
      <trkpt lat="43.52381" lon="5.53175">
        <ele>265.3</ele>
        <time>2025-11-05T13:41:56.020Z</time>
      </trkpt>
      <trkpt lat="43.52381" lon="5.53172">
        <ele>265.5</ele>
        <time>2025-11-05T13:41:59.020Z</time>
      </trkpt>
      <trkpt lat="43.52383" lon="5.5317">
        <ele>265.7</ele>
        <time>2025-11-05T13:42:02.019Z</time>
      </trkpt>
      <trkpt lat="43.52385" lon="5.53168">
        <ele>265.9</ele>
        <time>2025-11-05T13:42:06.019Z</time>
      </trkpt>
      <trkpt lat="43.52387" lon="5.53166">
        <ele>266</ele>
        <time>2025-11-05T13:42:12.020Z</time>
      </trkpt>
      <trkpt lat="43.52389" lon="5.53163">
        <ele>266.2</ele>
        <time>2025-11-05T13:42:15.019Z</time>
      </trkpt>
      <trkpt lat="43.5239" lon="5.5316">
        <ele>266.4</ele>
        <time>2025-11-05T13:42:17.019Z</time>
      </trkpt>
      <trkpt lat="43.52393" lon="5.53158">
        <ele>266.5</ele>
        <time>2025-11-05T13:42:20.019Z</time>
      </trkpt>
      <trkpt lat="43.52395" lon="5.53157">
        <ele>266.4</ele>
        <time>2025-11-05T13:42:23.019Z</time>
      </trkpt>
      <trkpt lat="43.52397" lon="5.53154">
        <ele>266.4</ele>
        <time>2025-11-05T13:42:25.020Z</time>
      </trkpt>
      <trkpt lat="43.52398" lon="5.53151">
        <ele>266.4</ele>
        <time>2025-11-05T13:42:27.019Z</time>
      </trkpt>
      <trkpt lat="43.524" lon="5.53148">
        <ele>266.3</ele>
        <time>2025-11-05T13:42:30.020Z</time>
      </trkpt>
      <trkpt lat="43.52402" lon="5.53145">
        <ele>266.1</ele>
        <time>2025-11-05T13:42:33.019Z</time>
      </trkpt>
      <trkpt lat="43.52404" lon="5.53143">
        <ele>265.9</ele>
        <time>2025-11-05T13:42:35.019Z</time>
      </trkpt>
      <trkpt lat="43.52404" lon="5.53139">
        <ele>265.8</ele>
        <time>2025-11-05T13:42:37.019Z</time>
      </trkpt>
      <trkpt lat="43.52404" lon="5.53135">
        <ele>265.7</ele>
        <time>2025-11-05T13:42:40.020Z</time>
      </trkpt>
      <trkpt lat="43.52405" lon="5.53131">
        <ele>265.7</ele>
        <time>2025-11-05T13:42:43.019Z</time>
      </trkpt>
      <trkpt lat="43.52406" lon="5.53127">
        <ele>265.5</ele>
        <time>2025-11-05T13:42:46.019Z</time>
      </trkpt>
      <trkpt lat="43.52406" lon="5.53122">
        <ele>265.3</ele>
        <time>2025-11-05T13:42:49.019Z</time>
      </trkpt>
      <trkpt lat="43.52407" lon="5.53119">
        <ele>265.1</ele>
        <time>2025-11-05T13:42:51.019Z</time>
      </trkpt>
      <trkpt lat="43.52409" lon="5.53115">
        <ele>264.8</ele>
        <time>2025-11-05T13:42:54.020Z</time>
      </trkpt>
      <trkpt lat="43.5241" lon="5.53112">
        <ele>264.5</ele>
        <time>2025-11-05T13:42:57.019Z</time>
      </trkpt>
      <trkpt lat="43.5241" lon="5.53108">
        <ele>264.2</ele>
        <time>2025-11-05T13:43:00.019Z</time>
      </trkpt>
      <trkpt lat="43.5241" lon="5.53105">
        <ele>264.1</ele>
        <time>2025-11-05T13:43:02.019Z</time>
      </trkpt>
      <trkpt lat="43.52411" lon="5.53101">
        <ele>263.6</ele>
        <time>2025-11-05T13:43:05.019Z</time>
      </trkpt>
      <trkpt lat="43.52411" lon="5.53097">
        <ele>263.4</ele>
        <time>2025-11-05T13:43:08.019Z</time>
      </trkpt>
      <trkpt lat="43.5241" lon="5.53093">
        <ele>263.3</ele>
        <time>2025-11-05T13:43:11.019Z</time>
      </trkpt>
      <trkpt lat="43.5241" lon="5.53089">
        <ele>263</ele>
        <time>2025-11-05T13:43:14.020Z</time>
      </trkpt>
      <trkpt lat="43.52411" lon="5.53085">
        <ele>262.5</ele>
        <time>2025-11-05T13:43:16.019Z</time>
      </trkpt>
      <trkpt lat="43.52411" lon="5.53081">
        <ele>262.3</ele>
        <time>2025-11-05T13:43:18.019Z</time>
      </trkpt>
      <trkpt lat="43.52411" lon="5.53078">
        <ele>262.2</ele>
        <time>2025-11-05T13:43:20.019Z</time>
      </trkpt>
      <trkpt lat="43.5241" lon="5.53075">
        <ele>262.3</ele>
        <time>2025-11-05T13:43:22.019Z</time>
      </trkpt>
      <trkpt lat="43.5241" lon="5.53071">
        <ele>262.3</ele>
        <time>2025-11-05T13:43:25.019Z</time>
      </trkpt>
      <trkpt lat="43.5241" lon="5.53066">
        <ele>262.1</ele>
        <time>2025-11-05T13:43:28.020Z</time>
      </trkpt>
      <trkpt lat="43.5241" lon="5.53062">
        <ele>261.9</ele>
        <time>2025-11-05T13:43:31.019Z</time>
      </trkpt>
      <trkpt lat="43.52411" lon="5.53058">
        <ele>261.6</ele>
        <time>2025-11-05T13:43:35.019Z</time>
      </trkpt>
      <trkpt lat="43.52411" lon="5.53054">
        <ele>261.4</ele>
        <time>2025-11-05T13:43:38.019Z</time>
      </trkpt>
      <trkpt lat="43.52411" lon="5.5305">
        <ele>261.3</ele>
        <time>2025-11-05T13:43:41.019Z</time>
      </trkpt>
      <trkpt lat="43.52412" lon="5.53046">
        <ele>261</ele>
        <time>2025-11-05T13:43:44.019Z</time>
      </trkpt>
      <trkpt lat="43.52412" lon="5.53042">
        <ele>260.9</ele>
        <time>2025-11-05T13:43:46.020Z</time>
      </trkpt>
      <trkpt lat="43.52413" lon="5.53039">
        <ele>260.5</ele>
        <time>2025-11-05T13:43:48.019Z</time>
      </trkpt>
      <trkpt lat="43.52413" lon="5.53035">
        <ele>260.4</ele>
        <time>2025-11-05T13:43:51.019Z</time>
      </trkpt>
      <trkpt lat="43.52414" lon="5.53031">
        <ele>260</ele>
        <time>2025-11-05T13:43:54.019Z</time>
      </trkpt>
      <trkpt lat="43.52414" lon="5.53027">
        <ele>259.7</ele>
        <time>2025-11-05T13:43:57.019Z</time>
      </trkpt>
      <trkpt lat="43.52415" lon="5.53023">
        <ele>259.4</ele>
        <time>2025-11-05T13:44:00.019Z</time>
      </trkpt>
      <trkpt lat="43.52413" lon="5.53019">
        <ele>259.8</ele>
        <time>2025-11-05T13:44:03.020Z</time>
      </trkpt>
      <trkpt lat="43.52412" lon="5.53015">
        <ele>260.1</ele>
        <time>2025-11-05T13:44:07.020Z</time>
      </trkpt>
      <trkpt lat="43.52413" lon="5.53011">
        <ele>259.9</ele>
        <time>2025-11-05T13:44:10.019Z</time>
      </trkpt>
      <trkpt lat="43.52413" lon="5.53007">
        <ele>259.6</ele>
        <time>2025-11-05T13:44:12.020Z</time>
      </trkpt>
      <trkpt lat="43.52414" lon="5.53003">
        <ele>259.2</ele>
        <time>2025-11-05T13:44:15.019Z</time>
      </trkpt>
      <trkpt lat="43.52414" lon="5.52999">
        <ele>259</ele>
        <time>2025-11-05T13:44:18.020Z</time>
      </trkpt>
      <trkpt lat="43.52415" lon="5.52995">
        <ele>258.7</ele>
        <time>2025-11-05T13:44:20.020Z</time>
      </trkpt>
      <trkpt lat="43.52416" lon="5.52992">
        <ele>258.1</ele>
        <time>2025-11-05T13:44:22.019Z</time>
      </trkpt>
      <trkpt lat="43.52416" lon="5.52988">
        <ele>257.9</ele>
        <time>2025-11-05T13:44:26.019Z</time>
      </trkpt>
      <trkpt lat="43.52416" lon="5.52984">
        <ele>257.8</ele>
        <time>2025-11-05T13:44:29.020Z</time>
      </trkpt>
      <trkpt lat="43.52416" lon="5.52979">
        <ele>257.5</ele>
        <time>2025-11-05T13:44:34.020Z</time>
      </trkpt>
      <trkpt lat="43.52415" lon="5.52976">
        <ele>257.7</ele>
        <time>2025-11-05T13:44:36.019Z</time>
      </trkpt>
      <trkpt lat="43.52417" lon="5.52972">
        <ele>257</ele>
        <time>2025-11-05T13:44:38.019Z</time>
      </trkpt>
      <trkpt lat="43.52417" lon="5.52969">
        <ele>257</ele>
        <time>2025-11-05T13:44:40.020Z</time>
      </trkpt>
      <trkpt lat="43.52419" lon="5.52965">
        <ele>257</ele>
        <time>2025-11-05T13:44:43.019Z</time>
      </trkpt>
      <trkpt lat="43.5242" lon="5.52961">
        <ele>257</ele>
        <time>2025-11-05T13:44:46.019Z</time>
      </trkpt>
      <trkpt lat="43.52421" lon="5.52956">
        <ele>257</ele>
        <time>2025-11-05T13:44:49.020Z</time>
      </trkpt>
      <trkpt lat="43.52422" lon="5.52952">
        <ele>256.9</ele>
        <time>2025-11-05T13:44:51.020Z</time>
      </trkpt>
      <trkpt lat="43.52422" lon="5.52949">
        <ele>256.9</ele>
        <time>2025-11-05T13:44:54.020Z</time>
      </trkpt>
      <trkpt lat="43.52423" lon="5.52946">
        <ele>256.8</ele>
        <time>2025-11-05T13:44:57.019Z</time>
      </trkpt>
      <trkpt lat="43.52423" lon="5.52942">
        <ele>256.8</ele>
        <time>2025-11-05T13:44:59.019Z</time>
      </trkpt>
      <trkpt lat="43.52424" lon="5.52939">
        <ele>256.8</ele>
        <time>2025-11-05T13:45:02.019Z</time>
      </trkpt>
      <trkpt lat="43.52425" lon="5.52936">
        <ele>256.8</ele>
        <time>2025-11-05T13:45:05.019Z</time>
      </trkpt>
      <trkpt lat="43.52426" lon="5.52932">
        <ele>256.8</ele>
        <time>2025-11-05T13:45:07.019Z</time>
      </trkpt>
      <trkpt lat="43.52427" lon="5.52928">
        <ele>256.8</ele>
        <time>2025-11-05T13:45:09.019Z</time>
      </trkpt>
      <trkpt lat="43.52429" lon="5.52925">
        <ele>256.6</ele>
        <time>2025-11-05T13:45:12.020Z</time>
      </trkpt>
      <trkpt lat="43.52431" lon="5.52922">
        <ele>256.5</ele>
        <time>2025-11-05T13:45:14.020Z</time>
      </trkpt>
      <trkpt lat="43.52432" lon="5.52919">
        <ele>256.4</ele>
        <time>2025-11-05T13:45:17.019Z</time>
      </trkpt>
      <trkpt lat="43.52432" lon="5.52915">
        <ele>256.3</ele>
        <time>2025-11-05T13:45:19.019Z</time>
      </trkpt>
      <trkpt lat="43.52434" lon="5.52911">
        <ele>256.2</ele>
        <time>2025-11-05T13:45:21.019Z</time>
      </trkpt>
      <trkpt lat="43.52435" lon="5.52908">
        <ele>256</ele>
        <time>2025-11-05T13:45:23.020Z</time>
      </trkpt>
      <trkpt lat="43.52437" lon="5.52906">
        <ele>255.8</ele>
        <time>2025-11-05T13:45:25.019Z</time>
      </trkpt>
      <trkpt lat="43.52438" lon="5.52903">
        <ele>255.7</ele>
        <time>2025-11-05T13:45:28.019Z</time>
      </trkpt>
      <trkpt lat="43.52439" lon="5.529">
        <ele>255.5</ele>
        <time>2025-11-05T13:45:30.019Z</time>
      </trkpt>
      <trkpt lat="43.5244" lon="5.52896">
        <ele>255.5</ele>
        <time>2025-11-05T13:45:32.020Z</time>
      </trkpt>
      <trkpt lat="43.52441" lon="5.52892">
        <ele>255.3</ele>
        <time>2025-11-05T13:45:34.019Z</time>
      </trkpt>
      <trkpt lat="43.52442" lon="5.52889">
        <ele>255.3</ele>
        <time>2025-11-05T13:45:37.019Z</time>
      </trkpt>
      <trkpt lat="43.52444" lon="5.52884">
        <ele>255</ele>
        <time>2025-11-05T13:45:39.020Z</time>
      </trkpt>
      <trkpt lat="43.52445" lon="5.52881">
        <ele>255</ele>
        <time>2025-11-05T13:45:41.019Z</time>
      </trkpt>
      <trkpt lat="43.52445" lon="5.52876">
        <ele>255</ele>
        <time>2025-11-05T13:45:44.019Z</time>
      </trkpt>
      <trkpt lat="43.52445" lon="5.52872">
        <ele>255</ele>
        <time>2025-11-05T13:45:46.019Z</time>
      </trkpt>
      <trkpt lat="43.52444" lon="5.52869">
        <ele>254.9</ele>
        <time>2025-11-05T13:45:49.020Z</time>
      </trkpt>
      <trkpt lat="43.52443" lon="5.52866">
        <ele>254.8</ele>
        <time>2025-11-05T13:45:51.019Z</time>
      </trkpt>
      <trkpt lat="43.52444" lon="5.52862">
        <ele>254.8</ele>
        <time>2025-11-05T13:45:54.019Z</time>
      </trkpt>
      <trkpt lat="43.52445" lon="5.52859">
        <ele>255.2</ele>
        <time>2025-11-05T13:45:57.020Z</time>
      </trkpt>
      <trkpt lat="43.52445" lon="5.52855">
        <ele>255.5</ele>
        <time>2025-11-05T13:45:59.019Z</time>
      </trkpt>
      <trkpt lat="43.52445" lon="5.52852">
        <ele>255.7</ele>
        <time>2025-11-05T13:46:01.019Z</time>
      </trkpt>
      <trkpt lat="43.52445" lon="5.52849">
        <ele>256</ele>
        <time>2025-11-05T13:46:03.019Z</time>
      </trkpt>
      <trkpt lat="43.52445" lon="5.52845">
        <ele>256.3</ele>
        <time>2025-11-05T13:46:07.019Z</time>
      </trkpt>
      <trkpt lat="43.52446" lon="5.52841">
        <ele>256.6</ele>
        <time>2025-11-05T13:46:10.019Z</time>
      </trkpt>
      <trkpt lat="43.52446" lon="5.52836">
        <ele>257</ele>
        <time>2025-11-05T13:46:14.020Z</time>
      </trkpt>
      <trkpt lat="43.52447" lon="5.52833">
        <ele>257.3</ele>
        <time>2025-11-05T13:46:17.020Z</time>
      </trkpt>
      <trkpt lat="43.52447" lon="5.52829">
        <ele>257.8</ele>
        <time>2025-11-05T13:46:20.019Z</time>
      </trkpt>
      <trkpt lat="43.52447" lon="5.52826">
        <ele>258.2</ele>
        <time>2025-11-05T13:46:23.019Z</time>
      </trkpt>
      <trkpt lat="43.52447" lon="5.52822">
        <ele>258.7</ele>
        <time>2025-11-05T13:46:26.020Z</time>
      </trkpt>
      <trkpt lat="43.52446" lon="5.52818">
        <ele>258.9</ele>
        <time>2025-11-05T13:46:30.019Z</time>
      </trkpt>
      <trkpt lat="43.52446" lon="5.52814">
        <ele>259.5</ele>
        <time>2025-11-05T13:46:33.019Z</time>
      </trkpt>
      <trkpt lat="43.52446" lon="5.52811">
        <ele>260</ele>
        <time>2025-11-05T13:46:36.019Z</time>
      </trkpt>
      <trkpt lat="43.52445" lon="5.52808">
        <ele>259.9</ele>
        <time>2025-11-05T13:46:39.020Z</time>
      </trkpt>
      <trkpt lat="43.52444" lon="5.52805">
        <ele>260.1</ele>
        <time>2025-11-05T13:46:42.019Z</time>
      </trkpt>
      <trkpt lat="43.52443" lon="5.52802">
        <ele>260.4</ele>
        <time>2025-11-05T13:46:46.019Z</time>
      </trkpt>
      <trkpt lat="43.52443" lon="5.52798">
        <ele>260.9</ele>
        <time>2025-11-05T13:46:50.019Z</time>
      </trkpt>
      <trkpt lat="43.52443" lon="5.52794">
        <ele>261.4</ele>
        <time>2025-11-05T13:46:53.019Z</time>
      </trkpt>
      <trkpt lat="43.52443" lon="5.52791">
        <ele>261.9</ele>
        <time>2025-11-05T13:46:56.019Z</time>
      </trkpt>
      <trkpt lat="43.52445" lon="5.52788">
        <ele>262.7</ele>
        <time>2025-11-05T13:47:01.019Z</time>
      </trkpt>
      <trkpt lat="43.52445" lon="5.52784">
        <ele>263.5</ele>
        <time>2025-11-05T13:47:06.020Z</time>
      </trkpt>
      <trkpt lat="43.52445" lon="5.52781">
        <ele>264.1</ele>
        <time>2025-11-05T13:47:09.020Z</time>
      </trkpt>
      <trkpt lat="43.52444" lon="5.52777">
        <ele>264.1</ele>
        <time>2025-11-05T13:47:14.019Z</time>
      </trkpt>
      <trkpt lat="43.52445" lon="5.52774">
        <ele>265</ele>
        <time>2025-11-05T13:47:17.019Z</time>
      </trkpt>
      <trkpt lat="43.52444" lon="5.5277">
        <ele>265.6</ele>
        <time>2025-11-05T13:47:21.020Z</time>
      </trkpt>
      <trkpt lat="43.52445" lon="5.52766">
        <ele>266.6</ele>
        <time>2025-11-05T13:47:24.019Z</time>
      </trkpt>
      <trkpt lat="43.52445" lon="5.52762">
        <ele>267.6</ele>
        <time>2025-11-05T13:47:28.019Z</time>
      </trkpt>
      <trkpt lat="43.52445" lon="5.52759">
        <ele>268.4</ele>
        <time>2025-11-05T13:47:32.019Z</time>
      </trkpt>
      <trkpt lat="43.52445" lon="5.52755">
        <ele>269.3</ele>
        <time>2025-11-05T13:47:36.019Z</time>
      </trkpt>
      <trkpt lat="43.52445" lon="5.52751">
        <ele>270.1</ele>
        <time>2025-11-05T13:47:41.019Z</time>
      </trkpt>
      <trkpt lat="43.52444" lon="5.52746">
        <ele>270.1</ele>
        <time>2025-11-05T13:47:46.019Z</time>
      </trkpt>
      <trkpt lat="43.52443" lon="5.52742">
        <ele>270.4</ele>
        <time>2025-11-05T13:47:49.019Z</time>
      </trkpt>
      <trkpt lat="43.52442" lon="5.52737">
        <ele>270.3</ele>
        <time>2025-11-05T13:47:56.020Z</time>
      </trkpt>
      <trkpt lat="43.52442" lon="5.52734">
        <ele>270.4</ele>
        <time>2025-11-05T13:47:59.019Z</time>
      </trkpt>
      <trkpt lat="43.52442" lon="5.5273">
        <ele>270.7</ele>
        <time>2025-11-05T13:48:02.019Z</time>
      </trkpt>
      <trkpt lat="43.52442" lon="5.52727">
        <ele>271.2</ele>
        <time>2025-11-05T13:48:07.019Z</time>
      </trkpt>
      <trkpt lat="43.52441" lon="5.52723">
        <ele>271.3</ele>
        <time>2025-11-05T13:48:11.019Z</time>
      </trkpt>
      <trkpt lat="43.52441" lon="5.52719">
        <ele>270.8</ele>
        <time>2025-11-05T13:48:15.019Z</time>
      </trkpt>
      <trkpt lat="43.52441" lon="5.52714">
        <ele>270.6</ele>
        <time>2025-11-05T13:48:18.019Z</time>
      </trkpt>
      <trkpt lat="43.52441" lon="5.5271">
        <ele>270.5</ele>
        <time>2025-11-05T13:48:20.019Z</time>
      </trkpt>
      <trkpt lat="43.52441" lon="5.52706">
        <ele>270.7</ele>
        <time>2025-11-05T13:48:24.019Z</time>
      </trkpt>
      <trkpt lat="43.52441" lon="5.52702">
        <ele>270.6</ele>
        <time>2025-11-05T13:48:28.019Z</time>
      </trkpt>
      <trkpt lat="43.52442" lon="5.52698">
        <ele>270.8</ele>
        <time>2025-11-05T13:48:31.019Z</time>
      </trkpt>
      <trkpt lat="43.52441" lon="5.52694">
        <ele>270.4</ele>
        <time>2025-11-05T13:48:34.019Z</time>
      </trkpt>
      <trkpt lat="43.52442" lon="5.5269">
        <ele>270.3</ele>
        <time>2025-11-05T13:48:37.019Z</time>
      </trkpt>
      <trkpt lat="43.52444" lon="5.52687">
        <ele>270.7</ele>
        <time>2025-11-05T13:48:40.020Z</time>
      </trkpt>
      <trkpt lat="43.52445" lon="5.52684">
        <ele>271.1</ele>
        <time>2025-11-05T13:48:43.019Z</time>
      </trkpt>
      <trkpt lat="43.52446" lon="5.5268">
        <ele>271</ele>
        <time>2025-11-05T13:48:45.019Z</time>
      </trkpt>
      <trkpt lat="43.52445" lon="5.52677">
        <ele>270.5</ele>
        <time>2025-11-05T13:48:48.019Z</time>
      </trkpt>
      <trkpt lat="43.52447" lon="5.52674">
        <ele>270.6</ele>
        <time>2025-11-05T13:48:51.019Z</time>
      </trkpt>
      <trkpt lat="43.52448" lon="5.5267">
        <ele>270.5</ele>
        <time>2025-11-05T13:48:54.019Z</time>
      </trkpt>
      <trkpt lat="43.52449" lon="5.52666">
        <ele>270.7</ele>
        <time>2025-11-05T13:48:57.019Z</time>
      </trkpt>
      <trkpt lat="43.52451" lon="5.52663">
        <ele>271</ele>
        <time>2025-11-05T13:49:00.020Z</time>
      </trkpt>
      <trkpt lat="43.52453" lon="5.52659">
        <ele>271.3</ele>
        <time>2025-11-05T13:49:03.019Z</time>
      </trkpt>
      <trkpt lat="43.52454" lon="5.52656">
        <ele>271.3</ele>
        <time>2025-11-05T13:49:05.019Z</time>
      </trkpt>
      <trkpt lat="43.52456" lon="5.52654">
        <ele>271.4</ele>
        <time>2025-11-05T13:49:07.020Z</time>
      </trkpt>
      <trkpt lat="43.52458" lon="5.52651">
        <ele>271.6</ele>
        <time>2025-11-05T13:49:10.019Z</time>
      </trkpt>
      <trkpt lat="43.5246" lon="5.52648">
        <ele>271.8</ele>
        <time>2025-11-05T13:49:12.019Z</time>
      </trkpt>
      <trkpt lat="43.52462" lon="5.52645">
        <ele>271.8</ele>
        <time>2025-11-05T13:49:14.019Z</time>
      </trkpt>
      <trkpt lat="43.52463" lon="5.52642">
        <ele>271.6</ele>
        <time>2025-11-05T13:49:16.019Z</time>
      </trkpt>
      <trkpt lat="43.52465" lon="5.52639">
        <ele>271.4</ele>
        <time>2025-11-05T13:49:19.020Z</time>
      </trkpt>
      <trkpt lat="43.52466" lon="5.52636">
        <ele>271.2</ele>
        <time>2025-11-05T13:49:21.020Z</time>
      </trkpt>
      <trkpt lat="43.52468" lon="5.52633">
        <ele>270.9</ele>
        <time>2025-11-05T13:49:23.020Z</time>
      </trkpt>
      <trkpt lat="43.5247" lon="5.52629">
        <ele>270.8</ele>
        <time>2025-11-05T13:49:26.019Z</time>
      </trkpt>
      <trkpt lat="43.52472" lon="5.52626">
        <ele>270.8</ele>
        <time>2025-11-05T13:49:29.019Z</time>
      </trkpt>
      <trkpt lat="43.52474" lon="5.52624">
        <ele>270.9</ele>
        <time>2025-11-05T13:49:31.020Z</time>
      </trkpt>
      <trkpt lat="43.52476" lon="5.52621">
        <ele>271</ele>
        <time>2025-11-05T13:49:33.019Z</time>
      </trkpt>
      <trkpt lat="43.52478" lon="5.52619">
        <ele>271.4</ele>
        <time>2025-11-05T13:49:35.020Z</time>
      </trkpt>
      <trkpt lat="43.5248" lon="5.52617">
        <ele>271.4</ele>
        <time>2025-11-05T13:49:37.019Z</time>
      </trkpt>
      <trkpt lat="43.52482" lon="5.52614">
        <ele>271.5</ele>
        <time>2025-11-05T13:49:39.019Z</time>
      </trkpt>
      <trkpt lat="43.52483" lon="5.52611">
        <ele>271.6</ele>
        <time>2025-11-05T13:49:41.020Z</time>
      </trkpt>
      <trkpt lat="43.52486" lon="5.52609">
        <ele>272.1</ele>
        <time>2025-11-05T13:49:44.019Z</time>
      </trkpt>
      <trkpt lat="43.52487" lon="5.52607">
        <ele>272.3</ele>
        <time>2025-11-05T13:49:47.019Z</time>
      </trkpt>
      <trkpt lat="43.5249" lon="5.52605">
        <ele>272.5</ele>
        <time>2025-11-05T13:49:50.019Z</time>
      </trkpt>
      <trkpt lat="43.52492" lon="5.52602">
        <ele>272.6</ele>
        <time>2025-11-05T13:49:53.019Z</time>
      </trkpt>
      <trkpt lat="43.52493" lon="5.526">
        <ele>272.5</ele>
        <time>2025-11-05T13:49:55.019Z</time>
      </trkpt>
      <trkpt lat="43.52495" lon="5.52597">
        <ele>272.4</ele>
        <time>2025-11-05T13:49:57.019Z</time>
      </trkpt>
      <trkpt lat="43.52497" lon="5.52594">
        <ele>272</ele>
        <time>2025-11-05T13:50:00.019Z</time>
      </trkpt>
      <trkpt lat="43.52498" lon="5.5259">
        <ele>271.5</ele>
        <time>2025-11-05T13:50:02.020Z</time>
      </trkpt>
      <trkpt lat="43.52499" lon="5.52587">
        <ele>270.8</ele>
        <time>2025-11-05T13:50:04.019Z</time>
      </trkpt>
      <trkpt lat="43.525" lon="5.52584">
        <ele>270.1</ele>
        <time>2025-11-05T13:50:06.019Z</time>
      </trkpt>
      <trkpt lat="43.52501" lon="5.52581">
        <ele>270</ele>
        <time>2025-11-05T13:50:08.019Z</time>
      </trkpt>
      <trkpt lat="43.52502" lon="5.52577">
        <ele>269.8</ele>
        <time>2025-11-05T13:50:11.019Z</time>
      </trkpt>
      <trkpt lat="43.52503" lon="5.52572">
        <ele>269.6</ele>
        <time>2025-11-05T13:50:14.020Z</time>
      </trkpt>
      <trkpt lat="43.52503" lon="5.52569">
        <ele>269.5</ele>
        <time>2025-11-05T13:50:16.019Z</time>
      </trkpt>
      <trkpt lat="43.52505" lon="5.52567">
        <ele>269.7</ele>
        <time>2025-11-05T13:50:18.019Z</time>
      </trkpt>
      <trkpt lat="43.52506" lon="5.52563">
        <ele>269.5</ele>
        <time>2025-11-05T13:50:21.019Z</time>
      </trkpt>
      <trkpt lat="43.52507" lon="5.5256">
        <ele>269.6</ele>
        <time>2025-11-05T13:50:23.019Z</time>
      </trkpt>
      <trkpt lat="43.52508" lon="5.52555">
        <ele>269.4</ele>
        <time>2025-11-05T13:50:26.019Z</time>
      </trkpt>
      <trkpt lat="43.52509" lon="5.52551">
        <ele>269.5</ele>
        <time>2025-11-05T13:50:29.020Z</time>
      </trkpt>
      <trkpt lat="43.52511" lon="5.52546">
        <ele>269.6</ele>
        <time>2025-11-05T13:50:32.019Z</time>
      </trkpt>
      <trkpt lat="43.52511" lon="5.52542">
        <ele>269.7</ele>
        <time>2025-11-05T13:50:34.019Z</time>
      </trkpt>
      <trkpt lat="43.52512" lon="5.52539">
        <ele>269.6</ele>
        <time>2025-11-05T13:50:36.020Z</time>
      </trkpt>
      <trkpt lat="43.52513" lon="5.52536">
        <ele>269.7</ele>
        <time>2025-11-05T13:50:38.019Z</time>
      </trkpt>
      <trkpt lat="43.52514" lon="5.52533">
        <ele>269.7</ele>
        <time>2025-11-05T13:50:40.019Z</time>
      </trkpt>
      <trkpt lat="43.52515" lon="5.5253">
        <ele>269.7</ele>
        <time>2025-11-05T13:50:42.019Z</time>
      </trkpt>
      <trkpt lat="43.52516" lon="5.52526">
        <ele>269.7</ele>
        <time>2025-11-05T13:50:44.019Z</time>
      </trkpt>
      <trkpt lat="43.52516" lon="5.52523">
        <ele>269.9</ele>
        <time>2025-11-05T13:50:46.019Z</time>
      </trkpt>
      <trkpt lat="43.52517" lon="5.5252">
        <ele>270</ele>
        <time>2025-11-05T13:50:49.019Z</time>
      </trkpt>
      <trkpt lat="43.52518" lon="5.52516">
        <ele>270.2</ele>
        <time>2025-11-05T13:50:52.019Z</time>
      </trkpt>
      <trkpt lat="43.52519" lon="5.52513">
        <ele>270.5</ele>
        <time>2025-11-05T13:50:55.020Z</time>
      </trkpt>
      <trkpt lat="43.5252" lon="5.5251">
        <ele>270.6</ele>
        <time>2025-11-05T13:50:57.020Z</time>
      </trkpt>
      <trkpt lat="43.52521" lon="5.52507">
        <ele>270.9</ele>
        <time>2025-11-05T13:50:59.019Z</time>
      </trkpt>
      <trkpt lat="43.52522" lon="5.52503">
        <ele>271.1</ele>
        <time>2025-11-05T13:51:02.019Z</time>
      </trkpt>
      <trkpt lat="43.52523" lon="5.52499">
        <ele>271.3</ele>
        <time>2025-11-05T13:51:05.020Z</time>
      </trkpt>
      <trkpt lat="43.52524" lon="5.52495">
        <ele>271.6</ele>
        <time>2025-11-05T13:51:08.019Z</time>
      </trkpt>
      <trkpt lat="43.52524" lon="5.52492">
        <ele>271.8</ele>
        <time>2025-11-05T13:51:10.019Z</time>
      </trkpt>
      <trkpt lat="43.52525" lon="5.52487">
        <ele>272.1</ele>
        <time>2025-11-05T13:51:13.019Z</time>
      </trkpt>
      <trkpt lat="43.52526" lon="5.52484">
        <ele>272.4</ele>
        <time>2025-11-05T13:51:15.020Z</time>
      </trkpt>
      <trkpt lat="43.52527" lon="5.5248">
        <ele>272.6</ele>
        <time>2025-11-05T13:51:18.019Z</time>
      </trkpt>
      <trkpt lat="43.52528" lon="5.52476">
        <ele>272.9</ele>
        <time>2025-11-05T13:51:21.019Z</time>
      </trkpt>
      <trkpt lat="43.5253" lon="5.52473">
        <ele>273.4</ele>
        <time>2025-11-05T13:51:24.019Z</time>
      </trkpt>
      <trkpt lat="43.52531" lon="5.52469">
        <ele>273.5</ele>
        <time>2025-11-05T13:51:27.019Z</time>
      </trkpt>
      <trkpt lat="43.52531" lon="5.52466">
        <ele>273.6</ele>
        <time>2025-11-05T13:51:30.019Z</time>
      </trkpt>
      <trkpt lat="43.52532" lon="5.52462">
        <ele>273.8</ele>
        <time>2025-11-05T13:51:32.019Z</time>
      </trkpt>
      <trkpt lat="43.52533" lon="5.52458">
        <ele>274.1</ele>
        <time>2025-11-05T13:51:35.019Z</time>
      </trkpt>
      <trkpt lat="43.52534" lon="5.52455">
        <ele>274.2</ele>
        <time>2025-11-05T13:51:38.019Z</time>
      </trkpt>
      <trkpt lat="43.52535" lon="5.52451">
        <ele>274.5</ele>
        <time>2025-11-05T13:51:41.019Z</time>
      </trkpt>
      <trkpt lat="43.52535" lon="5.52447">
        <ele>274.6</ele>
        <time>2025-11-05T13:51:44.019Z</time>
      </trkpt>
      <trkpt lat="43.52536" lon="5.52444">
        <ele>274.8</ele>
        <time>2025-11-05T13:51:46.019Z</time>
      </trkpt>
      <trkpt lat="43.52536" lon="5.52441">
        <ele>274.7</ele>
        <time>2025-11-05T13:51:48.019Z</time>
      </trkpt>
      <trkpt lat="43.52538" lon="5.52437">
        <ele>274.8</ele>
        <time>2025-11-05T13:51:51.019Z</time>
      </trkpt>
      <trkpt lat="43.52539" lon="5.52433">
        <ele>274.9</ele>
        <time>2025-11-05T13:51:54.019Z</time>
      </trkpt>
      <trkpt lat="43.5254" lon="5.5243">
        <ele>274.8</ele>
        <time>2025-11-05T13:51:56.019Z</time>
      </trkpt>
      <trkpt lat="43.52542" lon="5.52427">
        <ele>275</ele>
        <time>2025-11-05T13:51:59.019Z</time>
      </trkpt>
      <trkpt lat="43.52544" lon="5.52424">
        <ele>275.4</ele>
        <time>2025-11-05T13:52:02.019Z</time>
      </trkpt>
      <trkpt lat="43.52546" lon="5.52421">
        <ele>275.5</ele>
        <time>2025-11-05T13:52:05.019Z</time>
      </trkpt>
      <trkpt lat="43.52548" lon="5.52418">
        <ele>275.7</ele>
        <time>2025-11-05T13:52:08.019Z</time>
      </trkpt>
      <trkpt lat="43.5255" lon="5.52414">
        <ele>275.8</ele>
        <time>2025-11-05T13:52:11.020Z</time>
      </trkpt>
      <trkpt lat="43.52551" lon="5.52411">
        <ele>275.8</ele>
        <time>2025-11-05T13:52:13.019Z</time>
      </trkpt>
      <trkpt lat="43.52552" lon="5.52409">
        <ele>275.9</ele>
        <time>2025-11-05T13:52:15.019Z</time>
      </trkpt>
      <trkpt lat="43.52554" lon="5.52405">
        <ele>275.9</ele>
        <time>2025-11-05T13:52:18.019Z</time>
      </trkpt>
      <trkpt lat="43.52555" lon="5.52402">
        <ele>275.9</ele>
        <time>2025-11-05T13:52:20.019Z</time>
      </trkpt>
      <trkpt lat="43.52557" lon="5.52399">
        <ele>275.8</ele>
        <time>2025-11-05T13:52:23.019Z</time>
      </trkpt>
      <trkpt lat="43.52559" lon="5.52397">
        <ele>275.9</ele>
        <time>2025-11-05T13:52:28.019Z</time>
      </trkpt>
      <trkpt lat="43.52562" lon="5.52395">
        <ele>275.9</ele>
        <time>2025-11-05T13:52:31.019Z</time>
      </trkpt>
      <trkpt lat="43.52565" lon="5.52393">
        <ele>276</ele>
        <time>2025-11-05T13:52:35.019Z</time>
      </trkpt>
      <trkpt lat="43.52567" lon="5.52392">
        <ele>276</ele>
        <time>2025-11-05T13:52:38.019Z</time>
      </trkpt>
      <trkpt lat="43.5257" lon="5.5239">
        <ele>276.1</ele>
        <time>2025-11-05T13:52:41.019Z</time>
      </trkpt>
      <trkpt lat="43.52572" lon="5.52388">
        <ele>276.2</ele>
        <time>2025-11-05T13:52:44.019Z</time>
      </trkpt>
      <trkpt lat="43.52573" lon="5.52384">
        <ele>276.3</ele>
        <time>2025-11-05T13:52:47.019Z</time>
      </trkpt>
      <trkpt lat="43.52574" lon="5.52381">
        <ele>276.4</ele>
        <time>2025-11-05T13:52:49.019Z</time>
      </trkpt>
      <trkpt lat="43.52576" lon="5.52378">
        <ele>276.5</ele>
        <time>2025-11-05T13:52:51.019Z</time>
      </trkpt>
      <trkpt lat="43.52578" lon="5.52376">
        <ele>276.6</ele>
        <time>2025-11-05T13:52:56.019Z</time>
      </trkpt>
      <trkpt lat="43.5258" lon="5.52373">
        <ele>276.7</ele>
        <time>2025-11-05T13:52:58.019Z</time>
      </trkpt>
      <trkpt lat="43.52581" lon="5.52371">
        <ele>276.8</ele>
        <time>2025-11-05T13:53:01.019Z</time>
      </trkpt>
      <trkpt lat="43.52582" lon="5.52368">
        <ele>276.9</ele>
        <time>2025-11-05T13:53:03.019Z</time>
      </trkpt>
      <trkpt lat="43.52584" lon="5.52365">
        <ele>277.1</ele>
        <time>2025-11-05T13:53:06.019Z</time>
      </trkpt>
      <trkpt lat="43.52586" lon="5.52362">
        <ele>277.3</ele>
        <time>2025-11-05T13:53:10.019Z</time>
      </trkpt>
      <trkpt lat="43.52587" lon="5.52359">
        <ele>277.6</ele>
        <time>2025-11-05T13:53:12.019Z</time>
      </trkpt>
      <trkpt lat="43.52589" lon="5.52356">
        <ele>278</ele>
        <time>2025-11-05T13:53:14.019Z</time>
      </trkpt>
      <trkpt lat="43.52591" lon="5.52353">
        <ele>278.4</ele>
        <time>2025-11-05T13:53:17.019Z</time>
      </trkpt>
      <trkpt lat="43.52592" lon="5.5235">
        <ele>278.8</ele>
        <time>2025-11-05T13:53:19.019Z</time>
      </trkpt>
      <trkpt lat="43.52593" lon="5.52347">
        <ele>279.3</ele>
        <time>2025-11-05T13:53:22.019Z</time>
      </trkpt>
      <trkpt lat="43.52594" lon="5.52344">
        <ele>279.8</ele>
        <time>2025-11-05T13:53:24.019Z</time>
      </trkpt>
      <trkpt lat="43.52596" lon="5.5234">
        <ele>280.5</ele>
        <time>2025-11-05T13:53:27.019Z</time>
      </trkpt>
      <trkpt lat="43.52597" lon="5.52337">
        <ele>281.2</ele>
        <time>2025-11-05T13:53:31.019Z</time>
      </trkpt>
      <trkpt lat="43.52599" lon="5.52334">
        <ele>281.8</ele>
        <time>2025-11-05T13:53:33.019Z</time>
      </trkpt>
      <trkpt lat="43.526" lon="5.5233">
        <ele>282</ele>
        <time>2025-11-05T13:53:35.019Z</time>
      </trkpt>
      <trkpt lat="43.52601" lon="5.52326">
        <ele>282.1</ele>
        <time>2025-11-05T13:53:37.019Z</time>
      </trkpt>
      <trkpt lat="43.52602" lon="5.52322">
        <ele>282</ele>
        <time>2025-11-05T13:53:40.019Z</time>
      </trkpt>
      <trkpt lat="43.52602" lon="5.52318">
        <ele>281.8</ele>
        <time>2025-11-05T13:53:43.019Z</time>
      </trkpt>
      <trkpt lat="43.52601" lon="5.52315">
        <ele>281.4</ele>
        <time>2025-11-05T13:53:46.019Z</time>
      </trkpt>
      <trkpt lat="43.52601" lon="5.52311">
        <ele>281.2</ele>
        <time>2025-11-05T13:53:48.019Z</time>
      </trkpt>
      <trkpt lat="43.52603" lon="5.52308">
        <ele>281.2</ele>
        <time>2025-11-05T13:53:51.019Z</time>
      </trkpt>
      <trkpt lat="43.52602" lon="5.52304">
        <ele>281</ele>
        <time>2025-11-05T13:53:54.019Z</time>
      </trkpt>
      <trkpt lat="43.52602" lon="5.523">
        <ele>281</ele>
        <time>2025-11-05T13:53:57.020Z</time>
      </trkpt>
      <trkpt lat="43.52602" lon="5.52294">
        <ele>281.2</ele>
        <time>2025-11-05T13:54:03.019Z</time>
      </trkpt>
      <trkpt lat="43.52602" lon="5.5229">
        <ele>281.2</ele>
        <time>2025-11-05T13:54:06.020Z</time>
      </trkpt>
      <trkpt lat="43.52603" lon="5.52285">
        <ele>281.3</ele>
        <time>2025-11-05T13:54:11.019Z</time>
      </trkpt>
      <trkpt lat="43.52603" lon="5.52281">
        <ele>281.4</ele>
        <time>2025-11-05T13:54:14.019Z</time>
      </trkpt>
      <trkpt lat="43.52602" lon="5.52278">
        <ele>281.4</ele>
        <time>2025-11-05T13:54:16.019Z</time>
      </trkpt>
      <trkpt lat="43.52602" lon="5.52273">
        <ele>281.6</ele>
        <time>2025-11-05T13:54:19.019Z</time>
      </trkpt>
      <trkpt lat="43.52601" lon="5.52268">
        <ele>281.8</ele>
        <time>2025-11-05T13:54:22.019Z</time>
      </trkpt>
      <trkpt lat="43.526" lon="5.52265">
        <ele>281.9</ele>
        <time>2025-11-05T13:54:24.019Z</time>
      </trkpt>
      <trkpt lat="43.52599" lon="5.52261">
        <ele>282.1</ele>
        <time>2025-11-05T13:54:26.019Z</time>
      </trkpt>
      <trkpt lat="43.52598" lon="5.52257">
        <ele>282.2</ele>
        <time>2025-11-05T13:54:29.019Z</time>
      </trkpt>
      <trkpt lat="43.52598" lon="5.52254">
        <ele>282.4</ele>
        <time>2025-11-05T13:54:32.019Z</time>
      </trkpt>
      <trkpt lat="43.52598" lon="5.5225">
        <ele>282.5</ele>
        <time>2025-11-05T13:54:35.019Z</time>
      </trkpt>
      <trkpt lat="43.52596" lon="5.52246">
        <ele>282.6</ele>
        <time>2025-11-05T13:54:37.019Z</time>
      </trkpt>
      <trkpt lat="43.52595" lon="5.52243">
        <ele>282.5</ele>
        <time>2025-11-05T13:54:39.019Z</time>
      </trkpt>
      <trkpt lat="43.52592" lon="5.5224">
        <ele>282.5</ele>
        <time>2025-11-05T13:54:42.019Z</time>
      </trkpt>
      <trkpt lat="43.52591" lon="5.52236">
        <ele>282.6</ele>
        <time>2025-11-05T13:54:45.019Z</time>
      </trkpt>
      <trkpt lat="43.52589" lon="5.52232">
        <ele>282.7</ele>
        <time>2025-11-05T13:54:48.019Z</time>
      </trkpt>
      <trkpt lat="43.52588" lon="5.52229">
        <ele>282.8</ele>
        <time>2025-11-05T13:54:50.020Z</time>
      </trkpt>
      <trkpt lat="43.52585" lon="5.52225">
        <ele>282.9</ele>
        <time>2025-11-05T13:54:53.019Z</time>
      </trkpt>
      <trkpt lat="43.52584" lon="5.52222">
        <ele>283.1</ele>
        <time>2025-11-05T13:54:56.019Z</time>
      </trkpt>
      <trkpt lat="43.52582" lon="5.52219">
        <ele>283.4</ele>
        <time>2025-11-05T13:54:59.019Z</time>
      </trkpt>
      <trkpt lat="43.52581" lon="5.52216">
        <ele>283.8</ele>
        <time>2025-11-05T13:55:02.019Z</time>
      </trkpt>
      <trkpt lat="43.5258" lon="5.52211">
        <ele>284.4</ele>
        <time>2025-11-05T13:55:05.019Z</time>
      </trkpt>
      <trkpt lat="43.5258" lon="5.52207">
        <ele>284.8</ele>
        <time>2025-11-05T13:55:09.019Z</time>
      </trkpt>
      <trkpt lat="43.52578" lon="5.52204">
        <ele>285.4</ele>
        <time>2025-11-05T13:55:12.019Z</time>
      </trkpt>
      <trkpt lat="43.52576" lon="5.52201">
        <ele>285.9</ele>
        <time>2025-11-05T13:55:15.019Z</time>
      </trkpt>
      <trkpt lat="43.52575" lon="5.52198">
        <ele>286.4</ele>
        <time>2025-11-05T13:55:18.019Z</time>
      </trkpt>
      <trkpt lat="43.52575" lon="5.52194">
        <ele>286.8</ele>
        <time>2025-11-05T13:55:21.020Z</time>
      </trkpt>
      <trkpt lat="43.52575" lon="5.52191">
        <ele>287.2</ele>
        <time>2025-11-05T13:55:23.019Z</time>
      </trkpt>
      <trkpt lat="43.52575" lon="5.52186">
        <ele>287.5</ele>
        <time>2025-11-05T13:55:26.019Z</time>
      </trkpt>
      <trkpt lat="43.52576" lon="5.52182">
        <ele>287.5</ele>
        <time>2025-11-05T13:55:29.019Z</time>
      </trkpt>
      <trkpt lat="43.52577" lon="5.52179">
        <ele>287.6</ele>
        <time>2025-11-05T13:55:31.019Z</time>
      </trkpt>
      <trkpt lat="43.52578" lon="5.52174">
        <ele>287.7</ele>
        <time>2025-11-05T13:55:35.019Z</time>
      </trkpt>
      <trkpt lat="43.52577" lon="5.5217">
        <ele>288.2</ele>
        <time>2025-11-05T13:55:38.019Z</time>
      </trkpt>
      <trkpt lat="43.52578" lon="5.52167">
        <ele>288.4</ele>
        <time>2025-11-05T13:55:40.020Z</time>
      </trkpt>
      <trkpt lat="43.52578" lon="5.52163">
        <ele>288.6</ele>
        <time>2025-11-05T13:55:43.019Z</time>
      </trkpt>
      <trkpt lat="43.5258" lon="5.5216">
        <ele>288.5</ele>
        <time>2025-11-05T13:55:46.019Z</time>
      </trkpt>
      <trkpt lat="43.5258" lon="5.52156">
        <ele>288.6</ele>
        <time>2025-11-05T13:55:49.019Z</time>
      </trkpt>
      <trkpt lat="43.52581" lon="5.52152">
        <ele>288.6</ele>
        <time>2025-11-05T13:55:52.019Z</time>
      </trkpt>
      <trkpt lat="43.52581" lon="5.52148">
        <ele>288.9</ele>
        <time>2025-11-05T13:55:55.020Z</time>
      </trkpt>
      <trkpt lat="43.52581" lon="5.52144">
        <ele>289.2</ele>
        <time>2025-11-05T13:55:59.020Z</time>
      </trkpt>
      <trkpt lat="43.52582" lon="5.5214">
        <ele>289.4</ele>
        <time>2025-11-05T13:56:02.019Z</time>
      </trkpt>
      <trkpt lat="43.52582" lon="5.52137">
        <ele>289.4</ele>
        <time>2025-11-05T13:56:05.019Z</time>
      </trkpt>
      <trkpt lat="43.52583" lon="5.52133">
        <ele>289.7</ele>
        <time>2025-11-05T13:56:07.019Z</time>
      </trkpt>
      <trkpt lat="43.52583" lon="5.52129">
        <ele>290.2</ele>
        <time>2025-11-05T13:56:11.019Z</time>
      </trkpt>
      <trkpt lat="43.52584" lon="5.52125">
        <ele>290.5</ele>
        <time>2025-11-05T13:56:13.019Z</time>
      </trkpt>
      <trkpt lat="43.52584" lon="5.52122">
        <ele>290.8</ele>
        <time>2025-11-05T13:56:16.020Z</time>
      </trkpt>
      <trkpt lat="43.52585" lon="5.52119">
        <ele>291.1</ele>
        <time>2025-11-05T13:56:19.020Z</time>
      </trkpt>
      <trkpt lat="43.52587" lon="5.52116">
        <ele>291.4</ele>
        <time>2025-11-05T13:56:22.019Z</time>
      </trkpt>
      <trkpt lat="43.52588" lon="5.52113">
        <ele>291.7</ele>
        <time>2025-11-05T13:56:25.019Z</time>
      </trkpt>
      <trkpt lat="43.52589" lon="5.52109">
        <ele>292.1</ele>
        <time>2025-11-05T13:56:29.019Z</time>
      </trkpt>
      <trkpt lat="43.5259" lon="5.52104">
        <ele>292.5</ele>
        <time>2025-11-05T13:56:33.019Z</time>
      </trkpt>
      <trkpt lat="43.52591" lon="5.52102">
        <ele>292.8</ele>
        <time>2025-11-05T13:56:36.020Z</time>
      </trkpt>
      <trkpt lat="43.52591" lon="5.52098">
        <ele>293.2</ele>
        <time>2025-11-05T13:56:39.019Z</time>
      </trkpt>
      <trkpt lat="43.52591" lon="5.52094">
        <ele>293.5</ele>
        <time>2025-11-05T13:56:42.020Z</time>
      </trkpt>
      <trkpt lat="43.52593" lon="5.52091">
        <ele>293.8</ele>
        <time>2025-11-05T13:56:45.019Z</time>
      </trkpt>
      <trkpt lat="43.52594" lon="5.52088">
        <ele>294.1</ele>
        <time>2025-11-05T13:56:47.019Z</time>
      </trkpt>
      <trkpt lat="43.52594" lon="5.52084">
        <ele>294.5</ele>
        <time>2025-11-05T13:56:50.019Z</time>
      </trkpt>
      <trkpt lat="43.52594" lon="5.52081">
        <ele>294.8</ele>
        <time>2025-11-05T13:56:53.019Z</time>
      </trkpt>
      <trkpt lat="43.52595" lon="5.52077">
        <ele>295</ele>
        <time>2025-11-05T13:56:56.019Z</time>
      </trkpt>
      <trkpt lat="43.52596" lon="5.52073">
        <ele>295.3</ele>
        <time>2025-11-05T13:56:59.019Z</time>
      </trkpt>
      <trkpt lat="43.52598" lon="5.5207">
        <ele>295.4</ele>
        <time>2025-11-05T13:57:01.019Z</time>
      </trkpt>
      <trkpt lat="43.52599" lon="5.52066">
        <ele>295.7</ele>
        <time>2025-11-05T13:57:04.019Z</time>
      </trkpt>
      <trkpt lat="43.526" lon="5.52063">
        <ele>295.9</ele>
        <time>2025-11-05T13:57:07.019Z</time>
      </trkpt>
      <trkpt lat="43.526" lon="5.5206">
        <ele>296.1</ele>
        <time>2025-11-05T13:57:09.019Z</time>
      </trkpt>
      <trkpt lat="43.52601" lon="5.52055">
        <ele>296.4</ele>
        <time>2025-11-05T13:57:12.020Z</time>
      </trkpt>
      <trkpt lat="43.52602" lon="5.52052">
        <ele>296.3</ele>
        <time>2025-11-05T13:57:15.019Z</time>
      </trkpt>
      <trkpt lat="43.52602" lon="5.52048">
        <ele>296.2</ele>
        <time>2025-11-05T13:57:18.019Z</time>
      </trkpt>
      <trkpt lat="43.52603" lon="5.52045">
        <ele>296.2</ele>
        <time>2025-11-05T13:57:20.019Z</time>
      </trkpt>
      <trkpt lat="43.52604" lon="5.52042">
        <ele>296.1</ele>
        <time>2025-11-05T13:57:22.019Z</time>
      </trkpt>
      <trkpt lat="43.52604" lon="5.52038">
        <ele>296.1</ele>
        <time>2025-11-05T13:57:24.020Z</time>
      </trkpt>
      <trkpt lat="43.52603" lon="5.52034">
        <ele>296.1</ele>
        <time>2025-11-05T13:57:27.019Z</time>
      </trkpt>
      <trkpt lat="43.52602" lon="5.52031">
        <ele>296</ele>
        <time>2025-11-05T13:57:29.019Z</time>
      </trkpt>
      <trkpt lat="43.52601" lon="5.52027">
        <ele>295.9</ele>
        <time>2025-11-05T13:57:32.019Z</time>
      </trkpt>
      <trkpt lat="43.52601" lon="5.52022">
        <ele>295.7</ele>
        <time>2025-11-05T13:57:35.019Z</time>
      </trkpt>
      <trkpt lat="43.526" lon="5.52018">
        <ele>295.4</ele>
        <time>2025-11-05T13:57:38.019Z</time>
      </trkpt>
      <trkpt lat="43.526" lon="5.52014">
        <ele>295.2</ele>
        <time>2025-11-05T13:57:40.020Z</time>
      </trkpt>
      <trkpt lat="43.52599" lon="5.52011">
        <ele>295.1</ele>
        <time>2025-11-05T13:57:43.019Z</time>
      </trkpt>
      <trkpt lat="43.52597" lon="5.52008">
        <ele>294.9</ele>
        <time>2025-11-05T13:57:46.019Z</time>
      </trkpt>
      <trkpt lat="43.52596" lon="5.52004">
        <ele>294.8</ele>
        <time>2025-11-05T13:57:48.019Z</time>
      </trkpt>
      <trkpt lat="43.52595" lon="5.52">
        <ele>294.6</ele>
        <time>2025-11-05T13:57:52.019Z</time>
      </trkpt>
      <trkpt lat="43.52593" lon="5.51997">
        <ele>294.3</ele>
        <time>2025-11-05T13:57:55.020Z</time>
      </trkpt>
      <trkpt lat="43.52591" lon="5.51993">
        <ele>293.8</ele>
        <time>2025-11-05T13:57:58.019Z</time>
      </trkpt>
      <trkpt lat="43.52589" lon="5.51991">
        <ele>293.5</ele>
        <time>2025-11-05T13:58:00.019Z</time>
      </trkpt>
      <trkpt lat="43.52587" lon="5.51987">
        <ele>293.1</ele>
        <time>2025-11-05T13:58:03.019Z</time>
      </trkpt>
      <trkpt lat="43.52586" lon="5.51984">
        <ele>292.6</ele>
        <time>2025-11-05T13:58:06.019Z</time>
      </trkpt>
      <trkpt lat="43.52584" lon="5.5198">
        <ele>292.1</ele>
        <time>2025-11-05T13:58:10.019Z</time>
      </trkpt>
      <trkpt lat="43.52584" lon="5.51976">
        <ele>291.5</ele>
        <time>2025-11-05T13:58:13.020Z</time>
      </trkpt>
      <trkpt lat="43.52585" lon="5.51972">
        <ele>291</ele>
        <time>2025-11-05T13:58:16.019Z</time>
      </trkpt>
      <trkpt lat="43.52585" lon="5.51969">
        <ele>290.6</ele>
        <time>2025-11-05T13:58:19.019Z</time>
      </trkpt>
      <trkpt lat="43.52586" lon="5.51966">
        <ele>290.3</ele>
        <time>2025-11-05T13:58:21.019Z</time>
      </trkpt>
      <trkpt lat="43.52586" lon="5.51962">
        <ele>289.9</ele>
        <time>2025-11-05T13:58:24.019Z</time>
      </trkpt>
      <trkpt lat="43.52586" lon="5.51959">
        <ele>289.6</ele>
        <time>2025-11-05T13:58:28.019Z</time>
      </trkpt>
      <trkpt lat="43.52585" lon="5.51955">
        <ele>289.2</ele>
        <time>2025-11-05T13:58:32.019Z</time>
      </trkpt>
      <trkpt lat="43.52586" lon="5.51951">
        <ele>288.7</ele>
        <time>2025-11-05T13:58:36.019Z</time>
      </trkpt>
      <trkpt lat="43.52586" lon="5.51947">
        <ele>288.3</ele>
        <time>2025-11-05T13:58:39.019Z</time>
      </trkpt>
      <trkpt lat="43.52587" lon="5.51944">
        <ele>287.9</ele>
        <time>2025-11-05T13:58:42.020Z</time>
      </trkpt>
      <trkpt lat="43.52586" lon="5.5194">
        <ele>287.5</ele>
        <time>2025-11-05T13:58:45.019Z</time>
      </trkpt>
      <trkpt lat="43.52586" lon="5.51936">
        <ele>287.1</ele>
        <time>2025-11-05T13:58:48.019Z</time>
      </trkpt>
      <trkpt lat="43.52585" lon="5.51933">
        <ele>286.7</ele>
        <time>2025-11-05T13:58:52.019Z</time>
      </trkpt>
      <trkpt lat="43.52584" lon="5.51928">
        <ele>286.2</ele>
        <time>2025-11-05T13:58:56.019Z</time>
      </trkpt>
      <trkpt lat="43.52584" lon="5.51924">
        <ele>285.8</ele>
        <time>2025-11-05T13:58:59.019Z</time>
      </trkpt>
      <trkpt lat="43.52583" lon="5.51921">
        <ele>285.7</ele>
        <time>2025-11-05T13:59:01.019Z</time>
      </trkpt>
      <trkpt lat="43.52582" lon="5.51918">
        <ele>286.1</ele>
        <time>2025-11-05T13:59:04.019Z</time>
      </trkpt>
      <trkpt lat="43.52581" lon="5.51914">
        <ele>286.2</ele>
        <time>2025-11-05T13:59:07.019Z</time>
      </trkpt>
      <trkpt lat="43.5258" lon="5.51911">
        <ele>285.8</ele>
        <time>2025-11-05T13:59:09.019Z</time>
      </trkpt>
      <trkpt lat="43.5258" lon="5.51907">
        <ele>285.1</ele>
        <time>2025-11-05T13:59:12.019Z</time>
      </trkpt>
      <trkpt lat="43.52579" lon="5.51904">
        <ele>284.8</ele>
        <time>2025-11-05T13:59:14.019Z</time>
      </trkpt>
      <trkpt lat="43.52579" lon="5.519">
        <ele>284.1</ele>
        <time>2025-11-05T13:59:17.020Z</time>
      </trkpt>
      <trkpt lat="43.52579" lon="5.51896">
        <ele>283.3</ele>
        <time>2025-11-05T13:59:21.019Z</time>
      </trkpt>
      <trkpt lat="43.52576" lon="5.51892">
        <ele>283.4</ele>
        <time>2025-11-05T13:59:27.019Z</time>
      </trkpt>
      <trkpt lat="43.52576" lon="5.51888">
        <ele>282.8</ele>
        <time>2025-11-05T13:59:30.019Z</time>
      </trkpt>
      <trkpt lat="43.52575" lon="5.51884">
        <ele>282.3</ele>
        <time>2025-11-05T13:59:33.019Z</time>
      </trkpt>
      <trkpt lat="43.52574" lon="5.51881">
        <ele>282</ele>
        <time>2025-11-05T13:59:35.019Z</time>
      </trkpt>
      <trkpt lat="43.52573" lon="5.51877">
        <ele>281.5</ele>
        <time>2025-11-05T13:59:38.019Z</time>
      </trkpt>
      <trkpt lat="43.52572" lon="5.51874">
        <ele>281.2</ele>
        <time>2025-11-05T13:59:40.019Z</time>
      </trkpt>
      <trkpt lat="43.52572" lon="5.5187">
        <ele>280.4</ele>
        <time>2025-11-05T13:59:42.020Z</time>
      </trkpt>
      <trkpt lat="43.52571" lon="5.51867">
        <ele>279.8</ele>
        <time>2025-11-05T13:59:46.019Z</time>
      </trkpt>
      <trkpt lat="43.52569" lon="5.51864">
        <ele>279.8</ele>
        <time>2025-11-05T13:59:49.019Z</time>
      </trkpt>
      <trkpt lat="43.52568" lon="5.51861">
        <ele>279.4</ele>
        <time>2025-11-05T13:59:52.019Z</time>
      </trkpt>
      <trkpt lat="43.52566" lon="5.51859">
        <ele>279.4</ele>
        <time>2025-11-05T13:59:58.019Z</time>
      </trkpt>
      <trkpt lat="43.52564" lon="5.51858">
        <ele>280</ele>
        <time>2025-11-05T14:00:01.019Z</time>
      </trkpt>
      <trkpt lat="43.52562" lon="5.51856">
        <ele>280.2</ele>
        <time>2025-11-05T14:00:06.020Z</time>
      </trkpt>
      <trkpt lat="43.52561" lon="5.51853">
        <ele>279.6</ele>
        <time>2025-11-05T14:00:10.019Z</time>
      </trkpt>
      <trkpt lat="43.52561" lon="5.5185">
        <ele>278.9</ele>
        <time>2025-11-05T14:00:13.019Z</time>
      </trkpt>
      <trkpt lat="43.52561" lon="5.51846">
        <ele>278.2</ele>
        <time>2025-11-05T14:00:19.019Z</time>
      </trkpt>
      <trkpt lat="43.52561" lon="5.51843">
        <ele>277.3</ele>
        <time>2025-11-05T14:00:23.019Z</time>
      </trkpt>
      <trkpt lat="43.52559" lon="5.51841">
        <ele>277.2</ele>
        <time>2025-11-05T14:00:30.019Z</time>
      </trkpt>
      <trkpt lat="43.52558" lon="5.51838">
        <ele>276.7</ele>
        <time>2025-11-05T14:00:32.019Z</time>
      </trkpt>
      <trkpt lat="43.52556" lon="5.51836">
        <ele>276.5</ele>
        <time>2025-11-05T14:00:35.019Z</time>
      </trkpt>
      <trkpt lat="43.52554" lon="5.51832">
        <ele>275.8</ele>
        <time>2025-11-05T14:00:39.020Z</time>
      </trkpt>
      <trkpt lat="43.52553" lon="5.5183">
        <ele>275.4</ele>
        <time>2025-11-05T14:00:43.019Z</time>
      </trkpt>
      <trkpt lat="43.52551" lon="5.51827">
        <ele>275.1</ele>
        <time>2025-11-05T14:00:51.019Z</time>
      </trkpt>
      <trkpt lat="43.52549" lon="5.51827">
        <ele>274.6</ele>
        <time>2025-11-05T14:00:54.019Z</time>
      </trkpt>
      <trkpt lat="43.52546" lon="5.51826">
        <ele>274.1</ele>
        <time>2025-11-05T14:00:57.019Z</time>
      </trkpt>
      <trkpt lat="43.52546" lon="5.51823">
        <ele>273.9</ele>
        <time>2025-11-05T14:01:03.019Z</time>
      </trkpt>
      <trkpt lat="43.52544" lon="5.5182">
        <ele>273.6</ele>
        <time>2025-11-05T14:01:08.020Z</time>
      </trkpt>
      <trkpt lat="43.52543" lon="5.51824">
        <ele>273.5</ele>
        <time>2025-11-05T14:01:16.019Z</time>
      </trkpt>
      <trkpt lat="43.52541" lon="5.51825">
        <ele>273</ele>
        <time>2025-11-05T14:01:25.019Z</time>
      </trkpt>
      <trkpt lat="43.52539" lon="5.51825">
        <ele>272.5</ele>
        <time>2025-11-05T14:01:36.020Z</time>
      </trkpt>
      <trkpt lat="43.52536" lon="5.51823">
        <ele>272</ele>
        <time>2025-11-05T14:01:50.019Z</time>
      </trkpt>
      <trkpt lat="43.52534" lon="5.51826">
        <ele>271.7</ele>
        <time>2025-11-05T14:01:54.020Z</time>
      </trkpt>
      <trkpt lat="43.52532" lon="5.51826">
        <ele>271.2</ele>
        <time>2025-11-05T14:01:58.019Z</time>
      </trkpt>
      <trkpt lat="43.52529" lon="5.51826">
        <ele>270.7</ele>
        <time>2025-11-05T14:02:07.019Z</time>
      </trkpt>
      <trkpt lat="43.52527" lon="5.51824">
        <ele>270</ele>
        <time>2025-11-05T14:02:27.019Z</time>
      </trkpt>
      <trkpt lat="43.52524" lon="5.51822">
        <ele>268.7</ele>
        <time>2025-11-05T14:02:40.020Z</time>
      </trkpt>
      <trkpt lat="43.52522" lon="5.51819">
        <ele>267.5</ele>
        <time>2025-11-05T14:02:49.019Z</time>
      </trkpt>
      <trkpt lat="43.52522" lon="5.51815">
        <ele>267.2</ele>
        <time>2025-11-05T14:02:55.019Z</time>
      </trkpt>
      <trkpt lat="43.52523" lon="5.51812">
        <ele>266.9</ele>
        <time>2025-11-05T14:02:59.019Z</time>
      </trkpt>
      <trkpt lat="43.52523" lon="5.51808">
        <ele>266.9</ele>
        <time>2025-11-05T14:03:03.019Z</time>
      </trkpt>
      <trkpt lat="43.52523" lon="5.51804">
        <ele>266.6</ele>
        <time>2025-11-05T14:03:06.019Z</time>
      </trkpt>
      <trkpt lat="43.52521" lon="5.51802">
        <ele>265.7</ele>
        <time>2025-11-05T14:03:11.019Z</time>
      </trkpt>
      <trkpt lat="43.52519" lon="5.51799">
        <ele>264.9</ele>
        <time>2025-11-05T14:03:18.020Z</time>
      </trkpt>
      <trkpt lat="43.52518" lon="5.51796">
        <ele>264.2</ele>
        <time>2025-11-05T14:03:24.020Z</time>
      </trkpt>
      <trkpt lat="43.52516" lon="5.51796">
        <ele>263</ele>
        <time>2025-11-05T14:03:34.020Z</time>
      </trkpt>
      <trkpt lat="43.52513" lon="5.51793">
        <ele>261.8</ele>
        <time>2025-11-05T14:03:45.019Z</time>
      </trkpt>
      <trkpt lat="43.52514" lon="5.51789">
        <ele>262.1</ele>
        <time>2025-11-05T14:03:52.019Z</time>
      </trkpt>
      <trkpt lat="43.52513" lon="5.51785">
        <ele>261.9</ele>
        <time>2025-11-05T14:03:57.019Z</time>
      </trkpt>
      <trkpt lat="43.52511" lon="5.51782">
        <ele>260.8</ele>
        <time>2025-11-05T14:04:01.020Z</time>
      </trkpt>
      <trkpt lat="43.52509" lon="5.5178">
        <ele>259.9</ele>
        <time>2025-11-05T14:04:05.019Z</time>
      </trkpt>
      <trkpt lat="43.52506" lon="5.51778">
        <ele>258.5</ele>
        <time>2025-11-05T14:04:10.019Z</time>
      </trkpt>
      <trkpt lat="43.52505" lon="5.51774">
        <ele>258.1</ele>
        <time>2025-11-05T14:04:16.020Z</time>
      </trkpt>
      <trkpt lat="43.52505" lon="5.5177">
        <ele>257.9</ele>
        <time>2025-11-05T14:04:19.019Z</time>
      </trkpt>
      <trkpt lat="43.52503" lon="5.51768">
        <ele>257</ele>
        <time>2025-11-05T14:04:27.020Z</time>
      </trkpt>
      <trkpt lat="43.52503" lon="5.51765">
        <ele>257</ele>
        <time>2025-11-05T14:04:30.019Z</time>
      </trkpt>
      <trkpt lat="43.52501" lon="5.51762">
        <ele>256.1</ele>
        <time>2025-11-05T14:04:35.019Z</time>
      </trkpt>
      <trkpt lat="43.52499" lon="5.51758">
        <ele>255.5</ele>
        <time>2025-11-05T14:04:38.019Z</time>
      </trkpt>
      <trkpt lat="43.52497" lon="5.51755">
        <ele>254.8</ele>
        <time>2025-11-05T14:04:41.019Z</time>
      </trkpt>
      <trkpt lat="43.52494" lon="5.51754">
        <ele>253.6</ele>
        <time>2025-11-05T14:04:44.020Z</time>
      </trkpt>
      <trkpt lat="43.52492" lon="5.51753">
        <ele>253.1</ele>
        <time>2025-11-05T14:04:50.019Z</time>
      </trkpt>
      <trkpt lat="43.52491" lon="5.51749">
        <ele>252.9</ele>
        <time>2025-11-05T14:04:57.019Z</time>
      </trkpt>
      <trkpt lat="43.52489" lon="5.51748">
        <ele>252.1</ele>
        <time>2025-11-05T14:05:00.020Z</time>
      </trkpt>
      <trkpt lat="43.52488" lon="5.51745">
        <ele>251.7</ele>
        <time>2025-11-05T14:05:05.019Z</time>
      </trkpt>
      <trkpt lat="43.52486" lon="5.51744">
        <ele>250.8</ele>
        <time>2025-11-05T14:05:08.019Z</time>
      </trkpt>
      <trkpt lat="43.52484" lon="5.51742">
        <ele>250.2</ele>
        <time>2025-11-05T14:05:11.019Z</time>
      </trkpt>
      <trkpt lat="43.52484" lon="5.51738">
        <ele>250.1</ele>
        <time>2025-11-05T14:05:15.019Z</time>
      </trkpt>
      <trkpt lat="43.52483" lon="5.51735">
        <ele>249.6</ele>
        <time>2025-11-05T14:05:18.020Z</time>
      </trkpt>
      <trkpt lat="43.52483" lon="5.51731">
        <ele>249.6</ele>
        <time>2025-11-05T14:05:23.019Z</time>
      </trkpt>
      <trkpt lat="43.52482" lon="5.51728">
        <ele>249.5</ele>
        <time>2025-11-05T14:05:29.019Z</time>
      </trkpt>
      <trkpt lat="43.52482" lon="5.51725">
        <ele>249.1</ele>
        <time>2025-11-05T14:05:32.019Z</time>
      </trkpt>
      <trkpt lat="43.5248" lon="5.51723">
        <ele>248.5</ele>
        <time>2025-11-05T14:05:35.020Z</time>
      </trkpt>
      <trkpt lat="43.52478" lon="5.51722">
        <ele>247.4</ele>
        <time>2025-11-05T14:05:38.020Z</time>
      </trkpt>
      <trkpt lat="43.52476" lon="5.51722">
        <ele>246.4</ele>
        <time>2025-11-05T14:05:41.020Z</time>
      </trkpt>
      <trkpt lat="43.52476" lon="5.51719">
        <ele>246.5</ele>
        <time>2025-11-05T14:05:49.019Z</time>
      </trkpt>
      <trkpt lat="43.52476" lon="5.51715">
        <ele>246.1</ele>
        <time>2025-11-05T14:05:52.019Z</time>
      </trkpt>
      <trkpt lat="43.52475" lon="5.5171">
        <ele>245.6</ele>
        <time>2025-11-05T14:05:59.020Z</time>
      </trkpt>
      <trkpt lat="43.52476" lon="5.51706">
        <ele>245.8</ele>
        <time>2025-11-05T14:06:03.020Z</time>
      </trkpt>
      <trkpt lat="43.52477" lon="5.51701">
        <ele>246</ele>
        <time>2025-11-05T14:06:06.019Z</time>
      </trkpt>
      <trkpt lat="43.52477" lon="5.51698">
        <ele>245.9</ele>
        <time>2025-11-05T14:06:08.019Z</time>
      </trkpt>
      <trkpt lat="43.52478" lon="5.51695">
        <ele>246.1</ele>
        <time>2025-11-05T14:06:11.019Z</time>
      </trkpt>
      <trkpt lat="43.52478" lon="5.51691">
        <ele>245.9</ele>
        <time>2025-11-05T14:06:14.019Z</time>
      </trkpt>
      <trkpt lat="43.52479" lon="5.51687">
        <ele>246.1</ele>
        <time>2025-11-05T14:06:18.019Z</time>
      </trkpt>
      <trkpt lat="43.52479" lon="5.51684">
        <ele>246</ele>
        <time>2025-11-05T14:06:22.019Z</time>
      </trkpt>
      <trkpt lat="43.5248" lon="5.5168">
        <ele>246</ele>
        <time>2025-11-05T14:06:25.019Z</time>
      </trkpt>
      <trkpt lat="43.52481" lon="5.51676">
        <ele>246</ele>
        <time>2025-11-05T14:06:28.020Z</time>
      </trkpt>
      <trkpt lat="43.5248" lon="5.51673">
        <ele>245.5</ele>
        <time>2025-11-05T14:06:31.019Z</time>
      </trkpt>
      <trkpt lat="43.5248" lon="5.5167">
        <ele>245.1</ele>
        <time>2025-11-05T14:06:34.019Z</time>
      </trkpt>
      <trkpt lat="43.5248" lon="5.51666">
        <ele>245.1</ele>
        <time>2025-11-05T14:06:37.019Z</time>
      </trkpt>
      <trkpt lat="43.5248" lon="5.51662">
        <ele>244.7</ele>
        <time>2025-11-05T14:06:40.019Z</time>
      </trkpt>
      <trkpt lat="43.5248" lon="5.51659">
        <ele>244.5</ele>
        <time>2025-11-05T14:06:43.019Z</time>
      </trkpt>
      <trkpt lat="43.5248" lon="5.51656">
        <ele>244.1</ele>
        <time>2025-11-05T14:06:45.019Z</time>
      </trkpt>
      <trkpt lat="43.5248" lon="5.51652">
        <ele>243.8</ele>
        <time>2025-11-05T14:06:48.020Z</time>
      </trkpt>
      <trkpt lat="43.5248" lon="5.51649">
        <ele>243.6</ele>
        <time>2025-11-05T14:06:51.019Z</time>
      </trkpt>
      <trkpt lat="43.52479" lon="5.51645">
        <ele>242.9</ele>
        <time>2025-11-05T14:06:56.019Z</time>
      </trkpt>
      <trkpt lat="43.52478" lon="5.51641">
        <ele>242.3</ele>
        <time>2025-11-05T14:07:00.020Z</time>
      </trkpt>
      <trkpt lat="43.52479" lon="5.51637">
        <ele>242.3</ele>
        <time>2025-11-05T14:07:03.020Z</time>
      </trkpt>
      <trkpt lat="43.52479" lon="5.51634">
        <ele>242.1</ele>
        <time>2025-11-05T14:07:06.019Z</time>
      </trkpt>
      <trkpt lat="43.5248" lon="5.5163">
        <ele>242.2</ele>
        <time>2025-11-05T14:07:09.019Z</time>
      </trkpt>
      <trkpt lat="43.52481" lon="5.51627">
        <ele>242.4</ele>
        <time>2025-11-05T14:07:12.020Z</time>
      </trkpt>
      <trkpt lat="43.52483" lon="5.51623">
        <ele>242.6</ele>
        <time>2025-11-05T14:07:15.019Z</time>
      </trkpt>
      <trkpt lat="43.52482" lon="5.51619">
        <ele>242.2</ele>
        <time>2025-11-05T14:07:18.019Z</time>
      </trkpt>
      <trkpt lat="43.52483" lon="5.51615">
        <ele>242.1</ele>
        <time>2025-11-05T14:07:20.019Z</time>
      </trkpt>
      <trkpt lat="43.52483" lon="5.51611">
        <ele>242</ele>
        <time>2025-11-05T14:07:23.019Z</time>
      </trkpt>
      <trkpt lat="43.52483" lon="5.51608">
        <ele>241.4</ele>
        <time>2025-11-05T14:07:26.020Z</time>
      </trkpt>
      <trkpt lat="43.52483" lon="5.51604">
        <ele>241.1</ele>
        <time>2025-11-05T14:07:29.019Z</time>
      </trkpt>
      <trkpt lat="43.52483" lon="5.51601">
        <ele>241.1</ele>
        <time>2025-11-05T14:07:32.019Z</time>
      </trkpt>
      <trkpt lat="43.52483" lon="5.51596">
        <ele>240.5</ele>
        <time>2025-11-05T14:07:35.019Z</time>
      </trkpt>
      <trkpt lat="43.52482" lon="5.51593">
        <ele>239.9</ele>
        <time>2025-11-05T14:07:37.019Z</time>
      </trkpt>
      <trkpt lat="43.52481" lon="5.5159">
        <ele>239.2</ele>
        <time>2025-11-05T14:07:41.019Z</time>
      </trkpt>
      <trkpt lat="43.5248" lon="5.51586">
        <ele>238.8</ele>
        <time>2025-11-05T14:07:44.019Z</time>
      </trkpt>
      <trkpt lat="43.5248" lon="5.51582">
        <ele>238.5</ele>
        <time>2025-11-05T14:07:47.020Z</time>
      </trkpt>
      <trkpt lat="43.52481" lon="5.51578">
        <ele>238.4</ele>
        <time>2025-11-05T14:07:50.019Z</time>
      </trkpt>
      <trkpt lat="43.52481" lon="5.51575">
        <ele>238.4</ele>
        <time>2025-11-05T14:07:52.020Z</time>
      </trkpt>
      <trkpt lat="43.52482" lon="5.51572">
        <ele>238.4</ele>
        <time>2025-11-05T14:07:55.019Z</time>
      </trkpt>
      <trkpt lat="43.52483" lon="5.51569">
        <ele>238.3</ele>
        <time>2025-11-05T14:08:04.019Z</time>
      </trkpt>
      <trkpt lat="43.52483" lon="5.51565">
        <ele>238.2</ele>
        <time>2025-11-05T14:08:07.019Z</time>
      </trkpt>
      <trkpt lat="43.52484" lon="5.5156">
        <ele>238</ele>
        <time>2025-11-05T14:08:27.019Z</time>
      </trkpt>
      <trkpt lat="43.52484" lon="5.51557">
        <ele>237.9</ele>
        <time>2025-11-05T14:08:32.019Z</time>
      </trkpt>
      <trkpt lat="43.52484" lon="5.51553">
        <ele>237.4</ele>
        <time>2025-11-05T14:08:36.019Z</time>
      </trkpt>
      <trkpt lat="43.52484" lon="5.51549">
        <ele>237.2</ele>
        <time>2025-11-05T14:08:39.019Z</time>
      </trkpt>
      <trkpt lat="43.52483" lon="5.51545">
        <ele>236.5</ele>
        <time>2025-11-05T14:08:43.020Z</time>
      </trkpt>
      <trkpt lat="43.52483" lon="5.51539">
        <ele>236.1</ele>
        <time>2025-11-05T14:08:49.019Z</time>
      </trkpt>
      <trkpt lat="43.52483" lon="5.51535">
        <ele>235.7</ele>
        <time>2025-11-05T14:08:53.019Z</time>
      </trkpt>
      <trkpt lat="43.52483" lon="5.51531">
        <ele>235.2</ele>
        <time>2025-11-05T14:08:56.019Z</time>
      </trkpt>
      <trkpt lat="43.52483" lon="5.51527">
        <ele>234.8</ele>
        <time>2025-11-05T14:08:59.019Z</time>
      </trkpt>
      <trkpt lat="43.52483" lon="5.51524">
        <ele>234.3</ele>
        <time>2025-11-05T14:09:05.019Z</time>
      </trkpt>
      <trkpt lat="43.52483" lon="5.5152">
        <ele>233.7</ele>
        <time>2025-11-05T14:09:09.019Z</time>
      </trkpt>
      <trkpt lat="43.52483" lon="5.51517">
        <ele>233.4</ele>
        <time>2025-11-05T14:09:14.019Z</time>
      </trkpt>
      <trkpt lat="43.5248" lon="5.51515">
        <ele>232.2</ele>
        <time>2025-11-05T14:09:16.019Z</time>
      </trkpt>
      <trkpt lat="43.52478" lon="5.51513">
        <ele>231.1</ele>
        <time>2025-11-05T14:09:19.019Z</time>
      </trkpt>
      <trkpt lat="43.52477" lon="5.5151">
        <ele>230.2</ele>
        <time>2025-11-05T14:09:22.019Z</time>
      </trkpt>
      <trkpt lat="43.52474" lon="5.5151">
        <ele>229.2</ele>
        <time>2025-11-05T14:09:25.019Z</time>
      </trkpt>
      <trkpt lat="43.52471" lon="5.51513">
        <ele>228.5</ele>
        <time>2025-11-05T14:09:32.019Z</time>
      </trkpt>
      <trkpt lat="43.52469" lon="5.51513">
        <ele>228</ele>
        <time>2025-11-05T14:09:34.019Z</time>
      </trkpt>
      <trkpt lat="43.52466" lon="5.51513">
        <ele>227.4</ele>
        <time>2025-11-05T14:09:38.019Z</time>
      </trkpt>
      <trkpt lat="43.52464" lon="5.51515">
        <ele>227.1</ele>
        <time>2025-11-05T14:09:41.019Z</time>
      </trkpt>
      <trkpt lat="43.52462" lon="5.51515">
        <ele>226.5</ele>
        <time>2025-11-05T14:09:46.019Z</time>
      </trkpt>
      <trkpt lat="43.52458" lon="5.51514">
        <ele>225.5</ele>
        <time>2025-11-05T14:09:57.019Z</time>
      </trkpt>
      <trkpt lat="43.52455" lon="5.51516">
        <ele>224.9</ele>
        <time>2025-11-05T14:10:03.019Z</time>
      </trkpt>
      <trkpt lat="43.52451" lon="5.51517">
        <ele>224.2</ele>
        <time>2025-11-05T14:10:06.020Z</time>
      </trkpt>
      <trkpt lat="43.52449" lon="5.51519">
        <ele>224</ele>
        <time>2025-11-05T14:10:08.019Z</time>
      </trkpt>
      <trkpt lat="43.52447" lon="5.51519">
        <ele>223.4</ele>
        <time>2025-11-05T14:10:11.019Z</time>
      </trkpt>
      <trkpt lat="43.52444" lon="5.51522">
        <ele>223</ele>
        <time>2025-11-05T14:10:17.020Z</time>
      </trkpt>
      <trkpt lat="43.52441" lon="5.51522">
        <ele>222.8</ele>
        <time>2025-11-05T14:10:19.019Z</time>
      </trkpt>
      <trkpt lat="43.52439" lon="5.51523">
        <ele>222.7</ele>
        <time>2025-11-05T14:10:22.020Z</time>
      </trkpt>
      <trkpt lat="43.52436" lon="5.51523">
        <ele>222.4</ele>
        <time>2025-11-05T14:10:26.019Z</time>
      </trkpt>
      <trkpt lat="43.52434" lon="5.51522">
        <ele>222</ele>
        <time>2025-11-05T14:10:31.019Z</time>
      </trkpt>
      <trkpt lat="43.52431" lon="5.51522">
        <ele>221.7</ele>
        <time>2025-11-05T14:10:34.019Z</time>
      </trkpt>
      <trkpt lat="43.52429" lon="5.5152">
        <ele>221.1</ele>
        <time>2025-11-05T14:10:37.019Z</time>
      </trkpt>
      <trkpt lat="43.52427" lon="5.51517">
        <ele>220.6</ele>
        <time>2025-11-05T14:10:40.019Z</time>
      </trkpt>
      <trkpt lat="43.52425" lon="5.51517">
        <ele>220.3</ele>
        <time>2025-11-05T14:10:53.019Z</time>
      </trkpt>
      <trkpt lat="43.52422" lon="5.51514">
        <ele>219.6</ele>
        <time>2025-11-05T14:10:56.019Z</time>
      </trkpt>
      <trkpt lat="43.5242" lon="5.51513">
        <ele>219.1</ele>
        <time>2025-11-05T14:10:59.020Z</time>
      </trkpt>
      <trkpt lat="43.52416" lon="5.51508">
        <ele>218.2</ele>
        <time>2025-11-05T14:11:06.019Z</time>
      </trkpt>
      <trkpt lat="43.52414" lon="5.51507">
        <ele>217.8</ele>
        <time>2025-11-05T14:11:10.020Z</time>
      </trkpt>
      <trkpt lat="43.52411" lon="5.51504">
        <ele>217.3</ele>
        <time>2025-11-05T14:11:13.020Z</time>
      </trkpt>
      <trkpt lat="43.52409" lon="5.51504">
        <ele>217.2</ele>
        <time>2025-11-05T14:11:15.019Z</time>
      </trkpt>
      <trkpt lat="43.52406" lon="5.51503">
        <ele>216.9</ele>
        <time>2025-11-05T14:11:18.019Z</time>
      </trkpt>
      <trkpt lat="43.52403" lon="5.51501">
        <ele>216.7</ele>
        <time>2025-11-05T14:11:22.019Z</time>
      </trkpt>
      <trkpt lat="43.524" lon="5.51499">
        <ele>216.3</ele>
        <time>2025-11-05T14:11:25.019Z</time>
      </trkpt>
      <trkpt lat="43.52398" lon="5.51497">
        <ele>215.9</ele>
        <time>2025-11-05T14:11:28.020Z</time>
      </trkpt>
      <trkpt lat="43.52395" lon="5.51494">
        <ele>215.5</ele>
        <time>2025-11-05T14:11:31.019Z</time>
      </trkpt>
      <trkpt lat="43.52394" lon="5.51491">
        <ele>215.1</ele>
        <time>2025-11-05T14:11:33.019Z</time>
      </trkpt>
      <trkpt lat="43.52393" lon="5.51488">
        <ele>214.8</ele>
        <time>2025-11-05T14:11:36.019Z</time>
      </trkpt>
      <trkpt lat="43.5239" lon="5.51487">
        <ele>214.6</ele>
        <time>2025-11-05T14:11:39.020Z</time>
      </trkpt>
      <trkpt lat="43.52387" lon="5.51485">
        <ele>214.2</ele>
        <time>2025-11-05T14:11:42.019Z</time>
      </trkpt>
      <trkpt lat="43.52384" lon="5.51483">
        <ele>213.8</ele>
        <time>2025-11-05T14:11:46.019Z</time>
      </trkpt>
      <trkpt lat="43.52383" lon="5.5148">
        <ele>213.5</ele>
        <time>2025-11-05T14:11:48.019Z</time>
      </trkpt>
      <trkpt lat="43.5238" lon="5.51478">
        <ele>213.1</ele>
        <time>2025-11-05T14:11:53.019Z</time>
      </trkpt>
      <trkpt lat="43.52378" lon="5.51475">
        <ele>212.8</ele>
        <time>2025-11-05T14:11:56.019Z</time>
      </trkpt>
      <trkpt lat="43.52376" lon="5.51472">
        <ele>212.5</ele>
        <time>2025-11-05T14:12:00.019Z</time>
      </trkpt>
      <trkpt lat="43.52377" lon="5.51468">
        <ele>212.2</ele>
        <time>2025-11-05T14:12:09.019Z</time>
      </trkpt>
      <trkpt lat="43.52379" lon="5.51465">
        <ele>212</ele>
        <time>2025-11-05T14:12:11.019Z</time>
      </trkpt>
      <trkpt lat="43.52381" lon="5.51463">
        <ele>212</ele>
        <time>2025-11-05T14:12:14.019Z</time>
      </trkpt>
      <trkpt lat="43.52383" lon="5.51461">
        <ele>211.9</ele>
        <time>2025-11-05T14:12:17.019Z</time>
      </trkpt>
      <trkpt lat="43.52386" lon="5.51458">
        <ele>211.8</ele>
        <time>2025-11-05T14:12:20.019Z</time>
      </trkpt>
      <trkpt lat="43.52388" lon="5.51456">
        <ele>211.8</ele>
        <time>2025-11-05T14:12:23.019Z</time>
      </trkpt>
      <trkpt lat="43.5239" lon="5.51453">
        <ele>211.6</ele>
        <time>2025-11-05T14:12:27.019Z</time>
      </trkpt>
      <trkpt lat="43.5239" lon="5.51449">
        <ele>211.3</ele>
        <time>2025-11-05T14:12:30.020Z</time>
      </trkpt>
      <trkpt lat="43.52389" lon="5.51446">
        <ele>211.1</ele>
        <time>2025-11-05T14:12:33.019Z</time>
      </trkpt>
      <trkpt lat="43.52388" lon="5.51443">
        <ele>210.7</ele>
        <time>2025-11-05T14:12:39.019Z</time>
      </trkpt>
      <trkpt lat="43.52388" lon="5.5144">
        <ele>210.2</ele>
        <time>2025-11-05T14:12:53.019Z</time>
      </trkpt>
    </trkseg>
  </trk>
</gpx>